<?xml version="1.0" encoding="UTF-8" standalone="no" ?>
<gpx xmlns="http://www.topografix.com/GPX/1/1" xmlns:xsi="http://www.w3.org/2001/XMLSchema-instance" xsi:schemaLocation="http://www.topografix.com/GPX/1/1 http://www.topografix.com/GPX/1/1/gpx.xsd" version="1.1" creator="VisuGPX - https://www.visugpx.com">
  <metadata>
    <name>NICE FALICON TOURRETTE CHAUVE</name>
    <desc><![CDATA[Au départ de la clinique des sources à Nice, sens antihoraire; des passages compliqués en montée, car très humide en cette saison, glissant à la montée difficile de passer la puissance des VAE, compensé par de belles descentes.
Joli tour d'hiver à la matinée dans cette zone Nice et proche de Nice.]]></desc>
  </metadata>
  <trk>
    <name><![CDATA[NICE FALICON TOURRETTE CHAUVE_1]]></name>
    <trkseg>
      <trkpt lat="43.74193" lon="7.27638">
        <ele>230.19999694824</ele>
        <time>2021-02-04T08:29:32.000Z</time>
      </trkpt>
      <trkpt lat="43.742" lon="7.2764">
        <ele>231.39999389648</ele>
        <time>2021-02-04T08:29:35.000Z</time>
      </trkpt>
      <trkpt lat="43.74203" lon="7.27642">
        <ele>231.60000610352</ele>
        <time>2021-02-04T08:29:36.000Z</time>
      </trkpt>
      <trkpt lat="43.74217" lon="7.27643">
        <ele>231.60000610352</ele>
        <time>2021-02-04T08:29:41.000Z</time>
      </trkpt>
      <trkpt lat="43.74225" lon="7.27638">
        <ele>231.60000610352</ele>
        <time>2021-02-04T08:29:46.000Z</time>
      </trkpt>
      <trkpt lat="43.74235" lon="7.27635">
        <ele>231.80000305176</ele>
        <time>2021-02-04T08:29:51.000Z</time>
      </trkpt>
      <trkpt lat="43.74241" lon="7.27637">
        <ele>231.39999389648</ele>
        <time>2021-02-04T08:29:53.000Z</time>
      </trkpt>
      <trkpt lat="43.74244" lon="7.2764">
        <ele>231</ele>
        <time>2021-02-04T08:29:55.000Z</time>
      </trkpt>
      <trkpt lat="43.7425" lon="7.27652">
        <ele>231.60000610352</ele>
        <time>2021-02-04T08:30:01.000Z</time>
      </trkpt>
      <trkpt lat="43.7425" lon="7.27655">
        <ele>231.60000610352</ele>
        <time>2021-02-04T08:30:03.000Z</time>
      </trkpt>
      <trkpt lat="43.7425" lon="7.27659">
        <ele>231.39999389648</ele>
        <time>2021-02-04T08:30:06.000Z</time>
      </trkpt>
      <trkpt lat="43.7425" lon="7.27664">
        <ele>231.19999694824</ele>
        <time>2021-02-04T08:30:09.000Z</time>
      </trkpt>
      <trkpt lat="43.74249" lon="7.27666">
        <ele>231.19999694824</ele>
        <time>2021-02-04T08:30:13.000Z</time>
      </trkpt>
      <trkpt lat="43.7425" lon="7.27666">
        <ele>231</ele>
        <time>2021-02-04T08:30:19.000Z</time>
      </trkpt>
      <trkpt lat="43.7425" lon="7.27671">
        <ele>231</ele>
        <time>2021-02-04T08:30:24.000Z</time>
      </trkpt>
      <trkpt lat="43.74249" lon="7.27678">
        <ele>231</ele>
        <time>2021-02-04T08:30:29.000Z</time>
      </trkpt>
      <trkpt lat="43.74249" lon="7.27683">
        <ele>230.60000610352</ele>
        <time>2021-02-04T08:30:36.000Z</time>
      </trkpt>
      <trkpt lat="43.74249" lon="7.27684">
        <ele>230.39999389648</ele>
        <time>2021-02-04T08:30:43.000Z</time>
      </trkpt>
      <trkpt lat="43.74249" lon="7.27684">
        <ele>230.19999694824</ele>
        <time>2021-02-04T08:30:44.000Z</time>
      </trkpt>
      <trkpt lat="43.7425" lon="7.27685">
        <ele>230.19999694824</ele>
        <time>2021-02-04T08:30:54.000Z</time>
      </trkpt>
      <trkpt lat="43.74251" lon="7.27687">
        <ele>229.60000610352</ele>
        <time>2021-02-04T08:31:07.000Z</time>
      </trkpt>
      <trkpt lat="43.74253" lon="7.27688">
        <ele>230</ele>
        <time>2021-02-04T08:31:28.000Z</time>
      </trkpt>
      <trkpt lat="43.74254" lon="7.2769">
        <ele>230</ele>
        <time>2021-02-04T08:31:34.000Z</time>
      </trkpt>
      <trkpt lat="43.74255" lon="7.27702">
        <ele>230</ele>
        <time>2021-02-04T08:31:38.000Z</time>
      </trkpt>
      <trkpt lat="43.74252" lon="7.27714">
        <ele>229</ele>
        <time>2021-02-04T08:31:41.000Z</time>
      </trkpt>
      <trkpt lat="43.74252" lon="7.27719">
        <ele>228.39999389648</ele>
        <time>2021-02-04T08:31:42.000Z</time>
      </trkpt>
      <trkpt lat="43.74252" lon="7.27724">
        <ele>227.80000305176</ele>
        <time>2021-02-04T08:31:43.000Z</time>
      </trkpt>
      <trkpt lat="43.74251" lon="7.2773">
        <ele>227</ele>
        <time>2021-02-04T08:31:44.000Z</time>
      </trkpt>
      <trkpt lat="43.7425" lon="7.27735">
        <ele>226.19999694824</ele>
        <time>2021-02-04T08:31:45.000Z</time>
      </trkpt>
      <trkpt lat="43.74248" lon="7.2774">
        <ele>225.39999389648</ele>
        <time>2021-02-04T08:31:46.000Z</time>
      </trkpt>
      <trkpt lat="43.74246" lon="7.27743">
        <ele>224.39999389648</ele>
        <time>2021-02-04T08:31:47.000Z</time>
      </trkpt>
      <trkpt lat="43.74247" lon="7.27747">
        <ele>222.80000305176</ele>
        <time>2021-02-04T08:31:49.000Z</time>
      </trkpt>
      <trkpt lat="43.74248" lon="7.27751">
        <ele>221.19999694824</ele>
        <time>2021-02-04T08:31:51.000Z</time>
      </trkpt>
      <trkpt lat="43.74246" lon="7.27755">
        <ele>219.80000305176</ele>
        <time>2021-02-04T08:31:54.000Z</time>
      </trkpt>
      <trkpt lat="43.74244" lon="7.27761">
        <ele>218.80000305176</ele>
        <time>2021-02-04T08:31:56.000Z</time>
      </trkpt>
      <trkpt lat="43.74244" lon="7.27768">
        <ele>217.80000305176</ele>
        <time>2021-02-04T08:31:58.000Z</time>
      </trkpt>
      <trkpt lat="43.74244" lon="7.27772">
        <ele>217</ele>
        <time>2021-02-04T08:31:59.000Z</time>
      </trkpt>
      <trkpt lat="43.74245" lon="7.27774">
        <ele>216.19999694824</ele>
        <time>2021-02-04T08:32:00.000Z</time>
      </trkpt>
      <trkpt lat="43.74245" lon="7.27781">
        <ele>215</ele>
        <time>2021-02-04T08:32:02.000Z</time>
      </trkpt>
      <trkpt lat="43.74246" lon="7.27793">
        <ele>214.39999389648</ele>
        <time>2021-02-04T08:32:04.000Z</time>
      </trkpt>
      <trkpt lat="43.74247" lon="7.27801">
        <ele>213.60000610352</ele>
        <time>2021-02-04T08:32:05.000Z</time>
      </trkpt>
      <trkpt lat="43.74249" lon="7.27809">
        <ele>212.60000610352</ele>
        <time>2021-02-04T08:32:06.000Z</time>
      </trkpt>
      <trkpt lat="43.74251" lon="7.27815">
        <ele>211.19999694824</ele>
        <time>2021-02-04T08:32:07.000Z</time>
      </trkpt>
      <trkpt lat="43.74252" lon="7.27819">
        <ele>209.80000305176</ele>
        <time>2021-02-04T08:32:08.000Z</time>
      </trkpt>
      <trkpt lat="43.74253" lon="7.27824">
        <ele>208.80000305176</ele>
        <time>2021-02-04T08:32:09.000Z</time>
      </trkpt>
      <trkpt lat="43.74253" lon="7.27836">
        <ele>207.60000610352</ele>
        <time>2021-02-04T08:32:11.000Z</time>
      </trkpt>
      <trkpt lat="43.74254" lon="7.27839">
        <ele>206.80000305176</ele>
        <time>2021-02-04T08:32:12.000Z</time>
      </trkpt>
      <trkpt lat="43.74257" lon="7.27845">
        <ele>205.60000610352</ele>
        <time>2021-02-04T08:32:13.000Z</time>
      </trkpt>
      <trkpt lat="43.74262" lon="7.27867">
        <ele>203.39999389648</ele>
        <time>2021-02-04T08:32:15.000Z</time>
      </trkpt>
      <trkpt lat="43.74265" lon="7.27876">
        <ele>202</ele>
        <time>2021-02-04T08:32:16.000Z</time>
      </trkpt>
      <trkpt lat="43.74268" lon="7.27883">
        <ele>200.60000610352</ele>
        <time>2021-02-04T08:32:17.000Z</time>
      </trkpt>
      <trkpt lat="43.74271" lon="7.27888">
        <ele>198.80000305176</ele>
        <time>2021-02-04T08:32:18.000Z</time>
      </trkpt>
      <trkpt lat="43.74275" lon="7.27893">
        <ele>197.19999694824</ele>
        <time>2021-02-04T08:32:19.000Z</time>
      </trkpt>
      <trkpt lat="43.74278" lon="7.27895">
        <ele>195.60000610352</ele>
        <time>2021-02-04T08:32:20.000Z</time>
      </trkpt>
      <trkpt lat="43.7428" lon="7.27898">
        <ele>194.39999389648</ele>
        <time>2021-02-04T08:32:21.000Z</time>
      </trkpt>
      <trkpt lat="43.74281" lon="7.27901">
        <ele>193</ele>
        <time>2021-02-04T08:32:22.000Z</time>
      </trkpt>
      <trkpt lat="43.74281" lon="7.2791">
        <ele>191.19999694824</ele>
        <time>2021-02-04T08:32:24.000Z</time>
      </trkpt>
      <trkpt lat="43.74284" lon="7.27922">
        <ele>190.19999694824</ele>
        <time>2021-02-04T08:32:26.000Z</time>
      </trkpt>
      <trkpt lat="43.74285" lon="7.27936">
        <ele>189.60000610352</ele>
        <time>2021-02-04T08:32:28.000Z</time>
      </trkpt>
      <trkpt lat="43.74287" lon="7.27941">
        <ele>189.19999694824</ele>
        <time>2021-02-04T08:32:29.000Z</time>
      </trkpt>
      <trkpt lat="43.74293" lon="7.27946">
        <ele>187.60000610352</ele>
        <time>2021-02-04T08:32:31.000Z</time>
      </trkpt>
      <trkpt lat="43.74299" lon="7.27947">
        <ele>186.80000305176</ele>
        <time>2021-02-04T08:32:33.000Z</time>
      </trkpt>
      <trkpt lat="43.74303" lon="7.27946">
        <ele>185.80000305176</ele>
        <time>2021-02-04T08:32:34.000Z</time>
      </trkpt>
      <trkpt lat="43.74306" lon="7.27944">
        <ele>185</ele>
        <time>2021-02-04T08:32:35.000Z</time>
      </trkpt>
      <trkpt lat="43.74308" lon="7.27941">
        <ele>183.80000305176</ele>
        <time>2021-02-04T08:32:36.000Z</time>
      </trkpt>
      <trkpt lat="43.74308" lon="7.27941">
        <ele>182.60000610352</ele>
        <time>2021-02-04T08:32:37.000Z</time>
      </trkpt>
      <trkpt lat="43.7431" lon="7.27941">
        <ele>181.60000610352</ele>
        <time>2021-02-04T08:32:38.000Z</time>
      </trkpt>
      <trkpt lat="43.74312" lon="7.27943">
        <ele>181</ele>
        <time>2021-02-04T08:32:39.000Z</time>
      </trkpt>
      <trkpt lat="43.74316" lon="7.27946">
        <ele>179.80000305176</ele>
        <time>2021-02-04T08:32:41.000Z</time>
      </trkpt>
      <trkpt lat="43.74322" lon="7.2795">
        <ele>178.60000610352</ele>
        <time>2021-02-04T08:32:43.000Z</time>
      </trkpt>
      <trkpt lat="43.74323" lon="7.27951">
        <ele>177.60000610352</ele>
        <time>2021-02-04T08:32:44.000Z</time>
      </trkpt>
      <trkpt lat="43.74325" lon="7.27953">
        <ele>176.60000610352</ele>
        <time>2021-02-04T08:32:45.000Z</time>
      </trkpt>
      <trkpt lat="43.74328" lon="7.27955">
        <ele>174.39999389648</ele>
        <time>2021-02-04T08:32:47.000Z</time>
      </trkpt>
      <trkpt lat="43.74328" lon="7.27955">
        <ele>173.39999389648</ele>
        <time>2021-02-04T08:32:48.000Z</time>
      </trkpt>
      <trkpt lat="43.7433" lon="7.27954">
        <ele>171.80000305176</ele>
        <time>2021-02-04T08:32:49.000Z</time>
      </trkpt>
      <trkpt lat="43.74334" lon="7.27952">
        <ele>170.19999694824</ele>
        <time>2021-02-04T08:32:51.000Z</time>
      </trkpt>
      <trkpt lat="43.74337" lon="7.27948">
        <ele>169</ele>
        <time>2021-02-04T08:32:54.000Z</time>
      </trkpt>
      <trkpt lat="43.74338" lon="7.27947">
        <ele>169</ele>
        <time>2021-02-04T08:32:55.000Z</time>
      </trkpt>
      <trkpt lat="43.74338" lon="7.27947">
        <ele>168.39999389648</ele>
        <time>2021-02-04T08:32:57.000Z</time>
      </trkpt>
      <trkpt lat="43.7434" lon="7.27946">
        <ele>168.19999694824</ele>
        <time>2021-02-04T08:33:03.000Z</time>
      </trkpt>
      <trkpt lat="43.74343" lon="7.27941">
        <ele>168</ele>
        <time>2021-02-04T08:33:06.000Z</time>
      </trkpt>
      <trkpt lat="43.74344" lon="7.27938">
        <ele>168</ele>
        <time>2021-02-04T08:33:07.000Z</time>
      </trkpt>
      <trkpt lat="43.74349" lon="7.27931">
        <ele>168</ele>
        <time>2021-02-04T08:33:11.000Z</time>
      </trkpt>
      <trkpt lat="43.74356" lon="7.27922">
        <ele>167.60000610352</ele>
        <time>2021-02-04T08:33:15.000Z</time>
      </trkpt>
      <trkpt lat="43.74359" lon="7.27914">
        <ele>167.19999694824</ele>
        <time>2021-02-04T08:33:19.000Z</time>
      </trkpt>
      <trkpt lat="43.74364" lon="7.27909">
        <ele>167.60000610352</ele>
        <time>2021-02-04T08:33:24.000Z</time>
      </trkpt>
      <trkpt lat="43.74366" lon="7.27907">
        <ele>167.60000610352</ele>
        <time>2021-02-04T08:33:26.000Z</time>
      </trkpt>
      <trkpt lat="43.74369" lon="7.27902">
        <ele>166.80000305176</ele>
        <time>2021-02-04T08:33:29.000Z</time>
      </trkpt>
      <trkpt lat="43.7437" lon="7.27901">
        <ele>166.80000305176</ele>
        <time>2021-02-04T08:33:35.000Z</time>
      </trkpt>
      <trkpt lat="43.7437" lon="7.27899">
        <ele>167</ele>
        <time>2021-02-04T08:33:42.000Z</time>
      </trkpt>
      <trkpt lat="43.74371" lon="7.27897">
        <ele>166.60000610352</ele>
        <time>2021-02-04T08:33:52.000Z</time>
      </trkpt>
      <trkpt lat="43.74371" lon="7.27895">
        <ele>166.60000610352</ele>
        <time>2021-02-04T08:34:03.000Z</time>
      </trkpt>
      <trkpt lat="43.74371" lon="7.27892">
        <ele>166.39999389648</ele>
        <time>2021-02-04T08:34:16.000Z</time>
      </trkpt>
      <trkpt lat="43.74371" lon="7.2789">
        <ele>166.39999389648</ele>
        <time>2021-02-04T08:34:17.000Z</time>
      </trkpt>
      <trkpt lat="43.74372" lon="7.2789">
        <ele>166.60000610352</ele>
        <time>2021-02-04T08:34:23.000Z</time>
      </trkpt>
      <trkpt lat="43.74373" lon="7.27888">
        <ele>166.60000610352</ele>
        <time>2021-02-04T08:34:36.000Z</time>
      </trkpt>
      <trkpt lat="43.74376" lon="7.27884">
        <ele>166.60000610352</ele>
        <time>2021-02-04T08:34:43.000Z</time>
      </trkpt>
      <trkpt lat="43.74377" lon="7.27882">
        <ele>166.39999389648</ele>
        <time>2021-02-04T08:34:44.000Z</time>
      </trkpt>
      <trkpt lat="43.74378" lon="7.27879">
        <ele>166</ele>
        <time>2021-02-04T08:34:47.000Z</time>
      </trkpt>
      <trkpt lat="43.74379" lon="7.27879">
        <ele>167.39999389648</ele>
        <time>2021-02-04T08:34:54.000Z</time>
      </trkpt>
      <trkpt lat="43.7438" lon="7.27879">
        <ele>168</ele>
        <time>2021-02-04T08:34:59.000Z</time>
      </trkpt>
      <trkpt lat="43.74381" lon="7.27879">
        <ele>168.39999389648</ele>
        <time>2021-02-04T08:35:02.000Z</time>
      </trkpt>
      <trkpt lat="43.74381" lon="7.27879">
        <ele>168.80000305176</ele>
        <time>2021-02-04T08:35:09.000Z</time>
      </trkpt>
      <trkpt lat="43.7438" lon="7.27879">
        <ele>168.60000610352</ele>
        <time>2021-02-04T08:35:21.000Z</time>
      </trkpt>
      <trkpt lat="43.7438" lon="7.27878">
        <ele>168.39999389648</ele>
        <time>2021-02-04T08:35:31.000Z</time>
      </trkpt>
      <trkpt lat="43.74382" lon="7.27876">
        <ele>168.80000305176</ele>
        <time>2021-02-04T08:35:34.000Z</time>
      </trkpt>
      <trkpt lat="43.74383" lon="7.27876">
        <ele>169.19999694824</ele>
        <time>2021-02-04T08:35:36.000Z</time>
      </trkpt>
      <trkpt lat="43.74384" lon="7.27876">
        <ele>169.60000610352</ele>
        <time>2021-02-04T08:35:38.000Z</time>
      </trkpt>
      <trkpt lat="43.74386" lon="7.27876">
        <ele>170.39999389648</ele>
        <time>2021-02-04T08:35:41.000Z</time>
      </trkpt>
      <trkpt lat="43.74389" lon="7.27874">
        <ele>171.39999389648</ele>
        <time>2021-02-04T08:35:46.000Z</time>
      </trkpt>
      <trkpt lat="43.7439" lon="7.27873">
        <ele>172.60000610352</ele>
        <time>2021-02-04T08:35:50.000Z</time>
      </trkpt>
      <trkpt lat="43.7439" lon="7.27873">
        <ele>173.39999389648</ele>
        <time>2021-02-04T08:35:54.000Z</time>
      </trkpt>
      <trkpt lat="43.7439" lon="7.27871">
        <ele>173.60000610352</ele>
        <time>2021-02-04T08:36:04.000Z</time>
      </trkpt>
      <trkpt lat="43.7439" lon="7.27871">
        <ele>173.60000610352</ele>
        <time>2021-02-04T08:36:05.000Z</time>
      </trkpt>
      <trkpt lat="43.7439" lon="7.27871">
        <ele>173.80000305176</ele>
        <time>2021-02-04T08:36:11.000Z</time>
      </trkpt>
      <trkpt lat="43.7439" lon="7.27869">
        <ele>173.60000610352</ele>
        <time>2021-02-04T08:36:19.000Z</time>
      </trkpt>
      <trkpt lat="43.7439" lon="7.27867">
        <ele>174.39999389648</ele>
        <time>2021-02-04T08:36:24.000Z</time>
      </trkpt>
      <trkpt lat="43.7439" lon="7.27866">
        <ele>174.80000305176</ele>
        <time>2021-02-04T08:36:26.000Z</time>
      </trkpt>
      <trkpt lat="43.7439" lon="7.27865">
        <ele>175.39999389648</ele>
        <time>2021-02-04T08:36:32.000Z</time>
      </trkpt>
      <trkpt lat="43.7439" lon="7.27865">
        <ele>175.39999389648</ele>
        <time>2021-02-04T08:36:41.000Z</time>
      </trkpt>
      <trkpt lat="43.74392" lon="7.27864">
        <ele>175.39999389648</ele>
        <time>2021-02-04T08:36:51.000Z</time>
      </trkpt>
      <trkpt lat="43.74393" lon="7.27864">
        <ele>175.60000610352</ele>
        <time>2021-02-04T08:36:57.000Z</time>
      </trkpt>
      <trkpt lat="43.74393" lon="7.27864">
        <ele>176</ele>
        <time>2021-02-04T08:36:59.000Z</time>
      </trkpt>
      <trkpt lat="43.74394" lon="7.27863">
        <ele>176.19999694824</ele>
        <time>2021-02-04T08:37:05.000Z</time>
      </trkpt>
      <trkpt lat="43.74397" lon="7.27863">
        <ele>176.80000305176</ele>
        <time>2021-02-04T08:37:12.000Z</time>
      </trkpt>
      <trkpt lat="43.74399" lon="7.27863">
        <ele>177</ele>
        <time>2021-02-04T08:37:15.000Z</time>
      </trkpt>
      <trkpt lat="43.74399" lon="7.27863">
        <ele>177</ele>
        <time>2021-02-04T08:37:19.000Z</time>
      </trkpt>
      <trkpt lat="43.74404" lon="7.27865">
        <ele>177</ele>
        <time>2021-02-04T08:37:24.000Z</time>
      </trkpt>
      <trkpt lat="43.74409" lon="7.27867">
        <ele>177.39999389648</ele>
        <time>2021-02-04T08:37:28.000Z</time>
      </trkpt>
      <trkpt lat="43.74414" lon="7.27869">
        <ele>177.60000610352</ele>
        <time>2021-02-04T08:37:31.000Z</time>
      </trkpt>
      <trkpt lat="43.74418" lon="7.27869">
        <ele>177.60000610352</ele>
        <time>2021-02-04T08:37:33.000Z</time>
      </trkpt>
      <trkpt lat="43.74423" lon="7.27871">
        <ele>177.60000610352</ele>
        <time>2021-02-04T08:37:35.000Z</time>
      </trkpt>
      <trkpt lat="43.74425" lon="7.27873">
        <ele>177.80000305176</ele>
        <time>2021-02-04T08:37:36.000Z</time>
      </trkpt>
      <trkpt lat="43.74426" lon="7.27875">
        <ele>178</ele>
        <time>2021-02-04T08:37:37.000Z</time>
      </trkpt>
      <trkpt lat="43.74429" lon="7.27877">
        <ele>178</ele>
        <time>2021-02-04T08:37:41.000Z</time>
      </trkpt>
      <trkpt lat="43.74432" lon="7.27882">
        <ele>178</ele>
        <time>2021-02-04T08:37:48.000Z</time>
      </trkpt>
      <trkpt lat="43.74433" lon="7.27886">
        <ele>177.39999389648</ele>
        <time>2021-02-04T08:37:53.000Z</time>
      </trkpt>
      <trkpt lat="43.74434" lon="7.27886">
        <ele>177.19999694824</ele>
        <time>2021-02-04T08:37:54.000Z</time>
      </trkpt>
      <trkpt lat="43.74436" lon="7.27886">
        <ele>177</ele>
        <time>2021-02-04T08:37:55.000Z</time>
      </trkpt>
      <trkpt lat="43.74437" lon="7.27887">
        <ele>176.80000305176</ele>
        <time>2021-02-04T08:37:56.000Z</time>
      </trkpt>
      <trkpt lat="43.74438" lon="7.27888">
        <ele>176.39999389648</ele>
        <time>2021-02-04T08:37:57.000Z</time>
      </trkpt>
      <trkpt lat="43.74439" lon="7.27891">
        <ele>175.80000305176</ele>
        <time>2021-02-04T08:37:59.000Z</time>
      </trkpt>
      <trkpt lat="43.74439" lon="7.27893">
        <ele>175.39999389648</ele>
        <time>2021-02-04T08:38:00.000Z</time>
      </trkpt>
      <trkpt lat="43.74438" lon="7.27898">
        <ele>174.60000610352</ele>
        <time>2021-02-04T08:38:02.000Z</time>
      </trkpt>
      <trkpt lat="43.74437" lon="7.27898">
        <ele>174.19999694824</ele>
        <time>2021-02-04T08:38:03.000Z</time>
      </trkpt>
      <trkpt lat="43.74436" lon="7.27896">
        <ele>173.60000610352</ele>
        <time>2021-02-04T08:38:05.000Z</time>
      </trkpt>
      <trkpt lat="43.74434" lon="7.27894">
        <ele>173.39999389648</ele>
        <time>2021-02-04T08:38:07.000Z</time>
      </trkpt>
      <trkpt lat="43.74429" lon="7.27896">
        <ele>173.39999389648</ele>
        <time>2021-02-04T08:38:11.000Z</time>
      </trkpt>
      <trkpt lat="43.74428" lon="7.27903">
        <ele>172.80000305176</ele>
        <time>2021-02-04T08:38:13.000Z</time>
      </trkpt>
      <trkpt lat="43.74427" lon="7.27908">
        <ele>172.39999389648</ele>
        <time>2021-02-04T08:38:14.000Z</time>
      </trkpt>
      <trkpt lat="43.74426" lon="7.27917">
        <ele>171</ele>
        <time>2021-02-04T08:38:16.000Z</time>
      </trkpt>
      <trkpt lat="43.74424" lon="7.27926">
        <ele>169.19999694824</ele>
        <time>2021-02-04T08:38:18.000Z</time>
      </trkpt>
      <trkpt lat="43.74424" lon="7.27933">
        <ele>168</ele>
        <time>2021-02-04T08:38:20.000Z</time>
      </trkpt>
      <trkpt lat="43.74425" lon="7.27936">
        <ele>167.39999389648</ele>
        <time>2021-02-04T08:38:21.000Z</time>
      </trkpt>
      <trkpt lat="43.74425" lon="7.27939">
        <ele>166.80000305176</ele>
        <time>2021-02-04T08:38:22.000Z</time>
      </trkpt>
      <trkpt lat="43.74425" lon="7.27946">
        <ele>165.60000610352</ele>
        <time>2021-02-04T08:38:24.000Z</time>
      </trkpt>
      <trkpt lat="43.74425" lon="7.27951">
        <ele>164.80000305176</ele>
        <time>2021-02-04T08:38:26.000Z</time>
      </trkpt>
      <trkpt lat="43.74425" lon="7.27954">
        <ele>164.19999694824</ele>
        <time>2021-02-04T08:38:27.000Z</time>
      </trkpt>
      <trkpt lat="43.74428" lon="7.27961">
        <ele>162.80000305176</ele>
        <time>2021-02-04T08:38:30.000Z</time>
      </trkpt>
      <trkpt lat="43.74431" lon="7.27972">
        <ele>161.80000305176</ele>
        <time>2021-02-04T08:38:34.000Z</time>
      </trkpt>
      <trkpt lat="43.74431" lon="7.27973">
        <ele>161.60000610352</ele>
        <time>2021-02-04T08:38:35.000Z</time>
      </trkpt>
      <trkpt lat="43.74431" lon="7.27982">
        <ele>160.39999389648</ele>
        <time>2021-02-04T08:38:38.000Z</time>
      </trkpt>
      <trkpt lat="43.74432" lon="7.27984">
        <ele>159.60000610352</ele>
        <time>2021-02-04T08:38:39.000Z</time>
      </trkpt>
      <trkpt lat="43.74433" lon="7.27985">
        <ele>159</ele>
        <time>2021-02-04T08:38:40.000Z</time>
      </trkpt>
      <trkpt lat="43.74435" lon="7.27987">
        <ele>158.19999694824</ele>
        <time>2021-02-04T08:38:41.000Z</time>
      </trkpt>
      <trkpt lat="43.74437" lon="7.27989">
        <ele>157.80000305176</ele>
        <time>2021-02-04T08:38:42.000Z</time>
      </trkpt>
      <trkpt lat="43.74437" lon="7.27988">
        <ele>157.19999694824</ele>
        <time>2021-02-04T08:38:43.000Z</time>
      </trkpt>
      <trkpt lat="43.74439" lon="7.2799">
        <ele>156.60000610352</ele>
        <time>2021-02-04T08:38:44.000Z</time>
      </trkpt>
      <trkpt lat="43.74441" lon="7.27992">
        <ele>155.19999694824</ele>
        <time>2021-02-04T08:38:46.000Z</time>
      </trkpt>
      <trkpt lat="43.74441" lon="7.27994">
        <ele>154.39999389648</ele>
        <time>2021-02-04T08:38:47.000Z</time>
      </trkpt>
      <trkpt lat="43.74441" lon="7.27996">
        <ele>153.80000305176</ele>
        <time>2021-02-04T08:38:48.000Z</time>
      </trkpt>
      <trkpt lat="43.74441" lon="7.28001">
        <ele>152.19999694824</ele>
        <time>2021-02-04T08:38:51.000Z</time>
      </trkpt>
      <trkpt lat="43.74443" lon="7.28003">
        <ele>151.19999694824</ele>
        <time>2021-02-04T08:38:53.000Z</time>
      </trkpt>
      <trkpt lat="43.74445" lon="7.28004">
        <ele>150</ele>
        <time>2021-02-04T08:38:55.000Z</time>
      </trkpt>
      <trkpt lat="43.74445" lon="7.28006">
        <ele>149</ele>
        <time>2021-02-04T08:38:57.000Z</time>
      </trkpt>
      <trkpt lat="43.74445" lon="7.28007">
        <ele>148.19999694824</ele>
        <time>2021-02-04T08:38:59.000Z</time>
      </trkpt>
      <trkpt lat="43.74446" lon="7.28009">
        <ele>148</ele>
        <time>2021-02-04T08:39:01.000Z</time>
      </trkpt>
      <trkpt lat="43.74446" lon="7.2801">
        <ele>148</ele>
        <time>2021-02-04T08:39:02.000Z</time>
      </trkpt>
      <trkpt lat="43.74446" lon="7.28016">
        <ele>147.39999389648</ele>
        <time>2021-02-04T08:39:07.000Z</time>
      </trkpt>
      <trkpt lat="43.74448" lon="7.28022">
        <ele>146.80000305176</ele>
        <time>2021-02-04T08:39:10.000Z</time>
      </trkpt>
      <trkpt lat="43.74449" lon="7.28023">
        <ele>146.19999694824</ele>
        <time>2021-02-04T08:39:11.000Z</time>
      </trkpt>
      <trkpt lat="43.7445" lon="7.28025">
        <ele>145.60000610352</ele>
        <time>2021-02-04T08:39:12.000Z</time>
      </trkpt>
      <trkpt lat="43.74452" lon="7.28027">
        <ele>144.39999389648</ele>
        <time>2021-02-04T08:39:14.000Z</time>
      </trkpt>
      <trkpt lat="43.74453" lon="7.28028">
        <ele>143.19999694824</ele>
        <time>2021-02-04T08:39:16.000Z</time>
      </trkpt>
      <trkpt lat="43.74454" lon="7.28029">
        <ele>142.39999389648</ele>
        <time>2021-02-04T08:39:17.000Z</time>
      </trkpt>
      <trkpt lat="43.74454" lon="7.28029">
        <ele>141.80000305176</ele>
        <time>2021-02-04T08:39:18.000Z</time>
      </trkpt>
      <trkpt lat="43.74454" lon="7.2803">
        <ele>141</ele>
        <time>2021-02-04T08:39:27.000Z</time>
      </trkpt>
      <trkpt lat="43.74454" lon="7.28031">
        <ele>140.80000305176</ele>
        <time>2021-02-04T08:39:29.000Z</time>
      </trkpt>
      <trkpt lat="43.74454" lon="7.28034">
        <ele>139.80000305176</ele>
        <time>2021-02-04T08:39:34.000Z</time>
      </trkpt>
      <trkpt lat="43.74454" lon="7.28034">
        <ele>139.80000305176</ele>
        <time>2021-02-04T08:39:35.000Z</time>
      </trkpt>
      <trkpt lat="43.74454" lon="7.28035">
        <ele>139.19999694824</ele>
        <time>2021-02-04T08:39:40.000Z</time>
      </trkpt>
      <trkpt lat="43.74454" lon="7.28034">
        <ele>138.80000305176</ele>
        <time>2021-02-04T08:39:46.000Z</time>
      </trkpt>
      <trkpt lat="43.74455" lon="7.28034">
        <ele>139.19999694824</ele>
        <time>2021-02-04T08:39:54.000Z</time>
      </trkpt>
      <trkpt lat="43.74457" lon="7.28035">
        <ele>139.19999694824</ele>
        <time>2021-02-04T08:39:59.000Z</time>
      </trkpt>
      <trkpt lat="43.74457" lon="7.28035">
        <ele>139</ele>
        <time>2021-02-04T08:40:05.000Z</time>
      </trkpt>
      <trkpt lat="43.74458" lon="7.28035">
        <ele>138.60000610352</ele>
        <time>2021-02-04T08:40:08.000Z</time>
      </trkpt>
      <trkpt lat="43.74456" lon="7.28034">
        <ele>137.60000610352</ele>
        <time>2021-02-04T08:40:14.000Z</time>
      </trkpt>
      <trkpt lat="43.74456" lon="7.28034">
        <ele>137.60000610352</ele>
        <time>2021-02-04T08:40:16.000Z</time>
      </trkpt>
      <trkpt lat="43.74456" lon="7.28034">
        <ele>137.39999389648</ele>
        <time>2021-02-04T08:40:21.000Z</time>
      </trkpt>
      <trkpt lat="43.74456" lon="7.28034">
        <ele>138.39999389648</ele>
        <time>2021-02-04T08:40:26.000Z</time>
      </trkpt>
      <trkpt lat="43.74457" lon="7.28039">
        <ele>138</ele>
        <time>2021-02-04T08:40:34.000Z</time>
      </trkpt>
      <trkpt lat="43.74457" lon="7.28041">
        <ele>138</ele>
        <time>2021-02-04T08:40:35.000Z</time>
      </trkpt>
      <trkpt lat="43.74456" lon="7.28053">
        <ele>136.39999389648</ele>
        <time>2021-02-04T08:40:39.000Z</time>
      </trkpt>
      <trkpt lat="43.74457" lon="7.28054">
        <ele>134.39999389648</ele>
        <time>2021-02-04T08:40:41.000Z</time>
      </trkpt>
      <trkpt lat="43.74458" lon="7.28057">
        <ele>132.60000610352</ele>
        <time>2021-02-04T08:40:43.000Z</time>
      </trkpt>
      <trkpt lat="43.74459" lon="7.28059">
        <ele>132</ele>
        <time>2021-02-04T08:40:44.000Z</time>
      </trkpt>
      <trkpt lat="43.74459" lon="7.28058">
        <ele>131.39999389648</ele>
        <time>2021-02-04T08:40:45.000Z</time>
      </trkpt>
      <trkpt lat="43.7446" lon="7.28058">
        <ele>130</ele>
        <time>2021-02-04T08:40:47.000Z</time>
      </trkpt>
      <trkpt lat="43.7446" lon="7.28058">
        <ele>128.80000305176</ele>
        <time>2021-02-04T08:40:49.000Z</time>
      </trkpt>
      <trkpt lat="43.7446" lon="7.28058">
        <ele>129</ele>
        <time>2021-02-04T08:40:53.000Z</time>
      </trkpt>
      <trkpt lat="43.7446" lon="7.28062">
        <ele>128.80000305176</ele>
        <time>2021-02-04T08:40:59.000Z</time>
      </trkpt>
      <trkpt lat="43.7446" lon="7.28066">
        <ele>128.60000610352</ele>
        <time>2021-02-04T08:41:02.000Z</time>
      </trkpt>
      <trkpt lat="43.7446" lon="7.2807">
        <ele>128.19999694824</ele>
        <time>2021-02-04T08:41:04.000Z</time>
      </trkpt>
      <trkpt lat="43.7446" lon="7.28072">
        <ele>127.80000305176</ele>
        <time>2021-02-04T08:41:05.000Z</time>
      </trkpt>
      <trkpt lat="43.7446" lon="7.28074">
        <ele>127.59999847412</ele>
        <time>2021-02-04T08:41:06.000Z</time>
      </trkpt>
      <trkpt lat="43.74458" lon="7.28077">
        <ele>126.40000152588</ele>
        <time>2021-02-04T08:41:08.000Z</time>
      </trkpt>
      <trkpt lat="43.74456" lon="7.28077">
        <ele>125</ele>
        <time>2021-02-04T08:41:11.000Z</time>
      </trkpt>
      <trkpt lat="43.74456" lon="7.28076">
        <ele>124.80000305176</ele>
        <time>2021-02-04T08:41:12.000Z</time>
      </trkpt>
      <trkpt lat="43.74456" lon="7.28075">
        <ele>124.80000305176</ele>
        <time>2021-02-04T08:41:27.000Z</time>
      </trkpt>
      <trkpt lat="43.74455" lon="7.28076">
        <ele>124.80000305176</ele>
        <time>2021-02-04T08:41:31.000Z</time>
      </trkpt>
      <trkpt lat="43.74453" lon="7.28077">
        <ele>124.80000305176</ele>
        <time>2021-02-04T08:41:33.000Z</time>
      </trkpt>
      <trkpt lat="43.74452" lon="7.28078">
        <ele>124.40000152588</ele>
        <time>2021-02-04T08:41:35.000Z</time>
      </trkpt>
      <trkpt lat="43.74451" lon="7.2808">
        <ele>124</ele>
        <time>2021-02-04T08:41:38.000Z</time>
      </trkpt>
      <trkpt lat="43.74451" lon="7.2808">
        <ele>123.59999847412</ele>
        <time>2021-02-04T08:41:39.000Z</time>
      </trkpt>
      <trkpt lat="43.7445" lon="7.28082">
        <ele>123.19999694824</ele>
        <time>2021-02-04T08:41:55.000Z</time>
      </trkpt>
      <trkpt lat="43.74446" lon="7.28087">
        <ele>123</ele>
        <time>2021-02-04T08:42:08.000Z</time>
      </trkpt>
      <trkpt lat="43.74444" lon="7.28089">
        <ele>122.80000305176</ele>
        <time>2021-02-04T08:42:10.000Z</time>
      </trkpt>
      <trkpt lat="43.7444" lon="7.28093">
        <ele>121.40000152588</ele>
        <time>2021-02-04T08:42:13.000Z</time>
      </trkpt>
      <trkpt lat="43.74438" lon="7.28094">
        <ele>120.80000305176</ele>
        <time>2021-02-04T08:42:14.000Z</time>
      </trkpt>
      <trkpt lat="43.74438" lon="7.28094">
        <ele>120.19999694824</ele>
        <time>2021-02-04T08:42:15.000Z</time>
      </trkpt>
      <trkpt lat="43.74437" lon="7.28095">
        <ele>119.19999694824</ele>
        <time>2021-02-04T08:42:17.000Z</time>
      </trkpt>
      <trkpt lat="43.74435" lon="7.28096">
        <ele>117.80000305176</ele>
        <time>2021-02-04T08:42:19.000Z</time>
      </trkpt>
      <trkpt lat="43.74433" lon="7.28098">
        <ele>117.19999694824</ele>
        <time>2021-02-04T08:42:21.000Z</time>
      </trkpt>
      <trkpt lat="43.74431" lon="7.28099">
        <ele>116.80000305176</ele>
        <time>2021-02-04T08:42:22.000Z</time>
      </trkpt>
      <trkpt lat="43.7443" lon="7.28098">
        <ele>116.19999694824</ele>
        <time>2021-02-04T08:42:23.000Z</time>
      </trkpt>
      <trkpt lat="43.74429" lon="7.28098">
        <ele>115.19999694824</ele>
        <time>2021-02-04T08:42:25.000Z</time>
      </trkpt>
      <trkpt lat="43.74429" lon="7.28098">
        <ele>113.80000305176</ele>
        <time>2021-02-04T08:42:27.000Z</time>
      </trkpt>
      <trkpt lat="43.74428" lon="7.28099">
        <ele>113.19999694824</ele>
        <time>2021-02-04T08:42:31.000Z</time>
      </trkpt>
      <trkpt lat="43.74427" lon="7.28102">
        <ele>112.80000305176</ele>
        <time>2021-02-04T08:42:33.000Z</time>
      </trkpt>
      <trkpt lat="43.74426" lon="7.28103">
        <ele>112.40000152588</ele>
        <time>2021-02-04T08:42:34.000Z</time>
      </trkpt>
      <trkpt lat="43.74425" lon="7.28104">
        <ele>112.40000152588</ele>
        <time>2021-02-04T08:42:35.000Z</time>
      </trkpt>
      <trkpt lat="43.74423" lon="7.28107">
        <ele>111.40000152588</ele>
        <time>2021-02-04T08:42:37.000Z</time>
      </trkpt>
      <trkpt lat="43.74421" lon="7.28112">
        <ele>109.80000305176</ele>
        <time>2021-02-04T08:42:39.000Z</time>
      </trkpt>
      <trkpt lat="43.74419" lon="7.28115">
        <ele>108</ele>
        <time>2021-02-04T08:42:41.000Z</time>
      </trkpt>
      <trkpt lat="43.74417" lon="7.28117">
        <ele>106.40000152588</ele>
        <time>2021-02-04T08:42:43.000Z</time>
      </trkpt>
      <trkpt lat="43.74416" lon="7.2812">
        <ele>105</ele>
        <time>2021-02-04T08:42:45.000Z</time>
      </trkpt>
      <trkpt lat="43.74414" lon="7.28127">
        <ele>103.59999847412</ele>
        <time>2021-02-04T08:42:47.000Z</time>
      </trkpt>
      <trkpt lat="43.74412" lon="7.28134">
        <ele>101.80000305176</ele>
        <time>2021-02-04T08:42:49.000Z</time>
      </trkpt>
      <trkpt lat="43.74412" lon="7.28137">
        <ele>100.40000152588</ele>
        <time>2021-02-04T08:42:50.000Z</time>
      </trkpt>
      <trkpt lat="43.74412" lon="7.2814">
        <ele>99.199996948242</ele>
        <time>2021-02-04T08:42:51.000Z</time>
      </trkpt>
      <trkpt lat="43.74412" lon="7.28143">
        <ele>97.599998474121</ele>
        <time>2021-02-04T08:42:52.000Z</time>
      </trkpt>
      <trkpt lat="43.74413" lon="7.28146">
        <ele>96.400001525879</ele>
        <time>2021-02-04T08:42:53.000Z</time>
      </trkpt>
      <trkpt lat="43.74413" lon="7.28148">
        <ele>95.400001525879</ele>
        <time>2021-02-04T08:42:54.000Z</time>
      </trkpt>
      <trkpt lat="43.74414" lon="7.28149">
        <ele>94.400001525879</ele>
        <time>2021-02-04T08:42:55.000Z</time>
      </trkpt>
      <trkpt lat="43.74415" lon="7.28152">
        <ele>93.800003051758</ele>
        <time>2021-02-04T08:42:56.000Z</time>
      </trkpt>
      <trkpt lat="43.74415" lon="7.28154">
        <ele>93</ele>
        <time>2021-02-04T08:42:57.000Z</time>
      </trkpt>
      <trkpt lat="43.74415" lon="7.28157">
        <ele>91.599998474121</ele>
        <time>2021-02-04T08:42:59.000Z</time>
      </trkpt>
      <trkpt lat="43.74415" lon="7.28159">
        <ele>91</ele>
        <time>2021-02-04T08:43:00.000Z</time>
      </trkpt>
      <trkpt lat="43.74415" lon="7.28161">
        <ele>90.400001525879</ele>
        <time>2021-02-04T08:43:01.000Z</time>
      </trkpt>
      <trkpt lat="43.74416" lon="7.28162">
        <ele>89.199996948242</ele>
        <time>2021-02-04T08:43:04.000Z</time>
      </trkpt>
      <trkpt lat="43.74416" lon="7.28162">
        <ele>89</ele>
        <time>2021-02-04T08:43:05.000Z</time>
      </trkpt>
      <trkpt lat="43.74417" lon="7.28163">
        <ele>89</ele>
        <time>2021-02-04T08:43:07.000Z</time>
      </trkpt>
      <trkpt lat="43.74417" lon="7.28166">
        <ele>89</ele>
        <time>2021-02-04T08:43:09.000Z</time>
      </trkpt>
      <trkpt lat="43.74416" lon="7.28168">
        <ele>89</ele>
        <time>2021-02-04T08:43:10.000Z</time>
      </trkpt>
      <trkpt lat="43.74416" lon="7.28182">
        <ele>88</ele>
        <time>2021-02-04T08:43:14.000Z</time>
      </trkpt>
      <trkpt lat="43.74416" lon="7.28185">
        <ele>87.800003051758</ele>
        <time>2021-02-04T08:43:15.000Z</time>
      </trkpt>
      <trkpt lat="43.74415" lon="7.28192">
        <ele>87.400001525879</ele>
        <time>2021-02-04T08:43:17.000Z</time>
      </trkpt>
      <trkpt lat="43.74415" lon="7.28195">
        <ele>87.199996948242</ele>
        <time>2021-02-04T08:43:18.000Z</time>
      </trkpt>
      <trkpt lat="43.74416" lon="7.28201">
        <ele>87.199996948242</ele>
        <time>2021-02-04T08:43:20.000Z</time>
      </trkpt>
      <trkpt lat="43.74414" lon="7.28218">
        <ele>87.199996948242</ele>
        <time>2021-02-04T08:43:25.000Z</time>
      </trkpt>
      <trkpt lat="43.74404" lon="7.28239">
        <ele>89.199996948242</ele>
        <time>2021-02-04T08:43:32.000Z</time>
      </trkpt>
      <trkpt lat="43.74403" lon="7.28241">
        <ele>89.400001525879</ele>
        <time>2021-02-04T08:43:33.000Z</time>
      </trkpt>
      <trkpt lat="43.74397" lon="7.28249">
        <ele>90.400001525879</ele>
        <time>2021-02-04T08:43:37.000Z</time>
      </trkpt>
      <trkpt lat="43.74396" lon="7.28253">
        <ele>91</ele>
        <time>2021-02-04T08:43:39.000Z</time>
      </trkpt>
      <trkpt lat="43.74396" lon="7.28256">
        <ele>91.400001525879</ele>
        <time>2021-02-04T08:43:40.000Z</time>
      </trkpt>
      <trkpt lat="43.74395" lon="7.28266">
        <ele>92.599998474121</ele>
        <time>2021-02-04T08:43:45.000Z</time>
      </trkpt>
      <trkpt lat="43.74393" lon="7.28275">
        <ele>93.599998474121</ele>
        <time>2021-02-04T08:43:49.000Z</time>
      </trkpt>
      <trkpt lat="43.74393" lon="7.2828">
        <ele>94</ele>
        <time>2021-02-04T08:43:51.000Z</time>
      </trkpt>
      <trkpt lat="43.74392" lon="7.28287">
        <ele>94.800003051758</ele>
        <time>2021-02-04T08:43:54.000Z</time>
      </trkpt>
      <trkpt lat="43.74389" lon="7.28296">
        <ele>96.199996948242</ele>
        <time>2021-02-04T08:43:58.000Z</time>
      </trkpt>
      <trkpt lat="43.74388" lon="7.28303">
        <ele>97</ele>
        <time>2021-02-04T08:44:01.000Z</time>
      </trkpt>
      <trkpt lat="43.74388" lon="7.28305">
        <ele>97.400001525879</ele>
        <time>2021-02-04T08:44:02.000Z</time>
      </trkpt>
      <trkpt lat="43.74387" lon="7.28312">
        <ele>98.400001525879</ele>
        <time>2021-02-04T08:44:05.000Z</time>
      </trkpt>
      <trkpt lat="43.74386" lon="7.28319">
        <ele>99.599998474121</ele>
        <time>2021-02-04T08:44:08.000Z</time>
      </trkpt>
      <trkpt lat="43.74385" lon="7.28322">
        <ele>99.800003051758</ele>
        <time>2021-02-04T08:44:09.000Z</time>
      </trkpt>
      <trkpt lat="43.74384" lon="7.2833">
        <ele>100.80000305176</ele>
        <time>2021-02-04T08:44:12.000Z</time>
      </trkpt>
      <trkpt lat="43.74384" lon="7.2834">
        <ele>102</ele>
        <time>2021-02-04T08:44:16.000Z</time>
      </trkpt>
      <trkpt lat="43.74384" lon="7.28343">
        <ele>102.40000152588</ele>
        <time>2021-02-04T08:44:17.000Z</time>
      </trkpt>
      <trkpt lat="43.74389" lon="7.28356">
        <ele>103.19999694824</ele>
        <time>2021-02-04T08:44:22.000Z</time>
      </trkpt>
      <trkpt lat="43.7439" lon="7.28358">
        <ele>103.19999694824</ele>
        <time>2021-02-04T08:44:23.000Z</time>
      </trkpt>
      <trkpt lat="43.74394" lon="7.28366">
        <ele>104.19999694824</ele>
        <time>2021-02-04T08:44:26.000Z</time>
      </trkpt>
      <trkpt lat="43.74395" lon="7.28369">
        <ele>105.19999694824</ele>
        <time>2021-02-04T08:44:28.000Z</time>
      </trkpt>
      <trkpt lat="43.74395" lon="7.28372">
        <ele>105.59999847412</ele>
        <time>2021-02-04T08:44:29.000Z</time>
      </trkpt>
      <trkpt lat="43.74391" lon="7.28383">
        <ele>106.19999694824</ele>
        <time>2021-02-04T08:44:33.000Z</time>
      </trkpt>
      <trkpt lat="43.74385" lon="7.28401">
        <ele>105</ele>
        <time>2021-02-04T08:44:38.000Z</time>
      </trkpt>
      <trkpt lat="43.74382" lon="7.2841">
        <ele>104.40000152588</ele>
        <time>2021-02-04T08:44:40.000Z</time>
      </trkpt>
      <trkpt lat="43.74379" lon="7.28416">
        <ele>103.19999694824</ele>
        <time>2021-02-04T08:44:42.000Z</time>
      </trkpt>
      <trkpt lat="43.74377" lon="7.28421">
        <ele>102.59999847412</ele>
        <time>2021-02-04T08:44:44.000Z</time>
      </trkpt>
      <trkpt lat="43.74373" lon="7.28427">
        <ele>102.59999847412</ele>
        <time>2021-02-04T08:44:46.000Z</time>
      </trkpt>
      <trkpt lat="43.74371" lon="7.2843">
        <ele>102.40000152588</ele>
        <time>2021-02-04T08:44:47.000Z</time>
      </trkpt>
      <trkpt lat="43.7437" lon="7.28434">
        <ele>102</ele>
        <time>2021-02-04T08:44:48.000Z</time>
      </trkpt>
      <trkpt lat="43.74366" lon="7.28442">
        <ele>100.80000305176</ele>
        <time>2021-02-04T08:44:50.000Z</time>
      </trkpt>
      <trkpt lat="43.74364" lon="7.28449">
        <ele>99.599998474121</ele>
        <time>2021-02-04T08:44:52.000Z</time>
      </trkpt>
      <trkpt lat="43.7436" lon="7.28458">
        <ele>99.599998474121</ele>
        <time>2021-02-04T08:44:54.000Z</time>
      </trkpt>
      <trkpt lat="43.74354" lon="7.28472">
        <ele>99.800003051758</ele>
        <time>2021-02-04T08:44:57.000Z</time>
      </trkpt>
      <trkpt lat="43.74351" lon="7.28477">
        <ele>99.400001525879</ele>
        <time>2021-02-04T08:44:58.000Z</time>
      </trkpt>
      <trkpt lat="43.74343" lon="7.28496">
        <ele>98.599998474121</ele>
        <time>2021-02-04T08:45:02.000Z</time>
      </trkpt>
      <trkpt lat="43.74342" lon="7.28501">
        <ele>98.400001525879</ele>
        <time>2021-02-04T08:45:03.000Z</time>
      </trkpt>
      <trkpt lat="43.74339" lon="7.2851">
        <ele>98.199996948242</ele>
        <time>2021-02-04T08:45:05.000Z</time>
      </trkpt>
      <trkpt lat="43.74332" lon="7.28525">
        <ele>97.800003051758</ele>
        <time>2021-02-04T08:45:08.000Z</time>
      </trkpt>
      <trkpt lat="43.74331" lon="7.2853">
        <ele>97</ele>
        <time>2021-02-04T08:45:09.000Z</time>
      </trkpt>
      <trkpt lat="43.74329" lon="7.28535">
        <ele>96</ele>
        <time>2021-02-04T08:45:10.000Z</time>
      </trkpt>
      <trkpt lat="43.74325" lon="7.28541">
        <ele>94.800003051758</ele>
        <time>2021-02-04T08:45:12.000Z</time>
      </trkpt>
      <trkpt lat="43.74324" lon="7.28544">
        <ele>93.800003051758</ele>
        <time>2021-02-04T08:45:14.000Z</time>
      </trkpt>
      <trkpt lat="43.74323" lon="7.28547">
        <ele>92.800003051758</ele>
        <time>2021-02-04T08:45:17.000Z</time>
      </trkpt>
      <trkpt lat="43.74323" lon="7.28549">
        <ele>92.599998474121</ele>
        <time>2021-02-04T08:45:23.000Z</time>
      </trkpt>
      <trkpt lat="43.74323" lon="7.28549">
        <ele>92.599998474121</ele>
        <time>2021-02-04T08:45:25.000Z</time>
      </trkpt>
      <trkpt lat="43.74322" lon="7.28557">
        <ele>92.599998474121</ele>
        <time>2021-02-04T08:45:30.000Z</time>
      </trkpt>
      <trkpt lat="43.74322" lon="7.28562">
        <ele>91.800003051758</ele>
        <time>2021-02-04T08:45:34.000Z</time>
      </trkpt>
      <trkpt lat="43.74324" lon="7.28567">
        <ele>92.199996948242</ele>
        <time>2021-02-04T08:45:39.000Z</time>
      </trkpt>
      <trkpt lat="43.74325" lon="7.28568">
        <ele>93.199996948242</ele>
        <time>2021-02-04T08:45:44.000Z</time>
      </trkpt>
      <trkpt lat="43.74325" lon="7.28567">
        <ele>93.400001525879</ele>
        <time>2021-02-04T08:45:45.000Z</time>
      </trkpt>
      <trkpt lat="43.74326" lon="7.28565">
        <ele>93.800003051758</ele>
        <time>2021-02-04T08:45:47.000Z</time>
      </trkpt>
      <trkpt lat="43.74326" lon="7.28565">
        <ele>94.400001525879</ele>
        <time>2021-02-04T08:45:50.000Z</time>
      </trkpt>
      <trkpt lat="43.74326" lon="7.28564">
        <ele>94.599998474121</ele>
        <time>2021-02-04T08:45:55.000Z</time>
      </trkpt>
      <trkpt lat="43.74327" lon="7.28559">
        <ele>94.400001525879</ele>
        <time>2021-02-04T08:45:57.000Z</time>
      </trkpt>
      <trkpt lat="43.74329" lon="7.28552">
        <ele>94.800003051758</ele>
        <time>2021-02-04T08:46:00.000Z</time>
      </trkpt>
      <trkpt lat="43.74329" lon="7.28553">
        <ele>95.199996948242</ele>
        <time>2021-02-04T08:46:01.000Z</time>
      </trkpt>
      <trkpt lat="43.74329" lon="7.28553">
        <ele>95.800003051758</ele>
        <time>2021-02-04T08:46:05.000Z</time>
      </trkpt>
      <trkpt lat="43.7433" lon="7.28552">
        <ele>95.599998474121</ele>
        <time>2021-02-04T08:46:07.000Z</time>
      </trkpt>
      <trkpt lat="43.74332" lon="7.28552">
        <ele>96.400001525879</ele>
        <time>2021-02-04T08:46:12.000Z</time>
      </trkpt>
      <trkpt lat="43.74333" lon="7.28551">
        <ele>96.800003051758</ele>
        <time>2021-02-04T08:46:14.000Z</time>
      </trkpt>
      <trkpt lat="43.74336" lon="7.28549">
        <ele>98</ele>
        <time>2021-02-04T08:46:20.000Z</time>
      </trkpt>
      <trkpt lat="43.74336" lon="7.28548">
        <ele>98.199996948242</ele>
        <time>2021-02-04T08:46:21.000Z</time>
      </trkpt>
      <trkpt lat="43.74337" lon="7.28547">
        <ele>98.800003051758</ele>
        <time>2021-02-04T08:46:27.000Z</time>
      </trkpt>
      <trkpt lat="43.74343" lon="7.28545">
        <ele>99</ele>
        <time>2021-02-04T08:46:31.000Z</time>
      </trkpt>
      <trkpt lat="43.74343" lon="7.28546">
        <ele>99.400001525879</ele>
        <time>2021-02-04T08:46:32.000Z</time>
      </trkpt>
      <trkpt lat="43.74345" lon="7.28546">
        <ele>100.40000152588</ele>
        <time>2021-02-04T08:46:35.000Z</time>
      </trkpt>
      <trkpt lat="43.74346" lon="7.28546">
        <ele>100.80000305176</ele>
        <time>2021-02-04T08:46:36.000Z</time>
      </trkpt>
      <trkpt lat="43.7435" lon="7.28547">
        <ele>102</ele>
        <time>2021-02-04T08:46:42.000Z</time>
      </trkpt>
      <trkpt lat="43.74351" lon="7.28547">
        <ele>102.19999694824</ele>
        <time>2021-02-04T08:46:43.000Z</time>
      </trkpt>
      <trkpt lat="43.74351" lon="7.28547">
        <ele>102.80000305176</ele>
        <time>2021-02-04T08:46:48.000Z</time>
      </trkpt>
      <trkpt lat="43.74351" lon="7.28547">
        <ele>103</ele>
        <time>2021-02-04T08:46:53.000Z</time>
      </trkpt>
      <trkpt lat="43.74352" lon="7.28548">
        <ele>103</ele>
        <time>2021-02-04T08:46:55.000Z</time>
      </trkpt>
      <trkpt lat="43.74352" lon="7.28548">
        <ele>103.19999694824</ele>
        <time>2021-02-04T08:47:02.000Z</time>
      </trkpt>
      <trkpt lat="43.74352" lon="7.28548">
        <ele>103</ele>
        <time>2021-02-04T08:47:20.000Z</time>
      </trkpt>
      <trkpt lat="43.74354" lon="7.28557">
        <ele>103</ele>
        <time>2021-02-04T08:47:26.000Z</time>
      </trkpt>
      <trkpt lat="43.74355" lon="7.28574">
        <ele>102.40000152588</ele>
        <time>2021-02-04T08:47:30.000Z</time>
      </trkpt>
      <trkpt lat="43.74356" lon="7.28584">
        <ele>101.80000305176</ele>
        <time>2021-02-04T08:47:32.000Z</time>
      </trkpt>
      <trkpt lat="43.74356" lon="7.28596">
        <ele>101</ele>
        <time>2021-02-04T08:47:35.000Z</time>
      </trkpt>
      <trkpt lat="43.74355" lon="7.286">
        <ele>100.59999847412</ele>
        <time>2021-02-04T08:47:36.000Z</time>
      </trkpt>
      <trkpt lat="43.74354" lon="7.28604">
        <ele>100</ele>
        <time>2021-02-04T08:47:37.000Z</time>
      </trkpt>
      <trkpt lat="43.74351" lon="7.28607">
        <ele>99.599998474121</ele>
        <time>2021-02-04T08:47:38.000Z</time>
      </trkpt>
      <trkpt lat="43.74349" lon="7.2861">
        <ele>99</ele>
        <time>2021-02-04T08:47:39.000Z</time>
      </trkpt>
      <trkpt lat="43.74347" lon="7.28614">
        <ele>98.199996948242</ele>
        <time>2021-02-04T08:47:40.000Z</time>
      </trkpt>
      <trkpt lat="43.74342" lon="7.28627">
        <ele>97</ele>
        <time>2021-02-04T08:47:42.000Z</time>
      </trkpt>
      <trkpt lat="43.74338" lon="7.28638">
        <ele>94.400001525879</ele>
        <time>2021-02-04T08:47:44.000Z</time>
      </trkpt>
      <trkpt lat="43.74336" lon="7.28642">
        <ele>93</ele>
        <time>2021-02-04T08:47:45.000Z</time>
      </trkpt>
      <trkpt lat="43.74332" lon="7.28647">
        <ele>91.599998474121</ele>
        <time>2021-02-04T08:47:46.000Z</time>
      </trkpt>
      <trkpt lat="43.74328" lon="7.28649">
        <ele>89.800003051758</ele>
        <time>2021-02-04T08:47:47.000Z</time>
      </trkpt>
      <trkpt lat="43.74326" lon="7.28651">
        <ele>88.400001525879</ele>
        <time>2021-02-04T08:47:48.000Z</time>
      </trkpt>
      <trkpt lat="43.74325" lon="7.28654">
        <ele>87.199996948242</ele>
        <time>2021-02-04T08:47:49.000Z</time>
      </trkpt>
      <trkpt lat="43.74322" lon="7.28662">
        <ele>85.800003051758</ele>
        <time>2021-02-04T08:47:51.000Z</time>
      </trkpt>
      <trkpt lat="43.74319" lon="7.28669">
        <ele>84.800003051758</ele>
        <time>2021-02-04T08:47:53.000Z</time>
      </trkpt>
      <trkpt lat="43.74317" lon="7.28671">
        <ele>83.800003051758</ele>
        <time>2021-02-04T08:47:54.000Z</time>
      </trkpt>
      <trkpt lat="43.74316" lon="7.28672">
        <ele>82.800003051758</ele>
        <time>2021-02-04T08:47:55.000Z</time>
      </trkpt>
      <trkpt lat="43.74313" lon="7.28674">
        <ele>81.800003051758</ele>
        <time>2021-02-04T08:47:56.000Z</time>
      </trkpt>
      <trkpt lat="43.7431" lon="7.28676">
        <ele>80.199996948242</ele>
        <time>2021-02-04T08:47:58.000Z</time>
      </trkpt>
      <trkpt lat="43.74311" lon="7.28688">
        <ele>79.199996948242</ele>
        <time>2021-02-04T08:48:01.000Z</time>
      </trkpt>
      <trkpt lat="43.74312" lon="7.2869">
        <ele>78.599998474121</ele>
        <time>2021-02-04T08:48:02.000Z</time>
      </trkpt>
      <trkpt lat="43.74312" lon="7.28694">
        <ele>76.800003051758</ele>
        <time>2021-02-04T08:48:04.000Z</time>
      </trkpt>
      <trkpt lat="43.74312" lon="7.28695">
        <ele>76</ele>
        <time>2021-02-04T08:48:05.000Z</time>
      </trkpt>
      <trkpt lat="43.74312" lon="7.28696">
        <ele>75.199996948242</ele>
        <time>2021-02-04T08:48:06.000Z</time>
      </trkpt>
      <trkpt lat="43.74313" lon="7.28702">
        <ele>74</ele>
        <time>2021-02-04T08:48:09.000Z</time>
      </trkpt>
      <trkpt lat="43.74313" lon="7.28706">
        <ele>73.199996948242</ele>
        <time>2021-02-04T08:48:11.000Z</time>
      </trkpt>
      <trkpt lat="43.74314" lon="7.28708">
        <ele>72.599998474121</ele>
        <time>2021-02-04T08:48:13.000Z</time>
      </trkpt>
      <trkpt lat="43.74318" lon="7.28718">
        <ele>71.400001525879</ele>
        <time>2021-02-04T08:48:16.000Z</time>
      </trkpt>
      <trkpt lat="43.74319" lon="7.28735">
        <ele>70.400001525879</ele>
        <time>2021-02-04T08:48:19.000Z</time>
      </trkpt>
      <trkpt lat="43.74319" lon="7.28741">
        <ele>69.599998474121</ele>
        <time>2021-02-04T08:48:20.000Z</time>
      </trkpt>
      <trkpt lat="43.7432" lon="7.28748">
        <ele>68.599998474121</ele>
        <time>2021-02-04T08:48:21.000Z</time>
      </trkpt>
      <trkpt lat="43.74319" lon="7.28757">
        <ele>67</ele>
        <time>2021-02-04T08:48:23.000Z</time>
      </trkpt>
      <trkpt lat="43.74319" lon="7.28761">
        <ele>66.599998474121</ele>
        <time>2021-02-04T08:48:24.000Z</time>
      </trkpt>
      <trkpt lat="43.74319" lon="7.28767">
        <ele>66.400001525879</ele>
        <time>2021-02-04T08:48:25.000Z</time>
      </trkpt>
      <trkpt lat="43.74323" lon="7.28774">
        <ele>65.800003051758</ele>
        <time>2021-02-04T08:48:27.000Z</time>
      </trkpt>
      <trkpt lat="43.7433" lon="7.2878">
        <ele>64.599998474121</ele>
        <time>2021-02-04T08:48:30.000Z</time>
      </trkpt>
      <trkpt lat="43.74331" lon="7.28783">
        <ele>64.400001525879</ele>
        <time>2021-02-04T08:48:31.000Z</time>
      </trkpt>
      <trkpt lat="43.74335" lon="7.2879">
        <ele>64.800003051758</ele>
        <time>2021-02-04T08:48:34.000Z</time>
      </trkpt>
      <trkpt lat="43.74335" lon="7.28793">
        <ele>65</ele>
        <time>2021-02-04T08:48:35.000Z</time>
      </trkpt>
      <trkpt lat="43.74335" lon="7.28797">
        <ele>65</ele>
        <time>2021-02-04T08:48:36.000Z</time>
      </trkpt>
      <trkpt lat="43.74343" lon="7.28805">
        <ele>65.400001525879</ele>
        <time>2021-02-04T08:48:40.000Z</time>
      </trkpt>
      <trkpt lat="43.74346" lon="7.28806">
        <ele>65.400001525879</ele>
        <time>2021-02-04T08:48:41.000Z</time>
      </trkpt>
      <trkpt lat="43.74365" lon="7.28808">
        <ele>65</ele>
        <time>2021-02-04T08:48:46.000Z</time>
      </trkpt>
      <trkpt lat="43.74377" lon="7.28813">
        <ele>65.199996948242</ele>
        <time>2021-02-04T08:48:50.000Z</time>
      </trkpt>
      <trkpt lat="43.74389" lon="7.2882">
        <ele>65.400001525879</ele>
        <time>2021-02-04T08:48:54.000Z</time>
      </trkpt>
      <trkpt lat="43.74396" lon="7.28823">
        <ele>65.599998474121</ele>
        <time>2021-02-04T08:48:56.000Z</time>
      </trkpt>
      <trkpt lat="43.74406" lon="7.28826">
        <ele>66</ele>
        <time>2021-02-04T08:48:59.000Z</time>
      </trkpt>
      <trkpt lat="43.74423" lon="7.28821">
        <ele>66.400001525879</ele>
        <time>2021-02-04T08:49:04.000Z</time>
      </trkpt>
      <trkpt lat="43.74434" lon="7.28815">
        <ele>66.599998474121</ele>
        <time>2021-02-04T08:49:07.000Z</time>
      </trkpt>
      <trkpt lat="43.74449" lon="7.28807">
        <ele>67.199996948242</ele>
        <time>2021-02-04T08:49:12.000Z</time>
      </trkpt>
      <trkpt lat="43.74463" lon="7.28799">
        <ele>67.599998474121</ele>
        <time>2021-02-04T08:49:17.000Z</time>
      </trkpt>
      <trkpt lat="43.74466" lon="7.28797">
        <ele>67.800003051758</ele>
        <time>2021-02-04T08:49:18.000Z</time>
      </trkpt>
      <trkpt lat="43.74487" lon="7.2878">
        <ele>68.800003051758</ele>
        <time>2021-02-04T08:49:25.000Z</time>
      </trkpt>
      <trkpt lat="43.7449" lon="7.28778">
        <ele>69</ele>
        <time>2021-02-04T08:49:26.000Z</time>
      </trkpt>
      <trkpt lat="43.74506" lon="7.28767">
        <ele>69.800003051758</ele>
        <time>2021-02-04T08:49:31.000Z</time>
      </trkpt>
      <trkpt lat="43.74516" lon="7.28762">
        <ele>70.400001525879</ele>
        <time>2021-02-04T08:49:34.000Z</time>
      </trkpt>
      <trkpt lat="43.74524" lon="7.28757">
        <ele>71</ele>
        <time>2021-02-04T08:49:37.000Z</time>
      </trkpt>
      <trkpt lat="43.7453" lon="7.28753">
        <ele>71.199996948242</ele>
        <time>2021-02-04T08:49:39.000Z</time>
      </trkpt>
      <trkpt lat="43.74543" lon="7.28746">
        <ele>72</ele>
        <time>2021-02-04T08:49:43.000Z</time>
      </trkpt>
      <trkpt lat="43.74558" lon="7.28739">
        <ele>73.199996948242</ele>
        <time>2021-02-04T08:49:48.000Z</time>
      </trkpt>
      <trkpt lat="43.7457" lon="7.28745">
        <ele>74</ele>
        <time>2021-02-04T08:49:52.000Z</time>
      </trkpt>
      <trkpt lat="43.74569" lon="7.28754">
        <ele>74.199996948242</ele>
        <time>2021-02-04T08:49:54.000Z</time>
      </trkpt>
      <trkpt lat="43.74568" lon="7.28757">
        <ele>74.599998474121</ele>
        <time>2021-02-04T08:49:55.000Z</time>
      </trkpt>
      <trkpt lat="43.74567" lon="7.28778">
        <ele>75.199996948242</ele>
        <time>2021-02-04T08:50:00.000Z</time>
      </trkpt>
      <trkpt lat="43.74569" lon="7.28782">
        <ele>75.400001525879</ele>
        <time>2021-02-04T08:50:01.000Z</time>
      </trkpt>
      <trkpt lat="43.74579" lon="7.288">
        <ele>76.599998474121</ele>
        <time>2021-02-04T08:50:07.000Z</time>
      </trkpt>
      <trkpt lat="43.74582" lon="7.28807">
        <ele>77.199996948242</ele>
        <time>2021-02-04T08:50:09.000Z</time>
      </trkpt>
      <trkpt lat="43.74585" lon="7.28813">
        <ele>77.800003051758</ele>
        <time>2021-02-04T08:50:11.000Z</time>
      </trkpt>
      <trkpt lat="43.74588" lon="7.28827">
        <ele>78.800003051758</ele>
        <time>2021-02-04T08:50:15.000Z</time>
      </trkpt>
      <trkpt lat="43.74589" lon="7.28831">
        <ele>79.199996948242</ele>
        <time>2021-02-04T08:50:16.000Z</time>
      </trkpt>
      <trkpt lat="43.7459" lon="7.28846">
        <ele>80</ele>
        <time>2021-02-04T08:50:20.000Z</time>
      </trkpt>
      <trkpt lat="43.7459" lon="7.2886">
        <ele>80.800003051758</ele>
        <time>2021-02-04T08:50:24.000Z</time>
      </trkpt>
      <trkpt lat="43.7459" lon="7.28863">
        <ele>81.199996948242</ele>
        <time>2021-02-04T08:50:25.000Z</time>
      </trkpt>
      <trkpt lat="43.74589" lon="7.28877">
        <ele>82.199996948242</ele>
        <time>2021-02-04T08:50:29.000Z</time>
      </trkpt>
      <trkpt lat="43.74588" lon="7.28884">
        <ele>82.599998474121</ele>
        <time>2021-02-04T08:50:31.000Z</time>
      </trkpt>
      <trkpt lat="43.74587" lon="7.2889">
        <ele>83.199996948242</ele>
        <time>2021-02-04T08:50:33.000Z</time>
      </trkpt>
      <trkpt lat="43.74584" lon="7.28903">
        <ele>84.199996948242</ele>
        <time>2021-02-04T08:50:37.000Z</time>
      </trkpt>
      <trkpt lat="43.74581" lon="7.28913">
        <ele>85.400001525879</ele>
        <time>2021-02-04T08:50:41.000Z</time>
      </trkpt>
      <trkpt lat="43.74581" lon="7.28918">
        <ele>86</ele>
        <time>2021-02-04T08:50:43.000Z</time>
      </trkpt>
      <trkpt lat="43.7458" lon="7.28924">
        <ele>86.599998474121</ele>
        <time>2021-02-04T08:50:45.000Z</time>
      </trkpt>
      <trkpt lat="43.74584" lon="7.28939">
        <ele>87.800003051758</ele>
        <time>2021-02-04T08:50:50.000Z</time>
      </trkpt>
      <trkpt lat="43.74591" lon="7.28948">
        <ele>88.800003051758</ele>
        <time>2021-02-04T08:50:54.000Z</time>
      </trkpt>
      <trkpt lat="43.74596" lon="7.2895">
        <ele>89.599998474121</ele>
        <time>2021-02-04T08:50:56.000Z</time>
      </trkpt>
      <trkpt lat="43.74601" lon="7.28949">
        <ele>90</ele>
        <time>2021-02-04T08:50:58.000Z</time>
      </trkpt>
      <trkpt lat="43.74606" lon="7.28944">
        <ele>90.400001525879</ele>
        <time>2021-02-04T08:51:00.000Z</time>
      </trkpt>
      <trkpt lat="43.74613" lon="7.28935">
        <ele>91.400001525879</ele>
        <time>2021-02-04T08:51:03.000Z</time>
      </trkpt>
      <trkpt lat="43.74622" lon="7.28925">
        <ele>92.599998474121</ele>
        <time>2021-02-04T08:51:07.000Z</time>
      </trkpt>
      <trkpt lat="43.74627" lon="7.28918">
        <ele>93.599998474121</ele>
        <time>2021-02-04T08:51:10.000Z</time>
      </trkpt>
      <trkpt lat="43.74628" lon="7.28918">
        <ele>94</ele>
        <time>2021-02-04T08:51:11.000Z</time>
      </trkpt>
      <trkpt lat="43.74632" lon="7.28917">
        <ele>95</ele>
        <time>2021-02-04T08:51:14.000Z</time>
      </trkpt>
      <trkpt lat="43.74634" lon="7.28916">
        <ele>95.199996948242</ele>
        <time>2021-02-04T08:51:15.000Z</time>
      </trkpt>
      <trkpt lat="43.7464" lon="7.2891">
        <ele>96.199996948242</ele>
        <time>2021-02-04T08:51:18.000Z</time>
      </trkpt>
      <trkpt lat="43.74643" lon="7.2891">
        <ele>97.199996948242</ele>
        <time>2021-02-04T08:51:20.000Z</time>
      </trkpt>
      <trkpt lat="43.74647" lon="7.28908">
        <ele>98.599998474121</ele>
        <time>2021-02-04T08:51:23.000Z</time>
      </trkpt>
      <trkpt lat="43.74648" lon="7.28909">
        <ele>99.199996948242</ele>
        <time>2021-02-04T08:51:24.000Z</time>
      </trkpt>
      <trkpt lat="43.7465" lon="7.28909">
        <ele>99.599998474121</ele>
        <time>2021-02-04T08:51:25.000Z</time>
      </trkpt>
      <trkpt lat="43.74654" lon="7.28907">
        <ele>100.59999847412</ele>
        <time>2021-02-04T08:51:28.000Z</time>
      </trkpt>
      <trkpt lat="43.74655" lon="7.28907">
        <ele>100.80000305176</ele>
        <time>2021-02-04T08:51:29.000Z</time>
      </trkpt>
      <trkpt lat="43.74659" lon="7.28906">
        <ele>101.40000152588</ele>
        <time>2021-02-04T08:51:31.000Z</time>
      </trkpt>
      <trkpt lat="43.7466" lon="7.28905">
        <ele>101.80000305176</ele>
        <time>2021-02-04T08:51:32.000Z</time>
      </trkpt>
      <trkpt lat="43.74665" lon="7.28903">
        <ele>103</ele>
        <time>2021-02-04T08:51:35.000Z</time>
      </trkpt>
      <trkpt lat="43.74667" lon="7.28903">
        <ele>104</ele>
        <time>2021-02-04T08:51:37.000Z</time>
      </trkpt>
      <trkpt lat="43.74667" lon="7.28903">
        <ele>104.40000152588</ele>
        <time>2021-02-04T08:51:38.000Z</time>
      </trkpt>
      <trkpt lat="43.74668" lon="7.28903">
        <ele>104.80000305176</ele>
        <time>2021-02-04T08:51:39.000Z</time>
      </trkpt>
      <trkpt lat="43.74669" lon="7.28902">
        <ele>105.80000305176</ele>
        <time>2021-02-04T08:51:41.000Z</time>
      </trkpt>
      <trkpt lat="43.74669" lon="7.28902">
        <ele>106</ele>
        <time>2021-02-04T08:51:42.000Z</time>
      </trkpt>
      <trkpt lat="43.74672" lon="7.28903">
        <ele>106.40000152588</ele>
        <time>2021-02-04T08:51:47.000Z</time>
      </trkpt>
      <trkpt lat="43.74671" lon="7.28903">
        <ele>106.59999847412</ele>
        <time>2021-02-04T08:51:48.000Z</time>
      </trkpt>
      <trkpt lat="43.74672" lon="7.28903">
        <ele>107</ele>
        <time>2021-02-04T08:51:50.000Z</time>
      </trkpt>
      <trkpt lat="43.74672" lon="7.28903">
        <ele>107.59999847412</ele>
        <time>2021-02-04T08:51:53.000Z</time>
      </trkpt>
      <trkpt lat="43.74674" lon="7.28901">
        <ele>107.59999847412</ele>
        <time>2021-02-04T08:51:55.000Z</time>
      </trkpt>
      <trkpt lat="43.74678" lon="7.28898">
        <ele>107.59999847412</ele>
        <time>2021-02-04T08:51:58.000Z</time>
      </trkpt>
      <trkpt lat="43.74679" lon="7.28896">
        <ele>108.19999694824</ele>
        <time>2021-02-04T08:52:00.000Z</time>
      </trkpt>
      <trkpt lat="43.74681" lon="7.28896">
        <ele>108.59999847412</ele>
        <time>2021-02-04T08:52:01.000Z</time>
      </trkpt>
      <trkpt lat="43.74683" lon="7.28896">
        <ele>109.40000152588</ele>
        <time>2021-02-04T08:52:03.000Z</time>
      </trkpt>
      <trkpt lat="43.74686" lon="7.28895">
        <ele>110</ele>
        <time>2021-02-04T08:52:05.000Z</time>
      </trkpt>
      <trkpt lat="43.7469" lon="7.28894">
        <ele>110.80000305176</ele>
        <time>2021-02-04T08:52:07.000Z</time>
      </trkpt>
      <trkpt lat="43.74692" lon="7.28893">
        <ele>111.40000152588</ele>
        <time>2021-02-04T08:52:08.000Z</time>
      </trkpt>
      <trkpt lat="43.74694" lon="7.28893">
        <ele>111.80000305176</ele>
        <time>2021-02-04T08:52:09.000Z</time>
      </trkpt>
      <trkpt lat="43.74699" lon="7.28892">
        <ele>113</ele>
        <time>2021-02-04T08:52:12.000Z</time>
      </trkpt>
      <trkpt lat="43.74704" lon="7.28892">
        <ele>114.19999694824</ele>
        <time>2021-02-04T08:52:15.000Z</time>
      </trkpt>
      <trkpt lat="43.74707" lon="7.2889">
        <ele>115.40000152588</ele>
        <time>2021-02-04T08:52:18.000Z</time>
      </trkpt>
      <trkpt lat="43.7471" lon="7.2889">
        <ele>115.80000305176</ele>
        <time>2021-02-04T08:52:19.000Z</time>
      </trkpt>
      <trkpt lat="43.74712" lon="7.28889">
        <ele>116</ele>
        <time>2021-02-04T08:52:20.000Z</time>
      </trkpt>
      <trkpt lat="43.74714" lon="7.28888">
        <ele>116.40000152588</ele>
        <time>2021-02-04T08:52:21.000Z</time>
      </trkpt>
      <trkpt lat="43.7472" lon="7.28887">
        <ele>117.19999694824</ele>
        <time>2021-02-04T08:52:24.000Z</time>
      </trkpt>
      <trkpt lat="43.74721" lon="7.28887">
        <ele>117.59999847412</ele>
        <time>2021-02-04T08:52:25.000Z</time>
      </trkpt>
      <trkpt lat="43.74724" lon="7.28887">
        <ele>118.59999847412</ele>
        <time>2021-02-04T08:52:28.000Z</time>
      </trkpt>
      <trkpt lat="43.74724" lon="7.28887">
        <ele>119</ele>
        <time>2021-02-04T08:52:29.000Z</time>
      </trkpt>
      <trkpt lat="43.74726" lon="7.28884">
        <ele>119.59999847412</ele>
        <time>2021-02-04T08:52:37.000Z</time>
      </trkpt>
      <trkpt lat="43.74728" lon="7.28882">
        <ele>119.80000305176</ele>
        <time>2021-02-04T08:52:40.000Z</time>
      </trkpt>
      <trkpt lat="43.74729" lon="7.28881">
        <ele>120.19999694824</ele>
        <time>2021-02-04T08:52:42.000Z</time>
      </trkpt>
      <trkpt lat="43.74731" lon="7.2888">
        <ele>120.80000305176</ele>
        <time>2021-02-04T08:52:47.000Z</time>
      </trkpt>
      <trkpt lat="43.74732" lon="7.2888">
        <ele>121</ele>
        <time>2021-02-04T08:52:49.000Z</time>
      </trkpt>
      <trkpt lat="43.74736" lon="7.28876">
        <ele>121.59999847412</ele>
        <time>2021-02-04T08:52:55.000Z</time>
      </trkpt>
      <trkpt lat="43.74737" lon="7.28876">
        <ele>121.80000305176</ele>
        <time>2021-02-04T08:52:56.000Z</time>
      </trkpt>
      <trkpt lat="43.74738" lon="7.28877">
        <ele>122</ele>
        <time>2021-02-04T08:52:57.000Z</time>
      </trkpt>
      <trkpt lat="43.74739" lon="7.28878">
        <ele>122.40000152588</ele>
        <time>2021-02-04T08:53:00.000Z</time>
      </trkpt>
      <trkpt lat="43.7474" lon="7.28878">
        <ele>122.59999847412</ele>
        <time>2021-02-04T08:53:07.000Z</time>
      </trkpt>
      <trkpt lat="43.74738" lon="7.28875">
        <ele>122.19999694824</ele>
        <time>2021-02-04T08:53:21.000Z</time>
      </trkpt>
      <trkpt lat="43.74738" lon="7.28873">
        <ele>122</ele>
        <time>2021-02-04T08:53:35.000Z</time>
      </trkpt>
      <trkpt lat="43.74739" lon="7.28874">
        <ele>121.80000305176</ele>
        <time>2021-02-04T08:53:45.000Z</time>
      </trkpt>
      <trkpt lat="43.74742" lon="7.28877">
        <ele>121.80000305176</ele>
        <time>2021-02-04T08:53:52.000Z</time>
      </trkpt>
      <trkpt lat="43.74743" lon="7.28877">
        <ele>121.80000305176</ele>
        <time>2021-02-04T08:54:00.000Z</time>
      </trkpt>
      <trkpt lat="43.74745" lon="7.28879">
        <ele>121.59999847412</ele>
        <time>2021-02-04T08:54:08.000Z</time>
      </trkpt>
      <trkpt lat="43.74747" lon="7.28881">
        <ele>121.59999847412</ele>
        <time>2021-02-04T08:54:15.000Z</time>
      </trkpt>
      <trkpt lat="43.74748" lon="7.28882">
        <ele>121.59999847412</ele>
        <time>2021-02-04T08:54:22.000Z</time>
      </trkpt>
      <trkpt lat="43.74749" lon="7.28882">
        <ele>121.40000152588</ele>
        <time>2021-02-04T08:54:32.000Z</time>
      </trkpt>
      <trkpt lat="43.74748" lon="7.28884">
        <ele>121.40000152588</ele>
        <time>2021-02-04T08:54:34.000Z</time>
      </trkpt>
      <trkpt lat="43.74744" lon="7.28886">
        <ele>121.59999847412</ele>
        <time>2021-02-04T08:54:37.000Z</time>
      </trkpt>
      <trkpt lat="43.74743" lon="7.28888">
        <ele>122.59999847412</ele>
        <time>2021-02-04T08:54:41.000Z</time>
      </trkpt>
      <trkpt lat="43.74744" lon="7.28886">
        <ele>123.19999694824</ele>
        <time>2021-02-04T08:54:43.000Z</time>
      </trkpt>
      <trkpt lat="43.74744" lon="7.28884">
        <ele>123.40000152588</ele>
        <time>2021-02-04T08:54:45.000Z</time>
      </trkpt>
      <trkpt lat="43.74747" lon="7.28883">
        <ele>124.19999694824</ele>
        <time>2021-02-04T08:54:48.000Z</time>
      </trkpt>
      <trkpt lat="43.74749" lon="7.28882">
        <ele>124.59999847412</ele>
        <time>2021-02-04T08:54:50.000Z</time>
      </trkpt>
      <trkpt lat="43.74753" lon="7.28878">
        <ele>125.19999694824</ele>
        <time>2021-02-04T08:54:53.000Z</time>
      </trkpt>
      <trkpt lat="43.74758" lon="7.28876">
        <ele>125.80000305176</ele>
        <time>2021-02-04T08:54:55.000Z</time>
      </trkpt>
      <trkpt lat="43.74757" lon="7.28874">
        <ele>126.19999694824</ele>
        <time>2021-02-04T08:54:56.000Z</time>
      </trkpt>
      <trkpt lat="43.74757" lon="7.28875">
        <ele>126.59999847412</ele>
        <time>2021-02-04T08:54:57.000Z</time>
      </trkpt>
      <trkpt lat="43.74757" lon="7.28875">
        <ele>127</ele>
        <time>2021-02-04T08:54:58.000Z</time>
      </trkpt>
      <trkpt lat="43.74756" lon="7.28874">
        <ele>126.40000152588</ele>
        <time>2021-02-04T08:55:07.000Z</time>
      </trkpt>
      <trkpt lat="43.74755" lon="7.28872">
        <ele>126.80000305176</ele>
        <time>2021-02-04T08:55:13.000Z</time>
      </trkpt>
      <trkpt lat="43.74755" lon="7.28871">
        <ele>127.19999694824</ele>
        <time>2021-02-04T08:55:19.000Z</time>
      </trkpt>
      <trkpt lat="43.74754" lon="7.2887">
        <ele>127.19999694824</ele>
        <time>2021-02-04T08:55:25.000Z</time>
      </trkpt>
      <trkpt lat="43.74754" lon="7.28869">
        <ele>127.19999694824</ele>
        <time>2021-02-04T08:55:30.000Z</time>
      </trkpt>
      <trkpt lat="43.74756" lon="7.28866">
        <ele>127.59999847412</ele>
        <time>2021-02-04T08:55:37.000Z</time>
      </trkpt>
      <trkpt lat="43.74758" lon="7.28865">
        <ele>127.80000305176</ele>
        <time>2021-02-04T08:55:39.000Z</time>
      </trkpt>
      <trkpt lat="43.74759" lon="7.28865">
        <ele>128.60000610352</ele>
        <time>2021-02-04T08:55:43.000Z</time>
      </trkpt>
      <trkpt lat="43.74762" lon="7.28864">
        <ele>129</ele>
        <time>2021-02-04T08:55:46.000Z</time>
      </trkpt>
      <trkpt lat="43.74764" lon="7.28863">
        <ele>129.80000305176</ele>
        <time>2021-02-04T08:55:51.000Z</time>
      </trkpt>
      <trkpt lat="43.74765" lon="7.28862">
        <ele>130</ele>
        <time>2021-02-04T08:55:52.000Z</time>
      </trkpt>
      <trkpt lat="43.74765" lon="7.28862">
        <ele>130.39999389648</ele>
        <time>2021-02-04T08:55:58.000Z</time>
      </trkpt>
      <trkpt lat="43.74766" lon="7.28862">
        <ele>130.39999389648</ele>
        <time>2021-02-04T08:56:02.000Z</time>
      </trkpt>
      <trkpt lat="43.74766" lon="7.28862">
        <ele>130.19999694824</ele>
        <time>2021-02-04T08:56:08.000Z</time>
      </trkpt>
      <trkpt lat="43.74768" lon="7.2886">
        <ele>130.80000305176</ele>
        <time>2021-02-04T08:56:14.000Z</time>
      </trkpt>
      <trkpt lat="43.7477" lon="7.28859">
        <ele>131</ele>
        <time>2021-02-04T08:56:17.000Z</time>
      </trkpt>
      <trkpt lat="43.74773" lon="7.28857">
        <ele>132</ele>
        <time>2021-02-04T08:56:22.000Z</time>
      </trkpt>
      <trkpt lat="43.74777" lon="7.28856">
        <ele>132.80000305176</ele>
        <time>2021-02-04T08:56:28.000Z</time>
      </trkpt>
      <trkpt lat="43.74777" lon="7.28856">
        <ele>133.19999694824</ele>
        <time>2021-02-04T08:56:31.000Z</time>
      </trkpt>
      <trkpt lat="43.74778" lon="7.28856">
        <ele>133.39999389648</ele>
        <time>2021-02-04T08:56:34.000Z</time>
      </trkpt>
      <trkpt lat="43.74781" lon="7.28855">
        <ele>133.60000610352</ele>
        <time>2021-02-04T08:56:40.000Z</time>
      </trkpt>
      <trkpt lat="43.74783" lon="7.28855">
        <ele>134</ele>
        <time>2021-02-04T08:56:44.000Z</time>
      </trkpt>
      <trkpt lat="43.74789" lon="7.28853">
        <ele>134.19999694824</ele>
        <time>2021-02-04T08:56:47.000Z</time>
      </trkpt>
      <trkpt lat="43.74793" lon="7.28852">
        <ele>134.39999389648</ele>
        <time>2021-02-04T08:56:49.000Z</time>
      </trkpt>
      <trkpt lat="43.74798" lon="7.28852">
        <ele>135.39999389648</ele>
        <time>2021-02-04T08:56:52.000Z</time>
      </trkpt>
      <trkpt lat="43.74802" lon="7.28852">
        <ele>136</ele>
        <time>2021-02-04T08:56:54.000Z</time>
      </trkpt>
      <trkpt lat="43.74805" lon="7.28852">
        <ele>136.39999389648</ele>
        <time>2021-02-04T08:56:56.000Z</time>
      </trkpt>
      <trkpt lat="43.74812" lon="7.28851">
        <ele>137.60000610352</ele>
        <time>2021-02-04T08:56:59.000Z</time>
      </trkpt>
      <trkpt lat="43.74816" lon="7.28851">
        <ele>138.60000610352</ele>
        <time>2021-02-04T08:57:01.000Z</time>
      </trkpt>
      <trkpt lat="43.74819" lon="7.28851">
        <ele>138.80000305176</ele>
        <time>2021-02-04T08:57:02.000Z</time>
      </trkpt>
      <trkpt lat="43.74827" lon="7.28851">
        <ele>139.80000305176</ele>
        <time>2021-02-04T08:57:06.000Z</time>
      </trkpt>
      <trkpt lat="43.74829" lon="7.28851">
        <ele>140.19999694824</ele>
        <time>2021-02-04T08:57:07.000Z</time>
      </trkpt>
      <trkpt lat="43.74831" lon="7.28851">
        <ele>140.19999694824</ele>
        <time>2021-02-04T08:57:08.000Z</time>
      </trkpt>
      <trkpt lat="43.74835" lon="7.2885">
        <ele>141</ele>
        <time>2021-02-04T08:57:10.000Z</time>
      </trkpt>
      <trkpt lat="43.74838" lon="7.28851">
        <ele>141.80000305176</ele>
        <time>2021-02-04T08:57:12.000Z</time>
      </trkpt>
      <trkpt lat="43.74839" lon="7.28852">
        <ele>142.19999694824</ele>
        <time>2021-02-04T08:57:13.000Z</time>
      </trkpt>
      <trkpt lat="43.74837" lon="7.28854">
        <ele>142.80000305176</ele>
        <time>2021-02-04T08:57:15.000Z</time>
      </trkpt>
      <trkpt lat="43.74834" lon="7.28855">
        <ele>143.39999389648</ele>
        <time>2021-02-04T08:57:17.000Z</time>
      </trkpt>
      <trkpt lat="43.74832" lon="7.28856">
        <ele>143.60000610352</ele>
        <time>2021-02-04T08:57:18.000Z</time>
      </trkpt>
      <trkpt lat="43.74831" lon="7.28858">
        <ele>144.39999389648</ele>
        <time>2021-02-04T08:57:20.000Z</time>
      </trkpt>
      <trkpt lat="43.74834" lon="7.2886">
        <ele>145.60000610352</ele>
        <time>2021-02-04T08:57:22.000Z</time>
      </trkpt>
      <trkpt lat="43.74833" lon="7.28859">
        <ele>146</ele>
        <time>2021-02-04T08:57:23.000Z</time>
      </trkpt>
      <trkpt lat="43.74834" lon="7.2886">
        <ele>146.80000305176</ele>
        <time>2021-02-04T08:57:25.000Z</time>
      </trkpt>
      <trkpt lat="43.74836" lon="7.28863">
        <ele>147.60000610352</ele>
        <time>2021-02-04T08:57:29.000Z</time>
      </trkpt>
      <trkpt lat="43.74836" lon="7.28864">
        <ele>147.80000305176</ele>
        <time>2021-02-04T08:57:31.000Z</time>
      </trkpt>
      <trkpt lat="43.74837" lon="7.28865">
        <ele>148</ele>
        <time>2021-02-04T08:57:33.000Z</time>
      </trkpt>
      <trkpt lat="43.7484" lon="7.28869">
        <ele>148.19999694824</ele>
        <time>2021-02-04T08:57:35.000Z</time>
      </trkpt>
      <trkpt lat="43.7485" lon="7.28876">
        <ele>148.19999694824</ele>
        <time>2021-02-04T08:57:40.000Z</time>
      </trkpt>
      <trkpt lat="43.74862" lon="7.28881">
        <ele>148.80000305176</ele>
        <time>2021-02-04T08:57:45.000Z</time>
      </trkpt>
      <trkpt lat="43.74877" lon="7.28883">
        <ele>150</ele>
        <time>2021-02-04T08:57:51.000Z</time>
      </trkpt>
      <trkpt lat="43.74881" lon="7.28883">
        <ele>150.39999389648</ele>
        <time>2021-02-04T08:57:53.000Z</time>
      </trkpt>
      <trkpt lat="43.74889" lon="7.28883">
        <ele>151.19999694824</ele>
        <time>2021-02-04T08:57:56.000Z</time>
      </trkpt>
      <trkpt lat="43.74895" lon="7.28881">
        <ele>151.60000610352</ele>
        <time>2021-02-04T08:57:58.000Z</time>
      </trkpt>
      <trkpt lat="43.74902" lon="7.28885">
        <ele>151.80000305176</ele>
        <time>2021-02-04T08:58:00.000Z</time>
      </trkpt>
      <trkpt lat="43.74903" lon="7.28891">
        <ele>152</ele>
        <time>2021-02-04T08:58:01.000Z</time>
      </trkpt>
      <trkpt lat="43.74894" lon="7.28896">
        <ele>152.39999389648</ele>
        <time>2021-02-04T08:58:04.000Z</time>
      </trkpt>
      <trkpt lat="43.74889" lon="7.28894">
        <ele>152.60000610352</ele>
        <time>2021-02-04T08:58:05.000Z</time>
      </trkpt>
      <trkpt lat="43.74884" lon="7.28893">
        <ele>152.80000305176</ele>
        <time>2021-02-04T08:58:06.000Z</time>
      </trkpt>
      <trkpt lat="43.7487" lon="7.28894">
        <ele>153</ele>
        <time>2021-02-04T08:58:09.000Z</time>
      </trkpt>
      <trkpt lat="43.74856" lon="7.28894">
        <ele>153.39999389648</ele>
        <time>2021-02-04T08:58:12.000Z</time>
      </trkpt>
      <trkpt lat="43.74841" lon="7.2889">
        <ele>154.19999694824</ele>
        <time>2021-02-04T08:58:16.000Z</time>
      </trkpt>
      <trkpt lat="43.74838" lon="7.2889">
        <ele>154.60000610352</ele>
        <time>2021-02-04T08:58:17.000Z</time>
      </trkpt>
      <trkpt lat="43.74832" lon="7.28888">
        <ele>155.19999694824</ele>
        <time>2021-02-04T08:58:20.000Z</time>
      </trkpt>
      <trkpt lat="43.7483" lon="7.2889">
        <ele>155.80000305176</ele>
        <time>2021-02-04T08:58:23.000Z</time>
      </trkpt>
      <trkpt lat="43.7483" lon="7.28892">
        <ele>156</ele>
        <time>2021-02-04T08:58:24.000Z</time>
      </trkpt>
      <trkpt lat="43.74829" lon="7.28899">
        <ele>156.60000610352</ele>
        <time>2021-02-04T08:58:27.000Z</time>
      </trkpt>
      <trkpt lat="43.74829" lon="7.28901">
        <ele>156.80000305176</ele>
        <time>2021-02-04T08:58:28.000Z</time>
      </trkpt>
      <trkpt lat="43.74827" lon="7.28904">
        <ele>157.80000305176</ele>
        <time>2021-02-04T08:58:30.000Z</time>
      </trkpt>
      <trkpt lat="43.74828" lon="7.28904">
        <ele>158.39999389648</ele>
        <time>2021-02-04T08:58:31.000Z</time>
      </trkpt>
      <trkpt lat="43.74828" lon="7.28904">
        <ele>159.39999389648</ele>
        <time>2021-02-04T08:58:33.000Z</time>
      </trkpt>
      <trkpt lat="43.74826" lon="7.28905">
        <ele>159.39999389648</ele>
        <time>2021-02-04T08:58:38.000Z</time>
      </trkpt>
      <trkpt lat="43.74825" lon="7.28906">
        <ele>160</ele>
        <time>2021-02-04T08:58:42.000Z</time>
      </trkpt>
      <trkpt lat="43.74826" lon="7.28904">
        <ele>160.39999389648</ele>
        <time>2021-02-04T08:58:44.000Z</time>
      </trkpt>
      <trkpt lat="43.74826" lon="7.28904">
        <ele>160.39999389648</ele>
        <time>2021-02-04T08:58:45.000Z</time>
      </trkpt>
      <trkpt lat="43.74826" lon="7.28898">
        <ele>161.39999389648</ele>
        <time>2021-02-04T08:58:51.000Z</time>
      </trkpt>
      <trkpt lat="43.74827" lon="7.28896">
        <ele>161.60000610352</ele>
        <time>2021-02-04T08:58:52.000Z</time>
      </trkpt>
      <trkpt lat="43.74827" lon="7.28894">
        <ele>162.19999694824</ele>
        <time>2021-02-04T08:58:58.000Z</time>
      </trkpt>
      <trkpt lat="43.74826" lon="7.28893">
        <ele>162.19999694824</ele>
        <time>2021-02-04T08:59:03.000Z</time>
      </trkpt>
      <trkpt lat="43.74825" lon="7.28892">
        <ele>162.19999694824</ele>
        <time>2021-02-04T08:59:04.000Z</time>
      </trkpt>
      <trkpt lat="43.74817" lon="7.28894">
        <ele>162.19999694824</ele>
        <time>2021-02-04T08:59:08.000Z</time>
      </trkpt>
      <trkpt lat="43.74813" lon="7.28893">
        <ele>162.80000305176</ele>
        <time>2021-02-04T08:59:10.000Z</time>
      </trkpt>
      <trkpt lat="43.74811" lon="7.28893">
        <ele>163.19999694824</ele>
        <time>2021-02-04T08:59:11.000Z</time>
      </trkpt>
      <trkpt lat="43.74809" lon="7.28896">
        <ele>164.19999694824</ele>
        <time>2021-02-04T08:59:13.000Z</time>
      </trkpt>
      <trkpt lat="43.74804" lon="7.28899">
        <ele>165.39999389648</ele>
        <time>2021-02-04T08:59:16.000Z</time>
      </trkpt>
      <trkpt lat="43.748" lon="7.28904">
        <ele>166.39999389648</ele>
        <time>2021-02-04T08:59:19.000Z</time>
      </trkpt>
      <trkpt lat="43.74799" lon="7.28905">
        <ele>166.80000305176</ele>
        <time>2021-02-04T08:59:20.000Z</time>
      </trkpt>
      <trkpt lat="43.74795" lon="7.2891">
        <ele>167.80000305176</ele>
        <time>2021-02-04T08:59:23.000Z</time>
      </trkpt>
      <trkpt lat="43.74794" lon="7.28911">
        <ele>168.19999694824</ele>
        <time>2021-02-04T08:59:24.000Z</time>
      </trkpt>
      <trkpt lat="43.74794" lon="7.28913">
        <ele>168.60000610352</ele>
        <time>2021-02-04T08:59:25.000Z</time>
      </trkpt>
      <trkpt lat="43.74792" lon="7.28915">
        <ele>169</ele>
        <time>2021-02-04T08:59:26.000Z</time>
      </trkpt>
      <trkpt lat="43.74789" lon="7.28917">
        <ele>169.80000305176</ele>
        <time>2021-02-04T08:59:28.000Z</time>
      </trkpt>
      <trkpt lat="43.74788" lon="7.28917">
        <ele>170</ele>
        <time>2021-02-04T08:59:29.000Z</time>
      </trkpt>
      <trkpt lat="43.74787" lon="7.28919">
        <ele>170.80000305176</ele>
        <time>2021-02-04T08:59:31.000Z</time>
      </trkpt>
      <trkpt lat="43.74785" lon="7.2892">
        <ele>171.19999694824</ele>
        <time>2021-02-04T08:59:32.000Z</time>
      </trkpt>
      <trkpt lat="43.74786" lon="7.2892">
        <ele>171.39999389648</ele>
        <time>2021-02-04T08:59:33.000Z</time>
      </trkpt>
      <trkpt lat="43.74783" lon="7.2892">
        <ele>172.39999389648</ele>
        <time>2021-02-04T08:59:37.000Z</time>
      </trkpt>
      <trkpt lat="43.74782" lon="7.2892">
        <ele>172.60000610352</ele>
        <time>2021-02-04T08:59:40.000Z</time>
      </trkpt>
      <trkpt lat="43.74781" lon="7.28921">
        <ele>173.39999389648</ele>
        <time>2021-02-04T08:59:45.000Z</time>
      </trkpt>
      <trkpt lat="43.74781" lon="7.28924">
        <ele>174.39999389648</ele>
        <time>2021-02-04T08:59:48.000Z</time>
      </trkpt>
      <trkpt lat="43.74781" lon="7.28925">
        <ele>174.60000610352</ele>
        <time>2021-02-04T08:59:49.000Z</time>
      </trkpt>
      <trkpt lat="43.7478" lon="7.28926">
        <ele>175.19999694824</ele>
        <time>2021-02-04T08:59:55.000Z</time>
      </trkpt>
      <trkpt lat="43.7478" lon="7.28927">
        <ele>175</ele>
        <time>2021-02-04T09:00:01.000Z</time>
      </trkpt>
      <trkpt lat="43.74781" lon="7.2893">
        <ele>174.80000305176</ele>
        <time>2021-02-04T09:00:04.000Z</time>
      </trkpt>
      <trkpt lat="43.74783" lon="7.28932">
        <ele>174.80000305176</ele>
        <time>2021-02-04T09:00:07.000Z</time>
      </trkpt>
      <trkpt lat="43.74781" lon="7.28936">
        <ele>174.39999389648</ele>
        <time>2021-02-04T09:00:12.000Z</time>
      </trkpt>
      <trkpt lat="43.74781" lon="7.28936">
        <ele>174.60000610352</ele>
        <time>2021-02-04T09:00:17.000Z</time>
      </trkpt>
      <trkpt lat="43.74782" lon="7.28934">
        <ele>174.39999389648</ele>
        <time>2021-02-04T09:00:27.000Z</time>
      </trkpt>
      <trkpt lat="43.74783" lon="7.28934">
        <ele>174.39999389648</ele>
        <time>2021-02-04T09:00:28.000Z</time>
      </trkpt>
      <trkpt lat="43.7479" lon="7.28938">
        <ele>174</ele>
        <time>2021-02-04T09:00:32.000Z</time>
      </trkpt>
      <trkpt lat="43.74792" lon="7.2894">
        <ele>173.60000610352</ele>
        <time>2021-02-04T09:00:35.000Z</time>
      </trkpt>
      <trkpt lat="43.74793" lon="7.2894">
        <ele>173.60000610352</ele>
        <time>2021-02-04T09:00:36.000Z</time>
      </trkpt>
      <trkpt lat="43.74793" lon="7.2894">
        <ele>173.39999389648</ele>
        <time>2021-02-04T09:00:37.000Z</time>
      </trkpt>
      <trkpt lat="43.74793" lon="7.28942">
        <ele>173.39999389648</ele>
        <time>2021-02-04T09:00:47.000Z</time>
      </trkpt>
      <trkpt lat="43.74794" lon="7.28943">
        <ele>173</ele>
        <time>2021-02-04T09:01:01.000Z</time>
      </trkpt>
      <trkpt lat="43.74796" lon="7.28947">
        <ele>172.80000305176</ele>
        <time>2021-02-04T09:01:14.000Z</time>
      </trkpt>
      <trkpt lat="43.74799" lon="7.28948">
        <ele>172.80000305176</ele>
        <time>2021-02-04T09:01:16.000Z</time>
      </trkpt>
      <trkpt lat="43.74808" lon="7.28952">
        <ele>172.39999389648</ele>
        <time>2021-02-04T09:01:20.000Z</time>
      </trkpt>
      <trkpt lat="43.74811" lon="7.28952">
        <ele>172.19999694824</ele>
        <time>2021-02-04T09:01:21.000Z</time>
      </trkpt>
      <trkpt lat="43.74822" lon="7.28951">
        <ele>171.39999389648</ele>
        <time>2021-02-04T09:01:25.000Z</time>
      </trkpt>
      <trkpt lat="43.74826" lon="7.2895">
        <ele>171.19999694824</ele>
        <time>2021-02-04T09:01:26.000Z</time>
      </trkpt>
      <trkpt lat="43.74845" lon="7.28941">
        <ele>170.60000610352</ele>
        <time>2021-02-04T09:01:32.000Z</time>
      </trkpt>
      <trkpt lat="43.74852" lon="7.28938">
        <ele>170.19999694824</ele>
        <time>2021-02-04T09:01:34.000Z</time>
      </trkpt>
      <trkpt lat="43.74863" lon="7.28937">
        <ele>169.19999694824</ele>
        <time>2021-02-04T09:01:37.000Z</time>
      </trkpt>
      <trkpt lat="43.74867" lon="7.28937">
        <ele>169</ele>
        <time>2021-02-04T09:01:38.000Z</time>
      </trkpt>
      <trkpt lat="43.74886" lon="7.28938">
        <ele>168</ele>
        <time>2021-02-04T09:01:43.000Z</time>
      </trkpt>
      <trkpt lat="43.7489" lon="7.28938">
        <ele>167.80000305176</ele>
        <time>2021-02-04T09:01:44.000Z</time>
      </trkpt>
      <trkpt lat="43.74906" lon="7.28941">
        <ele>167.19999694824</ele>
        <time>2021-02-04T09:01:48.000Z</time>
      </trkpt>
      <trkpt lat="43.7491" lon="7.28943">
        <ele>167</ele>
        <time>2021-02-04T09:01:49.000Z</time>
      </trkpt>
      <trkpt lat="43.74914" lon="7.28943">
        <ele>166.80000305176</ele>
        <time>2021-02-04T09:01:50.000Z</time>
      </trkpt>
      <trkpt lat="43.74926" lon="7.28932">
        <ele>166</ele>
        <time>2021-02-04T09:01:53.000Z</time>
      </trkpt>
      <trkpt lat="43.74929" lon="7.28927">
        <ele>165.80000305176</ele>
        <time>2021-02-04T09:01:54.000Z</time>
      </trkpt>
      <trkpt lat="43.74938" lon="7.28913">
        <ele>165.19999694824</ele>
        <time>2021-02-04T09:01:57.000Z</time>
      </trkpt>
      <trkpt lat="43.74939" lon="7.28906">
        <ele>165.19999694824</ele>
        <time>2021-02-04T09:01:58.000Z</time>
      </trkpt>
      <trkpt lat="43.74938" lon="7.28899">
        <ele>164.80000305176</ele>
        <time>2021-02-04T09:01:59.000Z</time>
      </trkpt>
      <trkpt lat="43.74938" lon="7.28883">
        <ele>164.19999694824</ele>
        <time>2021-02-04T09:02:02.000Z</time>
      </trkpt>
      <trkpt lat="43.74945" lon="7.28873">
        <ele>165.19999694824</ele>
        <time>2021-02-04T09:02:06.000Z</time>
      </trkpt>
      <trkpt lat="43.74948" lon="7.2887">
        <ele>166.19999694824</ele>
        <time>2021-02-04T09:02:08.000Z</time>
      </trkpt>
      <trkpt lat="43.74955" lon="7.28863">
        <ele>167.39999389648</ele>
        <time>2021-02-04T09:02:12.000Z</time>
      </trkpt>
      <trkpt lat="43.74958" lon="7.28861">
        <ele>168</ele>
        <time>2021-02-04T09:02:14.000Z</time>
      </trkpt>
      <trkpt lat="43.7496" lon="7.2886">
        <ele>168.60000610352</ele>
        <time>2021-02-04T09:02:15.000Z</time>
      </trkpt>
      <trkpt lat="43.74966" lon="7.28854">
        <ele>169.60000610352</ele>
        <time>2021-02-04T09:02:19.000Z</time>
      </trkpt>
      <trkpt lat="43.74971" lon="7.28851">
        <ele>170.39999389648</ele>
        <time>2021-02-04T09:02:22.000Z</time>
      </trkpt>
      <trkpt lat="43.74974" lon="7.28849">
        <ele>170.80000305176</ele>
        <time>2021-02-04T09:02:24.000Z</time>
      </trkpt>
      <trkpt lat="43.74981" lon="7.28844">
        <ele>171.80000305176</ele>
        <time>2021-02-04T09:02:28.000Z</time>
      </trkpt>
      <trkpt lat="43.74984" lon="7.28841">
        <ele>172.39999389648</ele>
        <time>2021-02-04T09:02:30.000Z</time>
      </trkpt>
      <trkpt lat="43.74987" lon="7.28839">
        <ele>173.19999694824</ele>
        <time>2021-02-04T09:02:32.000Z</time>
      </trkpt>
      <trkpt lat="43.74991" lon="7.28837">
        <ele>174.19999694824</ele>
        <time>2021-02-04T09:02:35.000Z</time>
      </trkpt>
      <trkpt lat="43.74994" lon="7.28835">
        <ele>174.80000305176</ele>
        <time>2021-02-04T09:02:37.000Z</time>
      </trkpt>
      <trkpt lat="43.74996" lon="7.28833">
        <ele>175.19999694824</ele>
        <time>2021-02-04T09:02:39.000Z</time>
      </trkpt>
      <trkpt lat="43.75002" lon="7.28828">
        <ele>176.19999694824</ele>
        <time>2021-02-04T09:02:43.000Z</time>
      </trkpt>
      <trkpt lat="43.75003" lon="7.28827">
        <ele>176.39999389648</ele>
        <time>2021-02-04T09:02:44.000Z</time>
      </trkpt>
      <trkpt lat="43.75009" lon="7.28822">
        <ele>177.60000610352</ele>
        <time>2021-02-04T09:02:48.000Z</time>
      </trkpt>
      <trkpt lat="43.75013" lon="7.28819">
        <ele>178.39999389648</ele>
        <time>2021-02-04T09:02:51.000Z</time>
      </trkpt>
      <trkpt lat="43.75014" lon="7.28817">
        <ele>178.60000610352</ele>
        <time>2021-02-04T09:02:52.000Z</time>
      </trkpt>
      <trkpt lat="43.7502" lon="7.28812">
        <ele>179.60000610352</ele>
        <time>2021-02-04T09:02:56.000Z</time>
      </trkpt>
      <trkpt lat="43.75021" lon="7.28811">
        <ele>180</ele>
        <time>2021-02-04T09:02:57.000Z</time>
      </trkpt>
      <trkpt lat="43.75026" lon="7.28806">
        <ele>181</ele>
        <time>2021-02-04T09:03:00.000Z</time>
      </trkpt>
      <trkpt lat="43.75032" lon="7.288">
        <ele>182.19999694824</ele>
        <time>2021-02-04T09:03:04.000Z</time>
      </trkpt>
      <trkpt lat="43.75036" lon="7.28797">
        <ele>182.80000305176</ele>
        <time>2021-02-04T09:03:06.000Z</time>
      </trkpt>
      <trkpt lat="43.75037" lon="7.28795">
        <ele>183.19999694824</ele>
        <time>2021-02-04T09:03:07.000Z</time>
      </trkpt>
      <trkpt lat="43.7504" lon="7.28791">
        <ele>184.39999389648</ele>
        <time>2021-02-04T09:03:10.000Z</time>
      </trkpt>
      <trkpt lat="43.75045" lon="7.28785">
        <ele>185.60000610352</ele>
        <time>2021-02-04T09:03:14.000Z</time>
      </trkpt>
      <trkpt lat="43.75048" lon="7.28782">
        <ele>186.19999694824</ele>
        <time>2021-02-04T09:03:16.000Z</time>
      </trkpt>
      <trkpt lat="43.7505" lon="7.2878">
        <ele>186.80000305176</ele>
        <time>2021-02-04T09:03:18.000Z</time>
      </trkpt>
      <trkpt lat="43.75055" lon="7.28777">
        <ele>188</ele>
        <time>2021-02-04T09:03:22.000Z</time>
      </trkpt>
      <trkpt lat="43.75056" lon="7.28777">
        <ele>188.39999389648</ele>
        <time>2021-02-04T09:03:23.000Z</time>
      </trkpt>
      <trkpt lat="43.75059" lon="7.28774">
        <ele>189.39999389648</ele>
        <time>2021-02-04T09:03:26.000Z</time>
      </trkpt>
      <trkpt lat="43.75061" lon="7.28773">
        <ele>189.60000610352</ele>
        <time>2021-02-04T09:03:27.000Z</time>
      </trkpt>
      <trkpt lat="43.75066" lon="7.28768">
        <ele>190.39999389648</ele>
        <time>2021-02-04T09:03:31.000Z</time>
      </trkpt>
      <trkpt lat="43.75069" lon="7.28766">
        <ele>191</ele>
        <time>2021-02-04T09:03:33.000Z</time>
      </trkpt>
      <trkpt lat="43.75073" lon="7.28765">
        <ele>191.80000305176</ele>
        <time>2021-02-04T09:03:35.000Z</time>
      </trkpt>
      <trkpt lat="43.75074" lon="7.28763">
        <ele>192</ele>
        <time>2021-02-04T09:03:36.000Z</time>
      </trkpt>
      <trkpt lat="43.75075" lon="7.28759">
        <ele>192.80000305176</ele>
        <time>2021-02-04T09:03:38.000Z</time>
      </trkpt>
      <trkpt lat="43.75079" lon="7.28754">
        <ele>193.60000610352</ele>
        <time>2021-02-04T09:03:41.000Z</time>
      </trkpt>
      <trkpt lat="43.75079" lon="7.28754">
        <ele>193.80000305176</ele>
        <time>2021-02-04T09:03:42.000Z</time>
      </trkpt>
      <trkpt lat="43.7508" lon="7.28752">
        <ele>194</ele>
        <time>2021-02-04T09:03:43.000Z</time>
      </trkpt>
      <trkpt lat="43.75083" lon="7.28747">
        <ele>194.39999389648</ele>
        <time>2021-02-04T09:03:48.000Z</time>
      </trkpt>
      <trkpt lat="43.75085" lon="7.28746">
        <ele>194.80000305176</ele>
        <time>2021-02-04T09:03:50.000Z</time>
      </trkpt>
      <trkpt lat="43.75087" lon="7.28748">
        <ele>195</ele>
        <time>2021-02-04T09:03:52.000Z</time>
      </trkpt>
      <trkpt lat="43.75088" lon="7.2875">
        <ele>195</ele>
        <time>2021-02-04T09:03:53.000Z</time>
      </trkpt>
      <trkpt lat="43.75085" lon="7.28757">
        <ele>195.60000610352</ele>
        <time>2021-02-04T09:03:57.000Z</time>
      </trkpt>
      <trkpt lat="43.75087" lon="7.2876">
        <ele>196</ele>
        <time>2021-02-04T09:04:00.000Z</time>
      </trkpt>
      <trkpt lat="43.7509" lon="7.28753">
        <ele>197.19999694824</ele>
        <time>2021-02-04T09:04:03.000Z</time>
      </trkpt>
      <trkpt lat="43.75092" lon="7.28751">
        <ele>197.80000305176</ele>
        <time>2021-02-04T09:04:05.000Z</time>
      </trkpt>
      <trkpt lat="43.75094" lon="7.28748">
        <ele>198.19999694824</ele>
        <time>2021-02-04T09:04:07.000Z</time>
      </trkpt>
      <trkpt lat="43.75103" lon="7.28736">
        <ele>199.39999389648</ele>
        <time>2021-02-04T09:04:12.000Z</time>
      </trkpt>
      <trkpt lat="43.75104" lon="7.28732">
        <ele>200.39999389648</ele>
        <time>2021-02-04T09:04:14.000Z</time>
      </trkpt>
      <trkpt lat="43.75105" lon="7.2873">
        <ele>201</ele>
        <time>2021-02-04T09:04:15.000Z</time>
      </trkpt>
      <trkpt lat="43.75109" lon="7.28725">
        <ele>202</ele>
        <time>2021-02-04T09:04:17.000Z</time>
      </trkpt>
      <trkpt lat="43.7511" lon="7.28723">
        <ele>202.60000610352</ele>
        <time>2021-02-04T09:04:18.000Z</time>
      </trkpt>
      <trkpt lat="43.75111" lon="7.2872">
        <ele>203.19999694824</ele>
        <time>2021-02-04T09:04:19.000Z</time>
      </trkpt>
      <trkpt lat="43.75113" lon="7.28715">
        <ele>204.19999694824</ele>
        <time>2021-02-04T09:04:21.000Z</time>
      </trkpt>
      <trkpt lat="43.75114" lon="7.28714">
        <ele>204.80000305176</ele>
        <time>2021-02-04T09:04:22.000Z</time>
      </trkpt>
      <trkpt lat="43.75116" lon="7.28712">
        <ele>205.19999694824</ele>
        <time>2021-02-04T09:04:23.000Z</time>
      </trkpt>
      <trkpt lat="43.75117" lon="7.28709">
        <ele>205.80000305176</ele>
        <time>2021-02-04T09:04:24.000Z</time>
      </trkpt>
      <trkpt lat="43.75122" lon="7.28706">
        <ele>206.80000305176</ele>
        <time>2021-02-04T09:04:27.000Z</time>
      </trkpt>
      <trkpt lat="43.75125" lon="7.28703">
        <ele>207.60000610352</ele>
        <time>2021-02-04T09:04:29.000Z</time>
      </trkpt>
      <trkpt lat="43.75127" lon="7.28701">
        <ele>208.19999694824</ele>
        <time>2021-02-04T09:04:30.000Z</time>
      </trkpt>
      <trkpt lat="43.75129" lon="7.28697">
        <ele>209</ele>
        <time>2021-02-04T09:04:32.000Z</time>
      </trkpt>
      <trkpt lat="43.75129" lon="7.28696">
        <ele>209.19999694824</ele>
        <time>2021-02-04T09:04:33.000Z</time>
      </trkpt>
      <trkpt lat="43.7513" lon="7.28695">
        <ele>209.80000305176</ele>
        <time>2021-02-04T09:04:36.000Z</time>
      </trkpt>
      <trkpt lat="43.75134" lon="7.28688">
        <ele>209.80000305176</ele>
        <time>2021-02-04T09:04:47.000Z</time>
      </trkpt>
      <trkpt lat="43.75141" lon="7.2868">
        <ele>210</ele>
        <time>2021-02-04T09:04:53.000Z</time>
      </trkpt>
      <trkpt lat="43.75143" lon="7.28683">
        <ele>210.39999389648</ele>
        <time>2021-02-04T09:04:56.000Z</time>
      </trkpt>
      <trkpt lat="43.75143" lon="7.28685">
        <ele>210.39999389648</ele>
        <time>2021-02-04T09:04:57.000Z</time>
      </trkpt>
      <trkpt lat="43.75142" lon="7.28687">
        <ele>210.60000610352</ele>
        <time>2021-02-04T09:04:58.000Z</time>
      </trkpt>
      <trkpt lat="43.75136" lon="7.28691">
        <ele>211.39999389648</ele>
        <time>2021-02-04T09:05:01.000Z</time>
      </trkpt>
      <trkpt lat="43.75135" lon="7.28692">
        <ele>211.80000305176</ele>
        <time>2021-02-04T09:05:02.000Z</time>
      </trkpt>
      <trkpt lat="43.75135" lon="7.28695">
        <ele>212.80000305176</ele>
        <time>2021-02-04T09:05:04.000Z</time>
      </trkpt>
      <trkpt lat="43.75135" lon="7.28696">
        <ele>213.39999389648</ele>
        <time>2021-02-04T09:05:05.000Z</time>
      </trkpt>
      <trkpt lat="43.75136" lon="7.28696">
        <ele>213.80000305176</ele>
        <time>2021-02-04T09:05:07.000Z</time>
      </trkpt>
      <trkpt lat="43.75136" lon="7.28696">
        <ele>214.19999694824</ele>
        <time>2021-02-04T09:05:10.000Z</time>
      </trkpt>
      <trkpt lat="43.7514" lon="7.28694">
        <ele>214.60000610352</ele>
        <time>2021-02-04T09:05:16.000Z</time>
      </trkpt>
      <trkpt lat="43.7514" lon="7.28693">
        <ele>215</ele>
        <time>2021-02-04T09:05:18.000Z</time>
      </trkpt>
      <trkpt lat="43.75141" lon="7.28693">
        <ele>215.39999389648</ele>
        <time>2021-02-04T09:05:21.000Z</time>
      </trkpt>
      <trkpt lat="43.75147" lon="7.28687">
        <ele>215.80000305176</ele>
        <time>2021-02-04T09:05:26.000Z</time>
      </trkpt>
      <trkpt lat="43.7515" lon="7.28685">
        <ele>216.39999389648</ele>
        <time>2021-02-04T09:05:28.000Z</time>
      </trkpt>
      <trkpt lat="43.75151" lon="7.28683">
        <ele>217.39999389648</ele>
        <time>2021-02-04T09:05:31.000Z</time>
      </trkpt>
      <trkpt lat="43.75155" lon="7.28679">
        <ele>218.19999694824</ele>
        <time>2021-02-04T09:05:35.000Z</time>
      </trkpt>
      <trkpt lat="43.75156" lon="7.28678">
        <ele>218.39999389648</ele>
        <time>2021-02-04T09:05:36.000Z</time>
      </trkpt>
      <trkpt lat="43.75157" lon="7.28677">
        <ele>218.60000610352</ele>
        <time>2021-02-04T09:05:37.000Z</time>
      </trkpt>
      <trkpt lat="43.75157" lon="7.28676">
        <ele>219</ele>
        <time>2021-02-04T09:05:39.000Z</time>
      </trkpt>
      <trkpt lat="43.75159" lon="7.28676">
        <ele>219.39999389648</ele>
        <time>2021-02-04T09:05:43.000Z</time>
      </trkpt>
      <trkpt lat="43.7516" lon="7.28674">
        <ele>219.39999389648</ele>
        <time>2021-02-04T09:05:44.000Z</time>
      </trkpt>
      <trkpt lat="43.75162" lon="7.28673">
        <ele>219.60000610352</ele>
        <time>2021-02-04T09:05:45.000Z</time>
      </trkpt>
      <trkpt lat="43.75164" lon="7.28671">
        <ele>219.60000610352</ele>
        <time>2021-02-04T09:05:46.000Z</time>
      </trkpt>
      <trkpt lat="43.75167" lon="7.28667">
        <ele>219.80000305176</ele>
        <time>2021-02-04T09:05:48.000Z</time>
      </trkpt>
      <trkpt lat="43.75172" lon="7.28658">
        <ele>220.80000305176</ele>
        <time>2021-02-04T09:05:52.000Z</time>
      </trkpt>
      <trkpt lat="43.75173" lon="7.28656">
        <ele>221.19999694824</ele>
        <time>2021-02-04T09:05:53.000Z</time>
      </trkpt>
      <trkpt lat="43.75176" lon="7.28651">
        <ele>221.39999389648</ele>
        <time>2021-02-04T09:05:55.000Z</time>
      </trkpt>
      <trkpt lat="43.75177" lon="7.28645">
        <ele>222</ele>
        <time>2021-02-04T09:05:57.000Z</time>
      </trkpt>
      <trkpt lat="43.75179" lon="7.28638">
        <ele>223.19999694824</ele>
        <time>2021-02-04T09:06:00.000Z</time>
      </trkpt>
      <trkpt lat="43.7518" lon="7.28635">
        <ele>223.60000610352</ele>
        <time>2021-02-04T09:06:01.000Z</time>
      </trkpt>
      <trkpt lat="43.75181" lon="7.28632">
        <ele>223.80000305176</ele>
        <time>2021-02-04T09:06:02.000Z</time>
      </trkpt>
      <trkpt lat="43.75182" lon="7.28625">
        <ele>224.39999389648</ele>
        <time>2021-02-04T09:06:05.000Z</time>
      </trkpt>
      <trkpt lat="43.75183" lon="7.28623">
        <ele>224.60000610352</ele>
        <time>2021-02-04T09:06:06.000Z</time>
      </trkpt>
      <trkpt lat="43.75185" lon="7.2862">
        <ele>225.19999694824</ele>
        <time>2021-02-04T09:06:08.000Z</time>
      </trkpt>
      <trkpt lat="43.75186" lon="7.2862">
        <ele>225.60000610352</ele>
        <time>2021-02-04T09:06:09.000Z</time>
      </trkpt>
      <trkpt lat="43.75187" lon="7.28621">
        <ele>226</ele>
        <time>2021-02-04T09:06:11.000Z</time>
      </trkpt>
      <trkpt lat="43.75187" lon="7.28626">
        <ele>226.39999389648</ele>
        <time>2021-02-04T09:06:15.000Z</time>
      </trkpt>
      <trkpt lat="43.75188" lon="7.28627">
        <ele>226.39999389648</ele>
        <time>2021-02-04T09:06:16.000Z</time>
      </trkpt>
      <trkpt lat="43.75187" lon="7.28627">
        <ele>226.60000610352</ele>
        <time>2021-02-04T09:06:17.000Z</time>
      </trkpt>
      <trkpt lat="43.75188" lon="7.28629">
        <ele>227</ele>
        <time>2021-02-04T09:06:22.000Z</time>
      </trkpt>
      <trkpt lat="43.7519" lon="7.2863">
        <ele>227.19999694824</ele>
        <time>2021-02-04T09:06:25.000Z</time>
      </trkpt>
      <trkpt lat="43.75193" lon="7.28628">
        <ele>227.19999694824</ele>
        <time>2021-02-04T09:06:27.000Z</time>
      </trkpt>
      <trkpt lat="43.75195" lon="7.28624">
        <ele>227.19999694824</ele>
        <time>2021-02-04T09:06:29.000Z</time>
      </trkpt>
      <trkpt lat="43.75196" lon="7.2862">
        <ele>228</ele>
        <time>2021-02-04T09:06:31.000Z</time>
      </trkpt>
      <trkpt lat="43.75201" lon="7.28619">
        <ele>229.19999694824</ele>
        <time>2021-02-04T09:06:34.000Z</time>
      </trkpt>
      <trkpt lat="43.75202" lon="7.28621">
        <ele>229.39999389648</ele>
        <time>2021-02-04T09:06:35.000Z</time>
      </trkpt>
      <trkpt lat="43.75203" lon="7.28629">
        <ele>230.60000610352</ele>
        <time>2021-02-04T09:06:39.000Z</time>
      </trkpt>
      <trkpt lat="43.75201" lon="7.28635">
        <ele>232</ele>
        <time>2021-02-04T09:06:42.000Z</time>
      </trkpt>
      <trkpt lat="43.752" lon="7.2864">
        <ele>232.80000305176</ele>
        <time>2021-02-04T09:06:44.000Z</time>
      </trkpt>
      <trkpt lat="43.752" lon="7.28642">
        <ele>233</ele>
        <time>2021-02-04T09:06:45.000Z</time>
      </trkpt>
      <trkpt lat="43.75202" lon="7.28647">
        <ele>233.80000305176</ele>
        <time>2021-02-04T09:06:48.000Z</time>
      </trkpt>
      <trkpt lat="43.75202" lon="7.28647">
        <ele>234</ele>
        <time>2021-02-04T09:06:49.000Z</time>
      </trkpt>
      <trkpt lat="43.75202" lon="7.28647">
        <ele>234.39999389648</ele>
        <time>2021-02-04T09:06:50.000Z</time>
      </trkpt>
      <trkpt lat="43.75203" lon="7.28646">
        <ele>235</ele>
        <time>2021-02-04T09:06:52.000Z</time>
      </trkpt>
      <trkpt lat="43.75203" lon="7.28645">
        <ele>235.39999389648</ele>
        <time>2021-02-04T09:06:53.000Z</time>
      </trkpt>
      <trkpt lat="43.75209" lon="7.28632">
        <ele>236.80000305176</ele>
        <time>2021-02-04T09:06:59.000Z</time>
      </trkpt>
      <trkpt lat="43.7521" lon="7.28629">
        <ele>237.80000305176</ele>
        <time>2021-02-04T09:07:01.000Z</time>
      </trkpt>
      <trkpt lat="43.75214" lon="7.2862">
        <ele>239</ele>
        <time>2021-02-04T09:07:05.000Z</time>
      </trkpt>
      <trkpt lat="43.75218" lon="7.28613">
        <ele>240</ele>
        <time>2021-02-04T09:07:08.000Z</time>
      </trkpt>
      <trkpt lat="43.75221" lon="7.28609">
        <ele>240.39999389648</ele>
        <time>2021-02-04T09:07:10.000Z</time>
      </trkpt>
      <trkpt lat="43.75224" lon="7.28607">
        <ele>241</ele>
        <time>2021-02-04T09:07:12.000Z</time>
      </trkpt>
      <trkpt lat="43.75227" lon="7.28606">
        <ele>241.39999389648</ele>
        <time>2021-02-04T09:07:14.000Z</time>
      </trkpt>
      <trkpt lat="43.7523" lon="7.28604">
        <ele>242.39999389648</ele>
        <time>2021-02-04T09:07:16.000Z</time>
      </trkpt>
      <trkpt lat="43.75234" lon="7.28602">
        <ele>244</ele>
        <time>2021-02-04T09:07:19.000Z</time>
      </trkpt>
      <trkpt lat="43.75238" lon="7.28599">
        <ele>244.60000610352</ele>
        <time>2021-02-04T09:07:21.000Z</time>
      </trkpt>
      <trkpt lat="43.75241" lon="7.28598">
        <ele>245.19999694824</ele>
        <time>2021-02-04T09:07:23.000Z</time>
      </trkpt>
      <trkpt lat="43.75248" lon="7.28596">
        <ele>246.19999694824</ele>
        <time>2021-02-04T09:07:27.000Z</time>
      </trkpt>
      <trkpt lat="43.75257" lon="7.28596">
        <ele>247.19999694824</ele>
        <time>2021-02-04T09:07:31.000Z</time>
      </trkpt>
      <trkpt lat="43.7526" lon="7.28597">
        <ele>248</ele>
        <time>2021-02-04T09:07:33.000Z</time>
      </trkpt>
      <trkpt lat="43.75263" lon="7.28597">
        <ele>248.39999389648</ele>
        <time>2021-02-04T09:07:34.000Z</time>
      </trkpt>
      <trkpt lat="43.75269" lon="7.28597">
        <ele>250</ele>
        <time>2021-02-04T09:07:37.000Z</time>
      </trkpt>
      <trkpt lat="43.75271" lon="7.28597">
        <ele>250.39999389648</ele>
        <time>2021-02-04T09:07:38.000Z</time>
      </trkpt>
      <trkpt lat="43.75272" lon="7.28596">
        <ele>250.80000305176</ele>
        <time>2021-02-04T09:07:39.000Z</time>
      </trkpt>
      <trkpt lat="43.75273" lon="7.28596">
        <ele>251.19999694824</ele>
        <time>2021-02-04T09:07:40.000Z</time>
      </trkpt>
      <trkpt lat="43.75277" lon="7.28593">
        <ele>252.80000305176</ele>
        <time>2021-02-04T09:07:43.000Z</time>
      </trkpt>
      <trkpt lat="43.75282" lon="7.28594">
        <ele>254</ele>
        <time>2021-02-04T09:07:46.000Z</time>
      </trkpt>
      <trkpt lat="43.75283" lon="7.28594">
        <ele>254.39999389648</ele>
        <time>2021-02-04T09:07:47.000Z</time>
      </trkpt>
      <trkpt lat="43.75286" lon="7.28594">
        <ele>255</ele>
        <time>2021-02-04T09:07:51.000Z</time>
      </trkpt>
      <trkpt lat="43.75287" lon="7.28594">
        <ele>255.19999694824</ele>
        <time>2021-02-04T09:07:53.000Z</time>
      </trkpt>
      <trkpt lat="43.75288" lon="7.28594">
        <ele>255</ele>
        <time>2021-02-04T09:07:59.000Z</time>
      </trkpt>
      <trkpt lat="43.75289" lon="7.28595">
        <ele>255.19999694824</ele>
        <time>2021-02-04T09:08:07.000Z</time>
      </trkpt>
      <trkpt lat="43.75291" lon="7.28597">
        <ele>256</ele>
        <time>2021-02-04T09:08:13.000Z</time>
      </trkpt>
      <trkpt lat="43.75293" lon="7.28597">
        <ele>257.20001220703</ele>
        <time>2021-02-04T09:08:20.000Z</time>
      </trkpt>
      <trkpt lat="43.75293" lon="7.28597">
        <ele>257.39999389648</ele>
        <time>2021-02-04T09:08:31.000Z</time>
      </trkpt>
      <trkpt lat="43.75296" lon="7.28599">
        <ele>257.60000610352</ele>
        <time>2021-02-04T09:08:38.000Z</time>
      </trkpt>
      <trkpt lat="43.75297" lon="7.28599">
        <ele>258.20001220703</ele>
        <time>2021-02-04T09:08:41.000Z</time>
      </trkpt>
      <trkpt lat="43.75298" lon="7.286">
        <ele>258.79998779297</ele>
        <time>2021-02-04T09:08:44.000Z</time>
      </trkpt>
      <trkpt lat="43.75302" lon="7.286">
        <ele>258.79998779297</ele>
        <time>2021-02-04T09:08:50.000Z</time>
      </trkpt>
      <trkpt lat="43.75308" lon="7.28601">
        <ele>259.20001220703</ele>
        <time>2021-02-04T09:08:54.000Z</time>
      </trkpt>
      <trkpt lat="43.75309" lon="7.28601">
        <ele>259.60000610352</ele>
        <time>2021-02-04T09:08:56.000Z</time>
      </trkpt>
      <trkpt lat="43.7531" lon="7.28602">
        <ele>260</ele>
        <time>2021-02-04T09:08:58.000Z</time>
      </trkpt>
      <trkpt lat="43.7531" lon="7.28602">
        <ele>260.20001220703</ele>
        <time>2021-02-04T09:08:59.000Z</time>
      </trkpt>
      <trkpt lat="43.75311" lon="7.28602">
        <ele>260.60000610352</ele>
        <time>2021-02-04T09:09:01.000Z</time>
      </trkpt>
      <trkpt lat="43.75321" lon="7.28602">
        <ele>261</ele>
        <time>2021-02-04T09:09:05.000Z</time>
      </trkpt>
      <trkpt lat="43.75323" lon="7.28603">
        <ele>261.60000610352</ele>
        <time>2021-02-04T09:09:07.000Z</time>
      </trkpt>
      <trkpt lat="43.75324" lon="7.28603">
        <ele>262.60000610352</ele>
        <time>2021-02-04T09:09:09.000Z</time>
      </trkpt>
      <trkpt lat="43.75332" lon="7.28605">
        <ele>263.39999389648</ele>
        <time>2021-02-04T09:09:16.000Z</time>
      </trkpt>
      <trkpt lat="43.75335" lon="7.28607">
        <ele>263.60000610352</ele>
        <time>2021-02-04T09:09:18.000Z</time>
      </trkpt>
      <trkpt lat="43.7534" lon="7.28611">
        <ele>263.79998779297</ele>
        <time>2021-02-04T09:09:21.000Z</time>
      </trkpt>
      <trkpt lat="43.75348" lon="7.28617">
        <ele>263.79998779297</ele>
        <time>2021-02-04T09:09:25.000Z</time>
      </trkpt>
      <trkpt lat="43.7535" lon="7.28618">
        <ele>264</ele>
        <time>2021-02-04T09:09:26.000Z</time>
      </trkpt>
      <trkpt lat="43.75356" lon="7.28619">
        <ele>264.79998779297</ele>
        <time>2021-02-04T09:09:29.000Z</time>
      </trkpt>
      <trkpt lat="43.75361" lon="7.28622">
        <ele>266.20001220703</ele>
        <time>2021-02-04T09:09:32.000Z</time>
      </trkpt>
      <trkpt lat="43.75368" lon="7.28627">
        <ele>267.20001220703</ele>
        <time>2021-02-04T09:09:35.000Z</time>
      </trkpt>
      <trkpt lat="43.75375" lon="7.28632">
        <ele>267</ele>
        <time>2021-02-04T09:09:37.000Z</time>
      </trkpt>
      <trkpt lat="43.75382" lon="7.28635">
        <ele>266.20001220703</ele>
        <time>2021-02-04T09:09:39.000Z</time>
      </trkpt>
      <trkpt lat="43.75386" lon="7.28636">
        <ele>265.79998779297</ele>
        <time>2021-02-04T09:09:40.000Z</time>
      </trkpt>
      <trkpt lat="43.75395" lon="7.28637">
        <ele>265.60000610352</ele>
        <time>2021-02-04T09:09:42.000Z</time>
      </trkpt>
      <trkpt lat="43.75401" lon="7.2864">
        <ele>265.20001220703</ele>
        <time>2021-02-04T09:09:44.000Z</time>
      </trkpt>
      <trkpt lat="43.75403" lon="7.28642">
        <ele>265</ele>
        <time>2021-02-04T09:09:45.000Z</time>
      </trkpt>
      <trkpt lat="43.7541" lon="7.28648">
        <ele>266.60000610352</ele>
        <time>2021-02-04T09:09:49.000Z</time>
      </trkpt>
      <trkpt lat="43.75411" lon="7.28648">
        <ele>267</ele>
        <time>2021-02-04T09:09:50.000Z</time>
      </trkpt>
      <trkpt lat="43.75411" lon="7.28648">
        <ele>267</ele>
        <time>2021-02-04T09:09:56.000Z</time>
      </trkpt>
      <trkpt lat="43.75412" lon="7.28648">
        <ele>267</ele>
        <time>2021-02-04T09:10:06.000Z</time>
      </trkpt>
      <trkpt lat="43.75413" lon="7.28647">
        <ele>266.79998779297</ele>
        <time>2021-02-04T09:10:23.000Z</time>
      </trkpt>
      <trkpt lat="43.75414" lon="7.28647">
        <ele>266.60000610352</ele>
        <time>2021-02-04T09:10:37.000Z</time>
      </trkpt>
      <trkpt lat="43.75413" lon="7.28645">
        <ele>266.20001220703</ele>
        <time>2021-02-04T09:10:49.000Z</time>
      </trkpt>
      <trkpt lat="43.75412" lon="7.28645">
        <ele>266.20001220703</ele>
        <time>2021-02-04T09:10:50.000Z</time>
      </trkpt>
      <trkpt lat="43.75405" lon="7.28647">
        <ele>266.20001220703</ele>
        <time>2021-02-04T09:10:53.000Z</time>
      </trkpt>
      <trkpt lat="43.75395" lon="7.28646">
        <ele>267</ele>
        <time>2021-02-04T09:10:57.000Z</time>
      </trkpt>
      <trkpt lat="43.75391" lon="7.28645">
        <ele>268</ele>
        <time>2021-02-04T09:10:59.000Z</time>
      </trkpt>
      <trkpt lat="43.75387" lon="7.28645">
        <ele>269</ele>
        <time>2021-02-04T09:11:01.000Z</time>
      </trkpt>
      <trkpt lat="43.75383" lon="7.28645">
        <ele>270.20001220703</ele>
        <time>2021-02-04T09:11:03.000Z</time>
      </trkpt>
      <trkpt lat="43.75377" lon="7.28644">
        <ele>271.39999389648</ele>
        <time>2021-02-04T09:11:06.000Z</time>
      </trkpt>
      <trkpt lat="43.75371" lon="7.28644">
        <ele>273.20001220703</ele>
        <time>2021-02-04T09:11:09.000Z</time>
      </trkpt>
      <trkpt lat="43.75367" lon="7.28645">
        <ele>274.20001220703</ele>
        <time>2021-02-04T09:11:11.000Z</time>
      </trkpt>
      <trkpt lat="43.75365" lon="7.28645">
        <ele>274.79998779297</ele>
        <time>2021-02-04T09:11:12.000Z</time>
      </trkpt>
      <trkpt lat="43.75363" lon="7.28645">
        <ele>275.20001220703</ele>
        <time>2021-02-04T09:11:13.000Z</time>
      </trkpt>
      <trkpt lat="43.7536" lon="7.28647">
        <ele>276.39999389648</ele>
        <time>2021-02-04T09:11:15.000Z</time>
      </trkpt>
      <trkpt lat="43.75357" lon="7.28649">
        <ele>277.39999389648</ele>
        <time>2021-02-04T09:11:17.000Z</time>
      </trkpt>
      <trkpt lat="43.75355" lon="7.2865">
        <ele>278.20001220703</ele>
        <time>2021-02-04T09:11:19.000Z</time>
      </trkpt>
      <trkpt lat="43.75354" lon="7.2865">
        <ele>278.39999389648</ele>
        <time>2021-02-04T09:11:20.000Z</time>
      </trkpt>
      <trkpt lat="43.75345" lon="7.28655">
        <ele>279.60000610352</ele>
        <time>2021-02-04T09:11:26.000Z</time>
      </trkpt>
      <trkpt lat="43.75336" lon="7.28661">
        <ele>280.39999389648</ele>
        <time>2021-02-04T09:11:33.000Z</time>
      </trkpt>
      <trkpt lat="43.75335" lon="7.28661">
        <ele>280.39999389648</ele>
        <time>2021-02-04T09:11:34.000Z</time>
      </trkpt>
      <trkpt lat="43.75331" lon="7.28666">
        <ele>280.20001220703</ele>
        <time>2021-02-04T09:11:38.000Z</time>
      </trkpt>
      <trkpt lat="43.75326" lon="7.28677">
        <ele>280.39999389648</ele>
        <time>2021-02-04T09:11:43.000Z</time>
      </trkpt>
      <trkpt lat="43.75327" lon="7.28682">
        <ele>280.20001220703</ele>
        <time>2021-02-04T09:11:44.000Z</time>
      </trkpt>
      <trkpt lat="43.7533" lon="7.28688">
        <ele>279.79998779297</ele>
        <time>2021-02-04T09:11:46.000Z</time>
      </trkpt>
      <trkpt lat="43.75337" lon="7.28708">
        <ele>279.39999389648</ele>
        <time>2021-02-04T09:11:52.000Z</time>
      </trkpt>
      <trkpt lat="43.75337" lon="7.28731">
        <ele>279.20001220703</ele>
        <time>2021-02-04T09:11:58.000Z</time>
      </trkpt>
      <trkpt lat="43.75328" lon="7.2875">
        <ele>279</ele>
        <time>2021-02-04T09:12:03.000Z</time>
      </trkpt>
      <trkpt lat="43.75323" lon="7.28769">
        <ele>278.39999389648</ele>
        <time>2021-02-04T09:12:07.000Z</time>
      </trkpt>
      <trkpt lat="43.75321" lon="7.28773">
        <ele>278.39999389648</ele>
        <time>2021-02-04T09:12:08.000Z</time>
      </trkpt>
      <trkpt lat="43.75312" lon="7.28787">
        <ele>279</ele>
        <time>2021-02-04T09:12:13.000Z</time>
      </trkpt>
      <trkpt lat="43.7531" lon="7.28793">
        <ele>279.39999389648</ele>
        <time>2021-02-04T09:12:15.000Z</time>
      </trkpt>
      <trkpt lat="43.75305" lon="7.28806">
        <ele>280</ele>
        <time>2021-02-04T09:12:19.000Z</time>
      </trkpt>
      <trkpt lat="43.75302" lon="7.28815">
        <ele>280.60000610352</ele>
        <time>2021-02-04T09:12:22.000Z</time>
      </trkpt>
      <trkpt lat="43.75297" lon="7.28828">
        <ele>281.60000610352</ele>
        <time>2021-02-04T09:12:26.000Z</time>
      </trkpt>
      <trkpt lat="43.75297" lon="7.28831">
        <ele>281.79998779297</ele>
        <time>2021-02-04T09:12:27.000Z</time>
      </trkpt>
      <trkpt lat="43.75291" lon="7.28851">
        <ele>282.79998779297</ele>
        <time>2021-02-04T09:12:33.000Z</time>
      </trkpt>
      <trkpt lat="43.7529" lon="7.28854">
        <ele>283</ele>
        <time>2021-02-04T09:12:34.000Z</time>
      </trkpt>
      <trkpt lat="43.75286" lon="7.28866">
        <ele>284</ele>
        <time>2021-02-04T09:12:38.000Z</time>
      </trkpt>
      <trkpt lat="43.75284" lon="7.28877">
        <ele>285</ele>
        <time>2021-02-04T09:12:42.000Z</time>
      </trkpt>
      <trkpt lat="43.75283" lon="7.2888">
        <ele>285.20001220703</ele>
        <time>2021-02-04T09:12:43.000Z</time>
      </trkpt>
      <trkpt lat="43.75283" lon="7.28892">
        <ele>286</ele>
        <time>2021-02-04T09:12:47.000Z</time>
      </trkpt>
      <trkpt lat="43.75285" lon="7.28898">
        <ele>286.20001220703</ele>
        <time>2021-02-04T09:12:49.000Z</time>
      </trkpt>
      <trkpt lat="43.75288" lon="7.28909">
        <ele>286.60000610352</ele>
        <time>2021-02-04T09:12:53.000Z</time>
      </trkpt>
      <trkpt lat="43.75291" lon="7.28921">
        <ele>287.39999389648</ele>
        <time>2021-02-04T09:12:57.000Z</time>
      </trkpt>
      <trkpt lat="43.75293" lon="7.28926">
        <ele>287.60000610352</ele>
        <time>2021-02-04T09:12:59.000Z</time>
      </trkpt>
      <trkpt lat="43.75294" lon="7.28936">
        <ele>288.39999389648</ele>
        <time>2021-02-04T09:13:02.000Z</time>
      </trkpt>
      <trkpt lat="43.75294" lon="7.28945">
        <ele>289</ele>
        <time>2021-02-04T09:13:06.000Z</time>
      </trkpt>
      <trkpt lat="43.75294" lon="7.2895">
        <ele>289.60000610352</ele>
        <time>2021-02-04T09:13:08.000Z</time>
      </trkpt>
      <trkpt lat="43.75293" lon="7.2895">
        <ele>289.79998779297</ele>
        <time>2021-02-04T09:13:10.000Z</time>
      </trkpt>
      <trkpt lat="43.75295" lon="7.2895">
        <ele>290</ele>
        <time>2021-02-04T09:13:14.000Z</time>
      </trkpt>
      <trkpt lat="43.75295" lon="7.2895">
        <ele>289.60000610352</ele>
        <time>2021-02-04T09:13:25.000Z</time>
      </trkpt>
      <trkpt lat="43.75295" lon="7.2895">
        <ele>290.20001220703</ele>
        <time>2021-02-04T09:13:32.000Z</time>
      </trkpt>
      <trkpt lat="43.75295" lon="7.2895">
        <ele>290</ele>
        <time>2021-02-04T09:13:49.000Z</time>
      </trkpt>
      <trkpt lat="43.75294" lon="7.28949">
        <ele>289.79998779297</ele>
        <time>2021-02-04T09:14:11.000Z</time>
      </trkpt>
      <trkpt lat="43.75294" lon="7.28949">
        <ele>290</ele>
        <time>2021-02-04T09:14:21.000Z</time>
      </trkpt>
      <trkpt lat="43.75294" lon="7.28949">
        <ele>289.79998779297</ele>
        <time>2021-02-04T09:14:28.000Z</time>
      </trkpt>
      <trkpt lat="43.75291" lon="7.28947">
        <ele>290</ele>
        <time>2021-02-04T09:14:31.000Z</time>
      </trkpt>
      <trkpt lat="43.75291" lon="7.28946">
        <ele>290</ele>
        <time>2021-02-04T09:14:32.000Z</time>
      </trkpt>
      <trkpt lat="43.7529" lon="7.28948">
        <ele>290</ele>
        <time>2021-02-04T09:14:38.000Z</time>
      </trkpt>
      <trkpt lat="43.75286" lon="7.28959">
        <ele>289.79998779297</ele>
        <time>2021-02-04T09:14:42.000Z</time>
      </trkpt>
      <trkpt lat="43.75279" lon="7.28982">
        <ele>290.20001220703</ele>
        <time>2021-02-04T09:14:47.000Z</time>
      </trkpt>
      <trkpt lat="43.75277" lon="7.28987">
        <ele>290.60000610352</ele>
        <time>2021-02-04T09:14:48.000Z</time>
      </trkpt>
      <trkpt lat="43.7527" lon="7.29009">
        <ele>291.79998779297</ele>
        <time>2021-02-04T09:14:52.000Z</time>
      </trkpt>
      <trkpt lat="43.75266" lon="7.29022">
        <ele>292.60000610352</ele>
        <time>2021-02-04T09:14:54.000Z</time>
      </trkpt>
      <trkpt lat="43.75264" lon="7.29028">
        <ele>292.79998779297</ele>
        <time>2021-02-04T09:14:55.000Z</time>
      </trkpt>
      <trkpt lat="43.75254" lon="7.29046">
        <ele>294.20001220703</ele>
        <time>2021-02-04T09:14:58.000Z</time>
      </trkpt>
      <trkpt lat="43.75247" lon="7.29054">
        <ele>295</ele>
        <time>2021-02-04T09:15:00.000Z</time>
      </trkpt>
      <trkpt lat="43.75244" lon="7.29059">
        <ele>295.39999389648</ele>
        <time>2021-02-04T09:15:01.000Z</time>
      </trkpt>
      <trkpt lat="43.75232" lon="7.29072">
        <ele>296.79998779297</ele>
        <time>2021-02-04T09:15:04.000Z</time>
      </trkpt>
      <trkpt lat="43.7522" lon="7.29085">
        <ele>298.20001220703</ele>
        <time>2021-02-04T09:15:07.000Z</time>
      </trkpt>
      <trkpt lat="43.7521" lon="7.291">
        <ele>299.39999389648</ele>
        <time>2021-02-04T09:15:10.000Z</time>
      </trkpt>
      <trkpt lat="43.752" lon="7.29117">
        <ele>300.60000610352</ele>
        <time>2021-02-04T09:15:13.000Z</time>
      </trkpt>
      <trkpt lat="43.75197" lon="7.29123">
        <ele>301</ele>
        <time>2021-02-04T09:15:14.000Z</time>
      </trkpt>
      <trkpt lat="43.75191" lon="7.29133">
        <ele>301.79998779297</ele>
        <time>2021-02-04T09:15:16.000Z</time>
      </trkpt>
      <trkpt lat="43.75181" lon="7.2915">
        <ele>303.39999389648</ele>
        <time>2021-02-04T09:15:19.000Z</time>
      </trkpt>
      <trkpt lat="43.75172" lon="7.29167">
        <ele>304.60000610352</ele>
        <time>2021-02-04T09:15:22.000Z</time>
      </trkpt>
      <trkpt lat="43.7517" lon="7.29172">
        <ele>305</ele>
        <time>2021-02-04T09:15:23.000Z</time>
      </trkpt>
      <trkpt lat="43.75165" lon="7.29184">
        <ele>305.60000610352</ele>
        <time>2021-02-04T09:15:25.000Z</time>
      </trkpt>
      <trkpt lat="43.75159" lon="7.292">
        <ele>307</ele>
        <time>2021-02-04T09:15:28.000Z</time>
      </trkpt>
      <trkpt lat="43.75157" lon="7.29205">
        <ele>307.39999389648</ele>
        <time>2021-02-04T09:15:29.000Z</time>
      </trkpt>
      <trkpt lat="43.75155" lon="7.29209">
        <ele>308</ele>
        <time>2021-02-04T09:15:30.000Z</time>
      </trkpt>
      <trkpt lat="43.7515" lon="7.29223">
        <ele>309.20001220703</ele>
        <time>2021-02-04T09:15:33.000Z</time>
      </trkpt>
      <trkpt lat="43.75147" lon="7.29235">
        <ele>309.79998779297</ele>
        <time>2021-02-04T09:15:36.000Z</time>
      </trkpt>
      <trkpt lat="43.7515" lon="7.29242">
        <ele>310.20001220703</ele>
        <time>2021-02-04T09:15:39.000Z</time>
      </trkpt>
      <trkpt lat="43.75151" lon="7.29243">
        <ele>310.20001220703</ele>
        <time>2021-02-04T09:15:40.000Z</time>
      </trkpt>
      <trkpt lat="43.75163" lon="7.29244">
        <ele>311.20001220703</ele>
        <time>2021-02-04T09:15:45.000Z</time>
      </trkpt>
      <trkpt lat="43.75166" lon="7.29244">
        <ele>311.60000610352</ele>
        <time>2021-02-04T09:15:46.000Z</time>
      </trkpt>
      <trkpt lat="43.75171" lon="7.29243">
        <ele>312.39999389648</ele>
        <time>2021-02-04T09:15:48.000Z</time>
      </trkpt>
      <trkpt lat="43.75174" lon="7.29245">
        <ele>313.39999389648</ele>
        <time>2021-02-04T09:15:50.000Z</time>
      </trkpt>
      <trkpt lat="43.75176" lon="7.29245">
        <ele>314</ele>
        <time>2021-02-04T09:15:51.000Z</time>
      </trkpt>
      <trkpt lat="43.75179" lon="7.29246">
        <ele>314.60000610352</ele>
        <time>2021-02-04T09:15:52.000Z</time>
      </trkpt>
      <trkpt lat="43.75183" lon="7.29247">
        <ele>315.60000610352</ele>
        <time>2021-02-04T09:15:54.000Z</time>
      </trkpt>
      <trkpt lat="43.7519" lon="7.29247">
        <ele>316.60000610352</ele>
        <time>2021-02-04T09:15:57.000Z</time>
      </trkpt>
      <trkpt lat="43.75193" lon="7.29247">
        <ele>317</ele>
        <time>2021-02-04T09:15:58.000Z</time>
      </trkpt>
      <trkpt lat="43.75196" lon="7.29247">
        <ele>317.60000610352</ele>
        <time>2021-02-04T09:15:59.000Z</time>
      </trkpt>
      <trkpt lat="43.75201" lon="7.29247">
        <ele>318.60000610352</ele>
        <time>2021-02-04T09:16:01.000Z</time>
      </trkpt>
      <trkpt lat="43.75206" lon="7.29248">
        <ele>319.60000610352</ele>
        <time>2021-02-04T09:16:03.000Z</time>
      </trkpt>
      <trkpt lat="43.75214" lon="7.29249">
        <ele>320.79998779297</ele>
        <time>2021-02-04T09:16:06.000Z</time>
      </trkpt>
      <trkpt lat="43.75221" lon="7.29248">
        <ele>322</ele>
        <time>2021-02-04T09:16:09.000Z</time>
      </trkpt>
      <trkpt lat="43.75229" lon="7.29248">
        <ele>323.39999389648</ele>
        <time>2021-02-04T09:16:12.000Z</time>
      </trkpt>
      <trkpt lat="43.75236" lon="7.29247">
        <ele>324.60000610352</ele>
        <time>2021-02-04T09:16:15.000Z</time>
      </trkpt>
      <trkpt lat="43.75245" lon="7.29245">
        <ele>326</ele>
        <time>2021-02-04T09:16:18.000Z</time>
      </trkpt>
      <trkpt lat="43.75252" lon="7.29245">
        <ele>327.39999389648</ele>
        <time>2021-02-04T09:16:21.000Z</time>
      </trkpt>
      <trkpt lat="43.75257" lon="7.29244">
        <ele>328.39999389648</ele>
        <time>2021-02-04T09:16:23.000Z</time>
      </trkpt>
      <trkpt lat="43.75261" lon="7.29242">
        <ele>329.60000610352</ele>
        <time>2021-02-04T09:16:25.000Z</time>
      </trkpt>
      <trkpt lat="43.75267" lon="7.29238">
        <ele>330.79998779297</ele>
        <time>2021-02-04T09:16:28.000Z</time>
      </trkpt>
      <trkpt lat="43.75269" lon="7.29235">
        <ele>331.39999389648</ele>
        <time>2021-02-04T09:16:29.000Z</time>
      </trkpt>
      <trkpt lat="43.75272" lon="7.29234">
        <ele>331.79998779297</ele>
        <time>2021-02-04T09:16:30.000Z</time>
      </trkpt>
      <trkpt lat="43.75279" lon="7.2923">
        <ele>333.39999389648</ele>
        <time>2021-02-04T09:16:33.000Z</time>
      </trkpt>
      <trkpt lat="43.75281" lon="7.29229">
        <ele>333.79998779297</ele>
        <time>2021-02-04T09:16:34.000Z</time>
      </trkpt>
      <trkpt lat="43.75283" lon="7.29227">
        <ele>334.39999389648</ele>
        <time>2021-02-04T09:16:35.000Z</time>
      </trkpt>
      <trkpt lat="43.75287" lon="7.29224">
        <ele>335.20001220703</ele>
        <time>2021-02-04T09:16:37.000Z</time>
      </trkpt>
      <trkpt lat="43.75288" lon="7.29222">
        <ele>335.60000610352</ele>
        <time>2021-02-04T09:16:38.000Z</time>
      </trkpt>
      <trkpt lat="43.75289" lon="7.29215">
        <ele>336.39999389648</ele>
        <time>2021-02-04T09:16:40.000Z</time>
      </trkpt>
      <trkpt lat="43.75289" lon="7.29208">
        <ele>337</ele>
        <time>2021-02-04T09:16:42.000Z</time>
      </trkpt>
      <trkpt lat="43.75292" lon="7.29196">
        <ele>337.39999389648</ele>
        <time>2021-02-04T09:16:46.000Z</time>
      </trkpt>
      <trkpt lat="43.75295" lon="7.29194">
        <ele>337.60000610352</ele>
        <time>2021-02-04T09:16:47.000Z</time>
      </trkpt>
      <trkpt lat="43.75298" lon="7.29198">
        <ele>337.79998779297</ele>
        <time>2021-02-04T09:16:49.000Z</time>
      </trkpt>
      <trkpt lat="43.75298" lon="7.29201">
        <ele>338</ele>
        <time>2021-02-04T09:16:50.000Z</time>
      </trkpt>
      <trkpt lat="43.75298" lon="7.29208">
        <ele>338.20001220703</ele>
        <time>2021-02-04T09:16:52.000Z</time>
      </trkpt>
      <trkpt lat="43.75306" lon="7.29211">
        <ele>339</ele>
        <time>2021-02-04T09:16:56.000Z</time>
      </trkpt>
      <trkpt lat="43.75308" lon="7.2921">
        <ele>339.39999389648</ele>
        <time>2021-02-04T09:16:57.000Z</time>
      </trkpt>
      <trkpt lat="43.75315" lon="7.29207">
        <ele>340.39999389648</ele>
        <time>2021-02-04T09:17:00.000Z</time>
      </trkpt>
      <trkpt lat="43.7532" lon="7.29204">
        <ele>341.79998779297</ele>
        <time>2021-02-04T09:17:03.000Z</time>
      </trkpt>
      <trkpt lat="43.75326" lon="7.292">
        <ele>343.20001220703</ele>
        <time>2021-02-04T09:17:06.000Z</time>
      </trkpt>
      <trkpt lat="43.75331" lon="7.29197">
        <ele>344.39999389648</ele>
        <time>2021-02-04T09:17:09.000Z</time>
      </trkpt>
      <trkpt lat="43.75335" lon="7.29194">
        <ele>345.20001220703</ele>
        <time>2021-02-04T09:17:11.000Z</time>
      </trkpt>
      <trkpt lat="43.75337" lon="7.29193">
        <ele>345.60000610352</ele>
        <time>2021-02-04T09:17:12.000Z</time>
      </trkpt>
      <trkpt lat="43.75343" lon="7.2919">
        <ele>347</ele>
        <time>2021-02-04T09:17:15.000Z</time>
      </trkpt>
      <trkpt lat="43.7535" lon="7.29186">
        <ele>348.20001220703</ele>
        <time>2021-02-04T09:17:18.000Z</time>
      </trkpt>
      <trkpt lat="43.75354" lon="7.29184">
        <ele>349.20001220703</ele>
        <time>2021-02-04T09:17:20.000Z</time>
      </trkpt>
      <trkpt lat="43.75356" lon="7.29183">
        <ele>349.79998779297</ele>
        <time>2021-02-04T09:17:21.000Z</time>
      </trkpt>
      <trkpt lat="43.75363" lon="7.29179">
        <ele>351.20001220703</ele>
        <time>2021-02-04T09:17:24.000Z</time>
      </trkpt>
      <trkpt lat="43.75369" lon="7.29175">
        <ele>352.60000610352</ele>
        <time>2021-02-04T09:17:27.000Z</time>
      </trkpt>
      <trkpt lat="43.75375" lon="7.29172">
        <ele>354</ele>
        <time>2021-02-04T09:17:30.000Z</time>
      </trkpt>
      <trkpt lat="43.7538" lon="7.2917">
        <ele>355.39999389648</ele>
        <time>2021-02-04T09:17:33.000Z</time>
      </trkpt>
      <trkpt lat="43.75386" lon="7.29166">
        <ele>356.60000610352</ele>
        <time>2021-02-04T09:17:36.000Z</time>
      </trkpt>
      <trkpt lat="43.75388" lon="7.29164">
        <ele>357.20001220703</ele>
        <time>2021-02-04T09:17:37.000Z</time>
      </trkpt>
      <trkpt lat="43.75391" lon="7.29162">
        <ele>358</ele>
        <time>2021-02-04T09:17:39.000Z</time>
      </trkpt>
      <trkpt lat="43.75398" lon="7.29158">
        <ele>359.39999389648</ele>
        <time>2021-02-04T09:17:42.000Z</time>
      </trkpt>
      <trkpt lat="43.75402" lon="7.29156">
        <ele>360.20001220703</ele>
        <time>2021-02-04T09:17:44.000Z</time>
      </trkpt>
      <trkpt lat="43.75405" lon="7.29155">
        <ele>360.79998779297</ele>
        <time>2021-02-04T09:17:45.000Z</time>
      </trkpt>
      <trkpt lat="43.7541" lon="7.29152">
        <ele>361.79998779297</ele>
        <time>2021-02-04T09:17:47.000Z</time>
      </trkpt>
      <trkpt lat="43.75414" lon="7.2915">
        <ele>363.20001220703</ele>
        <time>2021-02-04T09:17:49.000Z</time>
      </trkpt>
      <trkpt lat="43.75419" lon="7.29148">
        <ele>364.60000610352</ele>
        <time>2021-02-04T09:17:51.000Z</time>
      </trkpt>
      <trkpt lat="43.75421" lon="7.29147">
        <ele>365.20001220703</ele>
        <time>2021-02-04T09:17:52.000Z</time>
      </trkpt>
      <trkpt lat="43.75423" lon="7.29146">
        <ele>365.79998779297</ele>
        <time>2021-02-04T09:17:53.000Z</time>
      </trkpt>
      <trkpt lat="43.75427" lon="7.29145">
        <ele>367</ele>
        <time>2021-02-04T09:17:55.000Z</time>
      </trkpt>
      <trkpt lat="43.75431" lon="7.29143">
        <ele>368.20001220703</ele>
        <time>2021-02-04T09:17:57.000Z</time>
      </trkpt>
      <trkpt lat="43.75435" lon="7.29141">
        <ele>369.20001220703</ele>
        <time>2021-02-04T09:17:59.000Z</time>
      </trkpt>
      <trkpt lat="43.75437" lon="7.29142">
        <ele>369.60000610352</ele>
        <time>2021-02-04T09:18:00.000Z</time>
      </trkpt>
      <trkpt lat="43.7544" lon="7.29147">
        <ele>371</ele>
        <time>2021-02-04T09:18:03.000Z</time>
      </trkpt>
      <trkpt lat="43.75441" lon="7.29147">
        <ele>371.39999389648</ele>
        <time>2021-02-04T09:18:05.000Z</time>
      </trkpt>
      <trkpt lat="43.75441" lon="7.29148">
        <ele>372</ele>
        <time>2021-02-04T09:18:12.000Z</time>
      </trkpt>
      <trkpt lat="43.75441" lon="7.29148">
        <ele>371.79998779297</ele>
        <time>2021-02-04T09:18:17.000Z</time>
      </trkpt>
      <trkpt lat="43.75442" lon="7.29149">
        <ele>371.39999389648</ele>
        <time>2021-02-04T09:18:31.000Z</time>
      </trkpt>
      <trkpt lat="43.75441" lon="7.29148">
        <ele>371</ele>
        <time>2021-02-04T09:18:37.000Z</time>
      </trkpt>
      <trkpt lat="43.75441" lon="7.29148">
        <ele>371</ele>
        <time>2021-02-04T09:18:41.000Z</time>
      </trkpt>
      <trkpt lat="43.75441" lon="7.29149">
        <ele>371</ele>
        <time>2021-02-04T09:18:54.000Z</time>
      </trkpt>
      <trkpt lat="43.75441" lon="7.29149">
        <ele>371</ele>
        <time>2021-02-04T09:19:11.000Z</time>
      </trkpt>
      <trkpt lat="43.7544" lon="7.29148">
        <ele>370</ele>
        <time>2021-02-04T09:19:16.000Z</time>
      </trkpt>
      <trkpt lat="43.75441" lon="7.29149">
        <ele>370.79998779297</ele>
        <time>2021-02-04T09:19:26.000Z</time>
      </trkpt>
      <trkpt lat="43.75442" lon="7.2915">
        <ele>370.79998779297</ele>
        <time>2021-02-04T09:19:27.000Z</time>
      </trkpt>
      <trkpt lat="43.75448" lon="7.29155">
        <ele>370.60000610352</ele>
        <time>2021-02-04T09:19:30.000Z</time>
      </trkpt>
      <trkpt lat="43.75449" lon="7.29157">
        <ele>370.60000610352</ele>
        <time>2021-02-04T09:19:31.000Z</time>
      </trkpt>
      <trkpt lat="43.75456" lon="7.29163">
        <ele>371</ele>
        <time>2021-02-04T09:19:35.000Z</time>
      </trkpt>
      <trkpt lat="43.75468" lon="7.29166">
        <ele>371.20001220703</ele>
        <time>2021-02-04T09:19:41.000Z</time>
      </trkpt>
      <trkpt lat="43.75484" lon="7.29164">
        <ele>372</ele>
        <time>2021-02-04T09:19:47.000Z</time>
      </trkpt>
      <trkpt lat="43.75499" lon="7.29167">
        <ele>371.60000610352</ele>
        <time>2021-02-04T09:19:51.000Z</time>
      </trkpt>
      <trkpt lat="43.75529" lon="7.29166">
        <ele>371.39999389648</ele>
        <time>2021-02-04T09:19:58.000Z</time>
      </trkpt>
      <trkpt lat="43.7555" lon="7.29163">
        <ele>372.39999389648</ele>
        <time>2021-02-04T09:20:04.000Z</time>
      </trkpt>
      <trkpt lat="43.75571" lon="7.29165">
        <ele>372.79998779297</ele>
        <time>2021-02-04T09:20:10.000Z</time>
      </trkpt>
      <trkpt lat="43.7558" lon="7.29177">
        <ele>373</ele>
        <time>2021-02-04T09:20:13.000Z</time>
      </trkpt>
      <trkpt lat="43.75582" lon="7.2918">
        <ele>373</ele>
        <time>2021-02-04T09:20:14.000Z</time>
      </trkpt>
      <trkpt lat="43.75586" lon="7.29186">
        <ele>372.60000610352</ele>
        <time>2021-02-04T09:20:17.000Z</time>
      </trkpt>
      <trkpt lat="43.75586" lon="7.29185">
        <ele>372.60000610352</ele>
        <time>2021-02-04T09:20:18.000Z</time>
      </trkpt>
      <trkpt lat="43.75586" lon="7.29184">
        <ele>372.60000610352</ele>
        <time>2021-02-04T09:20:19.000Z</time>
      </trkpt>
      <trkpt lat="43.75585" lon="7.29176">
        <ele>372.60000610352</ele>
        <time>2021-02-04T09:20:22.000Z</time>
      </trkpt>
      <trkpt lat="43.75581" lon="7.29165">
        <ele>374.20001220703</ele>
        <time>2021-02-04T09:20:27.000Z</time>
      </trkpt>
      <trkpt lat="43.75579" lon="7.29159">
        <ele>375.60000610352</ele>
        <time>2021-02-04T09:20:30.000Z</time>
      </trkpt>
      <trkpt lat="43.75578" lon="7.29152">
        <ele>376.39999389648</ele>
        <time>2021-02-04T09:20:33.000Z</time>
      </trkpt>
      <trkpt lat="43.75579" lon="7.29148">
        <ele>376.79998779297</ele>
        <time>2021-02-04T09:20:35.000Z</time>
      </trkpt>
      <trkpt lat="43.75579" lon="7.29146">
        <ele>377.20001220703</ele>
        <time>2021-02-04T09:20:36.000Z</time>
      </trkpt>
      <trkpt lat="43.75579" lon="7.29142">
        <ele>377.60000610352</ele>
        <time>2021-02-04T09:20:38.000Z</time>
      </trkpt>
      <trkpt lat="43.7558" lon="7.29141">
        <ele>378</ele>
        <time>2021-02-04T09:20:39.000Z</time>
      </trkpt>
      <trkpt lat="43.75584" lon="7.2914">
        <ele>378.60000610352</ele>
        <time>2021-02-04T09:20:41.000Z</time>
      </trkpt>
      <trkpt lat="43.75586" lon="7.2914">
        <ele>378.79998779297</ele>
        <time>2021-02-04T09:20:42.000Z</time>
      </trkpt>
      <trkpt lat="43.75588" lon="7.29139">
        <ele>379.20001220703</ele>
        <time>2021-02-04T09:20:43.000Z</time>
      </trkpt>
      <trkpt lat="43.75596" lon="7.29138">
        <ele>380.39999389648</ele>
        <time>2021-02-04T09:20:48.000Z</time>
      </trkpt>
      <trkpt lat="43.75598" lon="7.29137">
        <ele>380.60000610352</ele>
        <time>2021-02-04T09:20:49.000Z</time>
      </trkpt>
      <trkpt lat="43.75605" lon="7.29136">
        <ele>381.60000610352</ele>
        <time>2021-02-04T09:20:53.000Z</time>
      </trkpt>
      <trkpt lat="43.7561" lon="7.29135">
        <ele>382.39999389648</ele>
        <time>2021-02-04T09:20:56.000Z</time>
      </trkpt>
      <trkpt lat="43.75612" lon="7.29135">
        <ele>382.79998779297</ele>
        <time>2021-02-04T09:20:57.000Z</time>
      </trkpt>
      <trkpt lat="43.75618" lon="7.29134">
        <ele>384</ele>
        <time>2021-02-04T09:21:00.000Z</time>
      </trkpt>
      <trkpt lat="43.7562" lon="7.29136">
        <ele>384.60000610352</ele>
        <time>2021-02-04T09:21:01.000Z</time>
      </trkpt>
      <trkpt lat="43.75621" lon="7.29137">
        <ele>385</ele>
        <time>2021-02-04T09:21:02.000Z</time>
      </trkpt>
      <trkpt lat="43.75622" lon="7.29139">
        <ele>385.20001220703</ele>
        <time>2021-02-04T09:21:03.000Z</time>
      </trkpt>
      <trkpt lat="43.75622" lon="7.29146">
        <ele>386.39999389648</ele>
        <time>2021-02-04T09:21:06.000Z</time>
      </trkpt>
      <trkpt lat="43.75624" lon="7.29152">
        <ele>387.20001220703</ele>
        <time>2021-02-04T09:21:09.000Z</time>
      </trkpt>
      <trkpt lat="43.75624" lon="7.29154">
        <ele>387.60000610352</ele>
        <time>2021-02-04T09:21:10.000Z</time>
      </trkpt>
      <trkpt lat="43.75625" lon="7.29159">
        <ele>387.79998779297</ele>
        <time>2021-02-04T09:21:12.000Z</time>
      </trkpt>
      <trkpt lat="43.75628" lon="7.29175">
        <ele>388.20001220703</ele>
        <time>2021-02-04T09:21:20.000Z</time>
      </trkpt>
      <trkpt lat="43.75631" lon="7.29166">
        <ele>388.39999389648</ele>
        <time>2021-02-04T09:21:24.000Z</time>
      </trkpt>
      <trkpt lat="43.75632" lon="7.29164">
        <ele>388.60000610352</ele>
        <time>2021-02-04T09:21:25.000Z</time>
      </trkpt>
      <trkpt lat="43.75635" lon="7.29155">
        <ele>389.20001220703</ele>
        <time>2021-02-04T09:21:28.000Z</time>
      </trkpt>
      <trkpt lat="43.75636" lon="7.2915">
        <ele>389.79998779297</ele>
        <time>2021-02-04T09:21:30.000Z</time>
      </trkpt>
      <trkpt lat="43.75638" lon="7.29147">
        <ele>390</ele>
        <time>2021-02-04T09:21:31.000Z</time>
      </trkpt>
      <trkpt lat="43.75643" lon="7.29139">
        <ele>390.79998779297</ele>
        <time>2021-02-04T09:21:35.000Z</time>
      </trkpt>
      <trkpt lat="43.75648" lon="7.2913">
        <ele>391.39999389648</ele>
        <time>2021-02-04T09:21:39.000Z</time>
      </trkpt>
      <trkpt lat="43.75654" lon="7.29126">
        <ele>391.79998779297</ele>
        <time>2021-02-04T09:21:42.000Z</time>
      </trkpt>
      <trkpt lat="43.75656" lon="7.29126">
        <ele>391.79998779297</ele>
        <time>2021-02-04T09:21:43.000Z</time>
      </trkpt>
      <trkpt lat="43.75658" lon="7.29128">
        <ele>392</ele>
        <time>2021-02-04T09:21:44.000Z</time>
      </trkpt>
      <trkpt lat="43.75658" lon="7.29137">
        <ele>392.20001220703</ele>
        <time>2021-02-04T09:21:47.000Z</time>
      </trkpt>
      <trkpt lat="43.75655" lon="7.29145">
        <ele>392.39999389648</ele>
        <time>2021-02-04T09:21:50.000Z</time>
      </trkpt>
      <trkpt lat="43.75653" lon="7.29151">
        <ele>392.79998779297</ele>
        <time>2021-02-04T09:21:52.000Z</time>
      </trkpt>
      <trkpt lat="43.75653" lon="7.29157">
        <ele>393.20001220703</ele>
        <time>2021-02-04T09:21:54.000Z</time>
      </trkpt>
      <trkpt lat="43.75653" lon="7.29176">
        <ele>394</ele>
        <time>2021-02-04T09:22:00.000Z</time>
      </trkpt>
      <trkpt lat="43.75654" lon="7.29179">
        <ele>394.20001220703</ele>
        <time>2021-02-04T09:22:01.000Z</time>
      </trkpt>
      <trkpt lat="43.75656" lon="7.29191">
        <ele>395</ele>
        <time>2021-02-04T09:22:05.000Z</time>
      </trkpt>
      <trkpt lat="43.75658" lon="7.2921">
        <ele>396.20001220703</ele>
        <time>2021-02-04T09:22:11.000Z</time>
      </trkpt>
      <trkpt lat="43.7566" lon="7.29224">
        <ele>397.20001220703</ele>
        <time>2021-02-04T09:22:16.000Z</time>
      </trkpt>
      <trkpt lat="43.75662" lon="7.29236">
        <ele>398</ele>
        <time>2021-02-04T09:22:20.000Z</time>
      </trkpt>
      <trkpt lat="43.75664" lon="7.29241">
        <ele>398.39999389648</ele>
        <time>2021-02-04T09:22:22.000Z</time>
      </trkpt>
      <trkpt lat="43.75668" lon="7.29252">
        <ele>399.60000610352</ele>
        <time>2021-02-04T09:22:26.000Z</time>
      </trkpt>
      <trkpt lat="43.7567" lon="7.29254">
        <ele>399.79998779297</ele>
        <time>2021-02-04T09:22:27.000Z</time>
      </trkpt>
      <trkpt lat="43.75679" lon="7.29271">
        <ele>400.60000610352</ele>
        <time>2021-02-04T09:22:34.000Z</time>
      </trkpt>
      <trkpt lat="43.75685" lon="7.29284">
        <ele>401.79998779297</ele>
        <time>2021-02-04T09:22:39.000Z</time>
      </trkpt>
      <trkpt lat="43.7569" lon="7.29297">
        <ele>403</ele>
        <time>2021-02-04T09:22:44.000Z</time>
      </trkpt>
      <trkpt lat="43.75691" lon="7.29303">
        <ele>403.39999389648</ele>
        <time>2021-02-04T09:22:46.000Z</time>
      </trkpt>
      <trkpt lat="43.75692" lon="7.29311">
        <ele>404</ele>
        <time>2021-02-04T09:22:49.000Z</time>
      </trkpt>
      <trkpt lat="43.75693" lon="7.2933">
        <ele>404.79998779297</ele>
        <time>2021-02-04T09:22:55.000Z</time>
      </trkpt>
      <trkpt lat="43.75693" lon="7.29333">
        <ele>405</ele>
        <time>2021-02-04T09:22:56.000Z</time>
      </trkpt>
      <trkpt lat="43.75693" lon="7.29351">
        <ele>406.20001220703</ele>
        <time>2021-02-04T09:23:02.000Z</time>
      </trkpt>
      <trkpt lat="43.75693" lon="7.29358">
        <ele>406.60000610352</ele>
        <time>2021-02-04T09:23:04.000Z</time>
      </trkpt>
      <trkpt lat="43.75693" lon="7.2937">
        <ele>407.20001220703</ele>
        <time>2021-02-04T09:23:08.000Z</time>
      </trkpt>
      <trkpt lat="43.75694" lon="7.29388">
        <ele>408.39999389648</ele>
        <time>2021-02-04T09:23:14.000Z</time>
      </trkpt>
      <trkpt lat="43.75694" lon="7.29406">
        <ele>409.39999389648</ele>
        <time>2021-02-04T09:23:20.000Z</time>
      </trkpt>
      <trkpt lat="43.75694" lon="7.29416">
        <ele>410</ele>
        <time>2021-02-04T09:23:23.000Z</time>
      </trkpt>
      <trkpt lat="43.75693" lon="7.29425">
        <ele>410.60000610352</ele>
        <time>2021-02-04T09:23:26.000Z</time>
      </trkpt>
      <trkpt lat="43.75693" lon="7.2944">
        <ele>411.39999389648</ele>
        <time>2021-02-04T09:23:31.000Z</time>
      </trkpt>
      <trkpt lat="43.75693" lon="7.29443">
        <ele>411.60000610352</ele>
        <time>2021-02-04T09:23:32.000Z</time>
      </trkpt>
      <trkpt lat="43.75694" lon="7.29454">
        <ele>412.20001220703</ele>
        <time>2021-02-04T09:23:36.000Z</time>
      </trkpt>
      <trkpt lat="43.75694" lon="7.29463">
        <ele>412.79998779297</ele>
        <time>2021-02-04T09:23:39.000Z</time>
      </trkpt>
      <trkpt lat="43.75695" lon="7.29481">
        <ele>413.79998779297</ele>
        <time>2021-02-04T09:23:45.000Z</time>
      </trkpt>
      <trkpt lat="43.75702" lon="7.29495">
        <ele>415</ele>
        <time>2021-02-04T09:23:52.000Z</time>
      </trkpt>
      <trkpt lat="43.75708" lon="7.29506">
        <ele>415.79998779297</ele>
        <time>2021-02-04T09:24:00.000Z</time>
      </trkpt>
      <trkpt lat="43.75709" lon="7.29507">
        <ele>415.79998779297</ele>
        <time>2021-02-04T09:24:05.000Z</time>
      </trkpt>
      <trkpt lat="43.75709" lon="7.29508">
        <ele>416</ele>
        <time>2021-02-04T09:24:10.000Z</time>
      </trkpt>
      <trkpt lat="43.7571" lon="7.2951">
        <ele>416</ele>
        <time>2021-02-04T09:24:13.000Z</time>
      </trkpt>
      <trkpt lat="43.75713" lon="7.29512">
        <ele>416</ele>
        <time>2021-02-04T09:24:20.000Z</time>
      </trkpt>
      <trkpt lat="43.75712" lon="7.29513">
        <ele>415.79998779297</ele>
        <time>2021-02-04T09:24:34.000Z</time>
      </trkpt>
      <trkpt lat="43.75713" lon="7.29514">
        <ele>415.79998779297</ele>
        <time>2021-02-04T09:24:38.000Z</time>
      </trkpt>
      <trkpt lat="43.7572" lon="7.29518">
        <ele>415.39999389648</ele>
        <time>2021-02-04T09:24:44.000Z</time>
      </trkpt>
      <trkpt lat="43.75721" lon="7.29518">
        <ele>415.39999389648</ele>
        <time>2021-02-04T09:24:45.000Z</time>
      </trkpt>
      <trkpt lat="43.75728" lon="7.29521">
        <ele>415.79998779297</ele>
        <time>2021-02-04T09:24:51.000Z</time>
      </trkpt>
      <trkpt lat="43.75729" lon="7.29521">
        <ele>416</ele>
        <time>2021-02-04T09:24:52.000Z</time>
      </trkpt>
      <trkpt lat="43.75735" lon="7.29521">
        <ele>416.60000610352</ele>
        <time>2021-02-04T09:24:56.000Z</time>
      </trkpt>
      <trkpt lat="43.75737" lon="7.29521">
        <ele>417.20001220703</ele>
        <time>2021-02-04T09:24:58.000Z</time>
      </trkpt>
      <trkpt lat="43.75739" lon="7.29519">
        <ele>417.60000610352</ele>
        <time>2021-02-04T09:24:59.000Z</time>
      </trkpt>
      <trkpt lat="43.75741" lon="7.29519">
        <ele>418.20001220703</ele>
        <time>2021-02-04T09:25:00.000Z</time>
      </trkpt>
      <trkpt lat="43.75745" lon="7.2952">
        <ele>419.79998779297</ele>
        <time>2021-02-04T09:25:02.000Z</time>
      </trkpt>
      <trkpt lat="43.75749" lon="7.29522">
        <ele>420.79998779297</ele>
        <time>2021-02-04T09:25:04.000Z</time>
      </trkpt>
      <trkpt lat="43.75758" lon="7.29525">
        <ele>422</ele>
        <time>2021-02-04T09:25:08.000Z</time>
      </trkpt>
      <trkpt lat="43.75762" lon="7.29526">
        <ele>421.79998779297</ele>
        <time>2021-02-04T09:25:10.000Z</time>
      </trkpt>
      <trkpt lat="43.75766" lon="7.29526">
        <ele>421.60000610352</ele>
        <time>2021-02-04T09:25:12.000Z</time>
      </trkpt>
      <trkpt lat="43.75771" lon="7.29526">
        <ele>422</ele>
        <time>2021-02-04T09:25:15.000Z</time>
      </trkpt>
      <trkpt lat="43.75775" lon="7.29525">
        <ele>422.39999389648</ele>
        <time>2021-02-04T09:25:17.000Z</time>
      </trkpt>
      <trkpt lat="43.75782" lon="7.29523">
        <ele>423</ele>
        <time>2021-02-04T09:25:21.000Z</time>
      </trkpt>
      <trkpt lat="43.75785" lon="7.29523">
        <ele>423.20001220703</ele>
        <time>2021-02-04T09:25:22.000Z</time>
      </trkpt>
      <trkpt lat="43.75789" lon="7.29522">
        <ele>423.60000610352</ele>
        <time>2021-02-04T09:25:24.000Z</time>
      </trkpt>
      <trkpt lat="43.75794" lon="7.2952">
        <ele>424</ele>
        <time>2021-02-04T09:25:26.000Z</time>
      </trkpt>
      <trkpt lat="43.758" lon="7.29518">
        <ele>424.60000610352</ele>
        <time>2021-02-04T09:25:29.000Z</time>
      </trkpt>
      <trkpt lat="43.75805" lon="7.29517">
        <ele>425</ele>
        <time>2021-02-04T09:25:31.000Z</time>
      </trkpt>
      <trkpt lat="43.75812" lon="7.29513">
        <ele>425.39999389648</ele>
        <time>2021-02-04T09:25:34.000Z</time>
      </trkpt>
      <trkpt lat="43.75822" lon="7.29509">
        <ele>426</ele>
        <time>2021-02-04T09:25:40.000Z</time>
      </trkpt>
      <trkpt lat="43.75831" lon="7.29502">
        <ele>426.20001220703</ele>
        <time>2021-02-04T09:25:45.000Z</time>
      </trkpt>
      <trkpt lat="43.75841" lon="7.29497">
        <ele>427.20001220703</ele>
        <time>2021-02-04T09:25:49.000Z</time>
      </trkpt>
      <trkpt lat="43.75842" lon="7.29496">
        <ele>427.39999389648</ele>
        <time>2021-02-04T09:25:50.000Z</time>
      </trkpt>
      <trkpt lat="43.75847" lon="7.29492">
        <ele>428</ele>
        <time>2021-02-04T09:25:53.000Z</time>
      </trkpt>
      <trkpt lat="43.75852" lon="7.29489">
        <ele>428.39999389648</ele>
        <time>2021-02-04T09:25:55.000Z</time>
      </trkpt>
      <trkpt lat="43.75854" lon="7.29486">
        <ele>428.60000610352</ele>
        <time>2021-02-04T09:25:56.000Z</time>
      </trkpt>
      <trkpt lat="43.75858" lon="7.29481">
        <ele>429.20001220703</ele>
        <time>2021-02-04T09:25:58.000Z</time>
      </trkpt>
      <trkpt lat="43.75862" lon="7.29477">
        <ele>429.79998779297</ele>
        <time>2021-02-04T09:26:00.000Z</time>
      </trkpt>
      <trkpt lat="43.75866" lon="7.29474">
        <ele>431.20001220703</ele>
        <time>2021-02-04T09:26:02.000Z</time>
      </trkpt>
      <trkpt lat="43.75869" lon="7.29472">
        <ele>432</ele>
        <time>2021-02-04T09:26:04.000Z</time>
      </trkpt>
      <trkpt lat="43.75871" lon="7.29471">
        <ele>432.39999389648</ele>
        <time>2021-02-04T09:26:05.000Z</time>
      </trkpt>
      <trkpt lat="43.75879" lon="7.29462">
        <ele>433.60000610352</ele>
        <time>2021-02-04T09:26:09.000Z</time>
      </trkpt>
      <trkpt lat="43.75883" lon="7.2946">
        <ele>434.60000610352</ele>
        <time>2021-02-04T09:26:11.000Z</time>
      </trkpt>
      <trkpt lat="43.75886" lon="7.29457">
        <ele>435.60000610352</ele>
        <time>2021-02-04T09:26:13.000Z</time>
      </trkpt>
      <trkpt lat="43.75888" lon="7.29455">
        <ele>436</ele>
        <time>2021-02-04T09:26:14.000Z</time>
      </trkpt>
      <trkpt lat="43.75892" lon="7.2945">
        <ele>437</ele>
        <time>2021-02-04T09:26:17.000Z</time>
      </trkpt>
      <trkpt lat="43.75895" lon="7.29446">
        <ele>438</ele>
        <time>2021-02-04T09:26:19.000Z</time>
      </trkpt>
      <trkpt lat="43.75896" lon="7.29446">
        <ele>438.60000610352</ele>
        <time>2021-02-04T09:26:20.000Z</time>
      </trkpt>
      <trkpt lat="43.75897" lon="7.29443">
        <ele>439.20001220703</ele>
        <time>2021-02-04T09:26:21.000Z</time>
      </trkpt>
      <trkpt lat="43.75899" lon="7.2944">
        <ele>439.60000610352</ele>
        <time>2021-02-04T09:26:22.000Z</time>
      </trkpt>
      <trkpt lat="43.75901" lon="7.29438">
        <ele>440.20001220703</ele>
        <time>2021-02-04T09:26:23.000Z</time>
      </trkpt>
      <trkpt lat="43.75903" lon="7.29435">
        <ele>440.60000610352</ele>
        <time>2021-02-04T09:26:24.000Z</time>
      </trkpt>
      <trkpt lat="43.75904" lon="7.29432">
        <ele>441.20001220703</ele>
        <time>2021-02-04T09:26:25.000Z</time>
      </trkpt>
      <trkpt lat="43.75906" lon="7.2943">
        <ele>442</ele>
        <time>2021-02-04T09:26:26.000Z</time>
      </trkpt>
      <trkpt lat="43.75908" lon="7.29429">
        <ele>442.60000610352</ele>
        <time>2021-02-04T09:26:27.000Z</time>
      </trkpt>
      <trkpt lat="43.75909" lon="7.29427">
        <ele>443.20001220703</ele>
        <time>2021-02-04T09:26:28.000Z</time>
      </trkpt>
      <trkpt lat="43.75911" lon="7.29423">
        <ele>444.39999389648</ele>
        <time>2021-02-04T09:26:30.000Z</time>
      </trkpt>
      <trkpt lat="43.75915" lon="7.29419">
        <ele>445</ele>
        <time>2021-02-04T09:26:32.000Z</time>
      </trkpt>
      <trkpt lat="43.75917" lon="7.29417">
        <ele>445.60000610352</ele>
        <time>2021-02-04T09:26:34.000Z</time>
      </trkpt>
      <trkpt lat="43.75923" lon="7.29414">
        <ele>446.60000610352</ele>
        <time>2021-02-04T09:26:37.000Z</time>
      </trkpt>
      <trkpt lat="43.75932" lon="7.29403">
        <ele>446.60000610352</ele>
        <time>2021-02-04T09:26:42.000Z</time>
      </trkpt>
      <trkpt lat="43.75935" lon="7.29395">
        <ele>448</ele>
        <time>2021-02-04T09:26:45.000Z</time>
      </trkpt>
      <trkpt lat="43.75938" lon="7.29391">
        <ele>449.20001220703</ele>
        <time>2021-02-04T09:26:47.000Z</time>
      </trkpt>
      <trkpt lat="43.75941" lon="7.29389">
        <ele>450.20001220703</ele>
        <time>2021-02-04T09:26:49.000Z</time>
      </trkpt>
      <trkpt lat="43.75946" lon="7.29383">
        <ele>450.79998779297</ele>
        <time>2021-02-04T09:26:52.000Z</time>
      </trkpt>
      <trkpt lat="43.75953" lon="7.29375">
        <ele>451.39999389648</ele>
        <time>2021-02-04T09:26:56.000Z</time>
      </trkpt>
      <trkpt lat="43.75955" lon="7.29373">
        <ele>451.79998779297</ele>
        <time>2021-02-04T09:26:57.000Z</time>
      </trkpt>
      <trkpt lat="43.75958" lon="7.29369">
        <ele>452.39999389648</ele>
        <time>2021-02-04T09:26:59.000Z</time>
      </trkpt>
      <trkpt lat="43.7596" lon="7.29364">
        <ele>452.79998779297</ele>
        <time>2021-02-04T09:27:01.000Z</time>
      </trkpt>
      <trkpt lat="43.75965" lon="7.29357">
        <ele>453.79998779297</ele>
        <time>2021-02-04T09:27:04.000Z</time>
      </trkpt>
      <trkpt lat="43.75969" lon="7.29353">
        <ele>454.60000610352</ele>
        <time>2021-02-04T09:27:06.000Z</time>
      </trkpt>
      <trkpt lat="43.75971" lon="7.29351">
        <ele>455</ele>
        <time>2021-02-04T09:27:07.000Z</time>
      </trkpt>
      <trkpt lat="43.75986" lon="7.29338">
        <ele>455.79998779297</ele>
        <time>2021-02-04T09:27:15.000Z</time>
      </trkpt>
      <trkpt lat="43.75997" lon="7.29328">
        <ele>455.39999389648</ele>
        <time>2021-02-04T09:27:20.000Z</time>
      </trkpt>
      <trkpt lat="43.76" lon="7.29322">
        <ele>455.39999389648</ele>
        <time>2021-02-04T09:27:22.000Z</time>
      </trkpt>
      <trkpt lat="43.76004" lon="7.29318">
        <ele>455.79998779297</ele>
        <time>2021-02-04T09:27:24.000Z</time>
      </trkpt>
      <trkpt lat="43.76006" lon="7.29316">
        <ele>456.20001220703</ele>
        <time>2021-02-04T09:27:25.000Z</time>
      </trkpt>
      <trkpt lat="43.76008" lon="7.29313">
        <ele>456.39999389648</ele>
        <time>2021-02-04T09:27:26.000Z</time>
      </trkpt>
      <trkpt lat="43.76014" lon="7.29303">
        <ele>457.20001220703</ele>
        <time>2021-02-04T09:27:30.000Z</time>
      </trkpt>
      <trkpt lat="43.76021" lon="7.29291">
        <ele>458.39999389648</ele>
        <time>2021-02-04T09:27:35.000Z</time>
      </trkpt>
      <trkpt lat="43.76026" lon="7.29285">
        <ele>459</ele>
        <time>2021-02-04T09:27:38.000Z</time>
      </trkpt>
      <trkpt lat="43.7603" lon="7.2928">
        <ele>459.39999389648</ele>
        <time>2021-02-04T09:27:40.000Z</time>
      </trkpt>
      <trkpt lat="43.76039" lon="7.29269">
        <ele>459.79998779297</ele>
        <time>2021-02-04T09:27:45.000Z</time>
      </trkpt>
      <trkpt lat="43.76041" lon="7.29265">
        <ele>460</ele>
        <time>2021-02-04T09:27:47.000Z</time>
      </trkpt>
      <trkpt lat="43.76044" lon="7.29263">
        <ele>460.39999389648</ele>
        <time>2021-02-04T09:27:49.000Z</time>
      </trkpt>
      <trkpt lat="43.76045" lon="7.29263">
        <ele>460.39999389648</ele>
        <time>2021-02-04T09:27:50.000Z</time>
      </trkpt>
      <trkpt lat="43.76054" lon="7.29265">
        <ele>460.60000610352</ele>
        <time>2021-02-04T09:27:53.000Z</time>
      </trkpt>
      <trkpt lat="43.76062" lon="7.29259">
        <ele>460</ele>
        <time>2021-02-04T09:27:57.000Z</time>
      </trkpt>
      <trkpt lat="43.76064" lon="7.29257">
        <ele>460</ele>
        <time>2021-02-04T09:27:58.000Z</time>
      </trkpt>
      <trkpt lat="43.76071" lon="7.29249">
        <ele>461.60000610352</ele>
        <time>2021-02-04T09:28:02.000Z</time>
      </trkpt>
      <trkpt lat="43.76077" lon="7.29244">
        <ele>462.60000610352</ele>
        <time>2021-02-04T09:28:06.000Z</time>
      </trkpt>
      <trkpt lat="43.76079" lon="7.29242">
        <ele>462.79998779297</ele>
        <time>2021-02-04T09:28:07.000Z</time>
      </trkpt>
      <trkpt lat="43.76086" lon="7.2924">
        <ele>463.79998779297</ele>
        <time>2021-02-04T09:28:11.000Z</time>
      </trkpt>
      <trkpt lat="43.76088" lon="7.29239">
        <ele>464.20001220703</ele>
        <time>2021-02-04T09:28:12.000Z</time>
      </trkpt>
      <trkpt lat="43.76089" lon="7.29239">
        <ele>464.39999389648</ele>
        <time>2021-02-04T09:28:13.000Z</time>
      </trkpt>
      <trkpt lat="43.76092" lon="7.29236">
        <ele>465</ele>
        <time>2021-02-04T09:28:15.000Z</time>
      </trkpt>
      <trkpt lat="43.76097" lon="7.29233">
        <ele>465.79998779297</ele>
        <time>2021-02-04T09:28:18.000Z</time>
      </trkpt>
      <trkpt lat="43.76099" lon="7.29232">
        <ele>466</ele>
        <time>2021-02-04T09:28:19.000Z</time>
      </trkpt>
      <trkpt lat="43.76105" lon="7.29228">
        <ele>466.79998779297</ele>
        <time>2021-02-04T09:28:23.000Z</time>
      </trkpt>
      <trkpt lat="43.76108" lon="7.29225">
        <ele>467.20001220703</ele>
        <time>2021-02-04T09:28:25.000Z</time>
      </trkpt>
      <trkpt lat="43.76114" lon="7.29221">
        <ele>468.20001220703</ele>
        <time>2021-02-04T09:28:29.000Z</time>
      </trkpt>
      <trkpt lat="43.76118" lon="7.29218">
        <ele>469.39999389648</ele>
        <time>2021-02-04T09:28:32.000Z</time>
      </trkpt>
      <trkpt lat="43.76122" lon="7.29216">
        <ele>470.39999389648</ele>
        <time>2021-02-04T09:28:35.000Z</time>
      </trkpt>
      <trkpt lat="43.76123" lon="7.29215">
        <ele>470.79998779297</ele>
        <time>2021-02-04T09:28:36.000Z</time>
      </trkpt>
      <trkpt lat="43.76126" lon="7.29212">
        <ele>471.60000610352</ele>
        <time>2021-02-04T09:28:39.000Z</time>
      </trkpt>
      <trkpt lat="43.76131" lon="7.2921">
        <ele>472.20001220703</ele>
        <time>2021-02-04T09:28:41.000Z</time>
      </trkpt>
      <trkpt lat="43.76136" lon="7.29207">
        <ele>473.20001220703</ele>
        <time>2021-02-04T09:28:44.000Z</time>
      </trkpt>
      <trkpt lat="43.7614" lon="7.29206">
        <ele>474.20001220703</ele>
        <time>2021-02-04T09:28:46.000Z</time>
      </trkpt>
      <trkpt lat="43.76142" lon="7.29205">
        <ele>475</ele>
        <time>2021-02-04T09:28:47.000Z</time>
      </trkpt>
      <trkpt lat="43.76143" lon="7.29204">
        <ele>475.60000610352</ele>
        <time>2021-02-04T09:28:48.000Z</time>
      </trkpt>
      <trkpt lat="43.76149" lon="7.29201">
        <ele>476.79998779297</ele>
        <time>2021-02-04T09:28:51.000Z</time>
      </trkpt>
      <trkpt lat="43.76152" lon="7.29199">
        <ele>478</ele>
        <time>2021-02-04T09:28:53.000Z</time>
      </trkpt>
      <trkpt lat="43.76157" lon="7.29194">
        <ele>479.39999389648</ele>
        <time>2021-02-04T09:28:56.000Z</time>
      </trkpt>
      <trkpt lat="43.76161" lon="7.2919">
        <ele>480.60000610352</ele>
        <time>2021-02-04T09:28:59.000Z</time>
      </trkpt>
      <trkpt lat="43.76162" lon="7.29188">
        <ele>481.79998779297</ele>
        <time>2021-02-04T09:29:01.000Z</time>
      </trkpt>
      <trkpt lat="43.76163" lon="7.29188">
        <ele>482.60000610352</ele>
        <time>2021-02-04T09:29:03.000Z</time>
      </trkpt>
      <trkpt lat="43.76163" lon="7.29188">
        <ele>483</ele>
        <time>2021-02-04T09:29:04.000Z</time>
      </trkpt>
      <trkpt lat="43.76167" lon="7.29184">
        <ele>483.60000610352</ele>
        <time>2021-02-04T09:29:08.000Z</time>
      </trkpt>
      <trkpt lat="43.76175" lon="7.29176">
        <ele>484.39999389648</ele>
        <time>2021-02-04T09:29:12.000Z</time>
      </trkpt>
      <trkpt lat="43.7618" lon="7.29173">
        <ele>485.20001220703</ele>
        <time>2021-02-04T09:29:14.000Z</time>
      </trkpt>
      <trkpt lat="43.76182" lon="7.29172">
        <ele>485.79998779297</ele>
        <time>2021-02-04T09:29:15.000Z</time>
      </trkpt>
      <trkpt lat="43.76186" lon="7.29171">
        <ele>487</ele>
        <time>2021-02-04T09:29:17.000Z</time>
      </trkpt>
      <trkpt lat="43.7619" lon="7.29169">
        <ele>488</ele>
        <time>2021-02-04T09:29:19.000Z</time>
      </trkpt>
      <trkpt lat="43.76196" lon="7.29166">
        <ele>489.20001220703</ele>
        <time>2021-02-04T09:29:22.000Z</time>
      </trkpt>
      <trkpt lat="43.762" lon="7.29165">
        <ele>490</ele>
        <time>2021-02-04T09:29:24.000Z</time>
      </trkpt>
      <trkpt lat="43.76203" lon="7.29163">
        <ele>490.39999389648</ele>
        <time>2021-02-04T09:29:25.000Z</time>
      </trkpt>
      <trkpt lat="43.76209" lon="7.29159">
        <ele>491.20001220703</ele>
        <time>2021-02-04T09:29:28.000Z</time>
      </trkpt>
      <trkpt lat="43.7621" lon="7.29156">
        <ele>491.39999389648</ele>
        <time>2021-02-04T09:29:29.000Z</time>
      </trkpt>
      <trkpt lat="43.76215" lon="7.29149">
        <ele>492.60000610352</ele>
        <time>2021-02-04T09:29:32.000Z</time>
      </trkpt>
      <trkpt lat="43.76216" lon="7.29148">
        <ele>493</ele>
        <time>2021-02-04T09:29:33.000Z</time>
      </trkpt>
      <trkpt lat="43.76218" lon="7.29147">
        <ele>494</ele>
        <time>2021-02-04T09:29:34.000Z</time>
      </trkpt>
      <trkpt lat="43.76221" lon="7.29146">
        <ele>495.39999389648</ele>
        <time>2021-02-04T09:29:36.000Z</time>
      </trkpt>
      <trkpt lat="43.76224" lon="7.29147">
        <ele>496.79998779297</ele>
        <time>2021-02-04T09:29:38.000Z</time>
      </trkpt>
      <trkpt lat="43.76234" lon="7.29147">
        <ele>497.39999389648</ele>
        <time>2021-02-04T09:29:44.000Z</time>
      </trkpt>
      <trkpt lat="43.76236" lon="7.29146">
        <ele>497.60000610352</ele>
        <time>2021-02-04T09:29:45.000Z</time>
      </trkpt>
      <trkpt lat="43.76238" lon="7.29145">
        <ele>498</ele>
        <time>2021-02-04T09:29:46.000Z</time>
      </trkpt>
      <trkpt lat="43.76238" lon="7.29143">
        <ele>498.39999389648</ele>
        <time>2021-02-04T09:29:47.000Z</time>
      </trkpt>
      <trkpt lat="43.76238" lon="7.29141">
        <ele>499</ele>
        <time>2021-02-04T09:29:48.000Z</time>
      </trkpt>
      <trkpt lat="43.76237" lon="7.2914">
        <ele>499.60000610352</ele>
        <time>2021-02-04T09:29:49.000Z</time>
      </trkpt>
      <trkpt lat="43.76236" lon="7.29138">
        <ele>500</ele>
        <time>2021-02-04T09:29:50.000Z</time>
      </trkpt>
      <trkpt lat="43.76237" lon="7.29134">
        <ele>501.20001220703</ele>
        <time>2021-02-04T09:29:52.000Z</time>
      </trkpt>
      <trkpt lat="43.76238" lon="7.29133">
        <ele>502</ele>
        <time>2021-02-04T09:29:53.000Z</time>
      </trkpt>
      <trkpt lat="43.76239" lon="7.29133">
        <ele>502.60000610352</ele>
        <time>2021-02-04T09:29:54.000Z</time>
      </trkpt>
      <trkpt lat="43.7624" lon="7.29134">
        <ele>503.60000610352</ele>
        <time>2021-02-04T09:29:57.000Z</time>
      </trkpt>
      <trkpt lat="43.76241" lon="7.29134">
        <ele>504</ele>
        <time>2021-02-04T09:30:05.000Z</time>
      </trkpt>
      <trkpt lat="43.76243" lon="7.29133">
        <ele>503.79998779297</ele>
        <time>2021-02-04T09:30:32.000Z</time>
      </trkpt>
      <trkpt lat="43.76244" lon="7.29133">
        <ele>504</ele>
        <time>2021-02-04T09:30:46.000Z</time>
      </trkpt>
      <trkpt lat="43.76245" lon="7.29132">
        <ele>504</ele>
        <time>2021-02-04T09:31:16.000Z</time>
      </trkpt>
      <trkpt lat="43.76246" lon="7.29133">
        <ele>504</ele>
        <time>2021-02-04T09:31:43.000Z</time>
      </trkpt>
      <trkpt lat="43.76247" lon="7.29136">
        <ele>504</ele>
        <time>2021-02-04T09:31:57.000Z</time>
      </trkpt>
      <trkpt lat="43.76252" lon="7.29149">
        <ele>503.79998779297</ele>
        <time>2021-02-04T09:32:04.000Z</time>
      </trkpt>
      <trkpt lat="43.76253" lon="7.29167">
        <ele>504.20001220703</ele>
        <time>2021-02-04T09:32:11.000Z</time>
      </trkpt>
      <trkpt lat="43.76253" lon="7.29178">
        <ele>504.79998779297</ele>
        <time>2021-02-04T09:32:16.000Z</time>
      </trkpt>
      <trkpt lat="43.76253" lon="7.29182">
        <ele>505</ele>
        <time>2021-02-04T09:32:18.000Z</time>
      </trkpt>
      <trkpt lat="43.76252" lon="7.29196">
        <ele>505.79998779297</ele>
        <time>2021-02-04T09:32:23.000Z</time>
      </trkpt>
      <trkpt lat="43.76253" lon="7.29201">
        <ele>506</ele>
        <time>2021-02-04T09:32:25.000Z</time>
      </trkpt>
      <trkpt lat="43.76253" lon="7.29217">
        <ele>506.79998779297</ele>
        <time>2021-02-04T09:32:30.000Z</time>
      </trkpt>
      <trkpt lat="43.76253" lon="7.29225">
        <ele>507.20001220703</ele>
        <time>2021-02-04T09:32:33.000Z</time>
      </trkpt>
      <trkpt lat="43.76254" lon="7.29239">
        <ele>508</ele>
        <time>2021-02-04T09:32:38.000Z</time>
      </trkpt>
      <trkpt lat="43.76255" lon="7.29247">
        <ele>508.39999389648</ele>
        <time>2021-02-04T09:32:41.000Z</time>
      </trkpt>
      <trkpt lat="43.76255" lon="7.29257">
        <ele>509</ele>
        <time>2021-02-04T09:32:45.000Z</time>
      </trkpt>
      <trkpt lat="43.76255" lon="7.29268">
        <ele>509.60000610352</ele>
        <time>2021-02-04T09:32:49.000Z</time>
      </trkpt>
      <trkpt lat="43.76256" lon="7.29274">
        <ele>510</ele>
        <time>2021-02-04T09:32:52.000Z</time>
      </trkpt>
      <trkpt lat="43.76256" lon="7.29279">
        <ele>510.39999389648</ele>
        <time>2021-02-04T09:32:54.000Z</time>
      </trkpt>
      <trkpt lat="43.76257" lon="7.29292">
        <ele>511.20001220703</ele>
        <time>2021-02-04T09:32:59.000Z</time>
      </trkpt>
      <trkpt lat="43.76258" lon="7.29299">
        <ele>511.60000610352</ele>
        <time>2021-02-04T09:33:02.000Z</time>
      </trkpt>
      <trkpt lat="43.7626" lon="7.29306">
        <ele>512.20001220703</ele>
        <time>2021-02-04T09:33:05.000Z</time>
      </trkpt>
      <trkpt lat="43.76262" lon="7.29311">
        <ele>512.59997558594</ele>
        <time>2021-02-04T09:33:07.000Z</time>
      </trkpt>
      <trkpt lat="43.76265" lon="7.29322">
        <ele>513.20001220703</ele>
        <time>2021-02-04T09:33:11.000Z</time>
      </trkpt>
      <trkpt lat="43.76269" lon="7.29329">
        <ele>513.79998779297</ele>
        <time>2021-02-04T09:33:14.000Z</time>
      </trkpt>
      <trkpt lat="43.76272" lon="7.29337">
        <ele>514.40002441406</ele>
        <time>2021-02-04T09:33:17.000Z</time>
      </trkpt>
      <trkpt lat="43.76278" lon="7.29349">
        <ele>515.20001220703</ele>
        <time>2021-02-04T09:33:22.000Z</time>
      </trkpt>
      <trkpt lat="43.76279" lon="7.29352">
        <ele>515.40002441406</ele>
        <time>2021-02-04T09:33:23.000Z</time>
      </trkpt>
      <trkpt lat="43.76285" lon="7.29367">
        <ele>516.59997558594</ele>
        <time>2021-02-04T09:33:29.000Z</time>
      </trkpt>
      <trkpt lat="43.76287" lon="7.29385">
        <ele>517.79998779297</ele>
        <time>2021-02-04T09:33:35.000Z</time>
      </trkpt>
      <trkpt lat="43.76287" lon="7.29388">
        <ele>517.79998779297</ele>
        <time>2021-02-04T09:33:36.000Z</time>
      </trkpt>
      <trkpt lat="43.76288" lon="7.29404">
        <ele>518.79998779297</ele>
        <time>2021-02-04T09:33:41.000Z</time>
      </trkpt>
      <trkpt lat="43.76288" lon="7.2941">
        <ele>519.20001220703</ele>
        <time>2021-02-04T09:33:43.000Z</time>
      </trkpt>
      <trkpt lat="43.76289" lon="7.29419">
        <ele>520</ele>
        <time>2021-02-04T09:33:46.000Z</time>
      </trkpt>
      <trkpt lat="43.7629" lon="7.29432">
        <ele>521.20001220703</ele>
        <time>2021-02-04T09:33:51.000Z</time>
      </trkpt>
      <trkpt lat="43.7629" lon="7.29435">
        <ele>521.40002441406</ele>
        <time>2021-02-04T09:33:52.000Z</time>
      </trkpt>
      <trkpt lat="43.76291" lon="7.29448">
        <ele>522.40002441406</ele>
        <time>2021-02-04T09:33:57.000Z</time>
      </trkpt>
      <trkpt lat="43.76292" lon="7.29453">
        <ele>522.59997558594</ele>
        <time>2021-02-04T09:33:59.000Z</time>
      </trkpt>
      <trkpt lat="43.76293" lon="7.29462">
        <ele>523.40002441406</ele>
        <time>2021-02-04T09:34:03.000Z</time>
      </trkpt>
      <trkpt lat="43.76292" lon="7.29467">
        <ele>523.79998779297</ele>
        <time>2021-02-04T09:34:06.000Z</time>
      </trkpt>
      <trkpt lat="43.76292" lon="7.2947">
        <ele>524</ele>
        <time>2021-02-04T09:34:07.000Z</time>
      </trkpt>
      <trkpt lat="43.76293" lon="7.29476">
        <ele>524.59997558594</ele>
        <time>2021-02-04T09:34:10.000Z</time>
      </trkpt>
      <trkpt lat="43.76293" lon="7.29483">
        <ele>525</ele>
        <time>2021-02-04T09:34:13.000Z</time>
      </trkpt>
      <trkpt lat="43.76293" lon="7.2949">
        <ele>525.59997558594</ele>
        <time>2021-02-04T09:34:16.000Z</time>
      </trkpt>
      <trkpt lat="43.76294" lon="7.29497">
        <ele>526</ele>
        <time>2021-02-04T09:34:19.000Z</time>
      </trkpt>
      <trkpt lat="43.76294" lon="7.295">
        <ele>526.20001220703</ele>
        <time>2021-02-04T09:34:20.000Z</time>
      </trkpt>
      <trkpt lat="43.76296" lon="7.29505">
        <ele>526.59997558594</ele>
        <time>2021-02-04T09:34:23.000Z</time>
      </trkpt>
      <trkpt lat="43.76299" lon="7.29514">
        <ele>527.40002441406</ele>
        <time>2021-02-04T09:34:28.000Z</time>
      </trkpt>
      <trkpt lat="43.76301" lon="7.29518">
        <ele>527.59997558594</ele>
        <time>2021-02-04T09:34:30.000Z</time>
      </trkpt>
      <trkpt lat="43.76306" lon="7.29527">
        <ele>528.40002441406</ele>
        <time>2021-02-04T09:34:35.000Z</time>
      </trkpt>
      <trkpt lat="43.76308" lon="7.29531">
        <ele>528.79998779297</ele>
        <time>2021-02-04T09:34:37.000Z</time>
      </trkpt>
      <trkpt lat="43.76313" lon="7.2954">
        <ele>529.79998779297</ele>
        <time>2021-02-04T09:34:42.000Z</time>
      </trkpt>
      <trkpt lat="43.76316" lon="7.29544">
        <ele>530</ele>
        <time>2021-02-04T09:34:44.000Z</time>
      </trkpt>
      <trkpt lat="43.76321" lon="7.29554">
        <ele>530.79998779297</ele>
        <time>2021-02-04T09:34:49.000Z</time>
      </trkpt>
      <trkpt lat="43.76324" lon="7.29561">
        <ele>531.40002441406</ele>
        <time>2021-02-04T09:34:52.000Z</time>
      </trkpt>
      <trkpt lat="43.76327" lon="7.29567">
        <ele>531.79998779297</ele>
        <time>2021-02-04T09:34:55.000Z</time>
      </trkpt>
      <trkpt lat="43.76335" lon="7.29582">
        <ele>532.79998779297</ele>
        <time>2021-02-04T09:35:02.000Z</time>
      </trkpt>
      <trkpt lat="43.76336" lon="7.29584">
        <ele>533</ele>
        <time>2021-02-04T09:35:03.000Z</time>
      </trkpt>
      <trkpt lat="43.7634" lon="7.29596">
        <ele>534</ele>
        <time>2021-02-04T09:35:08.000Z</time>
      </trkpt>
      <trkpt lat="43.7634" lon="7.29598">
        <ele>534.20001220703</ele>
        <time>2021-02-04T09:35:09.000Z</time>
      </trkpt>
      <trkpt lat="43.76343" lon="7.2961">
        <ele>535</ele>
        <time>2021-02-04T09:35:14.000Z</time>
      </trkpt>
      <trkpt lat="43.76344" lon="7.29615">
        <ele>535.40002441406</ele>
        <time>2021-02-04T09:35:16.000Z</time>
      </trkpt>
      <trkpt lat="43.76345" lon="7.29625">
        <ele>536</ele>
        <time>2021-02-04T09:35:20.000Z</time>
      </trkpt>
      <trkpt lat="43.76347" lon="7.2964">
        <ele>537.20001220703</ele>
        <time>2021-02-04T09:35:25.000Z</time>
      </trkpt>
      <trkpt lat="43.76347" lon="7.29655">
        <ele>538</ele>
        <time>2021-02-04T09:35:30.000Z</time>
      </trkpt>
      <trkpt lat="43.76347" lon="7.29661">
        <ele>538.20001220703</ele>
        <time>2021-02-04T09:35:32.000Z</time>
      </trkpt>
      <trkpt lat="43.76347" lon="7.29679">
        <ele>539.40002441406</ele>
        <time>2021-02-04T09:35:39.000Z</time>
      </trkpt>
      <trkpt lat="43.76347" lon="7.29694">
        <ele>540.40002441406</ele>
        <time>2021-02-04T09:35:45.000Z</time>
      </trkpt>
      <trkpt lat="43.76346" lon="7.29713">
        <ele>541.40002441406</ele>
        <time>2021-02-04T09:35:52.000Z</time>
      </trkpt>
      <trkpt lat="43.76345" lon="7.29716">
        <ele>541.59997558594</ele>
        <time>2021-02-04T09:35:53.000Z</time>
      </trkpt>
      <trkpt lat="43.76344" lon="7.29735">
        <ele>542.59997558594</ele>
        <time>2021-02-04T09:36:00.000Z</time>
      </trkpt>
      <trkpt lat="43.76343" lon="7.29751">
        <ele>543.59997558594</ele>
        <time>2021-02-04T09:36:06.000Z</time>
      </trkpt>
      <trkpt lat="43.76344" lon="7.29754">
        <ele>543.79998779297</ele>
        <time>2021-02-04T09:36:07.000Z</time>
      </trkpt>
      <trkpt lat="43.76346" lon="7.29756">
        <ele>543.79998779297</ele>
        <time>2021-02-04T09:36:08.000Z</time>
      </trkpt>
      <trkpt lat="43.76351" lon="7.29755">
        <ele>544</ele>
        <time>2021-02-04T09:36:11.000Z</time>
      </trkpt>
      <trkpt lat="43.76353" lon="7.29746">
        <ele>544.79998779297</ele>
        <time>2021-02-04T09:36:15.000Z</time>
      </trkpt>
      <trkpt lat="43.76354" lon="7.29742">
        <ele>545</ele>
        <time>2021-02-04T09:36:16.000Z</time>
      </trkpt>
      <trkpt lat="43.76356" lon="7.29732">
        <ele>545.79998779297</ele>
        <time>2021-02-04T09:36:20.000Z</time>
      </trkpt>
      <trkpt lat="43.76358" lon="7.29724">
        <ele>546.40002441406</ele>
        <time>2021-02-04T09:36:23.000Z</time>
      </trkpt>
      <trkpt lat="43.76359" lon="7.29716">
        <ele>546.79998779297</ele>
        <time>2021-02-04T09:36:26.000Z</time>
      </trkpt>
      <trkpt lat="43.76363" lon="7.29702">
        <ele>547.79998779297</ele>
        <time>2021-02-04T09:36:33.000Z</time>
      </trkpt>
      <trkpt lat="43.76363" lon="7.297">
        <ele>548</ele>
        <time>2021-02-04T09:36:34.000Z</time>
      </trkpt>
      <trkpt lat="43.76365" lon="7.29699">
        <ele>548</ele>
        <time>2021-02-04T09:36:35.000Z</time>
      </trkpt>
      <trkpt lat="43.76367" lon="7.29701">
        <ele>548.20001220703</ele>
        <time>2021-02-04T09:36:37.000Z</time>
      </trkpt>
      <trkpt lat="43.76367" lon="7.29711">
        <ele>549</ele>
        <time>2021-02-04T09:36:41.000Z</time>
      </trkpt>
      <trkpt lat="43.76367" lon="7.29714">
        <ele>549.20001220703</ele>
        <time>2021-02-04T09:36:42.000Z</time>
      </trkpt>
      <trkpt lat="43.76368" lon="7.29728">
        <ele>550</ele>
        <time>2021-02-04T09:36:47.000Z</time>
      </trkpt>
      <trkpt lat="43.76369" lon="7.29732">
        <ele>550.40002441406</ele>
        <time>2021-02-04T09:36:49.000Z</time>
      </trkpt>
      <trkpt lat="43.76374" lon="7.29745">
        <ele>551.20001220703</ele>
        <time>2021-02-04T09:36:54.000Z</time>
      </trkpt>
      <trkpt lat="43.76376" lon="7.29747">
        <ele>551.40002441406</ele>
        <time>2021-02-04T09:36:55.000Z</time>
      </trkpt>
      <trkpt lat="43.76387" lon="7.29756">
        <ele>552.40002441406</ele>
        <time>2021-02-04T09:37:01.000Z</time>
      </trkpt>
      <trkpt lat="43.76389" lon="7.29757">
        <ele>552.40002441406</ele>
        <time>2021-02-04T09:37:02.000Z</time>
      </trkpt>
      <trkpt lat="43.76398" lon="7.29764">
        <ele>553.40002441406</ele>
        <time>2021-02-04T09:37:08.000Z</time>
      </trkpt>
      <trkpt lat="43.76399" lon="7.29765">
        <ele>553.59997558594</ele>
        <time>2021-02-04T09:37:09.000Z</time>
      </trkpt>
      <trkpt lat="43.76403" lon="7.29767">
        <ele>554.59997558594</ele>
        <time>2021-02-04T09:37:13.000Z</time>
      </trkpt>
      <trkpt lat="43.76402" lon="7.29767">
        <ele>554.59997558594</ele>
        <time>2021-02-04T09:37:14.000Z</time>
      </trkpt>
      <trkpt lat="43.76404" lon="7.29766">
        <ele>555</ele>
        <time>2021-02-04T09:37:16.000Z</time>
      </trkpt>
      <trkpt lat="43.76407" lon="7.29763">
        <ele>555.40002441406</ele>
        <time>2021-02-04T09:37:19.000Z</time>
      </trkpt>
      <trkpt lat="43.76408" lon="7.29761">
        <ele>555.59997558594</ele>
        <time>2021-02-04T09:37:20.000Z</time>
      </trkpt>
      <trkpt lat="43.76408" lon="7.2976">
        <ele>557</ele>
        <time>2021-02-04T09:37:23.000Z</time>
      </trkpt>
      <trkpt lat="43.76408" lon="7.29761">
        <ele>557.40002441406</ele>
        <time>2021-02-04T09:37:24.000Z</time>
      </trkpt>
      <trkpt lat="43.76408" lon="7.2976">
        <ele>558.20001220703</ele>
        <time>2021-02-04T09:37:27.000Z</time>
      </trkpt>
      <trkpt lat="43.76408" lon="7.2976">
        <ele>558.40002441406</ele>
        <time>2021-02-04T09:37:37.000Z</time>
      </trkpt>
      <trkpt lat="43.76409" lon="7.29758">
        <ele>558.40002441406</ele>
        <time>2021-02-04T09:37:43.000Z</time>
      </trkpt>
      <trkpt lat="43.76412" lon="7.29755">
        <ele>558.59997558594</ele>
        <time>2021-02-04T09:37:45.000Z</time>
      </trkpt>
      <trkpt lat="43.76414" lon="7.29752">
        <ele>559.40002441406</ele>
        <time>2021-02-04T09:37:48.000Z</time>
      </trkpt>
      <trkpt lat="43.76416" lon="7.29749">
        <ele>560.20001220703</ele>
        <time>2021-02-04T09:37:50.000Z</time>
      </trkpt>
      <trkpt lat="43.76418" lon="7.29748">
        <ele>560.79998779297</ele>
        <time>2021-02-04T09:37:51.000Z</time>
      </trkpt>
      <trkpt lat="43.76422" lon="7.29753">
        <ele>561.79998779297</ele>
        <time>2021-02-04T09:37:54.000Z</time>
      </trkpt>
      <trkpt lat="43.76426" lon="7.29758">
        <ele>562.40002441406</ele>
        <time>2021-02-04T09:37:57.000Z</time>
      </trkpt>
      <trkpt lat="43.76428" lon="7.29759">
        <ele>562.59997558594</ele>
        <time>2021-02-04T09:37:58.000Z</time>
      </trkpt>
      <trkpt lat="43.7643" lon="7.29759">
        <ele>562.79998779297</ele>
        <time>2021-02-04T09:38:00.000Z</time>
      </trkpt>
      <trkpt lat="43.76432" lon="7.29757">
        <ele>563</ele>
        <time>2021-02-04T09:38:01.000Z</time>
      </trkpt>
      <trkpt lat="43.76434" lon="7.29751">
        <ele>563.79998779297</ele>
        <time>2021-02-04T09:38:04.000Z</time>
      </trkpt>
      <trkpt lat="43.76435" lon="7.2975">
        <ele>564.20001220703</ele>
        <time>2021-02-04T09:38:05.000Z</time>
      </trkpt>
      <trkpt lat="43.76439" lon="7.29751">
        <ele>565.40002441406</ele>
        <time>2021-02-04T09:38:07.000Z</time>
      </trkpt>
      <trkpt lat="43.76441" lon="7.29753">
        <ele>566</ele>
        <time>2021-02-04T09:38:08.000Z</time>
      </trkpt>
      <trkpt lat="43.76442" lon="7.29754">
        <ele>566.40002441406</ele>
        <time>2021-02-04T09:38:09.000Z</time>
      </trkpt>
      <trkpt lat="43.76444" lon="7.29754">
        <ele>566.59997558594</ele>
        <time>2021-02-04T09:38:10.000Z</time>
      </trkpt>
      <trkpt lat="43.76449" lon="7.29753">
        <ele>567</ele>
        <time>2021-02-04T09:38:13.000Z</time>
      </trkpt>
      <trkpt lat="43.7645" lon="7.29751">
        <ele>567.20001220703</ele>
        <time>2021-02-04T09:38:14.000Z</time>
      </trkpt>
      <trkpt lat="43.76454" lon="7.29748">
        <ele>567.59997558594</ele>
        <time>2021-02-04T09:38:16.000Z</time>
      </trkpt>
      <trkpt lat="43.76459" lon="7.29747">
        <ele>569</ele>
        <time>2021-02-04T09:38:19.000Z</time>
      </trkpt>
      <trkpt lat="43.76461" lon="7.29746">
        <ele>569.59997558594</ele>
        <time>2021-02-04T09:38:20.000Z</time>
      </trkpt>
      <trkpt lat="43.76461" lon="7.29744">
        <ele>570.20001220703</ele>
        <time>2021-02-04T09:38:21.000Z</time>
      </trkpt>
      <trkpt lat="43.76458" lon="7.29739">
        <ele>571.40002441406</ele>
        <time>2021-02-04T09:38:24.000Z</time>
      </trkpt>
      <trkpt lat="43.76454" lon="7.29734">
        <ele>572.79998779297</ele>
        <time>2021-02-04T09:38:27.000Z</time>
      </trkpt>
      <trkpt lat="43.76453" lon="7.29729">
        <ele>573.59997558594</ele>
        <time>2021-02-04T09:38:29.000Z</time>
      </trkpt>
      <trkpt lat="43.76453" lon="7.29725">
        <ele>574</ele>
        <time>2021-02-04T09:38:31.000Z</time>
      </trkpt>
      <trkpt lat="43.76455" lon="7.29719">
        <ele>575.20001220703</ele>
        <time>2021-02-04T09:38:34.000Z</time>
      </trkpt>
      <trkpt lat="43.76457" lon="7.29715">
        <ele>576.20001220703</ele>
        <time>2021-02-04T09:38:36.000Z</time>
      </trkpt>
      <trkpt lat="43.76459" lon="7.29709">
        <ele>577.79998779297</ele>
        <time>2021-02-04T09:38:39.000Z</time>
      </trkpt>
      <trkpt lat="43.76461" lon="7.29709">
        <ele>578.20001220703</ele>
        <time>2021-02-04T09:38:40.000Z</time>
      </trkpt>
      <trkpt lat="43.76463" lon="7.29706">
        <ele>579.20001220703</ele>
        <time>2021-02-04T09:38:42.000Z</time>
      </trkpt>
      <trkpt lat="43.76464" lon="7.29705">
        <ele>579.40002441406</ele>
        <time>2021-02-04T09:38:43.000Z</time>
      </trkpt>
      <trkpt lat="43.76466" lon="7.29702">
        <ele>580.40002441406</ele>
        <time>2021-02-04T09:38:45.000Z</time>
      </trkpt>
      <trkpt lat="43.7647" lon="7.29699">
        <ele>581.79998779297</ele>
        <time>2021-02-04T09:38:48.000Z</time>
      </trkpt>
      <trkpt lat="43.76471" lon="7.29698">
        <ele>582.59997558594</ele>
        <time>2021-02-04T09:38:50.000Z</time>
      </trkpt>
      <trkpt lat="43.76471" lon="7.29699">
        <ele>582.79998779297</ele>
        <time>2021-02-04T09:38:51.000Z</time>
      </trkpt>
      <trkpt lat="43.76472" lon="7.29694">
        <ele>583.79998779297</ele>
        <time>2021-02-04T09:38:54.000Z</time>
      </trkpt>
      <trkpt lat="43.76474" lon="7.29692">
        <ele>584</ele>
        <time>2021-02-04T09:38:56.000Z</time>
      </trkpt>
      <trkpt lat="43.76476" lon="7.29687">
        <ele>585</ele>
        <time>2021-02-04T09:38:59.000Z</time>
      </trkpt>
      <trkpt lat="43.76476" lon="7.29685">
        <ele>586.20001220703</ele>
        <time>2021-02-04T09:39:03.000Z</time>
      </trkpt>
      <trkpt lat="43.76476" lon="7.29685">
        <ele>586.40002441406</ele>
        <time>2021-02-04T09:39:04.000Z</time>
      </trkpt>
      <trkpt lat="43.76478" lon="7.29683">
        <ele>586.59997558594</ele>
        <time>2021-02-04T09:39:09.000Z</time>
      </trkpt>
      <trkpt lat="43.76478" lon="7.29684">
        <ele>586.79998779297</ele>
        <time>2021-02-04T09:39:22.000Z</time>
      </trkpt>
      <trkpt lat="43.76479" lon="7.29684">
        <ele>586.59997558594</ele>
        <time>2021-02-04T09:39:44.000Z</time>
      </trkpt>
      <trkpt lat="43.76479" lon="7.29684">
        <ele>586.79998779297</ele>
        <time>2021-02-04T09:40:02.000Z</time>
      </trkpt>
      <trkpt lat="43.76479" lon="7.29685">
        <ele>586.79998779297</ele>
        <time>2021-02-04T09:40:25.000Z</time>
      </trkpt>
      <trkpt lat="43.76484" lon="7.29685">
        <ele>587</ele>
        <time>2021-02-04T09:40:40.000Z</time>
      </trkpt>
      <trkpt lat="43.76491" lon="7.29683">
        <ele>587.40002441406</ele>
        <time>2021-02-04T09:40:44.000Z</time>
      </trkpt>
      <trkpt lat="43.7649" lon="7.29683">
        <ele>587.59997558594</ele>
        <time>2021-02-04T09:40:45.000Z</time>
      </trkpt>
      <trkpt lat="43.76492" lon="7.29682">
        <ele>588.59997558594</ele>
        <time>2021-02-04T09:40:47.000Z</time>
      </trkpt>
      <trkpt lat="43.76497" lon="7.29675">
        <ele>589.40002441406</ele>
        <time>2021-02-04T09:40:51.000Z</time>
      </trkpt>
      <trkpt lat="43.76498" lon="7.29674">
        <ele>589.59997558594</ele>
        <time>2021-02-04T09:40:52.000Z</time>
      </trkpt>
      <trkpt lat="43.76501" lon="7.29669">
        <ele>590.79998779297</ele>
        <time>2021-02-04T09:40:55.000Z</time>
      </trkpt>
      <trkpt lat="43.76502" lon="7.29668">
        <ele>591.40002441406</ele>
        <time>2021-02-04T09:40:56.000Z</time>
      </trkpt>
      <trkpt lat="43.76501" lon="7.29669">
        <ele>592</ele>
        <time>2021-02-04T09:40:57.000Z</time>
      </trkpt>
      <trkpt lat="43.76501" lon="7.29669">
        <ele>593</ele>
        <time>2021-02-04T09:41:00.000Z</time>
      </trkpt>
      <trkpt lat="43.765" lon="7.29668">
        <ele>593.20001220703</ele>
        <time>2021-02-04T09:41:06.000Z</time>
      </trkpt>
      <trkpt lat="43.765" lon="7.29663">
        <ele>593.59997558594</ele>
        <time>2021-02-04T09:41:11.000Z</time>
      </trkpt>
      <trkpt lat="43.76499" lon="7.29661">
        <ele>593.59997558594</ele>
        <time>2021-02-04T09:41:12.000Z</time>
      </trkpt>
      <trkpt lat="43.76499" lon="7.29658">
        <ele>594.20001220703</ele>
        <time>2021-02-04T09:41:14.000Z</time>
      </trkpt>
      <trkpt lat="43.76502" lon="7.29656">
        <ele>594.79998779297</ele>
        <time>2021-02-04T09:41:16.000Z</time>
      </trkpt>
      <trkpt lat="43.76505" lon="7.29656">
        <ele>595.40002441406</ele>
        <time>2021-02-04T09:41:18.000Z</time>
      </trkpt>
      <trkpt lat="43.7651" lon="7.29657">
        <ele>596</ele>
        <time>2021-02-04T09:41:21.000Z</time>
      </trkpt>
      <trkpt lat="43.76515" lon="7.29652">
        <ele>596.20001220703</ele>
        <time>2021-02-04T09:41:25.000Z</time>
      </trkpt>
      <trkpt lat="43.76515" lon="7.29649">
        <ele>596.40002441406</ele>
        <time>2021-02-04T09:41:26.000Z</time>
      </trkpt>
      <trkpt lat="43.76516" lon="7.29642">
        <ele>597.79998779297</ele>
        <time>2021-02-04T09:41:29.000Z</time>
      </trkpt>
      <trkpt lat="43.76516" lon="7.29639">
        <ele>598.40002441406</ele>
        <time>2021-02-04T09:41:30.000Z</time>
      </trkpt>
      <trkpt lat="43.76516" lon="7.29636">
        <ele>599</ele>
        <time>2021-02-04T09:41:31.000Z</time>
      </trkpt>
      <trkpt lat="43.76519" lon="7.29632">
        <ele>600.20001220703</ele>
        <time>2021-02-04T09:41:33.000Z</time>
      </trkpt>
      <trkpt lat="43.76521" lon="7.2963">
        <ele>601.40002441406</ele>
        <time>2021-02-04T09:41:35.000Z</time>
      </trkpt>
      <trkpt lat="43.76523" lon="7.29624">
        <ele>602.79998779297</ele>
        <time>2021-02-04T09:41:38.000Z</time>
      </trkpt>
      <trkpt lat="43.76523" lon="7.29622">
        <ele>603.40002441406</ele>
        <time>2021-02-04T09:41:39.000Z</time>
      </trkpt>
      <trkpt lat="43.76523" lon="7.2962">
        <ele>604</ele>
        <time>2021-02-04T09:41:40.000Z</time>
      </trkpt>
      <trkpt lat="43.76526" lon="7.29617">
        <ele>605</ele>
        <time>2021-02-04T09:41:42.000Z</time>
      </trkpt>
      <trkpt lat="43.76527" lon="7.29616">
        <ele>605.59997558594</ele>
        <time>2021-02-04T09:41:43.000Z</time>
      </trkpt>
      <trkpt lat="43.76528" lon="7.29615">
        <ele>606.20001220703</ele>
        <time>2021-02-04T09:41:44.000Z</time>
      </trkpt>
      <trkpt lat="43.76529" lon="7.29605">
        <ele>607.40002441406</ele>
        <time>2021-02-04T09:41:48.000Z</time>
      </trkpt>
      <trkpt lat="43.76531" lon="7.29598">
        <ele>608.59997558594</ele>
        <time>2021-02-04T09:41:51.000Z</time>
      </trkpt>
      <trkpt lat="43.76532" lon="7.29592">
        <ele>609.40002441406</ele>
        <time>2021-02-04T09:41:54.000Z</time>
      </trkpt>
      <trkpt lat="43.76532" lon="7.29591">
        <ele>609.79998779297</ele>
        <time>2021-02-04T09:41:55.000Z</time>
      </trkpt>
      <trkpt lat="43.76533" lon="7.29586">
        <ele>610.79998779297</ele>
        <time>2021-02-04T09:41:58.000Z</time>
      </trkpt>
      <trkpt lat="43.76532" lon="7.29583">
        <ele>611.59997558594</ele>
        <time>2021-02-04T09:42:01.000Z</time>
      </trkpt>
      <trkpt lat="43.76533" lon="7.29583">
        <ele>612</ele>
        <time>2021-02-04T09:42:04.000Z</time>
      </trkpt>
      <trkpt lat="43.76533" lon="7.29583">
        <ele>612</ele>
        <time>2021-02-04T09:42:07.000Z</time>
      </trkpt>
      <trkpt lat="43.76533" lon="7.29582">
        <ele>612.20001220703</ele>
        <time>2021-02-04T09:42:19.000Z</time>
      </trkpt>
      <trkpt lat="43.76533" lon="7.29582">
        <ele>612</ele>
        <time>2021-02-04T09:42:29.000Z</time>
      </trkpt>
      <trkpt lat="43.76533" lon="7.29581">
        <ele>611.79998779297</ele>
        <time>2021-02-04T09:42:35.000Z</time>
      </trkpt>
      <trkpt lat="43.76534" lon="7.2958">
        <ele>611.79998779297</ele>
        <time>2021-02-04T09:42:47.000Z</time>
      </trkpt>
      <trkpt lat="43.76534" lon="7.2958">
        <ele>612</ele>
        <time>2021-02-04T09:42:57.000Z</time>
      </trkpt>
      <trkpt lat="43.76534" lon="7.29579">
        <ele>611.79998779297</ele>
        <time>2021-02-04T09:43:08.000Z</time>
      </trkpt>
      <trkpt lat="43.76535" lon="7.29579">
        <ele>612.20001220703</ele>
        <time>2021-02-04T09:43:21.000Z</time>
      </trkpt>
      <trkpt lat="43.76534" lon="7.29579">
        <ele>612</ele>
        <time>2021-02-04T09:43:29.000Z</time>
      </trkpt>
      <trkpt lat="43.76534" lon="7.29579">
        <ele>611.59997558594</ele>
        <time>2021-02-04T09:43:35.000Z</time>
      </trkpt>
      <trkpt lat="43.76534" lon="7.29577">
        <ele>611.79998779297</ele>
        <time>2021-02-04T09:43:37.000Z</time>
      </trkpt>
      <trkpt lat="43.76536" lon="7.29573">
        <ele>612</ele>
        <time>2021-02-04T09:43:39.000Z</time>
      </trkpt>
      <trkpt lat="43.76541" lon="7.29559">
        <ele>612.59997558594</ele>
        <time>2021-02-04T09:43:45.000Z</time>
      </trkpt>
      <trkpt lat="43.76544" lon="7.29551">
        <ele>613</ele>
        <time>2021-02-04T09:43:48.000Z</time>
      </trkpt>
      <trkpt lat="43.76548" lon="7.29547">
        <ele>613.40002441406</ele>
        <time>2021-02-04T09:43:51.000Z</time>
      </trkpt>
      <trkpt lat="43.76552" lon="7.29541">
        <ele>614.20001220703</ele>
        <time>2021-02-04T09:43:55.000Z</time>
      </trkpt>
      <trkpt lat="43.76552" lon="7.29541">
        <ele>614.20001220703</ele>
        <time>2021-02-04T09:43:56.000Z</time>
      </trkpt>
      <trkpt lat="43.76553" lon="7.2954">
        <ele>614.40002441406</ele>
        <time>2021-02-04T09:44:02.000Z</time>
      </trkpt>
      <trkpt lat="43.76554" lon="7.29541">
        <ele>614.40002441406</ele>
        <time>2021-02-04T09:44:12.000Z</time>
      </trkpt>
      <trkpt lat="43.76559" lon="7.2954">
        <ele>614.40002441406</ele>
        <time>2021-02-04T09:44:16.000Z</time>
      </trkpt>
      <trkpt lat="43.76561" lon="7.29541">
        <ele>614.40002441406</ele>
        <time>2021-02-04T09:44:17.000Z</time>
      </trkpt>
      <trkpt lat="43.76572" lon="7.29548">
        <ele>614.40002441406</ele>
        <time>2021-02-04T09:44:23.000Z</time>
      </trkpt>
      <trkpt lat="43.76578" lon="7.29549">
        <ele>615.20001220703</ele>
        <time>2021-02-04T09:44:26.000Z</time>
      </trkpt>
      <trkpt lat="43.76585" lon="7.29548">
        <ele>615.59997558594</ele>
        <time>2021-02-04T09:44:29.000Z</time>
      </trkpt>
      <trkpt lat="43.76599" lon="7.29546">
        <ele>615.40002441406</ele>
        <time>2021-02-04T09:44:35.000Z</time>
      </trkpt>
      <trkpt lat="43.76612" lon="7.29548">
        <ele>616.40002441406</ele>
        <time>2021-02-04T09:44:41.000Z</time>
      </trkpt>
      <trkpt lat="43.76616" lon="7.29548">
        <ele>616.59997558594</ele>
        <time>2021-02-04T09:44:43.000Z</time>
      </trkpt>
      <trkpt lat="43.76624" lon="7.29549">
        <ele>617.40002441406</ele>
        <time>2021-02-04T09:44:47.000Z</time>
      </trkpt>
      <trkpt lat="43.76628" lon="7.29549">
        <ele>617.79998779297</ele>
        <time>2021-02-04T09:44:49.000Z</time>
      </trkpt>
      <trkpt lat="43.76635" lon="7.29548">
        <ele>618.79998779297</ele>
        <time>2021-02-04T09:44:52.000Z</time>
      </trkpt>
      <trkpt lat="43.7664" lon="7.29549">
        <ele>620.40002441406</ele>
        <time>2021-02-04T09:44:55.000Z</time>
      </trkpt>
      <trkpt lat="43.76644" lon="7.29546">
        <ele>621.79998779297</ele>
        <time>2021-02-04T09:44:57.000Z</time>
      </trkpt>
      <trkpt lat="43.76647" lon="7.29542">
        <ele>622.79998779297</ele>
        <time>2021-02-04T09:44:59.000Z</time>
      </trkpt>
      <trkpt lat="43.76649" lon="7.29541">
        <ele>623.20001220703</ele>
        <time>2021-02-04T09:45:00.000Z</time>
      </trkpt>
      <trkpt lat="43.76657" lon="7.2953">
        <ele>623.79998779297</ele>
        <time>2021-02-04T09:45:05.000Z</time>
      </trkpt>
      <trkpt lat="43.76664" lon="7.29523">
        <ele>624.40002441406</ele>
        <time>2021-02-04T09:45:08.000Z</time>
      </trkpt>
      <trkpt lat="43.76673" lon="7.29516">
        <ele>625</ele>
        <time>2021-02-04T09:45:11.000Z</time>
      </trkpt>
      <trkpt lat="43.76683" lon="7.29508">
        <ele>625.79998779297</ele>
        <time>2021-02-04T09:45:15.000Z</time>
      </trkpt>
      <trkpt lat="43.76686" lon="7.29505">
        <ele>626.20001220703</ele>
        <time>2021-02-04T09:45:16.000Z</time>
      </trkpt>
      <trkpt lat="43.76696" lon="7.29497">
        <ele>627.40002441406</ele>
        <time>2021-02-04T09:45:20.000Z</time>
      </trkpt>
      <trkpt lat="43.76699" lon="7.29495">
        <ele>627.40002441406</ele>
        <time>2021-02-04T09:45:21.000Z</time>
      </trkpt>
      <trkpt lat="43.76708" lon="7.2949">
        <ele>628.40002441406</ele>
        <time>2021-02-04T09:45:24.000Z</time>
      </trkpt>
      <trkpt lat="43.76717" lon="7.29486">
        <ele>629.59997558594</ele>
        <time>2021-02-04T09:45:27.000Z</time>
      </trkpt>
      <trkpt lat="43.76722" lon="7.29483">
        <ele>630.20001220703</ele>
        <time>2021-02-04T09:45:29.000Z</time>
      </trkpt>
      <trkpt lat="43.76728" lon="7.29481">
        <ele>630.79998779297</ele>
        <time>2021-02-04T09:45:31.000Z</time>
      </trkpt>
      <trkpt lat="43.76736" lon="7.29477">
        <ele>631.79998779297</ele>
        <time>2021-02-04T09:45:34.000Z</time>
      </trkpt>
      <trkpt lat="43.76746" lon="7.29469">
        <ele>633</ele>
        <time>2021-02-04T09:45:38.000Z</time>
      </trkpt>
      <trkpt lat="43.76757" lon="7.29461">
        <ele>634.20001220703</ele>
        <time>2021-02-04T09:45:43.000Z</time>
      </trkpt>
      <trkpt lat="43.76765" lon="7.29462">
        <ele>635.20001220703</ele>
        <time>2021-02-04T09:45:47.000Z</time>
      </trkpt>
      <trkpt lat="43.76767" lon="7.29462">
        <ele>635.40002441406</ele>
        <time>2021-02-04T09:45:48.000Z</time>
      </trkpt>
      <trkpt lat="43.76768" lon="7.29462">
        <ele>635.59997558594</ele>
        <time>2021-02-04T09:45:49.000Z</time>
      </trkpt>
      <trkpt lat="43.76769" lon="7.29461">
        <ele>635.79998779297</ele>
        <time>2021-02-04T09:45:53.000Z</time>
      </trkpt>
      <trkpt lat="43.76769" lon="7.29461">
        <ele>636</ele>
        <time>2021-02-04T09:46:16.000Z</time>
      </trkpt>
      <trkpt lat="43.76769" lon="7.2946">
        <ele>636</ele>
        <time>2021-02-04T09:46:17.000Z</time>
      </trkpt>
      <trkpt lat="43.76772" lon="7.29457">
        <ele>636</ele>
        <time>2021-02-04T09:46:20.000Z</time>
      </trkpt>
      <trkpt lat="43.76777" lon="7.29457">
        <ele>636</ele>
        <time>2021-02-04T09:46:24.000Z</time>
      </trkpt>
      <trkpt lat="43.76777" lon="7.29458">
        <ele>636.20001220703</ele>
        <time>2021-02-04T09:46:26.000Z</time>
      </trkpt>
      <trkpt lat="43.76777" lon="7.29458">
        <ele>636.20001220703</ele>
        <time>2021-02-04T09:46:27.000Z</time>
      </trkpt>
      <trkpt lat="43.76779" lon="7.29459">
        <ele>636.40002441406</ele>
        <time>2021-02-04T09:46:33.000Z</time>
      </trkpt>
      <trkpt lat="43.7678" lon="7.2946">
        <ele>636.20001220703</ele>
        <time>2021-02-04T09:46:38.000Z</time>
      </trkpt>
      <trkpt lat="43.76781" lon="7.29462">
        <ele>636.59997558594</ele>
        <time>2021-02-04T09:46:45.000Z</time>
      </trkpt>
      <trkpt lat="43.76782" lon="7.29466">
        <ele>637.20001220703</ele>
        <time>2021-02-04T09:46:50.000Z</time>
      </trkpt>
      <trkpt lat="43.76783" lon="7.29468">
        <ele>637.79998779297</ele>
        <time>2021-02-04T09:46:54.000Z</time>
      </trkpt>
      <trkpt lat="43.76783" lon="7.29468">
        <ele>638</ele>
        <time>2021-02-04T09:47:02.000Z</time>
      </trkpt>
      <trkpt lat="43.76784" lon="7.29469">
        <ele>638</ele>
        <time>2021-02-04T09:47:04.000Z</time>
      </trkpt>
      <trkpt lat="43.76785" lon="7.29471">
        <ele>638.20001220703</ele>
        <time>2021-02-04T09:47:07.000Z</time>
      </trkpt>
      <trkpt lat="43.76787" lon="7.29476">
        <ele>638.40002441406</ele>
        <time>2021-02-04T09:47:09.000Z</time>
      </trkpt>
      <trkpt lat="43.76789" lon="7.29481">
        <ele>638.79998779297</ele>
        <time>2021-02-04T09:47:11.000Z</time>
      </trkpt>
      <trkpt lat="43.7679" lon="7.29485">
        <ele>639.79998779297</ele>
        <time>2021-02-04T09:47:13.000Z</time>
      </trkpt>
      <trkpt lat="43.76791" lon="7.29486">
        <ele>640.40002441406</ele>
        <time>2021-02-04T09:47:14.000Z</time>
      </trkpt>
      <trkpt lat="43.76791" lon="7.29487">
        <ele>640.79998779297</ele>
        <time>2021-02-04T09:47:15.000Z</time>
      </trkpt>
      <trkpt lat="43.76793" lon="7.2949">
        <ele>641.79998779297</ele>
        <time>2021-02-04T09:47:17.000Z</time>
      </trkpt>
      <trkpt lat="43.76793" lon="7.29491">
        <ele>642.40002441406</ele>
        <time>2021-02-04T09:47:20.000Z</time>
      </trkpt>
      <trkpt lat="43.76793" lon="7.29493">
        <ele>642.79998779297</ele>
        <time>2021-02-04T09:47:22.000Z</time>
      </trkpt>
      <trkpt lat="43.76795" lon="7.29499">
        <ele>643.40002441406</ele>
        <time>2021-02-04T09:47:25.000Z</time>
      </trkpt>
      <trkpt lat="43.76795" lon="7.29502">
        <ele>643.40002441406</ele>
        <time>2021-02-04T09:47:26.000Z</time>
      </trkpt>
      <trkpt lat="43.76795" lon="7.29504">
        <ele>644.20001220703</ele>
        <time>2021-02-04T09:47:28.000Z</time>
      </trkpt>
      <trkpt lat="43.76795" lon="7.29504">
        <ele>644.40002441406</ele>
        <time>2021-02-04T09:47:29.000Z</time>
      </trkpt>
      <trkpt lat="43.76794" lon="7.29506">
        <ele>645.20001220703</ele>
        <time>2021-02-04T09:47:31.000Z</time>
      </trkpt>
      <trkpt lat="43.76794" lon="7.2951">
        <ele>646.40002441406</ele>
        <time>2021-02-04T09:47:36.000Z</time>
      </trkpt>
      <trkpt lat="43.76795" lon="7.2951">
        <ele>646.40002441406</ele>
        <time>2021-02-04T09:47:37.000Z</time>
      </trkpt>
      <trkpt lat="43.76796" lon="7.29513">
        <ele>647.40002441406</ele>
        <time>2021-02-04T09:47:45.000Z</time>
      </trkpt>
      <trkpt lat="43.76796" lon="7.2952">
        <ele>647.59997558594</ele>
        <time>2021-02-04T09:47:50.000Z</time>
      </trkpt>
      <trkpt lat="43.76797" lon="7.2952">
        <ele>648.20001220703</ele>
        <time>2021-02-04T09:47:54.000Z</time>
      </trkpt>
      <trkpt lat="43.76798" lon="7.29522">
        <ele>648.79998779297</ele>
        <time>2021-02-04T09:47:56.000Z</time>
      </trkpt>
      <trkpt lat="43.76798" lon="7.29524">
        <ele>649.59997558594</ele>
        <time>2021-02-04T09:48:01.000Z</time>
      </trkpt>
      <trkpt lat="43.76798" lon="7.29524">
        <ele>649.79998779297</ele>
        <time>2021-02-04T09:48:04.000Z</time>
      </trkpt>
      <trkpt lat="43.76798" lon="7.29525">
        <ele>649.79998779297</ele>
        <time>2021-02-04T09:48:13.000Z</time>
      </trkpt>
      <trkpt lat="43.76798" lon="7.29525">
        <ele>649.59997558594</ele>
        <time>2021-02-04T09:48:25.000Z</time>
      </trkpt>
      <trkpt lat="43.76799" lon="7.29526">
        <ele>649.79998779297</ele>
        <time>2021-02-04T09:48:33.000Z</time>
      </trkpt>
      <trkpt lat="43.768" lon="7.29526">
        <ele>649.59997558594</ele>
        <time>2021-02-04T09:48:38.000Z</time>
      </trkpt>
      <trkpt lat="43.76802" lon="7.29527">
        <ele>649.59997558594</ele>
        <time>2021-02-04T09:49:00.000Z</time>
      </trkpt>
      <trkpt lat="43.76808" lon="7.29529">
        <ele>649.40002441406</ele>
        <time>2021-02-04T09:49:04.000Z</time>
      </trkpt>
      <trkpt lat="43.76817" lon="7.29532">
        <ele>648.59997558594</ele>
        <time>2021-02-04T09:49:10.000Z</time>
      </trkpt>
      <trkpt lat="43.7682" lon="7.29534">
        <ele>648.40002441406</ele>
        <time>2021-02-04T09:49:11.000Z</time>
      </trkpt>
      <trkpt lat="43.76826" lon="7.29539">
        <ele>647.59997558594</ele>
        <time>2021-02-04T09:49:14.000Z</time>
      </trkpt>
      <trkpt lat="43.76827" lon="7.2954">
        <ele>647.59997558594</ele>
        <time>2021-02-04T09:49:15.000Z</time>
      </trkpt>
      <trkpt lat="43.76831" lon="7.29544">
        <ele>647.20001220703</ele>
        <time>2021-02-04T09:49:17.000Z</time>
      </trkpt>
      <trkpt lat="43.76836" lon="7.29549">
        <ele>647</ele>
        <time>2021-02-04T09:49:19.000Z</time>
      </trkpt>
      <trkpt lat="43.76848" lon="7.29558">
        <ele>646.20001220703</ele>
        <time>2021-02-04T09:49:23.000Z</time>
      </trkpt>
      <trkpt lat="43.7685" lon="7.29559">
        <ele>645.79998779297</ele>
        <time>2021-02-04T09:49:24.000Z</time>
      </trkpt>
      <trkpt lat="43.76854" lon="7.29563">
        <ele>645.20001220703</ele>
        <time>2021-02-04T09:49:26.000Z</time>
      </trkpt>
      <trkpt lat="43.76854" lon="7.29567">
        <ele>645</ele>
        <time>2021-02-04T09:49:27.000Z</time>
      </trkpt>
      <trkpt lat="43.76853" lon="7.29569">
        <ele>644.79998779297</ele>
        <time>2021-02-04T09:49:28.000Z</time>
      </trkpt>
      <trkpt lat="43.76853" lon="7.2957">
        <ele>644</ele>
        <time>2021-02-04T09:49:32.000Z</time>
      </trkpt>
      <trkpt lat="43.76853" lon="7.2957">
        <ele>643.79998779297</ele>
        <time>2021-02-04T09:49:33.000Z</time>
      </trkpt>
      <trkpt lat="43.76853" lon="7.29569">
        <ele>643.79998779297</ele>
        <time>2021-02-04T09:49:40.000Z</time>
      </trkpt>
      <trkpt lat="43.76853" lon="7.29569">
        <ele>643.40002441406</ele>
        <time>2021-02-04T09:49:49.000Z</time>
      </trkpt>
      <trkpt lat="43.76854" lon="7.2957">
        <ele>643.20001220703</ele>
        <time>2021-02-04T09:49:57.000Z</time>
      </trkpt>
      <trkpt lat="43.76854" lon="7.29569">
        <ele>643.59997558594</ele>
        <time>2021-02-04T09:50:12.000Z</time>
      </trkpt>
      <trkpt lat="43.76853" lon="7.2957">
        <ele>643.40002441406</ele>
        <time>2021-02-04T09:50:18.000Z</time>
      </trkpt>
      <trkpt lat="43.76854" lon="7.29571">
        <ele>643.59997558594</ele>
        <time>2021-02-04T09:50:24.000Z</time>
      </trkpt>
      <trkpt lat="43.76854" lon="7.29577">
        <ele>643.40002441406</ele>
        <time>2021-02-04T09:50:28.000Z</time>
      </trkpt>
      <trkpt lat="43.76855" lon="7.29581">
        <ele>642.79998779297</ele>
        <time>2021-02-04T09:50:32.000Z</time>
      </trkpt>
      <trkpt lat="43.76856" lon="7.29582">
        <ele>641.79998779297</ele>
        <time>2021-02-04T09:50:36.000Z</time>
      </trkpt>
      <trkpt lat="43.76857" lon="7.29583">
        <ele>641.40002441406</ele>
        <time>2021-02-04T09:50:38.000Z</time>
      </trkpt>
      <trkpt lat="43.7686" lon="7.29588">
        <ele>641.20001220703</ele>
        <time>2021-02-04T09:50:42.000Z</time>
      </trkpt>
      <trkpt lat="43.7686" lon="7.2959">
        <ele>641.40002441406</ele>
        <time>2021-02-04T09:50:43.000Z</time>
      </trkpt>
      <trkpt lat="43.7686" lon="7.29594">
        <ele>641.20001220703</ele>
        <time>2021-02-04T09:50:47.000Z</time>
      </trkpt>
      <trkpt lat="43.76858" lon="7.29596">
        <ele>641</ele>
        <time>2021-02-04T09:50:49.000Z</time>
      </trkpt>
      <trkpt lat="43.76855" lon="7.29598">
        <ele>640.59997558594</ele>
        <time>2021-02-04T09:50:52.000Z</time>
      </trkpt>
      <trkpt lat="43.76855" lon="7.29599">
        <ele>639.59997558594</ele>
        <time>2021-02-04T09:50:54.000Z</time>
      </trkpt>
      <trkpt lat="43.76855" lon="7.29599">
        <ele>639.20001220703</ele>
        <time>2021-02-04T09:50:55.000Z</time>
      </trkpt>
      <trkpt lat="43.76852" lon="7.29603">
        <ele>638.20001220703</ele>
        <time>2021-02-04T09:51:00.000Z</time>
      </trkpt>
      <trkpt lat="43.76851" lon="7.29605">
        <ele>638</ele>
        <time>2021-02-04T09:51:01.000Z</time>
      </trkpt>
      <trkpt lat="43.76849" lon="7.2961">
        <ele>636.79998779297</ele>
        <time>2021-02-04T09:51:03.000Z</time>
      </trkpt>
      <trkpt lat="43.76848" lon="7.29615">
        <ele>635.20001220703</ele>
        <time>2021-02-04T09:51:05.000Z</time>
      </trkpt>
      <trkpt lat="43.76851" lon="7.29618">
        <ele>633.40002441406</ele>
        <time>2021-02-04T09:51:07.000Z</time>
      </trkpt>
      <trkpt lat="43.76855" lon="7.29621">
        <ele>632.20001220703</ele>
        <time>2021-02-04T09:51:09.000Z</time>
      </trkpt>
      <trkpt lat="43.76857" lon="7.29627">
        <ele>630.79998779297</ele>
        <time>2021-02-04T09:51:11.000Z</time>
      </trkpt>
      <trkpt lat="43.76859" lon="7.29631">
        <ele>629.79998779297</ele>
        <time>2021-02-04T09:51:13.000Z</time>
      </trkpt>
      <trkpt lat="43.76859" lon="7.29633">
        <ele>628.59997558594</ele>
        <time>2021-02-04T09:51:14.000Z</time>
      </trkpt>
      <trkpt lat="43.7686" lon="7.29637">
        <ele>627.20001220703</ele>
        <time>2021-02-04T09:51:16.000Z</time>
      </trkpt>
      <trkpt lat="43.7686" lon="7.29639">
        <ele>626.20001220703</ele>
        <time>2021-02-04T09:51:17.000Z</time>
      </trkpt>
      <trkpt lat="43.76861" lon="7.29641">
        <ele>625.20001220703</ele>
        <time>2021-02-04T09:51:18.000Z</time>
      </trkpt>
      <trkpt lat="43.76862" lon="7.29642">
        <ele>624.59997558594</ele>
        <time>2021-02-04T09:51:19.000Z</time>
      </trkpt>
      <trkpt lat="43.76863" lon="7.29643">
        <ele>623.79998779297</ele>
        <time>2021-02-04T09:51:20.000Z</time>
      </trkpt>
      <trkpt lat="43.76867" lon="7.29643">
        <ele>622.59997558594</ele>
        <time>2021-02-04T09:51:22.000Z</time>
      </trkpt>
      <trkpt lat="43.7687" lon="7.29642">
        <ele>622</ele>
        <time>2021-02-04T09:51:23.000Z</time>
      </trkpt>
      <trkpt lat="43.76874" lon="7.29641">
        <ele>621.20001220703</ele>
        <time>2021-02-04T09:51:24.000Z</time>
      </trkpt>
      <trkpt lat="43.76877" lon="7.29639">
        <ele>620.79998779297</ele>
        <time>2021-02-04T09:51:25.000Z</time>
      </trkpt>
      <trkpt lat="43.76884" lon="7.29633">
        <ele>619.79998779297</ele>
        <time>2021-02-04T09:51:27.000Z</time>
      </trkpt>
      <trkpt lat="43.7689" lon="7.29629">
        <ele>618.79998779297</ele>
        <time>2021-02-04T09:51:29.000Z</time>
      </trkpt>
      <trkpt lat="43.76893" lon="7.29628">
        <ele>617.79998779297</ele>
        <time>2021-02-04T09:51:31.000Z</time>
      </trkpt>
      <trkpt lat="43.76897" lon="7.29625">
        <ele>616.59997558594</ele>
        <time>2021-02-04T09:51:33.000Z</time>
      </trkpt>
      <trkpt lat="43.76903" lon="7.29623">
        <ele>615.40002441406</ele>
        <time>2021-02-04T09:51:35.000Z</time>
      </trkpt>
      <trkpt lat="43.76907" lon="7.29621">
        <ele>613.59997558594</ele>
        <time>2021-02-04T09:51:37.000Z</time>
      </trkpt>
      <trkpt lat="43.76909" lon="7.29619">
        <ele>612.59997558594</ele>
        <time>2021-02-04T09:51:38.000Z</time>
      </trkpt>
      <trkpt lat="43.76913" lon="7.29615">
        <ele>611</ele>
        <time>2021-02-04T09:51:40.000Z</time>
      </trkpt>
      <trkpt lat="43.76915" lon="7.29611">
        <ele>609</ele>
        <time>2021-02-04T09:51:42.000Z</time>
      </trkpt>
      <trkpt lat="43.76915" lon="7.29611">
        <ele>608.40002441406</ele>
        <time>2021-02-04T09:51:43.000Z</time>
      </trkpt>
      <trkpt lat="43.76915" lon="7.29611">
        <ele>607.79998779297</ele>
        <time>2021-02-04T09:51:44.000Z</time>
      </trkpt>
      <trkpt lat="43.76915" lon="7.29611">
        <ele>606.79998779297</ele>
        <time>2021-02-04T09:51:53.000Z</time>
      </trkpt>
      <trkpt lat="43.76915" lon="7.2961">
        <ele>607.40002441406</ele>
        <time>2021-02-04T09:52:06.000Z</time>
      </trkpt>
      <trkpt lat="43.76915" lon="7.29609">
        <ele>607.40002441406</ele>
        <time>2021-02-04T09:52:15.000Z</time>
      </trkpt>
      <trkpt lat="43.76917" lon="7.29605">
        <ele>607</ele>
        <time>2021-02-04T09:52:23.000Z</time>
      </trkpt>
      <trkpt lat="43.76919" lon="7.29599">
        <ele>606.79998779297</ele>
        <time>2021-02-04T09:52:27.000Z</time>
      </trkpt>
      <trkpt lat="43.76921" lon="7.29595">
        <ele>606.59997558594</ele>
        <time>2021-02-04T09:52:29.000Z</time>
      </trkpt>
      <trkpt lat="43.76923" lon="7.29593">
        <ele>606.40002441406</ele>
        <time>2021-02-04T09:52:30.000Z</time>
      </trkpt>
      <trkpt lat="43.76929" lon="7.29584">
        <ele>605.40002441406</ele>
        <time>2021-02-04T09:52:34.000Z</time>
      </trkpt>
      <trkpt lat="43.7693" lon="7.29579">
        <ele>604.40002441406</ele>
        <time>2021-02-04T09:52:36.000Z</time>
      </trkpt>
      <trkpt lat="43.76934" lon="7.29573">
        <ele>603.20001220703</ele>
        <time>2021-02-04T09:52:39.000Z</time>
      </trkpt>
      <trkpt lat="43.76935" lon="7.29571">
        <ele>603</ele>
        <time>2021-02-04T09:52:40.000Z</time>
      </trkpt>
      <trkpt lat="43.76939" lon="7.29562">
        <ele>601.79998779297</ele>
        <time>2021-02-04T09:52:43.000Z</time>
      </trkpt>
      <trkpt lat="43.76943" lon="7.29556">
        <ele>600.59997558594</ele>
        <time>2021-02-04T09:52:45.000Z</time>
      </trkpt>
      <trkpt lat="43.76945" lon="7.29552">
        <ele>600</ele>
        <time>2021-02-04T09:52:46.000Z</time>
      </trkpt>
      <trkpt lat="43.76947" lon="7.29547">
        <ele>599.40002441406</ele>
        <time>2021-02-04T09:52:47.000Z</time>
      </trkpt>
      <trkpt lat="43.7695" lon="7.29539">
        <ele>598.20001220703</ele>
        <time>2021-02-04T09:52:49.000Z</time>
      </trkpt>
      <trkpt lat="43.7695" lon="7.29536">
        <ele>597.79998779297</ele>
        <time>2021-02-04T09:52:50.000Z</time>
      </trkpt>
      <trkpt lat="43.7695" lon="7.29533">
        <ele>597.20001220703</ele>
        <time>2021-02-04T09:52:51.000Z</time>
      </trkpt>
      <trkpt lat="43.7695" lon="7.29521">
        <ele>596</ele>
        <time>2021-02-04T09:52:54.000Z</time>
      </trkpt>
      <trkpt lat="43.7695" lon="7.29518">
        <ele>595.79998779297</ele>
        <time>2021-02-04T09:52:55.000Z</time>
      </trkpt>
      <trkpt lat="43.76948" lon="7.29502">
        <ele>596.40002441406</ele>
        <time>2021-02-04T09:53:00.000Z</time>
      </trkpt>
      <trkpt lat="43.76946" lon="7.29492">
        <ele>597.20001220703</ele>
        <time>2021-02-04T09:53:04.000Z</time>
      </trkpt>
      <trkpt lat="43.76944" lon="7.29489">
        <ele>597.40002441406</ele>
        <time>2021-02-04T09:53:06.000Z</time>
      </trkpt>
      <trkpt lat="43.76942" lon="7.2948">
        <ele>598.20001220703</ele>
        <time>2021-02-04T09:53:10.000Z</time>
      </trkpt>
      <trkpt lat="43.7694" lon="7.29475">
        <ele>598.40002441406</ele>
        <time>2021-02-04T09:53:12.000Z</time>
      </trkpt>
      <trkpt lat="43.7694" lon="7.29474">
        <ele>598.59997558594</ele>
        <time>2021-02-04T09:53:16.000Z</time>
      </trkpt>
      <trkpt lat="43.76939" lon="7.29473">
        <ele>598.59997558594</ele>
        <time>2021-02-04T09:53:22.000Z</time>
      </trkpt>
      <trkpt lat="43.76939" lon="7.29471">
        <ele>598.79998779297</ele>
        <time>2021-02-04T09:53:31.000Z</time>
      </trkpt>
      <trkpt lat="43.7694" lon="7.29472">
        <ele>598.79998779297</ele>
        <time>2021-02-04T09:53:37.000Z</time>
      </trkpt>
      <trkpt lat="43.7694" lon="7.29472">
        <ele>598.40002441406</ele>
        <time>2021-02-04T09:53:56.000Z</time>
      </trkpt>
      <trkpt lat="43.7694" lon="7.29472">
        <ele>598.40002441406</ele>
        <time>2021-02-04T09:54:10.000Z</time>
      </trkpt>
      <trkpt lat="43.76943" lon="7.29477">
        <ele>598.20001220703</ele>
        <time>2021-02-04T09:54:18.000Z</time>
      </trkpt>
      <trkpt lat="43.76945" lon="7.29488">
        <ele>598.20001220703</ele>
        <time>2021-02-04T09:54:24.000Z</time>
      </trkpt>
      <trkpt lat="43.76949" lon="7.29504">
        <ele>597.79998779297</ele>
        <time>2021-02-04T09:54:28.000Z</time>
      </trkpt>
      <trkpt lat="43.7695" lon="7.29512">
        <ele>597</ele>
        <time>2021-02-04T09:54:30.000Z</time>
      </trkpt>
      <trkpt lat="43.7695" lon="7.29524">
        <ele>596.20001220703</ele>
        <time>2021-02-04T09:54:33.000Z</time>
      </trkpt>
      <trkpt lat="43.76949" lon="7.29533">
        <ele>596</ele>
        <time>2021-02-04T09:54:36.000Z</time>
      </trkpt>
      <trkpt lat="43.76949" lon="7.29539">
        <ele>596</ele>
        <time>2021-02-04T09:54:38.000Z</time>
      </trkpt>
      <trkpt lat="43.76942" lon="7.29555">
        <ele>596.20001220703</ele>
        <time>2021-02-04T09:54:44.000Z</time>
      </trkpt>
      <trkpt lat="43.76939" lon="7.29559">
        <ele>597</ele>
        <time>2021-02-04T09:54:46.000Z</time>
      </trkpt>
      <trkpt lat="43.76937" lon="7.29564">
        <ele>598.20001220703</ele>
        <time>2021-02-04T09:54:48.000Z</time>
      </trkpt>
      <trkpt lat="43.76933" lon="7.29571">
        <ele>599.79998779297</ele>
        <time>2021-02-04T09:54:51.000Z</time>
      </trkpt>
      <trkpt lat="43.76931" lon="7.29574">
        <ele>600.20001220703</ele>
        <time>2021-02-04T09:54:52.000Z</time>
      </trkpt>
      <trkpt lat="43.76928" lon="7.29578">
        <ele>601.20001220703</ele>
        <time>2021-02-04T09:54:54.000Z</time>
      </trkpt>
      <trkpt lat="43.76925" lon="7.29585">
        <ele>602.40002441406</ele>
        <time>2021-02-04T09:54:57.000Z</time>
      </trkpt>
      <trkpt lat="43.76923" lon="7.29588">
        <ele>602.79998779297</ele>
        <time>2021-02-04T09:54:58.000Z</time>
      </trkpt>
      <trkpt lat="43.76918" lon="7.29593">
        <ele>603.59997558594</ele>
        <time>2021-02-04T09:55:01.000Z</time>
      </trkpt>
      <trkpt lat="43.76917" lon="7.29596">
        <ele>604.79998779297</ele>
        <time>2021-02-04T09:55:04.000Z</time>
      </trkpt>
      <trkpt lat="43.76917" lon="7.29597">
        <ele>605.59997558594</ele>
        <time>2021-02-04T09:55:05.000Z</time>
      </trkpt>
      <trkpt lat="43.76917" lon="7.29597">
        <ele>606.20001220703</ele>
        <time>2021-02-04T09:55:06.000Z</time>
      </trkpt>
      <trkpt lat="43.76917" lon="7.29598">
        <ele>607.20001220703</ele>
        <time>2021-02-04T09:55:10.000Z</time>
      </trkpt>
      <trkpt lat="43.76917" lon="7.29598">
        <ele>607.20001220703</ele>
        <time>2021-02-04T09:55:13.000Z</time>
      </trkpt>
      <trkpt lat="43.76917" lon="7.29598">
        <ele>607</ele>
        <time>2021-02-04T09:55:30.000Z</time>
      </trkpt>
      <trkpt lat="43.76919" lon="7.29598">
        <ele>606.40002441406</ele>
        <time>2021-02-04T09:55:40.000Z</time>
      </trkpt>
      <trkpt lat="43.76919" lon="7.29598">
        <ele>606.20001220703</ele>
        <time>2021-02-04T09:55:44.000Z</time>
      </trkpt>
      <trkpt lat="43.7692" lon="7.29599">
        <ele>605.79998779297</ele>
        <time>2021-02-04T09:55:58.000Z</time>
      </trkpt>
      <trkpt lat="43.76921" lon="7.29599">
        <ele>606</ele>
        <time>2021-02-04T09:56:02.000Z</time>
      </trkpt>
      <trkpt lat="43.76922" lon="7.296">
        <ele>605.40002441406</ele>
        <time>2021-02-04T09:56:14.000Z</time>
      </trkpt>
      <trkpt lat="43.76922" lon="7.296">
        <ele>605.20001220703</ele>
        <time>2021-02-04T09:56:30.000Z</time>
      </trkpt>
      <trkpt lat="43.76922" lon="7.296">
        <ele>605.20001220703</ele>
        <time>2021-02-04T09:56:35.000Z</time>
      </trkpt>
      <trkpt lat="43.76923" lon="7.296">
        <ele>605.59997558594</ele>
        <time>2021-02-04T09:56:45.000Z</time>
      </trkpt>
      <trkpt lat="43.76923" lon="7.296">
        <ele>605.40002441406</ele>
        <time>2021-02-04T09:56:51.000Z</time>
      </trkpt>
      <trkpt lat="43.76924" lon="7.296">
        <ele>605.20001220703</ele>
        <time>2021-02-04T09:56:58.000Z</time>
      </trkpt>
      <trkpt lat="43.76924" lon="7.296">
        <ele>604.59997558594</ele>
        <time>2021-02-04T09:57:09.000Z</time>
      </trkpt>
      <trkpt lat="43.76924" lon="7.296">
        <ele>604.59997558594</ele>
        <time>2021-02-04T09:57:19.000Z</time>
      </trkpt>
      <trkpt lat="43.76923" lon="7.29601">
        <ele>604.79998779297</ele>
        <time>2021-02-04T09:57:24.000Z</time>
      </trkpt>
      <trkpt lat="43.76923" lon="7.29601">
        <ele>604.79998779297</ele>
        <time>2021-02-04T09:57:25.000Z</time>
      </trkpt>
      <trkpt lat="43.76923" lon="7.29601">
        <ele>605</ele>
        <time>2021-02-04T09:57:32.000Z</time>
      </trkpt>
      <trkpt lat="43.76922" lon="7.29601">
        <ele>604.79998779297</ele>
        <time>2021-02-04T09:57:41.000Z</time>
      </trkpt>
      <trkpt lat="43.76922" lon="7.29602">
        <ele>604.20001220703</ele>
        <time>2021-02-04T09:57:46.000Z</time>
      </trkpt>
      <trkpt lat="43.76922" lon="7.29601">
        <ele>604</ele>
        <time>2021-02-04T09:57:47.000Z</time>
      </trkpt>
      <trkpt lat="43.76923" lon="7.29599">
        <ele>604.20001220703</ele>
        <time>2021-02-04T09:57:51.000Z</time>
      </trkpt>
      <trkpt lat="43.76924" lon="7.29597">
        <ele>604.20001220703</ele>
        <time>2021-02-04T09:57:52.000Z</time>
      </trkpt>
      <trkpt lat="43.76929" lon="7.29591">
        <ele>603.79998779297</ele>
        <time>2021-02-04T09:57:55.000Z</time>
      </trkpt>
      <trkpt lat="43.76931" lon="7.29588">
        <ele>603.59997558594</ele>
        <time>2021-02-04T09:57:56.000Z</time>
      </trkpt>
      <trkpt lat="43.76933" lon="7.29581">
        <ele>602.59997558594</ele>
        <time>2021-02-04T09:57:58.000Z</time>
      </trkpt>
      <trkpt lat="43.76937" lon="7.29574">
        <ele>601.59997558594</ele>
        <time>2021-02-04T09:58:00.000Z</time>
      </trkpt>
      <trkpt lat="43.76945" lon="7.2956">
        <ele>600.20001220703</ele>
        <time>2021-02-04T09:58:03.000Z</time>
      </trkpt>
      <trkpt lat="43.76948" lon="7.29555">
        <ele>599.59997558594</ele>
        <time>2021-02-04T09:58:04.000Z</time>
      </trkpt>
      <trkpt lat="43.7695" lon="7.29551">
        <ele>598.79998779297</ele>
        <time>2021-02-04T09:58:05.000Z</time>
      </trkpt>
      <trkpt lat="43.76952" lon="7.29542">
        <ele>596.79998779297</ele>
        <time>2021-02-04T09:58:07.000Z</time>
      </trkpt>
      <trkpt lat="43.76953" lon="7.29536">
        <ele>595.20001220703</ele>
        <time>2021-02-04T09:58:09.000Z</time>
      </trkpt>
      <trkpt lat="43.76953" lon="7.29523">
        <ele>594</ele>
        <time>2021-02-04T09:58:12.000Z</time>
      </trkpt>
      <trkpt lat="43.76953" lon="7.2952">
        <ele>594</ele>
        <time>2021-02-04T09:58:13.000Z</time>
      </trkpt>
      <trkpt lat="43.76952" lon="7.29514">
        <ele>594</ele>
        <time>2021-02-04T09:58:15.000Z</time>
      </trkpt>
      <trkpt lat="43.7695" lon="7.29503">
        <ele>594.20001220703</ele>
        <time>2021-02-04T09:58:18.000Z</time>
      </trkpt>
      <trkpt lat="43.76945" lon="7.29486">
        <ele>595.40002441406</ele>
        <time>2021-02-04T09:58:23.000Z</time>
      </trkpt>
      <trkpt lat="43.76944" lon="7.29483">
        <ele>595.59997558594</ele>
        <time>2021-02-04T09:58:24.000Z</time>
      </trkpt>
      <trkpt lat="43.76942" lon="7.29476">
        <ele>596.40002441406</ele>
        <time>2021-02-04T09:58:26.000Z</time>
      </trkpt>
      <trkpt lat="43.76936" lon="7.29468">
        <ele>596.79998779297</ele>
        <time>2021-02-04T09:58:29.000Z</time>
      </trkpt>
      <trkpt lat="43.76933" lon="7.29465">
        <ele>596.79998779297</ele>
        <time>2021-02-04T09:58:31.000Z</time>
      </trkpt>
      <trkpt lat="43.76928" lon="7.29463">
        <ele>596.79998779297</ele>
        <time>2021-02-04T09:58:33.000Z</time>
      </trkpt>
      <trkpt lat="43.76912" lon="7.29463">
        <ele>595.20001220703</ele>
        <time>2021-02-04T09:58:38.000Z</time>
      </trkpt>
      <trkpt lat="43.76908" lon="7.29463">
        <ele>594.79998779297</ele>
        <time>2021-02-04T09:58:40.000Z</time>
      </trkpt>
      <trkpt lat="43.76902" lon="7.29462">
        <ele>594.20001220703</ele>
        <time>2021-02-04T09:58:42.000Z</time>
      </trkpt>
      <trkpt lat="43.76899" lon="7.29461">
        <ele>594</ele>
        <time>2021-02-04T09:58:43.000Z</time>
      </trkpt>
      <trkpt lat="43.7689" lon="7.29456">
        <ele>592.40002441406</ele>
        <time>2021-02-04T09:58:46.000Z</time>
      </trkpt>
      <trkpt lat="43.76887" lon="7.29453">
        <ele>592.20001220703</ele>
        <time>2021-02-04T09:58:47.000Z</time>
      </trkpt>
      <trkpt lat="43.76873" lon="7.29438">
        <ele>592</ele>
        <time>2021-02-04T09:58:52.000Z</time>
      </trkpt>
      <trkpt lat="43.76862" lon="7.29426">
        <ele>592</ele>
        <time>2021-02-04T09:58:57.000Z</time>
      </trkpt>
      <trkpt lat="43.76836" lon="7.29402">
        <ele>592.79998779297</ele>
        <time>2021-02-04T09:59:05.000Z</time>
      </trkpt>
      <trkpt lat="43.76816" lon="7.29382">
        <ele>593</ele>
        <time>2021-02-04T09:59:11.000Z</time>
      </trkpt>
      <trkpt lat="43.76796" lon="7.29365">
        <ele>591.20001220703</ele>
        <time>2021-02-04T09:59:16.000Z</time>
      </trkpt>
      <trkpt lat="43.76792" lon="7.29361">
        <ele>590.79998779297</ele>
        <time>2021-02-04T09:59:17.000Z</time>
      </trkpt>
      <trkpt lat="43.76787" lon="7.29358">
        <ele>590.79998779297</ele>
        <time>2021-02-04T09:59:18.000Z</time>
      </trkpt>
      <trkpt lat="43.76774" lon="7.29349">
        <ele>590.79998779297</ele>
        <time>2021-02-04T09:59:21.000Z</time>
      </trkpt>
      <trkpt lat="43.7677" lon="7.29346">
        <ele>590.59997558594</ele>
        <time>2021-02-04T09:59:22.000Z</time>
      </trkpt>
      <trkpt lat="43.76755" lon="7.29344">
        <ele>590.20001220703</ele>
        <time>2021-02-04T09:59:26.000Z</time>
      </trkpt>
      <trkpt lat="43.76751" lon="7.29343">
        <ele>590</ele>
        <time>2021-02-04T09:59:27.000Z</time>
      </trkpt>
      <trkpt lat="43.76746" lon="7.29344">
        <ele>589.79998779297</ele>
        <time>2021-02-04T09:59:28.000Z</time>
      </trkpt>
      <trkpt lat="43.76737" lon="7.29345">
        <ele>589.20001220703</ele>
        <time>2021-02-04T09:59:30.000Z</time>
      </trkpt>
      <trkpt lat="43.76731" lon="7.29347">
        <ele>588.79998779297</ele>
        <time>2021-02-04T09:59:31.000Z</time>
      </trkpt>
      <trkpt lat="43.76726" lon="7.29348">
        <ele>587.59997558594</ele>
        <time>2021-02-04T09:59:32.000Z</time>
      </trkpt>
      <trkpt lat="43.76716" lon="7.29349">
        <ele>585.40002441406</ele>
        <time>2021-02-04T09:59:34.000Z</time>
      </trkpt>
      <trkpt lat="43.76712" lon="7.29348">
        <ele>585</ele>
        <time>2021-02-04T09:59:35.000Z</time>
      </trkpt>
      <trkpt lat="43.76707" lon="7.29348">
        <ele>584.40002441406</ele>
        <time>2021-02-04T09:59:36.000Z</time>
      </trkpt>
      <trkpt lat="43.76702" lon="7.29348">
        <ele>583.20001220703</ele>
        <time>2021-02-04T09:59:37.000Z</time>
      </trkpt>
      <trkpt lat="43.76693" lon="7.2935">
        <ele>581.79998779297</ele>
        <time>2021-02-04T09:59:39.000Z</time>
      </trkpt>
      <trkpt lat="43.76689" lon="7.29351">
        <ele>580.59997558594</ele>
        <time>2021-02-04T09:59:40.000Z</time>
      </trkpt>
      <trkpt lat="43.76687" lon="7.29352">
        <ele>579.20001220703</ele>
        <time>2021-02-04T09:59:41.000Z</time>
      </trkpt>
      <trkpt lat="43.76688" lon="7.29352">
        <ele>579</ele>
        <time>2021-02-04T09:59:42.000Z</time>
      </trkpt>
      <trkpt lat="43.76679" lon="7.29356">
        <ele>578.59997558594</ele>
        <time>2021-02-04T09:59:48.000Z</time>
      </trkpt>
      <trkpt lat="43.76663" lon="7.29363">
        <ele>578</ele>
        <time>2021-02-04T09:59:52.000Z</time>
      </trkpt>
      <trkpt lat="43.76654" lon="7.29367">
        <ele>576.79998779297</ele>
        <time>2021-02-04T09:59:54.000Z</time>
      </trkpt>
      <trkpt lat="43.76646" lon="7.29371">
        <ele>575.79998779297</ele>
        <time>2021-02-04T09:59:56.000Z</time>
      </trkpt>
      <trkpt lat="43.76642" lon="7.29372">
        <ele>575.59997558594</ele>
        <time>2021-02-04T09:59:57.000Z</time>
      </trkpt>
      <trkpt lat="43.76633" lon="7.29378">
        <ele>576.59997558594</ele>
        <time>2021-02-04T10:00:01.000Z</time>
      </trkpt>
      <trkpt lat="43.76626" lon="7.29381">
        <ele>577</ele>
        <time>2021-02-04T10:00:04.000Z</time>
      </trkpt>
      <trkpt lat="43.76613" lon="7.29389">
        <ele>577.40002441406</ele>
        <time>2021-02-04T10:00:08.000Z</time>
      </trkpt>
      <trkpt lat="43.7661" lon="7.2939">
        <ele>577.59997558594</ele>
        <time>2021-02-04T10:00:09.000Z</time>
      </trkpt>
      <trkpt lat="43.76597" lon="7.2939">
        <ele>577</ele>
        <time>2021-02-04T10:00:12.000Z</time>
      </trkpt>
      <trkpt lat="43.76587" lon="7.29387">
        <ele>576.20001220703</ele>
        <time>2021-02-04T10:00:14.000Z</time>
      </trkpt>
      <trkpt lat="43.76584" lon="7.29385">
        <ele>576</ele>
        <time>2021-02-04T10:00:15.000Z</time>
      </trkpt>
      <trkpt lat="43.76574" lon="7.29379">
        <ele>575</ele>
        <time>2021-02-04T10:00:17.000Z</time>
      </trkpt>
      <trkpt lat="43.7657" lon="7.29376">
        <ele>574.59997558594</ele>
        <time>2021-02-04T10:00:18.000Z</time>
      </trkpt>
      <trkpt lat="43.76565" lon="7.29372">
        <ele>574.40002441406</ele>
        <time>2021-02-04T10:00:19.000Z</time>
      </trkpt>
      <trkpt lat="43.76554" lon="7.2936">
        <ele>574</ele>
        <time>2021-02-04T10:00:22.000Z</time>
      </trkpt>
      <trkpt lat="43.7655" lon="7.29356">
        <ele>573.59997558594</ele>
        <time>2021-02-04T10:00:23.000Z</time>
      </trkpt>
      <trkpt lat="43.76546" lon="7.29351">
        <ele>573.20001220703</ele>
        <time>2021-02-04T10:00:24.000Z</time>
      </trkpt>
      <trkpt lat="43.76537" lon="7.29333">
        <ele>572.59997558594</ele>
        <time>2021-02-04T10:00:27.000Z</time>
      </trkpt>
      <trkpt lat="43.76533" lon="7.29326">
        <ele>572</ele>
        <time>2021-02-04T10:00:28.000Z</time>
      </trkpt>
      <trkpt lat="43.76526" lon="7.29313">
        <ele>570</ele>
        <time>2021-02-04T10:00:30.000Z</time>
      </trkpt>
      <trkpt lat="43.76518" lon="7.293">
        <ele>568</ele>
        <time>2021-02-04T10:00:32.000Z</time>
      </trkpt>
      <trkpt lat="43.76513" lon="7.29296">
        <ele>567</ele>
        <time>2021-02-04T10:00:33.000Z</time>
      </trkpt>
      <trkpt lat="43.76508" lon="7.29292">
        <ele>566</ele>
        <time>2021-02-04T10:00:34.000Z</time>
      </trkpt>
      <trkpt lat="43.765" lon="7.29286">
        <ele>565</ele>
        <time>2021-02-04T10:00:36.000Z</time>
      </trkpt>
      <trkpt lat="43.76497" lon="7.29283">
        <ele>565</ele>
        <time>2021-02-04T10:00:37.000Z</time>
      </trkpt>
      <trkpt lat="43.76489" lon="7.29279">
        <ele>565.40002441406</ele>
        <time>2021-02-04T10:00:39.000Z</time>
      </trkpt>
      <trkpt lat="43.76482" lon="7.29277">
        <ele>566.20001220703</ele>
        <time>2021-02-04T10:00:41.000Z</time>
      </trkpt>
      <trkpt lat="43.7648" lon="7.29276">
        <ele>566.59997558594</ele>
        <time>2021-02-04T10:00:42.000Z</time>
      </trkpt>
      <trkpt lat="43.76477" lon="7.29274">
        <ele>567.59997558594</ele>
        <time>2021-02-04T10:00:45.000Z</time>
      </trkpt>
      <trkpt lat="43.76476" lon="7.29274">
        <ele>567.79998779297</ele>
        <time>2021-02-04T10:00:46.000Z</time>
      </trkpt>
      <trkpt lat="43.76475" lon="7.29274">
        <ele>568.59997558594</ele>
        <time>2021-02-04T10:00:48.000Z</time>
      </trkpt>
      <trkpt lat="43.76474" lon="7.29274">
        <ele>568.59997558594</ele>
        <time>2021-02-04T10:00:56.000Z</time>
      </trkpt>
      <trkpt lat="43.76472" lon="7.29274">
        <ele>568.59997558594</ele>
        <time>2021-02-04T10:01:06.000Z</time>
      </trkpt>
      <trkpt lat="43.76469" lon="7.29274">
        <ele>568.40002441406</ele>
        <time>2021-02-04T10:01:22.000Z</time>
      </trkpt>
      <trkpt lat="43.76458" lon="7.29274">
        <ele>568.40002441406</ele>
        <time>2021-02-04T10:01:26.000Z</time>
      </trkpt>
      <trkpt lat="43.76433" lon="7.29272">
        <ele>569</ele>
        <time>2021-02-04T10:01:32.000Z</time>
      </trkpt>
      <trkpt lat="43.76404" lon="7.29266">
        <ele>569</ele>
        <time>2021-02-04T10:01:39.000Z</time>
      </trkpt>
      <trkpt lat="43.76396" lon="7.29269">
        <ele>569.59997558594</ele>
        <time>2021-02-04T10:01:43.000Z</time>
      </trkpt>
      <trkpt lat="43.76395" lon="7.29271">
        <ele>569.79998779297</ele>
        <time>2021-02-04T10:01:44.000Z</time>
      </trkpt>
      <trkpt lat="43.76394" lon="7.29275">
        <ele>570.40002441406</ele>
        <time>2021-02-04T10:01:48.000Z</time>
      </trkpt>
      <trkpt lat="43.76394" lon="7.29276">
        <ele>570.79998779297</ele>
        <time>2021-02-04T10:01:50.000Z</time>
      </trkpt>
      <trkpt lat="43.76393" lon="7.29282">
        <ele>571</ele>
        <time>2021-02-04T10:01:54.000Z</time>
      </trkpt>
      <trkpt lat="43.76391" lon="7.29286">
        <ele>571.20001220703</ele>
        <time>2021-02-04T10:01:59.000Z</time>
      </trkpt>
      <trkpt lat="43.7639" lon="7.29289">
        <ele>571.40002441406</ele>
        <time>2021-02-04T10:02:01.000Z</time>
      </trkpt>
      <trkpt lat="43.76386" lon="7.29287">
        <ele>571.20001220703</ele>
        <time>2021-02-04T10:02:03.000Z</time>
      </trkpt>
      <trkpt lat="43.76383" lon="7.29281">
        <ele>571.40002441406</ele>
        <time>2021-02-04T10:02:05.000Z</time>
      </trkpt>
      <trkpt lat="43.76382" lon="7.29274">
        <ele>570.40002441406</ele>
        <time>2021-02-04T10:02:07.000Z</time>
      </trkpt>
      <trkpt lat="43.76382" lon="7.29271">
        <ele>569.79998779297</ele>
        <time>2021-02-04T10:02:08.000Z</time>
      </trkpt>
      <trkpt lat="43.76379" lon="7.29267">
        <ele>568.40002441406</ele>
        <time>2021-02-04T10:02:11.000Z</time>
      </trkpt>
      <trkpt lat="43.76376" lon="7.29271">
        <ele>567.40002441406</ele>
        <time>2021-02-04T10:02:13.000Z</time>
      </trkpt>
      <trkpt lat="43.76373" lon="7.29274">
        <ele>566.20001220703</ele>
        <time>2021-02-04T10:02:15.000Z</time>
      </trkpt>
      <trkpt lat="43.76368" lon="7.29281">
        <ele>564.79998779297</ele>
        <time>2021-02-04T10:02:18.000Z</time>
      </trkpt>
      <trkpt lat="43.76364" lon="7.29284">
        <ele>564.20001220703</ele>
        <time>2021-02-04T10:02:19.000Z</time>
      </trkpt>
      <trkpt lat="43.76361" lon="7.29286">
        <ele>563.20001220703</ele>
        <time>2021-02-04T10:02:20.000Z</time>
      </trkpt>
      <trkpt lat="43.76355" lon="7.29286">
        <ele>561.59997558594</ele>
        <time>2021-02-04T10:02:22.000Z</time>
      </trkpt>
      <trkpt lat="43.76353" lon="7.29286">
        <ele>560.79998779297</ele>
        <time>2021-02-04T10:02:23.000Z</time>
      </trkpt>
      <trkpt lat="43.76352" lon="7.29288">
        <ele>559.40002441406</ele>
        <time>2021-02-04T10:02:24.000Z</time>
      </trkpt>
      <trkpt lat="43.7635" lon="7.2929">
        <ele>557.79998779297</ele>
        <time>2021-02-04T10:02:25.000Z</time>
      </trkpt>
      <trkpt lat="43.76348" lon="7.29292">
        <ele>556.79998779297</ele>
        <time>2021-02-04T10:02:26.000Z</time>
      </trkpt>
      <trkpt lat="43.76345" lon="7.29294">
        <ele>556</ele>
        <time>2021-02-04T10:02:27.000Z</time>
      </trkpt>
      <trkpt lat="43.76342" lon="7.29294">
        <ele>555</ele>
        <time>2021-02-04T10:02:28.000Z</time>
      </trkpt>
      <trkpt lat="43.76337" lon="7.29291">
        <ele>553.59997558594</ele>
        <time>2021-02-04T10:02:30.000Z</time>
      </trkpt>
      <trkpt lat="43.76335" lon="7.29284">
        <ele>552.40002441406</ele>
        <time>2021-02-04T10:02:32.000Z</time>
      </trkpt>
      <trkpt lat="43.76333" lon="7.29281">
        <ele>551.20001220703</ele>
        <time>2021-02-04T10:02:33.000Z</time>
      </trkpt>
      <trkpt lat="43.76332" lon="7.29278">
        <ele>550.59997558594</ele>
        <time>2021-02-04T10:02:34.000Z</time>
      </trkpt>
      <trkpt lat="43.76329" lon="7.29276">
        <ele>550</ele>
        <time>2021-02-04T10:02:35.000Z</time>
      </trkpt>
      <trkpt lat="43.76325" lon="7.2927">
        <ele>548.59997558594</ele>
        <time>2021-02-04T10:02:37.000Z</time>
      </trkpt>
      <trkpt lat="43.76325" lon="7.29266">
        <ele>548</ele>
        <time>2021-02-04T10:02:38.000Z</time>
      </trkpt>
      <trkpt lat="43.76324" lon="7.29262">
        <ele>547</ele>
        <time>2021-02-04T10:02:39.000Z</time>
      </trkpt>
      <trkpt lat="43.76323" lon="7.29259">
        <ele>545.79998779297</ele>
        <time>2021-02-04T10:02:40.000Z</time>
      </trkpt>
      <trkpt lat="43.76321" lon="7.29256">
        <ele>544.79998779297</ele>
        <time>2021-02-04T10:02:41.000Z</time>
      </trkpt>
      <trkpt lat="43.76319" lon="7.29252">
        <ele>543.59997558594</ele>
        <time>2021-02-04T10:02:42.000Z</time>
      </trkpt>
      <trkpt lat="43.76314" lon="7.2925">
        <ele>541.59997558594</ele>
        <time>2021-02-04T10:02:44.000Z</time>
      </trkpt>
      <trkpt lat="43.76311" lon="7.29249">
        <ele>542.20001220703</ele>
        <time>2021-02-04T10:02:45.000Z</time>
      </trkpt>
      <trkpt lat="43.76309" lon="7.29238">
        <ele>540.20001220703</ele>
        <time>2021-02-04T10:02:48.000Z</time>
      </trkpt>
      <trkpt lat="43.7631" lon="7.29226">
        <ele>539</ele>
        <time>2021-02-04T10:02:50.000Z</time>
      </trkpt>
      <trkpt lat="43.76309" lon="7.29217">
        <ele>537.20001220703</ele>
        <time>2021-02-04T10:02:52.000Z</time>
      </trkpt>
      <trkpt lat="43.7631" lon="7.29212">
        <ele>536.59997558594</ele>
        <time>2021-02-04T10:02:53.000Z</time>
      </trkpt>
      <trkpt lat="43.76312" lon="7.29209">
        <ele>536</ele>
        <time>2021-02-04T10:02:54.000Z</time>
      </trkpt>
      <trkpt lat="43.76313" lon="7.29207">
        <ele>535.20001220703</ele>
        <time>2021-02-04T10:02:55.000Z</time>
      </trkpt>
      <trkpt lat="43.76314" lon="7.29205">
        <ele>534.79998779297</ele>
        <time>2021-02-04T10:02:56.000Z</time>
      </trkpt>
      <trkpt lat="43.76313" lon="7.292">
        <ele>533.79998779297</ele>
        <time>2021-02-04T10:02:58.000Z</time>
      </trkpt>
      <trkpt lat="43.76312" lon="7.29199">
        <ele>533.59997558594</ele>
        <time>2021-02-04T10:02:59.000Z</time>
      </trkpt>
      <trkpt lat="43.76311" lon="7.29197">
        <ele>533.40002441406</ele>
        <time>2021-02-04T10:03:00.000Z</time>
      </trkpt>
      <trkpt lat="43.7631" lon="7.29195">
        <ele>532.59997558594</ele>
        <time>2021-02-04T10:03:01.000Z</time>
      </trkpt>
      <trkpt lat="43.76308" lon="7.29194">
        <ele>532.20001220703</ele>
        <time>2021-02-04T10:03:02.000Z</time>
      </trkpt>
      <trkpt lat="43.76304" lon="7.29194">
        <ele>531.20001220703</ele>
        <time>2021-02-04T10:03:03.000Z</time>
      </trkpt>
      <trkpt lat="43.76299" lon="7.29193">
        <ele>530.59997558594</ele>
        <time>2021-02-04T10:03:04.000Z</time>
      </trkpt>
      <trkpt lat="43.76295" lon="7.29192">
        <ele>529.59997558594</ele>
        <time>2021-02-04T10:03:05.000Z</time>
      </trkpt>
      <trkpt lat="43.76292" lon="7.29191">
        <ele>528.40002441406</ele>
        <time>2021-02-04T10:03:06.000Z</time>
      </trkpt>
      <trkpt lat="43.76288" lon="7.29191">
        <ele>527.40002441406</ele>
        <time>2021-02-04T10:03:07.000Z</time>
      </trkpt>
      <trkpt lat="43.76286" lon="7.2919">
        <ele>526.20001220703</ele>
        <time>2021-02-04T10:03:08.000Z</time>
      </trkpt>
      <trkpt lat="43.76283" lon="7.29187">
        <ele>524.59997558594</ele>
        <time>2021-02-04T10:03:10.000Z</time>
      </trkpt>
      <trkpt lat="43.76281" lon="7.29185">
        <ele>523.20001220703</ele>
        <time>2021-02-04T10:03:12.000Z</time>
      </trkpt>
      <trkpt lat="43.76278" lon="7.29182">
        <ele>522.20001220703</ele>
        <time>2021-02-04T10:03:14.000Z</time>
      </trkpt>
      <trkpt lat="43.76276" lon="7.29179">
        <ele>522</ele>
        <time>2021-02-04T10:03:16.000Z</time>
      </trkpt>
      <trkpt lat="43.76275" lon="7.29177">
        <ele>521</ele>
        <time>2021-02-04T10:03:19.000Z</time>
      </trkpt>
      <trkpt lat="43.76275" lon="7.29177">
        <ele>520.40002441406</ele>
        <time>2021-02-04T10:03:20.000Z</time>
      </trkpt>
      <trkpt lat="43.76275" lon="7.29177">
        <ele>519.79998779297</ele>
        <time>2021-02-04T10:03:21.000Z</time>
      </trkpt>
      <trkpt lat="43.76273" lon="7.29175">
        <ele>519.20001220703</ele>
        <time>2021-02-04T10:03:29.000Z</time>
      </trkpt>
      <trkpt lat="43.76269" lon="7.29174">
        <ele>518.79998779297</ele>
        <time>2021-02-04T10:03:31.000Z</time>
      </trkpt>
      <trkpt lat="43.76265" lon="7.29173">
        <ele>517.79998779297</ele>
        <time>2021-02-04T10:03:33.000Z</time>
      </trkpt>
      <trkpt lat="43.76264" lon="7.29171">
        <ele>517.40002441406</ele>
        <time>2021-02-04T10:03:34.000Z</time>
      </trkpt>
      <trkpt lat="43.76266" lon="7.29165">
        <ele>515.79998779297</ele>
        <time>2021-02-04T10:03:37.000Z</time>
      </trkpt>
      <trkpt lat="43.76272" lon="7.29157">
        <ele>514.59997558594</ele>
        <time>2021-02-04T10:03:40.000Z</time>
      </trkpt>
      <trkpt lat="43.76278" lon="7.29151">
        <ele>514.40002441406</ele>
        <time>2021-02-04T10:03:42.000Z</time>
      </trkpt>
      <trkpt lat="43.76284" lon="7.29145">
        <ele>514.40002441406</ele>
        <time>2021-02-04T10:03:44.000Z</time>
      </trkpt>
      <trkpt lat="43.76291" lon="7.29141">
        <ele>514.20001220703</ele>
        <time>2021-02-04T10:03:46.000Z</time>
      </trkpt>
      <trkpt lat="43.76304" lon="7.29137">
        <ele>514.20001220703</ele>
        <time>2021-02-04T10:03:50.000Z</time>
      </trkpt>
      <trkpt lat="43.76312" lon="7.29137">
        <ele>514.20001220703</ele>
        <time>2021-02-04T10:03:53.000Z</time>
      </trkpt>
      <trkpt lat="43.76319" lon="7.29137">
        <ele>514.20001220703</ele>
        <time>2021-02-04T10:03:55.000Z</time>
      </trkpt>
      <trkpt lat="43.76334" lon="7.29136">
        <ele>514.79998779297</ele>
        <time>2021-02-04T10:04:01.000Z</time>
      </trkpt>
      <trkpt lat="43.76342" lon="7.29135">
        <ele>515.79998779297</ele>
        <time>2021-02-04T10:04:04.000Z</time>
      </trkpt>
      <trkpt lat="43.76347" lon="7.29135">
        <ele>516.20001220703</ele>
        <time>2021-02-04T10:04:06.000Z</time>
      </trkpt>
      <trkpt lat="43.76357" lon="7.29134">
        <ele>516.79998779297</ele>
        <time>2021-02-04T10:04:10.000Z</time>
      </trkpt>
      <trkpt lat="43.76359" lon="7.29135">
        <ele>517</ele>
        <time>2021-02-04T10:04:11.000Z</time>
      </trkpt>
      <trkpt lat="43.76372" lon="7.29141">
        <ele>517.59997558594</ele>
        <time>2021-02-04T10:04:17.000Z</time>
      </trkpt>
      <trkpt lat="43.76379" lon="7.29144">
        <ele>518</ele>
        <time>2021-02-04T10:04:20.000Z</time>
      </trkpt>
      <trkpt lat="43.76387" lon="7.29148">
        <ele>518.79998779297</ele>
        <time>2021-02-04T10:04:23.000Z</time>
      </trkpt>
      <trkpt lat="43.7639" lon="7.29149">
        <ele>519</ele>
        <time>2021-02-04T10:04:24.000Z</time>
      </trkpt>
      <trkpt lat="43.764" lon="7.29154">
        <ele>520</ele>
        <time>2021-02-04T10:04:28.000Z</time>
      </trkpt>
      <trkpt lat="43.76405" lon="7.29158">
        <ele>520.59997558594</ele>
        <time>2021-02-04T10:04:30.000Z</time>
      </trkpt>
      <trkpt lat="43.76407" lon="7.29159">
        <ele>521</ele>
        <time>2021-02-04T10:04:31.000Z</time>
      </trkpt>
      <trkpt lat="43.76413" lon="7.29163">
        <ele>522.20001220703</ele>
        <time>2021-02-04T10:04:34.000Z</time>
      </trkpt>
      <trkpt lat="43.76417" lon="7.29166">
        <ele>522.59997558594</ele>
        <time>2021-02-04T10:04:36.000Z</time>
      </trkpt>
      <trkpt lat="43.76425" lon="7.2917">
        <ele>523.59997558594</ele>
        <time>2021-02-04T10:04:39.000Z</time>
      </trkpt>
      <trkpt lat="43.76434" lon="7.29175">
        <ele>524.79998779297</ele>
        <time>2021-02-04T10:04:42.000Z</time>
      </trkpt>
      <trkpt lat="43.76436" lon="7.29177">
        <ele>525</ele>
        <time>2021-02-04T10:04:43.000Z</time>
      </trkpt>
      <trkpt lat="43.76442" lon="7.29186">
        <ele>525.79998779297</ele>
        <time>2021-02-04T10:04:46.000Z</time>
      </trkpt>
      <trkpt lat="43.76445" lon="7.29186">
        <ele>526</ele>
        <time>2021-02-04T10:04:47.000Z</time>
      </trkpt>
      <trkpt lat="43.76456" lon="7.29183">
        <ele>526.40002441406</ele>
        <time>2021-02-04T10:04:51.000Z</time>
      </trkpt>
      <trkpt lat="43.76459" lon="7.29183">
        <ele>526.59997558594</ele>
        <time>2021-02-04T10:04:52.000Z</time>
      </trkpt>
      <trkpt lat="43.76462" lon="7.29183">
        <ele>527</ele>
        <time>2021-02-04T10:04:53.000Z</time>
      </trkpt>
      <trkpt lat="43.76477" lon="7.29181">
        <ele>528</ele>
        <time>2021-02-04T10:04:59.000Z</time>
      </trkpt>
      <trkpt lat="43.7649" lon="7.29176">
        <ele>529</ele>
        <time>2021-02-04T10:05:05.000Z</time>
      </trkpt>
      <trkpt lat="43.76508" lon="7.2917">
        <ele>528</ele>
        <time>2021-02-04T10:05:09.000Z</time>
      </trkpt>
      <trkpt lat="43.76517" lon="7.29167">
        <ele>526.59997558594</ele>
        <time>2021-02-04T10:05:11.000Z</time>
      </trkpt>
      <trkpt lat="43.76524" lon="7.29168">
        <ele>524.59997558594</ele>
        <time>2021-02-04T10:05:13.000Z</time>
      </trkpt>
      <trkpt lat="43.76529" lon="7.29169">
        <ele>523.59997558594</ele>
        <time>2021-02-04T10:05:15.000Z</time>
      </trkpt>
      <trkpt lat="43.7653" lon="7.29167">
        <ele>523.20001220703</ele>
        <time>2021-02-04T10:05:16.000Z</time>
      </trkpt>
      <trkpt lat="43.76536" lon="7.29155">
        <ele>521.79998779297</ele>
        <time>2021-02-04T10:05:21.000Z</time>
      </trkpt>
      <trkpt lat="43.76538" lon="7.29151">
        <ele>520</ele>
        <time>2021-02-04T10:05:23.000Z</time>
      </trkpt>
      <trkpt lat="43.7654" lon="7.29147">
        <ele>518</ele>
        <time>2021-02-04T10:05:25.000Z</time>
      </trkpt>
      <trkpt lat="43.76542" lon="7.29144">
        <ele>516.79998779297</ele>
        <time>2021-02-04T10:05:26.000Z</time>
      </trkpt>
      <trkpt lat="43.76542" lon="7.29142">
        <ele>515.79998779297</ele>
        <time>2021-02-04T10:05:27.000Z</time>
      </trkpt>
      <trkpt lat="43.76545" lon="7.29139">
        <ele>513.79998779297</ele>
        <time>2021-02-04T10:05:29.000Z</time>
      </trkpt>
      <trkpt lat="43.7655" lon="7.29142">
        <ele>512.20001220703</ele>
        <time>2021-02-04T10:05:31.000Z</time>
      </trkpt>
      <trkpt lat="43.76552" lon="7.29142">
        <ele>511.39999389648</ele>
        <time>2021-02-04T10:05:32.000Z</time>
      </trkpt>
      <trkpt lat="43.76555" lon="7.29142">
        <ele>510.79998779297</ele>
        <time>2021-02-04T10:05:33.000Z</time>
      </trkpt>
      <trkpt lat="43.76563" lon="7.29143">
        <ele>509.79998779297</ele>
        <time>2021-02-04T10:05:35.000Z</time>
      </trkpt>
      <trkpt lat="43.76571" lon="7.29146">
        <ele>508.79998779297</ele>
        <time>2021-02-04T10:05:37.000Z</time>
      </trkpt>
      <trkpt lat="43.76575" lon="7.29148">
        <ele>507.60000610352</ele>
        <time>2021-02-04T10:05:38.000Z</time>
      </trkpt>
      <trkpt lat="43.76579" lon="7.29152">
        <ele>506.39999389648</ele>
        <time>2021-02-04T10:05:39.000Z</time>
      </trkpt>
      <trkpt lat="43.76583" lon="7.2916">
        <ele>504.79998779297</ele>
        <time>2021-02-04T10:05:41.000Z</time>
      </trkpt>
      <trkpt lat="43.76588" lon="7.29169">
        <ele>503.79998779297</ele>
        <time>2021-02-04T10:05:44.000Z</time>
      </trkpt>
      <trkpt lat="43.76591" lon="7.29169">
        <ele>503.79998779297</ele>
        <time>2021-02-04T10:05:45.000Z</time>
      </trkpt>
      <trkpt lat="43.76594" lon="7.29168">
        <ele>503.79998779297</ele>
        <time>2021-02-04T10:05:46.000Z</time>
      </trkpt>
      <trkpt lat="43.76598" lon="7.29167">
        <ele>504</ele>
        <time>2021-02-04T10:05:47.000Z</time>
      </trkpt>
      <trkpt lat="43.76612" lon="7.29162">
        <ele>504.39999389648</ele>
        <time>2021-02-04T10:05:50.000Z</time>
      </trkpt>
      <trkpt lat="43.7662" lon="7.29162">
        <ele>504.60000610352</ele>
        <time>2021-02-04T10:05:52.000Z</time>
      </trkpt>
      <trkpt lat="43.76627" lon="7.29161">
        <ele>504.39999389648</ele>
        <time>2021-02-04T10:05:54.000Z</time>
      </trkpt>
      <trkpt lat="43.76634" lon="7.29159">
        <ele>503.79998779297</ele>
        <time>2021-02-04T10:05:56.000Z</time>
      </trkpt>
      <trkpt lat="43.76643" lon="7.29156">
        <ele>503.60000610352</ele>
        <time>2021-02-04T10:05:58.000Z</time>
      </trkpt>
      <trkpt lat="43.76648" lon="7.29154">
        <ele>503.39999389648</ele>
        <time>2021-02-04T10:05:59.000Z</time>
      </trkpt>
      <trkpt lat="43.76652" lon="7.29153">
        <ele>503.39999389648</ele>
        <time>2021-02-04T10:06:00.000Z</time>
      </trkpt>
      <trkpt lat="43.76666" lon="7.29153">
        <ele>503</ele>
        <time>2021-02-04T10:06:04.000Z</time>
      </trkpt>
      <trkpt lat="43.76684" lon="7.29161">
        <ele>502.79998779297</ele>
        <time>2021-02-04T10:06:09.000Z</time>
      </trkpt>
      <trkpt lat="43.76686" lon="7.2916">
        <ele>502.60000610352</ele>
        <time>2021-02-04T10:06:10.000Z</time>
      </trkpt>
      <trkpt lat="43.76689" lon="7.29155">
        <ele>502</ele>
        <time>2021-02-04T10:06:12.000Z</time>
      </trkpt>
      <trkpt lat="43.76692" lon="7.29147">
        <ele>502</ele>
        <time>2021-02-04T10:06:15.000Z</time>
      </trkpt>
      <trkpt lat="43.76698" lon="7.29143">
        <ele>500.60000610352</ele>
        <time>2021-02-04T10:06:17.000Z</time>
      </trkpt>
      <trkpt lat="43.76701" lon="7.29143">
        <ele>499.60000610352</ele>
        <time>2021-02-04T10:06:18.000Z</time>
      </trkpt>
      <trkpt lat="43.76704" lon="7.29142">
        <ele>498.20001220703</ele>
        <time>2021-02-04T10:06:19.000Z</time>
      </trkpt>
      <trkpt lat="43.76707" lon="7.29142">
        <ele>496.79998779297</ele>
        <time>2021-02-04T10:06:20.000Z</time>
      </trkpt>
      <trkpt lat="43.76709" lon="7.29143">
        <ele>495.79998779297</ele>
        <time>2021-02-04T10:06:21.000Z</time>
      </trkpt>
      <trkpt lat="43.76712" lon="7.29144">
        <ele>494.79998779297</ele>
        <time>2021-02-04T10:06:22.000Z</time>
      </trkpt>
      <trkpt lat="43.76713" lon="7.29145">
        <ele>494</ele>
        <time>2021-02-04T10:06:23.000Z</time>
      </trkpt>
      <trkpt lat="43.76718" lon="7.29144">
        <ele>494.39999389648</ele>
        <time>2021-02-04T10:06:26.000Z</time>
      </trkpt>
      <trkpt lat="43.76721" lon="7.29143">
        <ele>495</ele>
        <time>2021-02-04T10:06:27.000Z</time>
      </trkpt>
      <trkpt lat="43.76729" lon="7.29137">
        <ele>495.79998779297</ele>
        <time>2021-02-04T10:06:30.000Z</time>
      </trkpt>
      <trkpt lat="43.76738" lon="7.29127">
        <ele>494.60000610352</ele>
        <time>2021-02-04T10:06:33.000Z</time>
      </trkpt>
      <trkpt lat="43.76744" lon="7.29119">
        <ele>493.39999389648</ele>
        <time>2021-02-04T10:06:35.000Z</time>
      </trkpt>
      <trkpt lat="43.7675" lon="7.29114">
        <ele>491.60000610352</ele>
        <time>2021-02-04T10:06:37.000Z</time>
      </trkpt>
      <trkpt lat="43.76759" lon="7.29109">
        <ele>490</ele>
        <time>2021-02-04T10:06:40.000Z</time>
      </trkpt>
      <trkpt lat="43.76761" lon="7.29107">
        <ele>489.60000610352</ele>
        <time>2021-02-04T10:06:41.000Z</time>
      </trkpt>
      <trkpt lat="43.76764" lon="7.29101">
        <ele>488.60000610352</ele>
        <time>2021-02-04T10:06:43.000Z</time>
      </trkpt>
      <trkpt lat="43.76766" lon="7.29099">
        <ele>488.20001220703</ele>
        <time>2021-02-04T10:06:44.000Z</time>
      </trkpt>
      <trkpt lat="43.76768" lon="7.29097">
        <ele>487.39999389648</ele>
        <time>2021-02-04T10:06:46.000Z</time>
      </trkpt>
      <trkpt lat="43.76771" lon="7.29095">
        <ele>487.60000610352</ele>
        <time>2021-02-04T10:06:48.000Z</time>
      </trkpt>
      <trkpt lat="43.76776" lon="7.29091">
        <ele>488</ele>
        <time>2021-02-04T10:06:52.000Z</time>
      </trkpt>
      <trkpt lat="43.76786" lon="7.29078">
        <ele>488.20001220703</ele>
        <time>2021-02-04T10:06:57.000Z</time>
      </trkpt>
      <trkpt lat="43.76792" lon="7.29076">
        <ele>488.39999389648</ele>
        <time>2021-02-04T10:07:01.000Z</time>
      </trkpt>
      <trkpt lat="43.76792" lon="7.29075">
        <ele>489.60000610352</ele>
        <time>2021-02-04T10:07:03.000Z</time>
      </trkpt>
      <trkpt lat="43.76792" lon="7.29075">
        <ele>490.60000610352</ele>
        <time>2021-02-04T10:07:06.000Z</time>
      </trkpt>
      <trkpt lat="43.76793" lon="7.29074">
        <ele>490.79998779297</ele>
        <time>2021-02-04T10:07:11.000Z</time>
      </trkpt>
      <trkpt lat="43.76793" lon="7.29072">
        <ele>490.79998779297</ele>
        <time>2021-02-04T10:07:12.000Z</time>
      </trkpt>
      <trkpt lat="43.76796" lon="7.29067">
        <ele>490.79998779297</ele>
        <time>2021-02-04T10:07:14.000Z</time>
      </trkpt>
      <trkpt lat="43.768" lon="7.29061">
        <ele>490.39999389648</ele>
        <time>2021-02-04T10:07:16.000Z</time>
      </trkpt>
      <trkpt lat="43.76802" lon="7.29056">
        <ele>490.20001220703</ele>
        <time>2021-02-04T10:07:17.000Z</time>
      </trkpt>
      <trkpt lat="43.76805" lon="7.29044">
        <ele>488.60000610352</ele>
        <time>2021-02-04T10:07:19.000Z</time>
      </trkpt>
      <trkpt lat="43.76807" lon="7.29039">
        <ele>487.79998779297</ele>
        <time>2021-02-04T10:07:20.000Z</time>
      </trkpt>
      <trkpt lat="43.76809" lon="7.29035">
        <ele>487.20001220703</ele>
        <time>2021-02-04T10:07:21.000Z</time>
      </trkpt>
      <trkpt lat="43.76814" lon="7.29012">
        <ele>485.60000610352</ele>
        <time>2021-02-04T10:07:25.000Z</time>
      </trkpt>
      <trkpt lat="43.76816" lon="7.29001">
        <ele>484.60000610352</ele>
        <time>2021-02-04T10:07:27.000Z</time>
      </trkpt>
      <trkpt lat="43.76816" lon="7.28997">
        <ele>483.79998779297</ele>
        <time>2021-02-04T10:07:28.000Z</time>
      </trkpt>
      <trkpt lat="43.76816" lon="7.28993">
        <ele>483</ele>
        <time>2021-02-04T10:07:29.000Z</time>
      </trkpt>
      <trkpt lat="43.76821" lon="7.28979">
        <ele>481.20001220703</ele>
        <time>2021-02-04T10:07:32.000Z</time>
      </trkpt>
      <trkpt lat="43.76823" lon="7.28974">
        <ele>480.79998779297</ele>
        <time>2021-02-04T10:07:33.000Z</time>
      </trkpt>
      <trkpt lat="43.76823" lon="7.28963">
        <ele>479.79998779297</ele>
        <time>2021-02-04T10:07:35.000Z</time>
      </trkpt>
      <trkpt lat="43.76825" lon="7.28958">
        <ele>478.79998779297</ele>
        <time>2021-02-04T10:07:36.000Z</time>
      </trkpt>
      <trkpt lat="43.7683" lon="7.28949">
        <ele>477.39999389648</ele>
        <time>2021-02-04T10:07:38.000Z</time>
      </trkpt>
      <trkpt lat="43.76833" lon="7.28939">
        <ele>476.60000610352</ele>
        <time>2021-02-04T10:07:40.000Z</time>
      </trkpt>
      <trkpt lat="43.76835" lon="7.28934">
        <ele>475.60000610352</ele>
        <time>2021-02-04T10:07:41.000Z</time>
      </trkpt>
      <trkpt lat="43.7684" lon="7.28925">
        <ele>473.79998779297</ele>
        <time>2021-02-04T10:07:43.000Z</time>
      </trkpt>
      <trkpt lat="43.76842" lon="7.28921">
        <ele>472.60000610352</ele>
        <time>2021-02-04T10:07:44.000Z</time>
      </trkpt>
      <trkpt lat="43.76845" lon="7.28915">
        <ele>471.39999389648</ele>
        <time>2021-02-04T10:07:46.000Z</time>
      </trkpt>
      <trkpt lat="43.76849" lon="7.2891">
        <ele>470.20001220703</ele>
        <time>2021-02-04T10:07:48.000Z</time>
      </trkpt>
      <trkpt lat="43.76849" lon="7.28909">
        <ele>468.39999389648</ele>
        <time>2021-02-04T10:07:50.000Z</time>
      </trkpt>
      <trkpt lat="43.76849" lon="7.28908">
        <ele>467.79998779297</ele>
        <time>2021-02-04T10:07:51.000Z</time>
      </trkpt>
      <trkpt lat="43.76851" lon="7.28904">
        <ele>466.79998779297</ele>
        <time>2021-02-04T10:07:53.000Z</time>
      </trkpt>
      <trkpt lat="43.76854" lon="7.28898">
        <ele>465.39999389648</ele>
        <time>2021-02-04T10:07:55.000Z</time>
      </trkpt>
      <trkpt lat="43.76858" lon="7.28888">
        <ele>464.39999389648</ele>
        <time>2021-02-04T10:07:57.000Z</time>
      </trkpt>
      <trkpt lat="43.76861" lon="7.28875">
        <ele>463.20001220703</ele>
        <time>2021-02-04T10:07:59.000Z</time>
      </trkpt>
      <trkpt lat="43.76872" lon="7.28861">
        <ele>462.79998779297</ele>
        <time>2021-02-04T10:08:02.000Z</time>
      </trkpt>
      <trkpt lat="43.76881" lon="7.28848">
        <ele>462.20001220703</ele>
        <time>2021-02-04T10:08:05.000Z</time>
      </trkpt>
      <trkpt lat="43.76883" lon="7.28843">
        <ele>461.79998779297</ele>
        <time>2021-02-04T10:08:06.000Z</time>
      </trkpt>
      <trkpt lat="43.76894" lon="7.28832">
        <ele>461</ele>
        <time>2021-02-04T10:08:09.000Z</time>
      </trkpt>
      <trkpt lat="43.76903" lon="7.28822">
        <ele>460.79998779297</ele>
        <time>2021-02-04T10:08:12.000Z</time>
      </trkpt>
      <trkpt lat="43.76909" lon="7.28815">
        <ele>461.60000610352</ele>
        <time>2021-02-04T10:08:14.000Z</time>
      </trkpt>
      <trkpt lat="43.76912" lon="7.28811">
        <ele>462</ele>
        <time>2021-02-04T10:08:15.000Z</time>
      </trkpt>
      <trkpt lat="43.76917" lon="7.28797">
        <ele>462.20001220703</ele>
        <time>2021-02-04T10:08:18.000Z</time>
      </trkpt>
      <trkpt lat="43.76918" lon="7.2879">
        <ele>461.79998779297</ele>
        <time>2021-02-04T10:08:20.000Z</time>
      </trkpt>
      <trkpt lat="43.76919" lon="7.28788">
        <ele>462</ele>
        <time>2021-02-04T10:08:21.000Z</time>
      </trkpt>
      <trkpt lat="43.76921" lon="7.28787">
        <ele>461.60000610352</ele>
        <time>2021-02-04T10:08:23.000Z</time>
      </trkpt>
      <trkpt lat="43.76923" lon="7.28786">
        <ele>461.60000610352</ele>
        <time>2021-02-04T10:08:25.000Z</time>
      </trkpt>
      <trkpt lat="43.76927" lon="7.28782">
        <ele>461</ele>
        <time>2021-02-04T10:08:27.000Z</time>
      </trkpt>
      <trkpt lat="43.76927" lon="7.28782">
        <ele>459.60000610352</ele>
        <time>2021-02-04T10:08:29.000Z</time>
      </trkpt>
      <trkpt lat="43.76927" lon="7.28782">
        <ele>458.39999389648</ele>
        <time>2021-02-04T10:08:31.000Z</time>
      </trkpt>
      <trkpt lat="43.76928" lon="7.28782">
        <ele>457.39999389648</ele>
        <time>2021-02-04T10:08:37.000Z</time>
      </trkpt>
      <trkpt lat="43.76928" lon="7.28781">
        <ele>457.20001220703</ele>
        <time>2021-02-04T10:08:38.000Z</time>
      </trkpt>
      <trkpt lat="43.76929" lon="7.28779">
        <ele>456.39999389648</ele>
        <time>2021-02-04T10:08:42.000Z</time>
      </trkpt>
      <trkpt lat="43.7693" lon="7.28777">
        <ele>456.39999389648</ele>
        <time>2021-02-04T10:08:43.000Z</time>
      </trkpt>
      <trkpt lat="43.76933" lon="7.28773">
        <ele>456</ele>
        <time>2021-02-04T10:08:45.000Z</time>
      </trkpt>
      <trkpt lat="43.76935" lon="7.28764">
        <ele>455.20001220703</ele>
        <time>2021-02-04T10:08:48.000Z</time>
      </trkpt>
      <trkpt lat="43.76938" lon="7.28759">
        <ele>455</ele>
        <time>2021-02-04T10:08:50.000Z</time>
      </trkpt>
      <trkpt lat="43.76947" lon="7.2875">
        <ele>453.60000610352</ele>
        <time>2021-02-04T10:08:55.000Z</time>
      </trkpt>
      <trkpt lat="43.76952" lon="7.28745">
        <ele>452.60000610352</ele>
        <time>2021-02-04T10:08:58.000Z</time>
      </trkpt>
      <trkpt lat="43.7696" lon="7.28739">
        <ele>451.39999389648</ele>
        <time>2021-02-04T10:09:00.000Z</time>
      </trkpt>
      <trkpt lat="43.76968" lon="7.28736">
        <ele>450.39999389648</ele>
        <time>2021-02-04T10:09:02.000Z</time>
      </trkpt>
      <trkpt lat="43.76973" lon="7.28736">
        <ele>449.39999389648</ele>
        <time>2021-02-04T10:09:03.000Z</time>
      </trkpt>
      <trkpt lat="43.7698" lon="7.28734">
        <ele>448.20001220703</ele>
        <time>2021-02-04T10:09:04.000Z</time>
      </trkpt>
      <trkpt lat="43.76987" lon="7.28732">
        <ele>447.20001220703</ele>
        <time>2021-02-04T10:09:05.000Z</time>
      </trkpt>
      <trkpt lat="43.76997" lon="7.28728">
        <ele>444</ele>
        <time>2021-02-04T10:09:07.000Z</time>
      </trkpt>
      <trkpt lat="43.77" lon="7.28726">
        <ele>441.79998779297</ele>
        <time>2021-02-04T10:09:08.000Z</time>
      </trkpt>
      <trkpt lat="43.77003" lon="7.28724">
        <ele>439.60000610352</ele>
        <time>2021-02-04T10:09:09.000Z</time>
      </trkpt>
      <trkpt lat="43.77005" lon="7.28724">
        <ele>438</ele>
        <time>2021-02-04T10:09:10.000Z</time>
      </trkpt>
      <trkpt lat="43.77007" lon="7.28724">
        <ele>436.39999389648</ele>
        <time>2021-02-04T10:09:11.000Z</time>
      </trkpt>
      <trkpt lat="43.77009" lon="7.28722">
        <ele>434.79998779297</ele>
        <time>2021-02-04T10:09:12.000Z</time>
      </trkpt>
      <trkpt lat="43.77011" lon="7.28716">
        <ele>433.20001220703</ele>
        <time>2021-02-04T10:09:14.000Z</time>
      </trkpt>
      <trkpt lat="43.77011" lon="7.28712">
        <ele>432</ele>
        <time>2021-02-04T10:09:15.000Z</time>
      </trkpt>
      <trkpt lat="43.77016" lon="7.28705">
        <ele>430.39999389648</ele>
        <time>2021-02-04T10:09:17.000Z</time>
      </trkpt>
      <trkpt lat="43.77019" lon="7.28705">
        <ele>429.60000610352</ele>
        <time>2021-02-04T10:09:18.000Z</time>
      </trkpt>
      <trkpt lat="43.77023" lon="7.28707">
        <ele>429.20001220703</ele>
        <time>2021-02-04T10:09:19.000Z</time>
      </trkpt>
      <trkpt lat="43.77027" lon="7.28715">
        <ele>428</ele>
        <time>2021-02-04T10:09:21.000Z</time>
      </trkpt>
      <trkpt lat="43.77032" lon="7.28715">
        <ele>426.39999389648</ele>
        <time>2021-02-04T10:09:23.000Z</time>
      </trkpt>
      <trkpt lat="43.77034" lon="7.28715">
        <ele>425.79998779297</ele>
        <time>2021-02-04T10:09:24.000Z</time>
      </trkpt>
      <trkpt lat="43.77037" lon="7.28716">
        <ele>425</ele>
        <time>2021-02-04T10:09:25.000Z</time>
      </trkpt>
      <trkpt lat="43.7704" lon="7.28715">
        <ele>423.39999389648</ele>
        <time>2021-02-04T10:09:26.000Z</time>
      </trkpt>
      <trkpt lat="43.77043" lon="7.28714">
        <ele>422.39999389648</ele>
        <time>2021-02-04T10:09:27.000Z</time>
      </trkpt>
      <trkpt lat="43.77046" lon="7.2871">
        <ele>421.20001220703</ele>
        <time>2021-02-04T10:09:28.000Z</time>
      </trkpt>
      <trkpt lat="43.77049" lon="7.28707">
        <ele>420</ele>
        <time>2021-02-04T10:09:29.000Z</time>
      </trkpt>
      <trkpt lat="43.77052" lon="7.28704">
        <ele>418.79998779297</ele>
        <time>2021-02-04T10:09:30.000Z</time>
      </trkpt>
      <trkpt lat="43.77053" lon="7.287">
        <ele>417.39999389648</ele>
        <time>2021-02-04T10:09:31.000Z</time>
      </trkpt>
      <trkpt lat="43.77056" lon="7.28692">
        <ele>415.79998779297</ele>
        <time>2021-02-04T10:09:33.000Z</time>
      </trkpt>
      <trkpt lat="43.77058" lon="7.28689">
        <ele>415.20001220703</ele>
        <time>2021-02-04T10:09:34.000Z</time>
      </trkpt>
      <trkpt lat="43.7706" lon="7.28686">
        <ele>414.60000610352</ele>
        <time>2021-02-04T10:09:35.000Z</time>
      </trkpt>
      <trkpt lat="43.77063" lon="7.28679">
        <ele>413.60000610352</ele>
        <time>2021-02-04T10:09:37.000Z</time>
      </trkpt>
      <trkpt lat="43.77065" lon="7.28675">
        <ele>412.60000610352</ele>
        <time>2021-02-04T10:09:38.000Z</time>
      </trkpt>
      <trkpt lat="43.77068" lon="7.28668">
        <ele>411.20001220703</ele>
        <time>2021-02-04T10:09:40.000Z</time>
      </trkpt>
      <trkpt lat="43.77069" lon="7.28665">
        <ele>410.39999389648</ele>
        <time>2021-02-04T10:09:41.000Z</time>
      </trkpt>
      <trkpt lat="43.77071" lon="7.28662">
        <ele>409.79998779297</ele>
        <time>2021-02-04T10:09:42.000Z</time>
      </trkpt>
      <trkpt lat="43.77074" lon="7.28657">
        <ele>408.60000610352</ele>
        <time>2021-02-04T10:09:44.000Z</time>
      </trkpt>
      <trkpt lat="43.77074" lon="7.28656">
        <ele>407</ele>
        <time>2021-02-04T10:09:46.000Z</time>
      </trkpt>
      <trkpt lat="43.77074" lon="7.28656">
        <ele>406</ele>
        <time>2021-02-04T10:09:47.000Z</time>
      </trkpt>
      <trkpt lat="43.77073" lon="7.28654">
        <ele>405.20001220703</ele>
        <time>2021-02-04T10:09:48.000Z</time>
      </trkpt>
      <trkpt lat="43.77072" lon="7.28653">
        <ele>403.60000610352</ele>
        <time>2021-02-04T10:09:50.000Z</time>
      </trkpt>
      <trkpt lat="43.77071" lon="7.28652">
        <ele>403.39999389648</ele>
        <time>2021-02-04T10:09:53.000Z</time>
      </trkpt>
      <trkpt lat="43.77069" lon="7.2865">
        <ele>403.60000610352</ele>
        <time>2021-02-04T10:10:01.000Z</time>
      </trkpt>
      <trkpt lat="43.77067" lon="7.28648">
        <ele>403</ele>
        <time>2021-02-04T10:10:17.000Z</time>
      </trkpt>
      <trkpt lat="43.77055" lon="7.28642">
        <ele>402.79998779297</ele>
        <time>2021-02-04T10:10:21.000Z</time>
      </trkpt>
      <trkpt lat="43.77053" lon="7.28642">
        <ele>402.60000610352</ele>
        <time>2021-02-04T10:10:22.000Z</time>
      </trkpt>
      <trkpt lat="43.77047" lon="7.28641">
        <ele>402</ele>
        <time>2021-02-04T10:10:24.000Z</time>
      </trkpt>
      <trkpt lat="43.77043" lon="7.28641">
        <ele>401.60000610352</ele>
        <time>2021-02-04T10:10:25.000Z</time>
      </trkpt>
      <trkpt lat="43.77039" lon="7.28641">
        <ele>401.39999389648</ele>
        <time>2021-02-04T10:10:26.000Z</time>
      </trkpt>
      <trkpt lat="43.77035" lon="7.28642">
        <ele>401.20001220703</ele>
        <time>2021-02-04T10:10:27.000Z</time>
      </trkpt>
      <trkpt lat="43.77018" lon="7.28643">
        <ele>402.39999389648</ele>
        <time>2021-02-04T10:10:32.000Z</time>
      </trkpt>
      <trkpt lat="43.77013" lon="7.28642">
        <ele>402.60000610352</ele>
        <time>2021-02-04T10:10:33.000Z</time>
      </trkpt>
      <trkpt lat="43.7701" lon="7.2864">
        <ele>402.60000610352</ele>
        <time>2021-02-04T10:10:34.000Z</time>
      </trkpt>
      <trkpt lat="43.76999" lon="7.28635">
        <ele>402.60000610352</ele>
        <time>2021-02-04T10:10:36.000Z</time>
      </trkpt>
      <trkpt lat="43.76996" lon="7.28632">
        <ele>402.20001220703</ele>
        <time>2021-02-04T10:10:37.000Z</time>
      </trkpt>
      <trkpt lat="43.76986" lon="7.28629">
        <ele>401.20001220703</ele>
        <time>2021-02-04T10:10:40.000Z</time>
      </trkpt>
      <trkpt lat="43.76984" lon="7.28629">
        <ele>401</ele>
        <time>2021-02-04T10:10:41.000Z</time>
      </trkpt>
      <trkpt lat="43.76971" lon="7.28626">
        <ele>400</ele>
        <time>2021-02-04T10:10:45.000Z</time>
      </trkpt>
      <trkpt lat="43.76952" lon="7.2862">
        <ele>399.39999389648</ele>
        <time>2021-02-04T10:10:50.000Z</time>
      </trkpt>
      <trkpt lat="43.76937" lon="7.28618">
        <ele>400.20001220703</ele>
        <time>2021-02-04T10:10:55.000Z</time>
      </trkpt>
      <trkpt lat="43.76926" lon="7.28619">
        <ele>399.39999389648</ele>
        <time>2021-02-04T10:10:59.000Z</time>
      </trkpt>
      <trkpt lat="43.76922" lon="7.2862">
        <ele>399</ele>
        <time>2021-02-04T10:11:01.000Z</time>
      </trkpt>
      <trkpt lat="43.76914" lon="7.2862">
        <ele>398.60000610352</ele>
        <time>2021-02-04T10:11:03.000Z</time>
      </trkpt>
      <trkpt lat="43.7691" lon="7.28619">
        <ele>398.39999389648</ele>
        <time>2021-02-04T10:11:04.000Z</time>
      </trkpt>
      <trkpt lat="43.76899" lon="7.28612">
        <ele>398.60000610352</ele>
        <time>2021-02-04T10:11:07.000Z</time>
      </trkpt>
      <trkpt lat="43.76895" lon="7.28598">
        <ele>398</ele>
        <time>2021-02-04T10:11:09.000Z</time>
      </trkpt>
      <trkpt lat="43.76891" lon="7.28592">
        <ele>397.39999389648</ele>
        <time>2021-02-04T10:11:10.000Z</time>
      </trkpt>
      <trkpt lat="43.76887" lon="7.28585">
        <ele>396.39999389648</ele>
        <time>2021-02-04T10:11:11.000Z</time>
      </trkpt>
      <trkpt lat="43.76883" lon="7.28577">
        <ele>394.79998779297</ele>
        <time>2021-02-04T10:11:12.000Z</time>
      </trkpt>
      <trkpt lat="43.76878" lon="7.2857">
        <ele>393.20001220703</ele>
        <time>2021-02-04T10:11:13.000Z</time>
      </trkpt>
      <trkpt lat="43.76875" lon="7.28564">
        <ele>391.79998779297</ele>
        <time>2021-02-04T10:11:14.000Z</time>
      </trkpt>
      <trkpt lat="43.76872" lon="7.28559">
        <ele>390.60000610352</ele>
        <time>2021-02-04T10:11:15.000Z</time>
      </trkpt>
      <trkpt lat="43.76869" lon="7.28555">
        <ele>390</ele>
        <time>2021-02-04T10:11:16.000Z</time>
      </trkpt>
      <trkpt lat="43.76865" lon="7.28547">
        <ele>389</ele>
        <time>2021-02-04T10:11:18.000Z</time>
      </trkpt>
      <trkpt lat="43.76862" lon="7.28545">
        <ele>387.60000610352</ele>
        <time>2021-02-04T10:11:20.000Z</time>
      </trkpt>
      <trkpt lat="43.7686" lon="7.28544">
        <ele>386.39999389648</ele>
        <time>2021-02-04T10:11:21.000Z</time>
      </trkpt>
      <trkpt lat="43.76855" lon="7.28541">
        <ele>384.20001220703</ele>
        <time>2021-02-04T10:11:23.000Z</time>
      </trkpt>
      <trkpt lat="43.76853" lon="7.28542">
        <ele>383</ele>
        <time>2021-02-04T10:11:24.000Z</time>
      </trkpt>
      <trkpt lat="43.7685" lon="7.28544">
        <ele>382.39999389648</ele>
        <time>2021-02-04T10:11:25.000Z</time>
      </trkpt>
      <trkpt lat="43.76848" lon="7.28546">
        <ele>381.60000610352</ele>
        <time>2021-02-04T10:11:26.000Z</time>
      </trkpt>
      <trkpt lat="43.76846" lon="7.28549">
        <ele>380.20001220703</ele>
        <time>2021-02-04T10:11:27.000Z</time>
      </trkpt>
      <trkpt lat="43.76843" lon="7.28558">
        <ele>378.79998779297</ele>
        <time>2021-02-04T10:11:29.000Z</time>
      </trkpt>
      <trkpt lat="43.7684" lon="7.28573">
        <ele>378</ele>
        <time>2021-02-04T10:11:32.000Z</time>
      </trkpt>
      <trkpt lat="43.76833" lon="7.28586">
        <ele>378.79998779297</ele>
        <time>2021-02-04T10:11:36.000Z</time>
      </trkpt>
      <trkpt lat="43.76827" lon="7.28599">
        <ele>378.79998779297</ele>
        <time>2021-02-04T10:11:40.000Z</time>
      </trkpt>
      <trkpt lat="43.76822" lon="7.28606">
        <ele>379.39999389648</ele>
        <time>2021-02-04T10:11:42.000Z</time>
      </trkpt>
      <trkpt lat="43.76819" lon="7.2861">
        <ele>380</ele>
        <time>2021-02-04T10:11:43.000Z</time>
      </trkpt>
      <trkpt lat="43.76816" lon="7.28614">
        <ele>380.60000610352</ele>
        <time>2021-02-04T10:11:44.000Z</time>
      </trkpt>
      <trkpt lat="43.76813" lon="7.28617">
        <ele>381</ele>
        <time>2021-02-04T10:11:45.000Z</time>
      </trkpt>
      <trkpt lat="43.76799" lon="7.28628">
        <ele>381.60000610352</ele>
        <time>2021-02-04T10:11:48.000Z</time>
      </trkpt>
      <trkpt lat="43.76775" lon="7.28644">
        <ele>380</ele>
        <time>2021-02-04T10:11:53.000Z</time>
      </trkpt>
      <trkpt lat="43.76766" lon="7.2865">
        <ele>379.39999389648</ele>
        <time>2021-02-04T10:11:55.000Z</time>
      </trkpt>
      <trkpt lat="43.76763" lon="7.28653">
        <ele>379.20001220703</ele>
        <time>2021-02-04T10:11:56.000Z</time>
      </trkpt>
      <trkpt lat="43.76756" lon="7.28653">
        <ele>379.20001220703</ele>
        <time>2021-02-04T10:11:58.000Z</time>
      </trkpt>
      <trkpt lat="43.76754" lon="7.2865">
        <ele>379.20001220703</ele>
        <time>2021-02-04T10:11:59.000Z</time>
      </trkpt>
      <trkpt lat="43.76749" lon="7.28647">
        <ele>378.79998779297</ele>
        <time>2021-02-04T10:12:01.000Z</time>
      </trkpt>
      <trkpt lat="43.76743" lon="7.28653">
        <ele>378.20001220703</ele>
        <time>2021-02-04T10:12:03.000Z</time>
      </trkpt>
      <trkpt lat="43.76741" lon="7.28657">
        <ele>377.79998779297</ele>
        <time>2021-02-04T10:12:04.000Z</time>
      </trkpt>
      <trkpt lat="43.76739" lon="7.28662">
        <ele>377.39999389648</ele>
        <time>2021-02-04T10:12:05.000Z</time>
      </trkpt>
      <trkpt lat="43.76732" lon="7.28671">
        <ele>377.20001220703</ele>
        <time>2021-02-04T10:12:08.000Z</time>
      </trkpt>
      <trkpt lat="43.7672" lon="7.28676">
        <ele>378</ele>
        <time>2021-02-04T10:12:14.000Z</time>
      </trkpt>
      <trkpt lat="43.76714" lon="7.28666">
        <ele>377.60000610352</ele>
        <time>2021-02-04T10:12:19.000Z</time>
      </trkpt>
      <trkpt lat="43.76712" lon="7.28663">
        <ele>376.79998779297</ele>
        <time>2021-02-04T10:12:21.000Z</time>
      </trkpt>
      <trkpt lat="43.76712" lon="7.28661">
        <ele>376.39999389648</ele>
        <time>2021-02-04T10:12:22.000Z</time>
      </trkpt>
      <trkpt lat="43.76711" lon="7.28659">
        <ele>376</ele>
        <time>2021-02-04T10:12:23.000Z</time>
      </trkpt>
      <trkpt lat="43.76709" lon="7.28657">
        <ele>375.20001220703</ele>
        <time>2021-02-04T10:12:25.000Z</time>
      </trkpt>
      <trkpt lat="43.76707" lon="7.28657">
        <ele>375</ele>
        <time>2021-02-04T10:12:26.000Z</time>
      </trkpt>
      <trkpt lat="43.76703" lon="7.28658">
        <ele>374.39999389648</ele>
        <time>2021-02-04T10:12:28.000Z</time>
      </trkpt>
      <trkpt lat="43.767" lon="7.2866">
        <ele>374</ele>
        <time>2021-02-04T10:12:29.000Z</time>
      </trkpt>
      <trkpt lat="43.767" lon="7.28657">
        <ele>373.20001220703</ele>
        <time>2021-02-04T10:12:32.000Z</time>
      </trkpt>
      <trkpt lat="43.767" lon="7.28655">
        <ele>372.79998779297</ele>
        <time>2021-02-04T10:12:33.000Z</time>
      </trkpt>
      <trkpt lat="43.76706" lon="7.28641">
        <ele>372.20001220703</ele>
        <time>2021-02-04T10:12:36.000Z</time>
      </trkpt>
      <trkpt lat="43.7671" lon="7.28637">
        <ele>371.60000610352</ele>
        <time>2021-02-04T10:12:38.000Z</time>
      </trkpt>
      <trkpt lat="43.76711" lon="7.28636">
        <ele>371.39999389648</ele>
        <time>2021-02-04T10:12:39.000Z</time>
      </trkpt>
      <trkpt lat="43.76712" lon="7.28635">
        <ele>371</ele>
        <time>2021-02-04T10:12:40.000Z</time>
      </trkpt>
      <trkpt lat="43.76712" lon="7.28632">
        <ele>371</ele>
        <time>2021-02-04T10:12:41.000Z</time>
      </trkpt>
      <trkpt lat="43.76712" lon="7.28622">
        <ele>371.20001220703</ele>
        <time>2021-02-04T10:12:43.000Z</time>
      </trkpt>
      <trkpt lat="43.76713" lon="7.28609">
        <ele>370.20001220703</ele>
        <time>2021-02-04T10:12:46.000Z</time>
      </trkpt>
      <trkpt lat="43.76712" lon="7.28605">
        <ele>369.79998779297</ele>
        <time>2021-02-04T10:12:47.000Z</time>
      </trkpt>
      <trkpt lat="43.76712" lon="7.28601">
        <ele>369</ele>
        <time>2021-02-04T10:12:48.000Z</time>
      </trkpt>
      <trkpt lat="43.76714" lon="7.28596">
        <ele>367.60000610352</ele>
        <time>2021-02-04T10:12:50.000Z</time>
      </trkpt>
      <trkpt lat="43.76714" lon="7.28594">
        <ele>367</ele>
        <time>2021-02-04T10:12:52.000Z</time>
      </trkpt>
      <trkpt lat="43.76712" lon="7.28594">
        <ele>366.39999389648</ele>
        <time>2021-02-04T10:12:53.000Z</time>
      </trkpt>
      <trkpt lat="43.76707" lon="7.28596">
        <ele>365</ele>
        <time>2021-02-04T10:12:56.000Z</time>
      </trkpt>
      <trkpt lat="43.76705" lon="7.28596">
        <ele>364.79998779297</ele>
        <time>2021-02-04T10:12:57.000Z</time>
      </trkpt>
      <trkpt lat="43.76705" lon="7.28594">
        <ele>364</ele>
        <time>2021-02-04T10:12:58.000Z</time>
      </trkpt>
      <trkpt lat="43.76706" lon="7.28592">
        <ele>363.39999389648</ele>
        <time>2021-02-04T10:12:59.000Z</time>
      </trkpt>
      <trkpt lat="43.76707" lon="7.28589">
        <ele>362.60000610352</ele>
        <time>2021-02-04T10:13:00.000Z</time>
      </trkpt>
      <trkpt lat="43.76712" lon="7.28581">
        <ele>361.39999389648</ele>
        <time>2021-02-04T10:13:02.000Z</time>
      </trkpt>
      <trkpt lat="43.76713" lon="7.28579">
        <ele>360.79998779297</ele>
        <time>2021-02-04T10:13:03.000Z</time>
      </trkpt>
      <trkpt lat="43.76714" lon="7.28577">
        <ele>360</ele>
        <time>2021-02-04T10:13:04.000Z</time>
      </trkpt>
      <trkpt lat="43.76715" lon="7.28576">
        <ele>358.79998779297</ele>
        <time>2021-02-04T10:13:06.000Z</time>
      </trkpt>
      <trkpt lat="43.76715" lon="7.28575">
        <ele>358.39999389648</ele>
        <time>2021-02-04T10:13:07.000Z</time>
      </trkpt>
      <trkpt lat="43.76715" lon="7.28574">
        <ele>357.79998779297</ele>
        <time>2021-02-04T10:13:12.000Z</time>
      </trkpt>
      <trkpt lat="43.76715" lon="7.28574">
        <ele>357.79998779297</ele>
        <time>2021-02-04T10:13:18.000Z</time>
      </trkpt>
      <trkpt lat="43.76714" lon="7.28573">
        <ele>357.60000610352</ele>
        <time>2021-02-04T10:13:31.000Z</time>
      </trkpt>
      <trkpt lat="43.76709" lon="7.28574">
        <ele>357</ele>
        <time>2021-02-04T10:13:37.000Z</time>
      </trkpt>
      <trkpt lat="43.76707" lon="7.28573">
        <ele>356.79998779297</ele>
        <time>2021-02-04T10:13:38.000Z</time>
      </trkpt>
      <trkpt lat="43.76706" lon="7.28568">
        <ele>355.79998779297</ele>
        <time>2021-02-04T10:13:41.000Z</time>
      </trkpt>
      <trkpt lat="43.76708" lon="7.28567">
        <ele>355.39999389648</ele>
        <time>2021-02-04T10:13:42.000Z</time>
      </trkpt>
      <trkpt lat="43.76711" lon="7.28562">
        <ele>354.20001220703</ele>
        <time>2021-02-04T10:13:45.000Z</time>
      </trkpt>
      <trkpt lat="43.76718" lon="7.28549">
        <ele>352.79998779297</ele>
        <time>2021-02-04T10:13:49.000Z</time>
      </trkpt>
      <trkpt lat="43.7672" lon="7.28545">
        <ele>351.20001220703</ele>
        <time>2021-02-04T10:13:51.000Z</time>
      </trkpt>
      <trkpt lat="43.76721" lon="7.28544">
        <ele>350.20001220703</ele>
        <time>2021-02-04T10:13:52.000Z</time>
      </trkpt>
      <trkpt lat="43.7672" lon="7.28542">
        <ele>349.60000610352</ele>
        <time>2021-02-04T10:13:53.000Z</time>
      </trkpt>
      <trkpt lat="43.76718" lon="7.2854">
        <ele>349</ele>
        <time>2021-02-04T10:13:54.000Z</time>
      </trkpt>
      <trkpt lat="43.76712" lon="7.2854">
        <ele>346.79998779297</ele>
        <time>2021-02-04T10:13:56.000Z</time>
      </trkpt>
      <trkpt lat="43.76703" lon="7.28541">
        <ele>345.20001220703</ele>
        <time>2021-02-04T10:13:58.000Z</time>
      </trkpt>
      <trkpt lat="43.76697" lon="7.28541">
        <ele>344</ele>
        <time>2021-02-04T10:13:59.000Z</time>
      </trkpt>
      <trkpt lat="43.76692" lon="7.2854">
        <ele>342.79998779297</ele>
        <time>2021-02-04T10:14:00.000Z</time>
      </trkpt>
      <trkpt lat="43.76687" lon="7.2854">
        <ele>341.39999389648</ele>
        <time>2021-02-04T10:14:01.000Z</time>
      </trkpt>
      <trkpt lat="43.76682" lon="7.2854">
        <ele>339.79998779297</ele>
        <time>2021-02-04T10:14:02.000Z</time>
      </trkpt>
      <trkpt lat="43.76678" lon="7.2854">
        <ele>338.60000610352</ele>
        <time>2021-02-04T10:14:03.000Z</time>
      </trkpt>
      <trkpt lat="43.76675" lon="7.28541">
        <ele>337.39999389648</ele>
        <time>2021-02-04T10:14:04.000Z</time>
      </trkpt>
      <trkpt lat="43.76674" lon="7.28543">
        <ele>336.20001220703</ele>
        <time>2021-02-04T10:14:05.000Z</time>
      </trkpt>
      <trkpt lat="43.76671" lon="7.28547">
        <ele>334.60000610352</ele>
        <time>2021-02-04T10:14:07.000Z</time>
      </trkpt>
      <trkpt lat="43.76669" lon="7.28545">
        <ele>333.60000610352</ele>
        <time>2021-02-04T10:14:09.000Z</time>
      </trkpt>
      <trkpt lat="43.76669" lon="7.28542">
        <ele>333.39999389648</ele>
        <time>2021-02-04T10:14:10.000Z</time>
      </trkpt>
      <trkpt lat="43.76669" lon="7.2853">
        <ele>332.39999389648</ele>
        <time>2021-02-04T10:14:14.000Z</time>
      </trkpt>
      <trkpt lat="43.76666" lon="7.28524">
        <ele>331.39999389648</ele>
        <time>2021-02-04T10:14:16.000Z</time>
      </trkpt>
      <trkpt lat="43.76663" lon="7.28515">
        <ele>329</ele>
        <time>2021-02-04T10:14:18.000Z</time>
      </trkpt>
      <trkpt lat="43.76662" lon="7.28511">
        <ele>328</ele>
        <time>2021-02-04T10:14:19.000Z</time>
      </trkpt>
      <trkpt lat="43.76662" lon="7.28507">
        <ele>326.79998779297</ele>
        <time>2021-02-04T10:14:20.000Z</time>
      </trkpt>
      <trkpt lat="43.76662" lon="7.28505">
        <ele>325</ele>
        <time>2021-02-04T10:14:21.000Z</time>
      </trkpt>
      <trkpt lat="43.76662" lon="7.28503">
        <ele>324</ele>
        <time>2021-02-04T10:14:22.000Z</time>
      </trkpt>
      <trkpt lat="43.76661" lon="7.28502">
        <ele>323</ele>
        <time>2021-02-04T10:14:23.000Z</time>
      </trkpt>
      <trkpt lat="43.76659" lon="7.285">
        <ele>321.60000610352</ele>
        <time>2021-02-04T10:14:25.000Z</time>
      </trkpt>
      <trkpt lat="43.76658" lon="7.28493">
        <ele>321.20001220703</ele>
        <time>2021-02-04T10:14:27.000Z</time>
      </trkpt>
      <trkpt lat="43.76656" lon="7.28489">
        <ele>320</ele>
        <time>2021-02-04T10:14:29.000Z</time>
      </trkpt>
      <trkpt lat="43.76655" lon="7.28487">
        <ele>319.60000610352</ele>
        <time>2021-02-04T10:14:30.000Z</time>
      </trkpt>
      <trkpt lat="43.76653" lon="7.28483">
        <ele>318.60000610352</ele>
        <time>2021-02-04T10:14:32.000Z</time>
      </trkpt>
      <trkpt lat="43.76652" lon="7.2848">
        <ele>317.20001220703</ele>
        <time>2021-02-04T10:14:34.000Z</time>
      </trkpt>
      <trkpt lat="43.76651" lon="7.28477">
        <ele>316.60000610352</ele>
        <time>2021-02-04T10:14:35.000Z</time>
      </trkpt>
      <trkpt lat="43.76651" lon="7.28475">
        <ele>316</ele>
        <time>2021-02-04T10:14:36.000Z</time>
      </trkpt>
      <trkpt lat="43.76651" lon="7.28471">
        <ele>315</ele>
        <time>2021-02-04T10:14:37.000Z</time>
      </trkpt>
      <trkpt lat="43.76651" lon="7.28468">
        <ele>313.79998779297</ele>
        <time>2021-02-04T10:14:38.000Z</time>
      </trkpt>
      <trkpt lat="43.76652" lon="7.28464">
        <ele>312.60000610352</ele>
        <time>2021-02-04T10:14:39.000Z</time>
      </trkpt>
      <trkpt lat="43.76652" lon="7.28461">
        <ele>311</ele>
        <time>2021-02-04T10:14:40.000Z</time>
      </trkpt>
      <trkpt lat="43.76653" lon="7.28459">
        <ele>309.79998779297</ele>
        <time>2021-02-04T10:14:41.000Z</time>
      </trkpt>
      <trkpt lat="43.76654" lon="7.28447">
        <ele>308</ele>
        <time>2021-02-04T10:14:43.000Z</time>
      </trkpt>
      <trkpt lat="43.76655" lon="7.28439">
        <ele>306.79998779297</ele>
        <time>2021-02-04T10:14:44.000Z</time>
      </trkpt>
      <trkpt lat="43.76656" lon="7.28431">
        <ele>305.60000610352</ele>
        <time>2021-02-04T10:14:45.000Z</time>
      </trkpt>
      <trkpt lat="43.76658" lon="7.28416">
        <ele>303.39999389648</ele>
        <time>2021-02-04T10:14:47.000Z</time>
      </trkpt>
      <trkpt lat="43.7666" lon="7.28401">
        <ele>302</ele>
        <time>2021-02-04T10:14:49.000Z</time>
      </trkpt>
      <trkpt lat="43.76658" lon="7.28381">
        <ele>302.79998779297</ele>
        <time>2021-02-04T10:14:53.000Z</time>
      </trkpt>
      <trkpt lat="43.76656" lon="7.28377">
        <ele>303.39999389648</ele>
        <time>2021-02-04T10:14:54.000Z</time>
      </trkpt>
      <trkpt lat="43.76649" lon="7.2836">
        <ele>304.39999389648</ele>
        <time>2021-02-04T10:14:59.000Z</time>
      </trkpt>
      <trkpt lat="43.76647" lon="7.28358">
        <ele>304.79998779297</ele>
        <time>2021-02-04T10:15:00.000Z</time>
      </trkpt>
      <trkpt lat="43.76643" lon="7.28351">
        <ele>305.39999389648</ele>
        <time>2021-02-04T10:15:03.000Z</time>
      </trkpt>
      <trkpt lat="43.76638" lon="7.28341">
        <ele>306.20001220703</ele>
        <time>2021-02-04T10:15:07.000Z</time>
      </trkpt>
      <trkpt lat="43.76633" lon="7.28335">
        <ele>306.60000610352</ele>
        <time>2021-02-04T10:15:10.000Z</time>
      </trkpt>
      <trkpt lat="43.76626" lon="7.28329">
        <ele>307</ele>
        <time>2021-02-04T10:15:15.000Z</time>
      </trkpt>
      <trkpt lat="43.76613" lon="7.28329">
        <ele>307.20001220703</ele>
        <time>2021-02-04T10:15:22.000Z</time>
      </trkpt>
      <trkpt lat="43.76598" lon="7.28335">
        <ele>306.60000610352</ele>
        <time>2021-02-04T10:15:28.000Z</time>
      </trkpt>
      <trkpt lat="43.76579" lon="7.28346">
        <ele>305.39999389648</ele>
        <time>2021-02-04T10:15:33.000Z</time>
      </trkpt>
      <trkpt lat="43.76575" lon="7.28348">
        <ele>305.20001220703</ele>
        <time>2021-02-04T10:15:34.000Z</time>
      </trkpt>
      <trkpt lat="43.76571" lon="7.28351">
        <ele>305</ele>
        <time>2021-02-04T10:15:35.000Z</time>
      </trkpt>
      <trkpt lat="43.76559" lon="7.28363">
        <ele>304.60000610352</ele>
        <time>2021-02-04T10:15:39.000Z</time>
      </trkpt>
      <trkpt lat="43.76545" lon="7.28382">
        <ele>305.39999389648</ele>
        <time>2021-02-04T10:15:46.000Z</time>
      </trkpt>
      <trkpt lat="43.76541" lon="7.28386">
        <ele>305.79998779297</ele>
        <time>2021-02-04T10:15:49.000Z</time>
      </trkpt>
      <trkpt lat="43.7654" lon="7.28387">
        <ele>306.20001220703</ele>
        <time>2021-02-04T10:15:51.000Z</time>
      </trkpt>
      <trkpt lat="43.76539" lon="7.28388">
        <ele>306.60000610352</ele>
        <time>2021-02-04T10:15:53.000Z</time>
      </trkpt>
      <trkpt lat="43.76538" lon="7.28389">
        <ele>306.79998779297</ele>
        <time>2021-02-04T10:15:58.000Z</time>
      </trkpt>
      <trkpt lat="43.76537" lon="7.28389">
        <ele>306.39999389648</ele>
        <time>2021-02-04T10:16:16.000Z</time>
      </trkpt>
      <trkpt lat="43.76531" lon="7.28391">
        <ele>306.20001220703</ele>
        <time>2021-02-04T10:16:25.000Z</time>
      </trkpt>
      <trkpt lat="43.76519" lon="7.2839">
        <ele>306.20001220703</ele>
        <time>2021-02-04T10:16:29.000Z</time>
      </trkpt>
      <trkpt lat="43.76517" lon="7.28387">
        <ele>305.79998779297</ele>
        <time>2021-02-04T10:16:30.000Z</time>
      </trkpt>
      <trkpt lat="43.76515" lon="7.28383">
        <ele>305.39999389648</ele>
        <time>2021-02-04T10:16:31.000Z</time>
      </trkpt>
      <trkpt lat="43.76515" lon="7.28378">
        <ele>304.39999389648</ele>
        <time>2021-02-04T10:16:32.000Z</time>
      </trkpt>
      <trkpt lat="43.76514" lon="7.28372">
        <ele>303.39999389648</ele>
        <time>2021-02-04T10:16:33.000Z</time>
      </trkpt>
      <trkpt lat="43.76514" lon="7.28369">
        <ele>302</ele>
        <time>2021-02-04T10:16:34.000Z</time>
      </trkpt>
      <trkpt lat="43.76512" lon="7.28366">
        <ele>300.39999389648</ele>
        <time>2021-02-04T10:16:35.000Z</time>
      </trkpt>
      <trkpt lat="43.7651" lon="7.28364">
        <ele>299.20001220703</ele>
        <time>2021-02-04T10:16:36.000Z</time>
      </trkpt>
      <trkpt lat="43.76507" lon="7.28361">
        <ele>298</ele>
        <time>2021-02-04T10:16:37.000Z</time>
      </trkpt>
      <trkpt lat="43.76501" lon="7.28355">
        <ele>296.60000610352</ele>
        <time>2021-02-04T10:16:39.000Z</time>
      </trkpt>
      <trkpt lat="43.76498" lon="7.28354">
        <ele>295.79998779297</ele>
        <time>2021-02-04T10:16:40.000Z</time>
      </trkpt>
      <trkpt lat="43.76496" lon="7.28353">
        <ele>295.20001220703</ele>
        <time>2021-02-04T10:16:41.000Z</time>
      </trkpt>
      <trkpt lat="43.76489" lon="7.28349">
        <ele>293.79998779297</ele>
        <time>2021-02-04T10:16:43.000Z</time>
      </trkpt>
      <trkpt lat="43.76483" lon="7.28345">
        <ele>292.39999389648</ele>
        <time>2021-02-04T10:16:45.000Z</time>
      </trkpt>
      <trkpt lat="43.76476" lon="7.2834">
        <ele>291.79998779297</ele>
        <time>2021-02-04T10:16:47.000Z</time>
      </trkpt>
      <trkpt lat="43.76471" lon="7.28337">
        <ele>291.39999389648</ele>
        <time>2021-02-04T10:16:48.000Z</time>
      </trkpt>
      <trkpt lat="43.76468" lon="7.28334">
        <ele>290.39999389648</ele>
        <time>2021-02-04T10:16:49.000Z</time>
      </trkpt>
      <trkpt lat="43.76463" lon="7.28331">
        <ele>289.60000610352</ele>
        <time>2021-02-04T10:16:50.000Z</time>
      </trkpt>
      <trkpt lat="43.7646" lon="7.2833">
        <ele>288.79998779297</ele>
        <time>2021-02-04T10:16:51.000Z</time>
      </trkpt>
      <trkpt lat="43.76457" lon="7.28331">
        <ele>287.39999389648</ele>
        <time>2021-02-04T10:16:52.000Z</time>
      </trkpt>
      <trkpt lat="43.76454" lon="7.28331">
        <ele>286.39999389648</ele>
        <time>2021-02-04T10:16:53.000Z</time>
      </trkpt>
      <trkpt lat="43.7645" lon="7.28332">
        <ele>285.79998779297</ele>
        <time>2021-02-04T10:16:54.000Z</time>
      </trkpt>
      <trkpt lat="43.76447" lon="7.28332">
        <ele>284.79998779297</ele>
        <time>2021-02-04T10:16:55.000Z</time>
      </trkpt>
      <trkpt lat="43.76446" lon="7.28329">
        <ele>283.79998779297</ele>
        <time>2021-02-04T10:16:57.000Z</time>
      </trkpt>
      <trkpt lat="43.76451" lon="7.28325">
        <ele>282.79998779297</ele>
        <time>2021-02-04T10:17:01.000Z</time>
      </trkpt>
      <trkpt lat="43.76451" lon="7.28323">
        <ele>282.39999389648</ele>
        <time>2021-02-04T10:17:02.000Z</time>
      </trkpt>
      <trkpt lat="43.76451" lon="7.28323">
        <ele>281.39999389648</ele>
        <time>2021-02-04T10:17:04.000Z</time>
      </trkpt>
      <trkpt lat="43.76449" lon="7.28323">
        <ele>280.60000610352</ele>
        <time>2021-02-04T10:17:07.000Z</time>
      </trkpt>
      <trkpt lat="43.76446" lon="7.28319">
        <ele>280.39999389648</ele>
        <time>2021-02-04T10:17:09.000Z</time>
      </trkpt>
      <trkpt lat="43.76445" lon="7.28313">
        <ele>280.20001220703</ele>
        <time>2021-02-04T10:17:11.000Z</time>
      </trkpt>
      <trkpt lat="43.76444" lon="7.2831">
        <ele>279.39999389648</ele>
        <time>2021-02-04T10:17:12.000Z</time>
      </trkpt>
      <trkpt lat="43.76443" lon="7.28307">
        <ele>278.79998779297</ele>
        <time>2021-02-04T10:17:13.000Z</time>
      </trkpt>
      <trkpt lat="43.76441" lon="7.28302">
        <ele>277.60000610352</ele>
        <time>2021-02-04T10:17:14.000Z</time>
      </trkpt>
      <trkpt lat="43.76438" lon="7.28298">
        <ele>276.20001220703</ele>
        <time>2021-02-04T10:17:16.000Z</time>
      </trkpt>
      <trkpt lat="43.76426" lon="7.28303">
        <ele>274.79998779297</ele>
        <time>2021-02-04T10:17:19.000Z</time>
      </trkpt>
      <trkpt lat="43.76421" lon="7.28306">
        <ele>274.20001220703</ele>
        <time>2021-02-04T10:17:20.000Z</time>
      </trkpt>
      <trkpt lat="43.76417" lon="7.28309">
        <ele>273.60000610352</ele>
        <time>2021-02-04T10:17:21.000Z</time>
      </trkpt>
      <trkpt lat="43.76407" lon="7.28314">
        <ele>272.60000610352</ele>
        <time>2021-02-04T10:17:23.000Z</time>
      </trkpt>
      <trkpt lat="43.76402" lon="7.28318">
        <ele>272.39999389648</ele>
        <time>2021-02-04T10:17:24.000Z</time>
      </trkpt>
      <trkpt lat="43.76398" lon="7.28321">
        <ele>271.79998779297</ele>
        <time>2021-02-04T10:17:25.000Z</time>
      </trkpt>
      <trkpt lat="43.76391" lon="7.28322">
        <ele>271.20001220703</ele>
        <time>2021-02-04T10:17:27.000Z</time>
      </trkpt>
      <trkpt lat="43.76391" lon="7.28319">
        <ele>271</ele>
        <time>2021-02-04T10:17:28.000Z</time>
      </trkpt>
      <trkpt lat="43.76396" lon="7.28313">
        <ele>270</ele>
        <time>2021-02-04T10:17:30.000Z</time>
      </trkpt>
      <trkpt lat="43.764" lon="7.2831">
        <ele>269.79998779297</ele>
        <time>2021-02-04T10:17:31.000Z</time>
      </trkpt>
      <trkpt lat="43.76404" lon="7.28306">
        <ele>270</ele>
        <time>2021-02-04T10:17:32.000Z</time>
      </trkpt>
      <trkpt lat="43.76411" lon="7.28298">
        <ele>268.39999389648</ele>
        <time>2021-02-04T10:17:34.000Z</time>
      </trkpt>
      <trkpt lat="43.7642" lon="7.28291">
        <ele>266.60000610352</ele>
        <time>2021-02-04T10:17:36.000Z</time>
      </trkpt>
      <trkpt lat="43.76424" lon="7.28286">
        <ele>265.79998779297</ele>
        <time>2021-02-04T10:17:37.000Z</time>
      </trkpt>
      <trkpt lat="43.76428" lon="7.2828">
        <ele>265.20001220703</ele>
        <time>2021-02-04T10:17:38.000Z</time>
      </trkpt>
      <trkpt lat="43.76437" lon="7.28267">
        <ele>264</ele>
        <time>2021-02-04T10:17:40.000Z</time>
      </trkpt>
      <trkpt lat="43.76451" lon="7.28248">
        <ele>262.60000610352</ele>
        <time>2021-02-04T10:17:43.000Z</time>
      </trkpt>
      <trkpt lat="43.76455" lon="7.28243">
        <ele>262.39999389648</ele>
        <time>2021-02-04T10:17:44.000Z</time>
      </trkpt>
      <trkpt lat="43.7646" lon="7.28237">
        <ele>262.20001220703</ele>
        <time>2021-02-04T10:17:45.000Z</time>
      </trkpt>
      <trkpt lat="43.7647" lon="7.2823">
        <ele>261.39999389648</ele>
        <time>2021-02-04T10:17:47.000Z</time>
      </trkpt>
      <trkpt lat="43.76475" lon="7.28229">
        <ele>261.39999389648</ele>
        <time>2021-02-04T10:17:48.000Z</time>
      </trkpt>
      <trkpt lat="43.76485" lon="7.28228">
        <ele>260.20001220703</ele>
        <time>2021-02-04T10:17:50.000Z</time>
      </trkpt>
      <trkpt lat="43.7649" lon="7.28228">
        <ele>259.60000610352</ele>
        <time>2021-02-04T10:17:51.000Z</time>
      </trkpt>
      <trkpt lat="43.76494" lon="7.28227">
        <ele>259.20001220703</ele>
        <time>2021-02-04T10:17:52.000Z</time>
      </trkpt>
      <trkpt lat="43.76499" lon="7.28226">
        <ele>258.60000610352</ele>
        <time>2021-02-04T10:17:53.000Z</time>
      </trkpt>
      <trkpt lat="43.76503" lon="7.28225">
        <ele>258</ele>
        <time>2021-02-04T10:17:54.000Z</time>
      </trkpt>
      <trkpt lat="43.7651" lon="7.28223">
        <ele>256.60000610352</ele>
        <time>2021-02-04T10:17:56.000Z</time>
      </trkpt>
      <trkpt lat="43.76514" lon="7.28222">
        <ele>256</ele>
        <time>2021-02-04T10:17:57.000Z</time>
      </trkpt>
      <trkpt lat="43.76517" lon="7.28223">
        <ele>254.80000305176</ele>
        <time>2021-02-04T10:17:58.000Z</time>
      </trkpt>
      <trkpt lat="43.76523" lon="7.28223">
        <ele>253.60000610352</ele>
        <time>2021-02-04T10:18:00.000Z</time>
      </trkpt>
      <trkpt lat="43.76525" lon="7.2822">
        <ele>253</ele>
        <time>2021-02-04T10:18:01.000Z</time>
      </trkpt>
      <trkpt lat="43.76529" lon="7.28215">
        <ele>252.39999389648</ele>
        <time>2021-02-04T10:18:02.000Z</time>
      </trkpt>
      <trkpt lat="43.76536" lon="7.28204">
        <ele>251</ele>
        <time>2021-02-04T10:18:04.000Z</time>
      </trkpt>
      <trkpt lat="43.76545" lon="7.28188">
        <ele>249.19999694824</ele>
        <time>2021-02-04T10:18:08.000Z</time>
      </trkpt>
      <trkpt lat="43.76556" lon="7.28177">
        <ele>247.80000305176</ele>
        <time>2021-02-04T10:18:11.000Z</time>
      </trkpt>
      <trkpt lat="43.7656" lon="7.28172">
        <ele>247.19999694824</ele>
        <time>2021-02-04T10:18:12.000Z</time>
      </trkpt>
      <trkpt lat="43.76564" lon="7.28167">
        <ele>246.80000305176</ele>
        <time>2021-02-04T10:18:13.000Z</time>
      </trkpt>
      <trkpt lat="43.76574" lon="7.28151">
        <ele>245.80000305176</ele>
        <time>2021-02-04T10:18:16.000Z</time>
      </trkpt>
      <trkpt lat="43.76579" lon="7.28145">
        <ele>245.39999389648</ele>
        <time>2021-02-04T10:18:17.000Z</time>
      </trkpt>
      <trkpt lat="43.76591" lon="7.2813">
        <ele>244.39999389648</ele>
        <time>2021-02-04T10:18:20.000Z</time>
      </trkpt>
      <trkpt lat="43.76598" lon="7.28121">
        <ele>243.80000305176</ele>
        <time>2021-02-04T10:18:22.000Z</time>
      </trkpt>
      <trkpt lat="43.76602" lon="7.28115">
        <ele>243.39999389648</ele>
        <time>2021-02-04T10:18:23.000Z</time>
      </trkpt>
      <trkpt lat="43.76606" lon="7.28111">
        <ele>242.80000305176</ele>
        <time>2021-02-04T10:18:24.000Z</time>
      </trkpt>
      <trkpt lat="43.76616" lon="7.28104">
        <ele>242</ele>
        <time>2021-02-04T10:18:26.000Z</time>
      </trkpt>
      <trkpt lat="43.76621" lon="7.28102">
        <ele>241.39999389648</ele>
        <time>2021-02-04T10:18:27.000Z</time>
      </trkpt>
      <trkpt lat="43.76625" lon="7.28099">
        <ele>240.80000305176</ele>
        <time>2021-02-04T10:18:28.000Z</time>
      </trkpt>
      <trkpt lat="43.76629" lon="7.28099">
        <ele>240.39999389648</ele>
        <time>2021-02-04T10:18:29.000Z</time>
      </trkpt>
      <trkpt lat="43.76634" lon="7.28099">
        <ele>239.60000610352</ele>
        <time>2021-02-04T10:18:30.000Z</time>
      </trkpt>
      <trkpt lat="43.76638" lon="7.28099">
        <ele>238.19999694824</ele>
        <time>2021-02-04T10:18:31.000Z</time>
      </trkpt>
      <trkpt lat="43.76644" lon="7.28098">
        <ele>237</ele>
        <time>2021-02-04T10:18:33.000Z</time>
      </trkpt>
      <trkpt lat="43.76646" lon="7.28097">
        <ele>236.80000305176</ele>
        <time>2021-02-04T10:18:34.000Z</time>
      </trkpt>
      <trkpt lat="43.76643" lon="7.28094">
        <ele>236.19999694824</ele>
        <time>2021-02-04T10:18:37.000Z</time>
      </trkpt>
      <trkpt lat="43.76641" lon="7.28088">
        <ele>236</ele>
        <time>2021-02-04T10:18:42.000Z</time>
      </trkpt>
      <trkpt lat="43.7664" lon="7.28084">
        <ele>235.39999389648</ele>
        <time>2021-02-04T10:18:46.000Z</time>
      </trkpt>
      <trkpt lat="43.76643" lon="7.28082">
        <ele>235.19999694824</ele>
        <time>2021-02-04T10:18:48.000Z</time>
      </trkpt>
      <trkpt lat="43.76647" lon="7.2808">
        <ele>235</ele>
        <time>2021-02-04T10:18:50.000Z</time>
      </trkpt>
      <trkpt lat="43.76656" lon="7.28078">
        <ele>234.39999389648</ele>
        <time>2021-02-04T10:18:53.000Z</time>
      </trkpt>
      <trkpt lat="43.76672" lon="7.28074">
        <ele>233.80000305176</ele>
        <time>2021-02-04T10:18:58.000Z</time>
      </trkpt>
      <trkpt lat="43.76696" lon="7.28071">
        <ele>233</ele>
        <time>2021-02-04T10:19:04.000Z</time>
      </trkpt>
      <trkpt lat="43.767" lon="7.28072">
        <ele>233</ele>
        <time>2021-02-04T10:19:05.000Z</time>
      </trkpt>
      <trkpt lat="43.76704" lon="7.28073">
        <ele>232.80000305176</ele>
        <time>2021-02-04T10:19:06.000Z</time>
      </trkpt>
      <trkpt lat="43.76732" lon="7.28083">
        <ele>232.39999389648</ele>
        <time>2021-02-04T10:19:13.000Z</time>
      </trkpt>
      <trkpt lat="43.76759" lon="7.28093">
        <ele>232</ele>
        <time>2021-02-04T10:19:21.000Z</time>
      </trkpt>
      <trkpt lat="43.76762" lon="7.28094">
        <ele>231.80000305176</ele>
        <time>2021-02-04T10:19:22.000Z</time>
      </trkpt>
      <trkpt lat="43.7678" lon="7.28101">
        <ele>231.39999389648</ele>
        <time>2021-02-04T10:19:28.000Z</time>
      </trkpt>
      <trkpt lat="43.76798" lon="7.28106">
        <ele>230.80000305176</ele>
        <time>2021-02-04T10:19:35.000Z</time>
      </trkpt>
      <trkpt lat="43.76801" lon="7.28107">
        <ele>230.80000305176</ele>
        <time>2021-02-04T10:19:36.000Z</time>
      </trkpt>
      <trkpt lat="43.76805" lon="7.28107">
        <ele>230.39999389648</ele>
        <time>2021-02-04T10:19:40.000Z</time>
      </trkpt>
      <trkpt lat="43.76804" lon="7.28106">
        <ele>229.60000610352</ele>
        <time>2021-02-04T10:19:45.000Z</time>
      </trkpt>
      <trkpt lat="43.76804" lon="7.28106">
        <ele>229.19999694824</ele>
        <time>2021-02-04T10:19:46.000Z</time>
      </trkpt>
      <trkpt lat="43.76804" lon="7.28105">
        <ele>228.39999389648</ele>
        <time>2021-02-04T10:19:48.000Z</time>
      </trkpt>
      <trkpt lat="43.76803" lon="7.28104">
        <ele>227.80000305176</ele>
        <time>2021-02-04T10:19:54.000Z</time>
      </trkpt>
      <trkpt lat="43.76803" lon="7.28104">
        <ele>227.19999694824</ele>
        <time>2021-02-04T10:19:56.000Z</time>
      </trkpt>
      <trkpt lat="43.76802" lon="7.28102">
        <ele>226.19999694824</ele>
        <time>2021-02-04T10:20:05.000Z</time>
      </trkpt>
      <trkpt lat="43.76803" lon="7.28101">
        <ele>225</ele>
        <time>2021-02-04T10:20:11.000Z</time>
      </trkpt>
      <trkpt lat="43.76803" lon="7.28101">
        <ele>224.60000610352</ele>
        <time>2021-02-04T10:20:14.000Z</time>
      </trkpt>
      <trkpt lat="43.76803" lon="7.281">
        <ele>224.19999694824</ele>
        <time>2021-02-04T10:20:22.000Z</time>
      </trkpt>
      <trkpt lat="43.76804" lon="7.281">
        <ele>224.80000305176</ele>
        <time>2021-02-04T10:20:32.000Z</time>
      </trkpt>
      <trkpt lat="43.76808" lon="7.28101">
        <ele>224.60000610352</ele>
        <time>2021-02-04T10:20:39.000Z</time>
      </trkpt>
      <trkpt lat="43.76818" lon="7.28103">
        <ele>224.39999389648</ele>
        <time>2021-02-04T10:20:43.000Z</time>
      </trkpt>
      <trkpt lat="43.76837" lon="7.28103">
        <ele>224.60000610352</ele>
        <time>2021-02-04T10:20:48.000Z</time>
      </trkpt>
      <trkpt lat="43.76846" lon="7.28105">
        <ele>225</ele>
        <time>2021-02-04T10:20:52.000Z</time>
      </trkpt>
      <trkpt lat="43.76847" lon="7.28104">
        <ele>225.19999694824</ele>
        <time>2021-02-04T10:20:53.000Z</time>
      </trkpt>
      <trkpt lat="43.76857" lon="7.28103">
        <ele>225.80000305176</ele>
        <time>2021-02-04T10:20:56.000Z</time>
      </trkpt>
      <trkpt lat="43.76876" lon="7.28101">
        <ele>225.80000305176</ele>
        <time>2021-02-04T10:21:00.000Z</time>
      </trkpt>
      <trkpt lat="43.7688" lon="7.28099">
        <ele>225.80000305176</ele>
        <time>2021-02-04T10:21:01.000Z</time>
      </trkpt>
      <trkpt lat="43.76891" lon="7.28095">
        <ele>226.19999694824</ele>
        <time>2021-02-04T10:21:04.000Z</time>
      </trkpt>
      <trkpt lat="43.769" lon="7.28089">
        <ele>226.80000305176</ele>
        <time>2021-02-04T10:21:07.000Z</time>
      </trkpt>
      <trkpt lat="43.76907" lon="7.28084">
        <ele>227.39999389648</ele>
        <time>2021-02-04T10:21:10.000Z</time>
      </trkpt>
      <trkpt lat="43.76915" lon="7.28082">
        <ele>227.80000305176</ele>
        <time>2021-02-04T10:21:13.000Z</time>
      </trkpt>
      <trkpt lat="43.7693" lon="7.28076">
        <ele>228</ele>
        <time>2021-02-04T10:21:18.000Z</time>
      </trkpt>
      <trkpt lat="43.76948" lon="7.28064">
        <ele>228.39999389648</ele>
        <time>2021-02-04T10:21:24.000Z</time>
      </trkpt>
      <trkpt lat="43.76954" lon="7.28059">
        <ele>228.60000610352</ele>
        <time>2021-02-04T10:21:26.000Z</time>
      </trkpt>
      <trkpt lat="43.7698" lon="7.28046">
        <ele>229.39999389648</ele>
        <time>2021-02-04T10:21:34.000Z</time>
      </trkpt>
      <trkpt lat="43.76984" lon="7.28045">
        <ele>229.60000610352</ele>
        <time>2021-02-04T10:21:35.000Z</time>
      </trkpt>
      <trkpt lat="43.77011" lon="7.28047">
        <ele>230.39999389648</ele>
        <time>2021-02-04T10:21:42.000Z</time>
      </trkpt>
      <trkpt lat="43.77015" lon="7.28047">
        <ele>230.39999389648</ele>
        <time>2021-02-04T10:21:43.000Z</time>
      </trkpt>
      <trkpt lat="43.77039" lon="7.28049">
        <ele>231</ele>
        <time>2021-02-04T10:21:49.000Z</time>
      </trkpt>
      <trkpt lat="43.77065" lon="7.28053">
        <ele>231.60000610352</ele>
        <time>2021-02-04T10:21:55.000Z</time>
      </trkpt>
      <trkpt lat="43.77069" lon="7.28053">
        <ele>231.60000610352</ele>
        <time>2021-02-04T10:21:56.000Z</time>
      </trkpt>
      <trkpt lat="43.77077" lon="7.28054">
        <ele>231.80000305176</ele>
        <time>2021-02-04T10:21:58.000Z</time>
      </trkpt>
      <trkpt lat="43.77115" lon="7.28057">
        <ele>232.39999389648</ele>
        <time>2021-02-04T10:22:06.000Z</time>
      </trkpt>
      <trkpt lat="43.77121" lon="7.28058">
        <ele>232.60000610352</ele>
        <time>2021-02-04T10:22:07.000Z</time>
      </trkpt>
      <trkpt lat="43.77167" lon="7.28062">
        <ele>233.60000610352</ele>
        <time>2021-02-04T10:22:16.000Z</time>
      </trkpt>
      <trkpt lat="43.77198" lon="7.28053">
        <ele>234.60000610352</ele>
        <time>2021-02-04T10:22:22.000Z</time>
      </trkpt>
      <trkpt lat="43.77203" lon="7.2805">
        <ele>234.80000305176</ele>
        <time>2021-02-04T10:22:23.000Z</time>
      </trkpt>
      <trkpt lat="43.77237" lon="7.2803">
        <ele>235.80000305176</ele>
        <time>2021-02-04T10:22:30.000Z</time>
      </trkpt>
      <trkpt lat="43.77247" lon="7.28024">
        <ele>236</ele>
        <time>2021-02-04T10:22:32.000Z</time>
      </trkpt>
      <trkpt lat="43.77275" lon="7.28006">
        <ele>237</ele>
        <time>2021-02-04T10:22:38.000Z</time>
      </trkpt>
      <trkpt lat="43.77289" lon="7.27997">
        <ele>237.60000610352</ele>
        <time>2021-02-04T10:22:41.000Z</time>
      </trkpt>
      <trkpt lat="43.77299" lon="7.27991">
        <ele>238.19999694824</ele>
        <time>2021-02-04T10:22:43.000Z</time>
      </trkpt>
      <trkpt lat="43.77318" lon="7.2798">
        <ele>238.80000305176</ele>
        <time>2021-02-04T10:22:47.000Z</time>
      </trkpt>
      <trkpt lat="43.77323" lon="7.27979">
        <ele>239</ele>
        <time>2021-02-04T10:22:48.000Z</time>
      </trkpt>
      <trkpt lat="43.77333" lon="7.27981">
        <ele>239.19999694824</ele>
        <time>2021-02-04T10:22:50.000Z</time>
      </trkpt>
      <trkpt lat="43.77337" lon="7.27983">
        <ele>239.19999694824</ele>
        <time>2021-02-04T10:22:51.000Z</time>
      </trkpt>
      <trkpt lat="43.77342" lon="7.27986">
        <ele>239.39999389648</ele>
        <time>2021-02-04T10:22:52.000Z</time>
      </trkpt>
      <trkpt lat="43.77364" lon="7.27993">
        <ele>239.39999389648</ele>
        <time>2021-02-04T10:22:57.000Z</time>
      </trkpt>
      <trkpt lat="43.77368" lon="7.27993">
        <ele>239.60000610352</ele>
        <time>2021-02-04T10:22:58.000Z</time>
      </trkpt>
      <trkpt lat="43.7738" lon="7.27999">
        <ele>240</ele>
        <time>2021-02-04T10:23:03.000Z</time>
      </trkpt>
      <trkpt lat="43.77379" lon="7.28004">
        <ele>240.19999694824</ele>
        <time>2021-02-04T10:23:05.000Z</time>
      </trkpt>
      <trkpt lat="43.77379" lon="7.28007">
        <ele>240.19999694824</ele>
        <time>2021-02-04T10:23:07.000Z</time>
      </trkpt>
      <trkpt lat="43.77381" lon="7.28006">
        <ele>240.19999694824</ele>
        <time>2021-02-04T10:23:09.000Z</time>
      </trkpt>
      <trkpt lat="43.77379" lon="7.28002">
        <ele>240</ele>
        <time>2021-02-04T10:23:11.000Z</time>
      </trkpt>
      <trkpt lat="43.77375" lon="7.27998">
        <ele>239.80000305176</ele>
        <time>2021-02-04T10:23:13.000Z</time>
      </trkpt>
      <trkpt lat="43.77365" lon="7.27992">
        <ele>239.80000305176</ele>
        <time>2021-02-04T10:23:16.000Z</time>
      </trkpt>
      <trkpt lat="43.77361" lon="7.27991">
        <ele>239.80000305176</ele>
        <time>2021-02-04T10:23:17.000Z</time>
      </trkpt>
      <trkpt lat="43.77347" lon="7.27989">
        <ele>239.39999389648</ele>
        <time>2021-02-04T10:23:20.000Z</time>
      </trkpt>
      <trkpt lat="43.77344" lon="7.27987">
        <ele>239.39999389648</ele>
        <time>2021-02-04T10:23:21.000Z</time>
      </trkpt>
      <trkpt lat="43.77339" lon="7.27985">
        <ele>239.19999694824</ele>
        <time>2021-02-04T10:23:22.000Z</time>
      </trkpt>
      <trkpt lat="43.77322" lon="7.27979">
        <ele>239</ele>
        <time>2021-02-04T10:23:26.000Z</time>
      </trkpt>
      <trkpt lat="43.77317" lon="7.27979">
        <ele>239</ele>
        <time>2021-02-04T10:23:27.000Z</time>
      </trkpt>
      <trkpt lat="43.77314" lon="7.27986">
        <ele>239</ele>
        <time>2021-02-04T10:23:30.000Z</time>
      </trkpt>
      <trkpt lat="43.7732" lon="7.27987">
        <ele>239</ele>
        <time>2021-02-04T10:23:32.000Z</time>
      </trkpt>
      <trkpt lat="43.77334" lon="7.27994">
        <ele>240</ele>
        <time>2021-02-04T10:23:36.000Z</time>
      </trkpt>
      <trkpt lat="43.77338" lon="7.27998">
        <ele>240.19999694824</ele>
        <time>2021-02-04T10:23:37.000Z</time>
      </trkpt>
      <trkpt lat="43.77347" lon="7.28015">
        <ele>241.39999389648</ele>
        <time>2021-02-04T10:23:41.000Z</time>
      </trkpt>
      <trkpt lat="43.77353" lon="7.28032">
        <ele>242</ele>
        <time>2021-02-04T10:23:44.000Z</time>
      </trkpt>
      <trkpt lat="43.77355" lon="7.28043">
        <ele>242.39999389648</ele>
        <time>2021-02-04T10:23:46.000Z</time>
      </trkpt>
      <trkpt lat="43.77356" lon="7.28049">
        <ele>242.60000610352</ele>
        <time>2021-02-04T10:23:47.000Z</time>
      </trkpt>
      <trkpt lat="43.77362" lon="7.28069">
        <ele>243.39999389648</ele>
        <time>2021-02-04T10:23:51.000Z</time>
      </trkpt>
      <trkpt lat="43.77368" lon="7.28077">
        <ele>244</ele>
        <time>2021-02-04T10:23:53.000Z</time>
      </trkpt>
      <trkpt lat="43.77375" lon="7.28082">
        <ele>244.60000610352</ele>
        <time>2021-02-04T10:23:55.000Z</time>
      </trkpt>
      <trkpt lat="43.77383" lon="7.28084">
        <ele>245</ele>
        <time>2021-02-04T10:23:57.000Z</time>
      </trkpt>
      <trkpt lat="43.77387" lon="7.28083">
        <ele>245.19999694824</ele>
        <time>2021-02-04T10:23:58.000Z</time>
      </trkpt>
      <trkpt lat="43.77395" lon="7.28081">
        <ele>245.60000610352</ele>
        <time>2021-02-04T10:24:00.000Z</time>
      </trkpt>
      <trkpt lat="43.77403" lon="7.28078">
        <ele>246.19999694824</ele>
        <time>2021-02-04T10:24:02.000Z</time>
      </trkpt>
      <trkpt lat="43.77409" lon="7.28075">
        <ele>246.80000305176</ele>
        <time>2021-02-04T10:24:04.000Z</time>
      </trkpt>
      <trkpt lat="43.7742" lon="7.28066">
        <ele>248</ele>
        <time>2021-02-04T10:24:08.000Z</time>
      </trkpt>
      <trkpt lat="43.77426" lon="7.28062">
        <ele>248.39999389648</ele>
        <time>2021-02-04T10:24:10.000Z</time>
      </trkpt>
      <trkpt lat="43.77437" lon="7.28063">
        <ele>249.19999694824</ele>
        <time>2021-02-04T10:24:14.000Z</time>
      </trkpt>
      <trkpt lat="43.77443" lon="7.28069">
        <ele>250.39999389648</ele>
        <time>2021-02-04T10:24:18.000Z</time>
      </trkpt>
      <trkpt lat="43.77444" lon="7.2807">
        <ele>250.39999389648</ele>
        <time>2021-02-04T10:24:19.000Z</time>
      </trkpt>
      <trkpt lat="43.77444" lon="7.28074">
        <ele>250.60000610352</ele>
        <time>2021-02-04T10:24:21.000Z</time>
      </trkpt>
      <trkpt lat="43.77445" lon="7.28077">
        <ele>250.19999694824</ele>
        <time>2021-02-04T10:24:24.000Z</time>
      </trkpt>
      <trkpt lat="43.77444" lon="7.28079">
        <ele>249.19999694824</ele>
        <time>2021-02-04T10:24:27.000Z</time>
      </trkpt>
      <trkpt lat="43.77442" lon="7.28079">
        <ele>248.60000610352</ele>
        <time>2021-02-04T10:24:31.000Z</time>
      </trkpt>
      <trkpt lat="43.77442" lon="7.28078">
        <ele>248.19999694824</ele>
        <time>2021-02-04T10:24:36.000Z</time>
      </trkpt>
      <trkpt lat="43.77441" lon="7.28078">
        <ele>248</ele>
        <time>2021-02-04T10:24:37.000Z</time>
      </trkpt>
      <trkpt lat="43.77434" lon="7.28076">
        <ele>247.39999389648</ele>
        <time>2021-02-04T10:24:41.000Z</time>
      </trkpt>
      <trkpt lat="43.77429" lon="7.28076">
        <ele>246.80000305176</ele>
        <time>2021-02-04T10:24:43.000Z</time>
      </trkpt>
      <trkpt lat="43.77425" lon="7.28077">
        <ele>245.60000610352</ele>
        <time>2021-02-04T10:24:45.000Z</time>
      </trkpt>
      <trkpt lat="43.77421" lon="7.28078">
        <ele>244.39999389648</ele>
        <time>2021-02-04T10:24:47.000Z</time>
      </trkpt>
      <trkpt lat="43.77421" lon="7.28079">
        <ele>243.39999389648</ele>
        <time>2021-02-04T10:24:48.000Z</time>
      </trkpt>
      <trkpt lat="43.77421" lon="7.28084">
        <ele>241.80000305176</ele>
        <time>2021-02-04T10:24:50.000Z</time>
      </trkpt>
      <trkpt lat="43.77429" lon="7.281">
        <ele>242</ele>
        <time>2021-02-04T10:24:54.000Z</time>
      </trkpt>
      <trkpt lat="43.7744" lon="7.2812">
        <ele>242.60000610352</ele>
        <time>2021-02-04T10:24:58.000Z</time>
      </trkpt>
      <trkpt lat="43.77445" lon="7.28132">
        <ele>243</ele>
        <time>2021-02-04T10:25:00.000Z</time>
      </trkpt>
      <trkpt lat="43.77455" lon="7.28173">
        <ele>242.39999389648</ele>
        <time>2021-02-04T10:25:06.000Z</time>
      </trkpt>
      <trkpt lat="43.77455" lon="7.28179">
        <ele>242.19999694824</ele>
        <time>2021-02-04T10:25:07.000Z</time>
      </trkpt>
      <trkpt lat="43.77451" lon="7.28211">
        <ele>242</ele>
        <time>2021-02-04T10:25:11.000Z</time>
      </trkpt>
      <trkpt lat="43.77448" lon="7.28218">
        <ele>241.80000305176</ele>
        <time>2021-02-04T10:25:12.000Z</time>
      </trkpt>
      <trkpt lat="43.77437" lon="7.28241">
        <ele>242.19999694824</ele>
        <time>2021-02-04T10:25:16.000Z</time>
      </trkpt>
      <trkpt lat="43.77414" lon="7.2828">
        <ele>242.60000610352</ele>
        <time>2021-02-04T10:25:24.000Z</time>
      </trkpt>
      <trkpt lat="43.77399" lon="7.28331">
        <ele>242.60000610352</ele>
        <time>2021-02-04T10:25:33.000Z</time>
      </trkpt>
      <trkpt lat="43.77392" lon="7.28359">
        <ele>242.19999694824</ele>
        <time>2021-02-04T10:25:38.000Z</time>
      </trkpt>
      <trkpt lat="43.77391" lon="7.28371">
        <ele>242</ele>
        <time>2021-02-04T10:25:40.000Z</time>
      </trkpt>
      <trkpt lat="43.77389" lon="7.28391">
        <ele>241.80000305176</ele>
        <time>2021-02-04T10:25:43.000Z</time>
      </trkpt>
      <trkpt lat="43.77392" lon="7.28409">
        <ele>241.39999389648</ele>
        <time>2021-02-04T10:25:46.000Z</time>
      </trkpt>
      <trkpt lat="43.77396" lon="7.28441">
        <ele>241</ele>
        <time>2021-02-04T10:25:51.000Z</time>
      </trkpt>
      <trkpt lat="43.77397" lon="7.28447">
        <ele>241.19999694824</ele>
        <time>2021-02-04T10:25:52.000Z</time>
      </trkpt>
      <trkpt lat="43.77408" lon="7.285">
        <ele>242</ele>
        <time>2021-02-04T10:26:01.000Z</time>
      </trkpt>
      <trkpt lat="43.77416" lon="7.28519">
        <ele>242.39999389648</ele>
        <time>2021-02-04T10:26:05.000Z</time>
      </trkpt>
      <trkpt lat="43.77426" lon="7.28527">
        <ele>243</ele>
        <time>2021-02-04T10:26:08.000Z</time>
      </trkpt>
      <trkpt lat="43.7743" lon="7.28529">
        <ele>243.19999694824</ele>
        <time>2021-02-04T10:26:09.000Z</time>
      </trkpt>
      <trkpt lat="43.77445" lon="7.28535">
        <ele>244</ele>
        <time>2021-02-04T10:26:14.000Z</time>
      </trkpt>
      <trkpt lat="43.77447" lon="7.28535">
        <ele>244.19999694824</ele>
        <time>2021-02-04T10:26:15.000Z</time>
      </trkpt>
      <trkpt lat="43.77462" lon="7.28533">
        <ele>244.80000305176</ele>
        <time>2021-02-04T10:26:21.000Z</time>
      </trkpt>
      <trkpt lat="43.7748" lon="7.28528">
        <ele>245</ele>
        <time>2021-02-04T10:26:27.000Z</time>
      </trkpt>
      <trkpt lat="43.77498" lon="7.28518">
        <ele>246</ele>
        <time>2021-02-04T10:26:34.000Z</time>
      </trkpt>
      <trkpt lat="43.77516" lon="7.28508">
        <ele>246.19999694824</ele>
        <time>2021-02-04T10:26:40.000Z</time>
      </trkpt>
      <trkpt lat="43.77541" lon="7.28499">
        <ele>246.60000610352</ele>
        <time>2021-02-04T10:26:48.000Z</time>
      </trkpt>
      <trkpt lat="43.77553" lon="7.28496">
        <ele>247.19999694824</ele>
        <time>2021-02-04T10:26:52.000Z</time>
      </trkpt>
      <trkpt lat="43.7757" lon="7.28492">
        <ele>247.60000610352</ele>
        <time>2021-02-04T10:26:57.000Z</time>
      </trkpt>
      <trkpt lat="43.77593" lon="7.28486">
        <ele>247.80000305176</ele>
        <time>2021-02-04T10:27:04.000Z</time>
      </trkpt>
      <trkpt lat="43.77621" lon="7.28475">
        <ele>248</ele>
        <time>2021-02-04T10:27:12.000Z</time>
      </trkpt>
      <trkpt lat="43.77647" lon="7.28465">
        <ele>248.19999694824</ele>
        <time>2021-02-04T10:27:19.000Z</time>
      </trkpt>
      <trkpt lat="43.7765" lon="7.28463">
        <ele>248.39999389648</ele>
        <time>2021-02-04T10:27:20.000Z</time>
      </trkpt>
      <trkpt lat="43.77671" lon="7.28451">
        <ele>249.19999694824</ele>
        <time>2021-02-04T10:27:26.000Z</time>
      </trkpt>
      <trkpt lat="43.77681" lon="7.28445">
        <ele>249.80000305176</ele>
        <time>2021-02-04T10:27:29.000Z</time>
      </trkpt>
      <trkpt lat="43.77695" lon="7.28437">
        <ele>250.39999389648</ele>
        <time>2021-02-04T10:27:33.000Z</time>
      </trkpt>
      <trkpt lat="43.77702" lon="7.28432">
        <ele>250.60000610352</ele>
        <time>2021-02-04T10:27:35.000Z</time>
      </trkpt>
      <trkpt lat="43.77726" lon="7.28416">
        <ele>251.39999389648</ele>
        <time>2021-02-04T10:27:42.000Z</time>
      </trkpt>
      <trkpt lat="43.77756" lon="7.28395">
        <ele>252.39999389648</ele>
        <time>2021-02-04T10:27:51.000Z</time>
      </trkpt>
      <trkpt lat="43.77763" lon="7.28389">
        <ele>252.39999389648</ele>
        <time>2021-02-04T10:27:53.000Z</time>
      </trkpt>
      <trkpt lat="43.77773" lon="7.28372">
        <ele>252.60000610352</ele>
        <time>2021-02-04T10:27:57.000Z</time>
      </trkpt>
      <trkpt lat="43.77788" lon="7.28345">
        <ele>252.80000305176</ele>
        <time>2021-02-04T10:28:03.000Z</time>
      </trkpt>
      <trkpt lat="43.77792" lon="7.28345">
        <ele>252.80000305176</ele>
        <time>2021-02-04T10:28:04.000Z</time>
      </trkpt>
      <trkpt lat="43.77803" lon="7.28352">
        <ele>252.60000610352</ele>
        <time>2021-02-04T10:28:07.000Z</time>
      </trkpt>
      <trkpt lat="43.77829" lon="7.28377">
        <ele>253.39999389648</ele>
        <time>2021-02-04T10:28:15.000Z</time>
      </trkpt>
      <trkpt lat="43.77831" lon="7.2838">
        <ele>253.39999389648</ele>
        <time>2021-02-04T10:28:16.000Z</time>
      </trkpt>
      <trkpt lat="43.77841" lon="7.2839">
        <ele>254.60000610352</ele>
        <time>2021-02-04T10:28:20.000Z</time>
      </trkpt>
      <trkpt lat="43.77849" lon="7.28397">
        <ele>255.39999389648</ele>
        <time>2021-02-04T10:28:23.000Z</time>
      </trkpt>
      <trkpt lat="43.77851" lon="7.28399">
        <ele>255.80000305176</ele>
        <time>2021-02-04T10:28:24.000Z</time>
      </trkpt>
      <trkpt lat="43.77862" lon="7.2841">
        <ele>256.79998779297</ele>
        <time>2021-02-04T10:28:28.000Z</time>
      </trkpt>
      <trkpt lat="43.77867" lon="7.28414">
        <ele>257.39999389648</ele>
        <time>2021-02-04T10:28:30.000Z</time>
      </trkpt>
      <trkpt lat="43.77873" lon="7.28417">
        <ele>258</ele>
        <time>2021-02-04T10:28:32.000Z</time>
      </trkpt>
      <trkpt lat="43.77881" lon="7.28414">
        <ele>258.79998779297</ele>
        <time>2021-02-04T10:28:35.000Z</time>
      </trkpt>
      <trkpt lat="43.77883" lon="7.28411">
        <ele>259</ele>
        <time>2021-02-04T10:28:36.000Z</time>
      </trkpt>
      <trkpt lat="43.77888" lon="7.284">
        <ele>259.60000610352</ele>
        <time>2021-02-04T10:28:39.000Z</time>
      </trkpt>
      <trkpt lat="43.77889" lon="7.28396">
        <ele>259.79998779297</ele>
        <time>2021-02-04T10:28:40.000Z</time>
      </trkpt>
      <trkpt lat="43.77899" lon="7.28378">
        <ele>260</ele>
        <time>2021-02-04T10:28:45.000Z</time>
      </trkpt>
      <trkpt lat="43.77901" lon="7.28376">
        <ele>260.20001220703</ele>
        <time>2021-02-04T10:28:46.000Z</time>
      </trkpt>
      <trkpt lat="43.77919" lon="7.28352">
        <ele>260.60000610352</ele>
        <time>2021-02-04T10:28:53.000Z</time>
      </trkpt>
      <trkpt lat="43.77934" lon="7.28322">
        <ele>260.20001220703</ele>
        <time>2021-02-04T10:29:00.000Z</time>
      </trkpt>
      <trkpt lat="43.77949" lon="7.28305">
        <ele>259.79998779297</ele>
        <time>2021-02-04T10:29:05.000Z</time>
      </trkpt>
      <trkpt lat="43.77957" lon="7.28303">
        <ele>259.79998779297</ele>
        <time>2021-02-04T10:29:07.000Z</time>
      </trkpt>
      <trkpt lat="43.77965" lon="7.28304">
        <ele>259.79998779297</ele>
        <time>2021-02-04T10:29:09.000Z</time>
      </trkpt>
      <trkpt lat="43.77996" lon="7.28312">
        <ele>260</ele>
        <time>2021-02-04T10:29:17.000Z</time>
      </trkpt>
      <trkpt lat="43.78029" lon="7.28316">
        <ele>260.60000610352</ele>
        <time>2021-02-04T10:29:26.000Z</time>
      </trkpt>
      <trkpt lat="43.78054" lon="7.28303">
        <ele>260.79998779297</ele>
        <time>2021-02-04T10:29:33.000Z</time>
      </trkpt>
      <trkpt lat="43.78071" lon="7.2829">
        <ele>261</ele>
        <time>2021-02-04T10:29:38.000Z</time>
      </trkpt>
      <trkpt lat="43.78081" lon="7.2828">
        <ele>261</ele>
        <time>2021-02-04T10:29:41.000Z</time>
      </trkpt>
      <trkpt lat="43.78105" lon="7.28253">
        <ele>261</ele>
        <time>2021-02-04T10:29:49.000Z</time>
      </trkpt>
      <trkpt lat="43.78129" lon="7.28227">
        <ele>261</ele>
        <time>2021-02-04T10:29:57.000Z</time>
      </trkpt>
      <trkpt lat="43.78136" lon="7.2821">
        <ele>261.20001220703</ele>
        <time>2021-02-04T10:30:01.000Z</time>
      </trkpt>
      <trkpt lat="43.78139" lon="7.28195">
        <ele>261.79998779297</ele>
        <time>2021-02-04T10:30:06.000Z</time>
      </trkpt>
      <trkpt lat="43.78139" lon="7.28195">
        <ele>262</ele>
        <time>2021-02-04T10:30:09.000Z</time>
      </trkpt>
      <trkpt lat="43.78138" lon="7.28195">
        <ele>262.20001220703</ele>
        <time>2021-02-04T10:30:12.000Z</time>
      </trkpt>
      <trkpt lat="43.78138" lon="7.28188">
        <ele>262</ele>
        <time>2021-02-04T10:30:21.000Z</time>
      </trkpt>
      <trkpt lat="43.78138" lon="7.28183">
        <ele>262</ele>
        <time>2021-02-04T10:30:24.000Z</time>
      </trkpt>
      <trkpt lat="43.78135" lon="7.28178">
        <ele>262</ele>
        <time>2021-02-04T10:30:26.000Z</time>
      </trkpt>
      <trkpt lat="43.78133" lon="7.28172">
        <ele>262.20001220703</ele>
        <time>2021-02-04T10:30:28.000Z</time>
      </trkpt>
      <trkpt lat="43.78134" lon="7.28169">
        <ele>262.79998779297</ele>
        <time>2021-02-04T10:30:30.000Z</time>
      </trkpt>
      <trkpt lat="43.78134" lon="7.28169">
        <ele>263.39999389648</ele>
        <time>2021-02-04T10:30:31.000Z</time>
      </trkpt>
      <trkpt lat="43.78135" lon="7.28169">
        <ele>264.60000610352</ele>
        <time>2021-02-04T10:30:33.000Z</time>
      </trkpt>
      <trkpt lat="43.78135" lon="7.28169">
        <ele>265.20001220703</ele>
        <time>2021-02-04T10:30:35.000Z</time>
      </trkpt>
      <trkpt lat="43.78138" lon="7.28169">
        <ele>265</ele>
        <time>2021-02-04T10:30:44.000Z</time>
      </trkpt>
      <trkpt lat="43.78142" lon="7.28169">
        <ele>264.79998779297</ele>
        <time>2021-02-04T10:30:51.000Z</time>
      </trkpt>
      <trkpt lat="43.78143" lon="7.28169">
        <ele>264.60000610352</ele>
        <time>2021-02-04T10:30:59.000Z</time>
      </trkpt>
      <trkpt lat="43.78142" lon="7.28165">
        <ele>265.39999389648</ele>
        <time>2021-02-04T10:31:06.000Z</time>
      </trkpt>
      <trkpt lat="43.78143" lon="7.28164">
        <ele>265.79998779297</ele>
        <time>2021-02-04T10:31:08.000Z</time>
      </trkpt>
      <trkpt lat="43.78143" lon="7.28162">
        <ele>266.20001220703</ele>
        <time>2021-02-04T10:31:10.000Z</time>
      </trkpt>
      <trkpt lat="43.78144" lon="7.2816">
        <ele>266.79998779297</ele>
        <time>2021-02-04T10:31:13.000Z</time>
      </trkpt>
      <trkpt lat="43.78145" lon="7.28159">
        <ele>268</ele>
        <time>2021-02-04T10:31:18.000Z</time>
      </trkpt>
      <trkpt lat="43.78145" lon="7.28159">
        <ele>268.20001220703</ele>
        <time>2021-02-04T10:31:20.000Z</time>
      </trkpt>
      <trkpt lat="43.78144" lon="7.28159">
        <ele>268.39999389648</ele>
        <time>2021-02-04T10:31:29.000Z</time>
      </trkpt>
      <trkpt lat="43.78142" lon="7.28157">
        <ele>268.39999389648</ele>
        <time>2021-02-04T10:31:35.000Z</time>
      </trkpt>
      <trkpt lat="43.78142" lon="7.28157">
        <ele>268.60000610352</ele>
        <time>2021-02-04T10:31:39.000Z</time>
      </trkpt>
      <trkpt lat="43.78142" lon="7.28156">
        <ele>269</ele>
        <time>2021-02-04T10:31:45.000Z</time>
      </trkpt>
      <trkpt lat="43.78141" lon="7.28155">
        <ele>269</ele>
        <time>2021-02-04T10:31:52.000Z</time>
      </trkpt>
      <trkpt lat="43.7814" lon="7.28155">
        <ele>269.20001220703</ele>
        <time>2021-02-04T10:31:58.000Z</time>
      </trkpt>
      <trkpt lat="43.78139" lon="7.28154">
        <ele>269.39999389648</ele>
        <time>2021-02-04T10:32:05.000Z</time>
      </trkpt>
      <trkpt lat="43.7814" lon="7.28152">
        <ele>269.20001220703</ele>
        <time>2021-02-04T10:32:12.000Z</time>
      </trkpt>
      <trkpt lat="43.78139" lon="7.2815">
        <ele>269.39999389648</ele>
        <time>2021-02-04T10:32:14.000Z</time>
      </trkpt>
      <trkpt lat="43.78139" lon="7.2815">
        <ele>270</ele>
        <time>2021-02-04T10:32:18.000Z</time>
      </trkpt>
      <trkpt lat="43.7814" lon="7.28149">
        <ele>270</ele>
        <time>2021-02-04T10:32:20.000Z</time>
      </trkpt>
      <trkpt lat="43.78139" lon="7.28147">
        <ele>270.60000610352</ele>
        <time>2021-02-04T10:32:27.000Z</time>
      </trkpt>
      <trkpt lat="43.78139" lon="7.28146">
        <ele>271</ele>
        <time>2021-02-04T10:32:34.000Z</time>
      </trkpt>
      <trkpt lat="43.78138" lon="7.28146">
        <ele>270.79998779297</ele>
        <time>2021-02-04T10:32:41.000Z</time>
      </trkpt>
      <trkpt lat="43.78133" lon="7.28141">
        <ele>271.20001220703</ele>
        <time>2021-02-04T10:32:45.000Z</time>
      </trkpt>
      <trkpt lat="43.78132" lon="7.2814">
        <ele>271.60000610352</ele>
        <time>2021-02-04T10:32:46.000Z</time>
      </trkpt>
      <trkpt lat="43.78131" lon="7.28137">
        <ele>272.60000610352</ele>
        <time>2021-02-04T10:32:48.000Z</time>
      </trkpt>
      <trkpt lat="43.78131" lon="7.28138">
        <ele>273.79998779297</ele>
        <time>2021-02-04T10:32:50.000Z</time>
      </trkpt>
      <trkpt lat="43.78131" lon="7.28137">
        <ele>274.39999389648</ele>
        <time>2021-02-04T10:32:52.000Z</time>
      </trkpt>
      <trkpt lat="43.7813" lon="7.28137">
        <ele>274.79998779297</ele>
        <time>2021-02-04T10:32:56.000Z</time>
      </trkpt>
      <trkpt lat="43.78129" lon="7.28138">
        <ele>274.79998779297</ele>
        <time>2021-02-04T10:33:00.000Z</time>
      </trkpt>
      <trkpt lat="43.78128" lon="7.28139">
        <ele>274.60000610352</ele>
        <time>2021-02-04T10:33:08.000Z</time>
      </trkpt>
      <trkpt lat="43.78129" lon="7.2814">
        <ele>275</ele>
        <time>2021-02-04T10:33:14.000Z</time>
      </trkpt>
      <trkpt lat="43.7813" lon="7.2814">
        <ele>274.20001220703</ele>
        <time>2021-02-04T10:33:20.000Z</time>
      </trkpt>
      <trkpt lat="43.78129" lon="7.28141">
        <ele>274.20001220703</ele>
        <time>2021-02-04T10:33:30.000Z</time>
      </trkpt>
      <trkpt lat="43.78131" lon="7.2814">
        <ele>274.79998779297</ele>
        <time>2021-02-04T10:33:36.000Z</time>
      </trkpt>
      <trkpt lat="43.78135" lon="7.2814">
        <ele>275</ele>
        <time>2021-02-04T10:33:41.000Z</time>
      </trkpt>
      <trkpt lat="43.78137" lon="7.28139">
        <ele>275.79998779297</ele>
        <time>2021-02-04T10:33:47.000Z</time>
      </trkpt>
      <trkpt lat="43.78136" lon="7.28141">
        <ele>275.79998779297</ele>
        <time>2021-02-04T10:33:52.000Z</time>
      </trkpt>
      <trkpt lat="43.78136" lon="7.28141">
        <ele>275.79998779297</ele>
        <time>2021-02-04T10:33:53.000Z</time>
      </trkpt>
      <trkpt lat="43.78137" lon="7.2814">
        <ele>276</ele>
        <time>2021-02-04T10:33:54.000Z</time>
      </trkpt>
      <trkpt lat="43.78141" lon="7.28139">
        <ele>276.20001220703</ele>
        <time>2021-02-04T10:33:59.000Z</time>
      </trkpt>
      <trkpt lat="43.78145" lon="7.28136">
        <ele>277</ele>
        <time>2021-02-04T10:34:06.000Z</time>
      </trkpt>
      <trkpt lat="43.7815" lon="7.28133">
        <ele>277.79998779297</ele>
        <time>2021-02-04T10:34:13.000Z</time>
      </trkpt>
      <trkpt lat="43.78151" lon="7.28132">
        <ele>278</ele>
        <time>2021-02-04T10:34:14.000Z</time>
      </trkpt>
      <trkpt lat="43.78154" lon="7.28128">
        <ele>279.20001220703</ele>
        <time>2021-02-04T10:34:20.000Z</time>
      </trkpt>
      <trkpt lat="43.78153" lon="7.28128">
        <ele>279.39999389648</ele>
        <time>2021-02-04T10:34:21.000Z</time>
      </trkpt>
      <trkpt lat="43.78151" lon="7.28126">
        <ele>280.20001220703</ele>
        <time>2021-02-04T10:34:25.000Z</time>
      </trkpt>
      <trkpt lat="43.78151" lon="7.28125">
        <ele>280.39999389648</ele>
        <time>2021-02-04T10:34:26.000Z</time>
      </trkpt>
      <trkpt lat="43.78152" lon="7.28124">
        <ele>280.60000610352</ele>
        <time>2021-02-04T10:34:27.000Z</time>
      </trkpt>
      <trkpt lat="43.78153" lon="7.28123">
        <ele>281.39999389648</ele>
        <time>2021-02-04T10:34:31.000Z</time>
      </trkpt>
      <trkpt lat="43.78154" lon="7.28122">
        <ele>281.39999389648</ele>
        <time>2021-02-04T10:34:32.000Z</time>
      </trkpt>
      <trkpt lat="43.78156" lon="7.28122">
        <ele>282.39999389648</ele>
        <time>2021-02-04T10:34:37.000Z</time>
      </trkpt>
      <trkpt lat="43.78156" lon="7.28121">
        <ele>282.60000610352</ele>
        <time>2021-02-04T10:34:38.000Z</time>
      </trkpt>
      <trkpt lat="43.78158" lon="7.28119">
        <ele>283.60000610352</ele>
        <time>2021-02-04T10:34:43.000Z</time>
      </trkpt>
      <trkpt lat="43.78158" lon="7.28118">
        <ele>284.20001220703</ele>
        <time>2021-02-04T10:34:46.000Z</time>
      </trkpt>
      <trkpt lat="43.78157" lon="7.28117">
        <ele>284.60000610352</ele>
        <time>2021-02-04T10:34:49.000Z</time>
      </trkpt>
      <trkpt lat="43.78155" lon="7.28116">
        <ele>285.39999389648</ele>
        <time>2021-02-04T10:34:53.000Z</time>
      </trkpt>
      <trkpt lat="43.78155" lon="7.28115">
        <ele>285.60000610352</ele>
        <time>2021-02-04T10:34:54.000Z</time>
      </trkpt>
      <trkpt lat="43.78155" lon="7.28112">
        <ele>286.60000610352</ele>
        <time>2021-02-04T10:35:00.000Z</time>
      </trkpt>
      <trkpt lat="43.78157" lon="7.28109">
        <ele>287</ele>
        <time>2021-02-04T10:35:05.000Z</time>
      </trkpt>
      <trkpt lat="43.78159" lon="7.28109">
        <ele>287.60000610352</ele>
        <time>2021-02-04T10:35:10.000Z</time>
      </trkpt>
      <trkpt lat="43.78159" lon="7.28109">
        <ele>287.79998779297</ele>
        <time>2021-02-04T10:35:11.000Z</time>
      </trkpt>
      <trkpt lat="43.7816" lon="7.28109">
        <ele>288</ele>
        <time>2021-02-04T10:35:19.000Z</time>
      </trkpt>
      <trkpt lat="43.78161" lon="7.28108">
        <ele>288.60000610352</ele>
        <time>2021-02-04T10:35:25.000Z</time>
      </trkpt>
      <trkpt lat="43.78163" lon="7.28108">
        <ele>288.60000610352</ele>
        <time>2021-02-04T10:35:27.000Z</time>
      </trkpt>
      <trkpt lat="43.78164" lon="7.28106">
        <ele>288.60000610352</ele>
        <time>2021-02-04T10:35:29.000Z</time>
      </trkpt>
      <trkpt lat="43.78164" lon="7.28107">
        <ele>288.60000610352</ele>
        <time>2021-02-04T10:35:31.000Z</time>
      </trkpt>
      <trkpt lat="43.78165" lon="7.28108">
        <ele>289.20001220703</ele>
        <time>2021-02-04T10:35:34.000Z</time>
      </trkpt>
      <trkpt lat="43.78165" lon="7.28107">
        <ele>289.79998779297</ele>
        <time>2021-02-04T10:35:37.000Z</time>
      </trkpt>
      <trkpt lat="43.78166" lon="7.28106">
        <ele>290.39999389648</ele>
        <time>2021-02-04T10:35:42.000Z</time>
      </trkpt>
      <trkpt lat="43.78164" lon="7.28106">
        <ele>290.39999389648</ele>
        <time>2021-02-04T10:35:49.000Z</time>
      </trkpt>
      <trkpt lat="43.78164" lon="7.28104">
        <ele>289.60000610352</ele>
        <time>2021-02-04T10:35:58.000Z</time>
      </trkpt>
      <trkpt lat="43.78165" lon="7.28103">
        <ele>289.60000610352</ele>
        <time>2021-02-04T10:36:09.000Z</time>
      </trkpt>
      <trkpt lat="43.78165" lon="7.28101">
        <ele>290.20001220703</ele>
        <time>2021-02-04T10:36:19.000Z</time>
      </trkpt>
      <trkpt lat="43.78165" lon="7.281">
        <ele>289.60000610352</ele>
        <time>2021-02-04T10:36:26.000Z</time>
      </trkpt>
      <trkpt lat="43.78165" lon="7.281">
        <ele>290.39999389648</ele>
        <time>2021-02-04T10:36:33.000Z</time>
      </trkpt>
      <trkpt lat="43.78166" lon="7.28097">
        <ele>290.39999389648</ele>
        <time>2021-02-04T10:36:45.000Z</time>
      </trkpt>
      <trkpt lat="43.78166" lon="7.28095">
        <ele>291</ele>
        <time>2021-02-04T10:36:49.000Z</time>
      </trkpt>
      <trkpt lat="43.78167" lon="7.28095">
        <ele>291.39999389648</ele>
        <time>2021-02-04T10:36:52.000Z</time>
      </trkpt>
      <trkpt lat="43.78167" lon="7.28096">
        <ele>291.39999389648</ele>
        <time>2021-02-04T10:37:00.000Z</time>
      </trkpt>
      <trkpt lat="43.78167" lon="7.28094">
        <ele>291.60000610352</ele>
        <time>2021-02-04T10:37:07.000Z</time>
      </trkpt>
      <trkpt lat="43.78168" lon="7.28091">
        <ele>292</ele>
        <time>2021-02-04T10:37:11.000Z</time>
      </trkpt>
      <trkpt lat="43.7817" lon="7.28089">
        <ele>292.79998779297</ele>
        <time>2021-02-04T10:37:15.000Z</time>
      </trkpt>
      <trkpt lat="43.7817" lon="7.28088">
        <ele>293</ele>
        <time>2021-02-04T10:37:17.000Z</time>
      </trkpt>
      <trkpt lat="43.78171" lon="7.28085">
        <ele>294</ele>
        <time>2021-02-04T10:37:22.000Z</time>
      </trkpt>
      <trkpt lat="43.78172" lon="7.28084">
        <ele>294</ele>
        <time>2021-02-04T10:37:23.000Z</time>
      </trkpt>
      <trkpt lat="43.78173" lon="7.28083">
        <ele>294.60000610352</ele>
        <time>2021-02-04T10:37:28.000Z</time>
      </trkpt>
      <trkpt lat="43.78173" lon="7.28081">
        <ele>294.60000610352</ele>
        <time>2021-02-04T10:37:30.000Z</time>
      </trkpt>
      <trkpt lat="43.78175" lon="7.28077">
        <ele>294.79998779297</ele>
        <time>2021-02-04T10:37:33.000Z</time>
      </trkpt>
      <trkpt lat="43.78179" lon="7.28076">
        <ele>295.20001220703</ele>
        <time>2021-02-04T10:37:36.000Z</time>
      </trkpt>
      <trkpt lat="43.78181" lon="7.28077">
        <ele>295.20001220703</ele>
        <time>2021-02-04T10:37:37.000Z</time>
      </trkpt>
      <trkpt lat="43.78188" lon="7.28073">
        <ele>295</ele>
        <time>2021-02-04T10:37:41.000Z</time>
      </trkpt>
      <trkpt lat="43.78193" lon="7.28061">
        <ele>296.20001220703</ele>
        <time>2021-02-04T10:37:46.000Z</time>
      </trkpt>
      <trkpt lat="43.78195" lon="7.28061">
        <ele>296.60000610352</ele>
        <time>2021-02-04T10:37:47.000Z</time>
      </trkpt>
      <trkpt lat="43.78199" lon="7.28061">
        <ele>297.79998779297</ele>
        <time>2021-02-04T10:37:49.000Z</time>
      </trkpt>
      <trkpt lat="43.78201" lon="7.28061">
        <ele>298.20001220703</ele>
        <time>2021-02-04T10:37:50.000Z</time>
      </trkpt>
      <trkpt lat="43.78202" lon="7.2806">
        <ele>298.39999389648</ele>
        <time>2021-02-04T10:37:51.000Z</time>
      </trkpt>
      <trkpt lat="43.78206" lon="7.28059">
        <ele>298.79998779297</ele>
        <time>2021-02-04T10:37:53.000Z</time>
      </trkpt>
      <trkpt lat="43.78211" lon="7.28052">
        <ele>299.60000610352</ele>
        <time>2021-02-04T10:37:56.000Z</time>
      </trkpt>
      <trkpt lat="43.78213" lon="7.28049">
        <ele>299.79998779297</ele>
        <time>2021-02-04T10:37:57.000Z</time>
      </trkpt>
      <trkpt lat="43.78217" lon="7.28044">
        <ele>301.20001220703</ele>
        <time>2021-02-04T10:38:00.000Z</time>
      </trkpt>
      <trkpt lat="43.78218" lon="7.28044">
        <ele>301.79998779297</ele>
        <time>2021-02-04T10:38:01.000Z</time>
      </trkpt>
      <trkpt lat="43.78219" lon="7.28042">
        <ele>302.20001220703</ele>
        <time>2021-02-04T10:38:02.000Z</time>
      </trkpt>
      <trkpt lat="43.78224" lon="7.28037">
        <ele>303.20001220703</ele>
        <time>2021-02-04T10:38:06.000Z</time>
      </trkpt>
      <trkpt lat="43.78226" lon="7.28035">
        <ele>303.39999389648</ele>
        <time>2021-02-04T10:38:07.000Z</time>
      </trkpt>
      <trkpt lat="43.78236" lon="7.2803">
        <ele>303</ele>
        <time>2021-02-04T10:38:12.000Z</time>
      </trkpt>
      <trkpt lat="43.78251" lon="7.28021">
        <ele>303.60000610352</ele>
        <time>2021-02-04T10:38:19.000Z</time>
      </trkpt>
      <trkpt lat="43.78265" lon="7.28015">
        <ele>304.39999389648</ele>
        <time>2021-02-04T10:38:25.000Z</time>
      </trkpt>
      <trkpt lat="43.78267" lon="7.28011">
        <ele>305</ele>
        <time>2021-02-04T10:38:29.000Z</time>
      </trkpt>
      <trkpt lat="43.78268" lon="7.2801">
        <ele>305.39999389648</ele>
        <time>2021-02-04T10:38:31.000Z</time>
      </trkpt>
      <trkpt lat="43.78269" lon="7.28009">
        <ele>306.20001220703</ele>
        <time>2021-02-04T10:38:36.000Z</time>
      </trkpt>
      <trkpt lat="43.78269" lon="7.28008">
        <ele>306.39999389648</ele>
        <time>2021-02-04T10:38:37.000Z</time>
      </trkpt>
      <trkpt lat="43.7827" lon="7.28004">
        <ele>307</ele>
        <time>2021-02-04T10:38:42.000Z</time>
      </trkpt>
      <trkpt lat="43.7827" lon="7.28001">
        <ele>307.60000610352</ele>
        <time>2021-02-04T10:38:45.000Z</time>
      </trkpt>
      <trkpt lat="43.78272" lon="7.27999">
        <ele>308.79998779297</ele>
        <time>2021-02-04T10:38:50.000Z</time>
      </trkpt>
      <trkpt lat="43.78276" lon="7.27995">
        <ele>309.79998779297</ele>
        <time>2021-02-04T10:38:56.000Z</time>
      </trkpt>
      <trkpt lat="43.78276" lon="7.27995">
        <ele>310</ele>
        <time>2021-02-04T10:38:57.000Z</time>
      </trkpt>
      <trkpt lat="43.78278" lon="7.27992">
        <ele>310.79998779297</ele>
        <time>2021-02-04T10:39:01.000Z</time>
      </trkpt>
      <trkpt lat="43.78278" lon="7.27992">
        <ele>311.39999389648</ele>
        <time>2021-02-04T10:39:03.000Z</time>
      </trkpt>
      <trkpt lat="43.78282" lon="7.27991">
        <ele>311.79998779297</ele>
        <time>2021-02-04T10:39:11.000Z</time>
      </trkpt>
      <trkpt lat="43.78284" lon="7.27989">
        <ele>311.79998779297</ele>
        <time>2021-02-04T10:39:12.000Z</time>
      </trkpt>
      <trkpt lat="43.78289" lon="7.27985">
        <ele>312.39999389648</ele>
        <time>2021-02-04T10:39:15.000Z</time>
      </trkpt>
      <trkpt lat="43.7829" lon="7.27985">
        <ele>312.79998779297</ele>
        <time>2021-02-04T10:39:16.000Z</time>
      </trkpt>
      <trkpt lat="43.78293" lon="7.27985">
        <ele>314</ele>
        <time>2021-02-04T10:39:18.000Z</time>
      </trkpt>
      <trkpt lat="43.78296" lon="7.27984">
        <ele>315.39999389648</ele>
        <time>2021-02-04T10:39:20.000Z</time>
      </trkpt>
      <trkpt lat="43.78298" lon="7.27983">
        <ele>315.60000610352</ele>
        <time>2021-02-04T10:39:21.000Z</time>
      </trkpt>
      <trkpt lat="43.78303" lon="7.27977">
        <ele>316.60000610352</ele>
        <time>2021-02-04T10:39:25.000Z</time>
      </trkpt>
      <trkpt lat="43.78306" lon="7.27974">
        <ele>317.60000610352</ele>
        <time>2021-02-04T10:39:27.000Z</time>
      </trkpt>
      <trkpt lat="43.78307" lon="7.27974">
        <ele>318.20001220703</ele>
        <time>2021-02-04T10:39:28.000Z</time>
      </trkpt>
      <trkpt lat="43.7831" lon="7.2797">
        <ele>319.60000610352</ele>
        <time>2021-02-04T10:39:31.000Z</time>
      </trkpt>
      <trkpt lat="43.78313" lon="7.27964">
        <ele>320.39999389648</ele>
        <time>2021-02-04T10:39:33.000Z</time>
      </trkpt>
      <trkpt lat="43.78314" lon="7.27962">
        <ele>321</ele>
        <time>2021-02-04T10:39:34.000Z</time>
      </trkpt>
      <trkpt lat="43.78315" lon="7.27958">
        <ele>322</ele>
        <time>2021-02-04T10:39:36.000Z</time>
      </trkpt>
      <trkpt lat="43.78317" lon="7.27958">
        <ele>322.79998779297</ele>
        <time>2021-02-04T10:39:37.000Z</time>
      </trkpt>
      <trkpt lat="43.78318" lon="7.27959">
        <ele>323.39999389648</ele>
        <time>2021-02-04T10:39:38.000Z</time>
      </trkpt>
      <trkpt lat="43.78322" lon="7.27959">
        <ele>324.60000610352</ele>
        <time>2021-02-04T10:39:41.000Z</time>
      </trkpt>
      <trkpt lat="43.78322" lon="7.27959">
        <ele>325.20001220703</ele>
        <time>2021-02-04T10:39:44.000Z</time>
      </trkpt>
      <trkpt lat="43.78324" lon="7.27958">
        <ele>325.39999389648</ele>
        <time>2021-02-04T10:39:51.000Z</time>
      </trkpt>
      <trkpt lat="43.78324" lon="7.27958">
        <ele>325.20001220703</ele>
        <time>2021-02-04T10:39:57.000Z</time>
      </trkpt>
      <trkpt lat="43.78321" lon="7.27955">
        <ele>325.79998779297</ele>
        <time>2021-02-04T10:40:03.000Z</time>
      </trkpt>
      <trkpt lat="43.78321" lon="7.27955">
        <ele>325.79998779297</ele>
        <time>2021-02-04T10:40:04.000Z</time>
      </trkpt>
      <trkpt lat="43.78318" lon="7.27953">
        <ele>326.79998779297</ele>
        <time>2021-02-04T10:40:13.000Z</time>
      </trkpt>
      <trkpt lat="43.78319" lon="7.27952">
        <ele>327.39999389648</ele>
        <time>2021-02-04T10:40:22.000Z</time>
      </trkpt>
      <trkpt lat="43.7832" lon="7.27949">
        <ele>327.39999389648</ele>
        <time>2021-02-04T10:40:30.000Z</time>
      </trkpt>
      <trkpt lat="43.78322" lon="7.27949">
        <ele>327.79998779297</ele>
        <time>2021-02-04T10:40:32.000Z</time>
      </trkpt>
      <trkpt lat="43.78324" lon="7.27949">
        <ele>328.39999389648</ele>
        <time>2021-02-04T10:40:35.000Z</time>
      </trkpt>
      <trkpt lat="43.78327" lon="7.2795">
        <ele>328.79998779297</ele>
        <time>2021-02-04T10:40:40.000Z</time>
      </trkpt>
      <trkpt lat="43.78327" lon="7.2795">
        <ele>329</ele>
        <time>2021-02-04T10:40:41.000Z</time>
      </trkpt>
      <trkpt lat="43.7833" lon="7.27951">
        <ele>329.60000610352</ele>
        <time>2021-02-04T10:40:46.000Z</time>
      </trkpt>
      <trkpt lat="43.78331" lon="7.27951">
        <ele>330</ele>
        <time>2021-02-04T10:40:49.000Z</time>
      </trkpt>
      <trkpt lat="43.78332" lon="7.27949">
        <ele>330.60000610352</ele>
        <time>2021-02-04T10:40:53.000Z</time>
      </trkpt>
      <trkpt lat="43.78332" lon="7.27949">
        <ele>330.79998779297</ele>
        <time>2021-02-04T10:41:00.000Z</time>
      </trkpt>
      <trkpt lat="43.7833" lon="7.27946">
        <ele>330.60000610352</ele>
        <time>2021-02-04T10:41:06.000Z</time>
      </trkpt>
      <trkpt lat="43.7833" lon="7.27946">
        <ele>331</ele>
        <time>2021-02-04T10:41:10.000Z</time>
      </trkpt>
      <trkpt lat="43.7833" lon="7.27946">
        <ele>331.20001220703</ele>
        <time>2021-02-04T10:41:12.000Z</time>
      </trkpt>
      <trkpt lat="43.7833" lon="7.27943">
        <ele>331.39999389648</ele>
        <time>2021-02-04T10:41:22.000Z</time>
      </trkpt>
      <trkpt lat="43.78328" lon="7.27939">
        <ele>331.79998779297</ele>
        <time>2021-02-04T10:41:27.000Z</time>
      </trkpt>
      <trkpt lat="43.78328" lon="7.27939">
        <ele>332</ele>
        <time>2021-02-04T10:41:28.000Z</time>
      </trkpt>
      <trkpt lat="43.78328" lon="7.27935">
        <ele>332.60000610352</ele>
        <time>2021-02-04T10:41:32.000Z</time>
      </trkpt>
      <trkpt lat="43.7833" lon="7.27934">
        <ele>332.79998779297</ele>
        <time>2021-02-04T10:41:34.000Z</time>
      </trkpt>
      <trkpt lat="43.7833" lon="7.27934">
        <ele>333.20001220703</ele>
        <time>2021-02-04T10:41:35.000Z</time>
      </trkpt>
      <trkpt lat="43.78331" lon="7.27934">
        <ele>333.79998779297</ele>
        <time>2021-02-04T10:41:40.000Z</time>
      </trkpt>
      <trkpt lat="43.78332" lon="7.27934">
        <ele>333.79998779297</ele>
        <time>2021-02-04T10:41:46.000Z</time>
      </trkpt>
      <trkpt lat="43.78337" lon="7.27936">
        <ele>334.20001220703</ele>
        <time>2021-02-04T10:41:52.000Z</time>
      </trkpt>
      <trkpt lat="43.78337" lon="7.27934">
        <ele>335.20001220703</ele>
        <time>2021-02-04T10:41:57.000Z</time>
      </trkpt>
      <trkpt lat="43.78337" lon="7.27931">
        <ele>335.60000610352</ele>
        <time>2021-02-04T10:42:02.000Z</time>
      </trkpt>
      <trkpt lat="43.78336" lon="7.27929">
        <ele>336.39999389648</ele>
        <time>2021-02-04T10:42:08.000Z</time>
      </trkpt>
      <trkpt lat="43.78336" lon="7.27929">
        <ele>336.39999389648</ele>
        <time>2021-02-04T10:42:09.000Z</time>
      </trkpt>
      <trkpt lat="43.78335" lon="7.27922">
        <ele>336.60000610352</ele>
        <time>2021-02-04T10:42:15.000Z</time>
      </trkpt>
      <trkpt lat="43.78337" lon="7.27913">
        <ele>337.39999389648</ele>
        <time>2021-02-04T10:42:19.000Z</time>
      </trkpt>
      <trkpt lat="43.78338" lon="7.27911">
        <ele>337.79998779297</ele>
        <time>2021-02-04T10:42:20.000Z</time>
      </trkpt>
      <trkpt lat="43.78341" lon="7.27909">
        <ele>338.79998779297</ele>
        <time>2021-02-04T10:42:22.000Z</time>
      </trkpt>
      <trkpt lat="43.78345" lon="7.2791">
        <ele>340</ele>
        <time>2021-02-04T10:42:24.000Z</time>
      </trkpt>
      <trkpt lat="43.78348" lon="7.2791">
        <ele>341.20001220703</ele>
        <time>2021-02-04T10:42:26.000Z</time>
      </trkpt>
      <trkpt lat="43.78353" lon="7.27907">
        <ele>342</ele>
        <time>2021-02-04T10:42:29.000Z</time>
      </trkpt>
      <trkpt lat="43.78355" lon="7.27906">
        <ele>342.39999389648</ele>
        <time>2021-02-04T10:42:31.000Z</time>
      </trkpt>
      <trkpt lat="43.78357" lon="7.27902">
        <ele>342.79998779297</ele>
        <time>2021-02-04T10:42:33.000Z</time>
      </trkpt>
      <trkpt lat="43.78357" lon="7.27902">
        <ele>343.39999389648</ele>
        <time>2021-02-04T10:42:34.000Z</time>
      </trkpt>
      <trkpt lat="43.78356" lon="7.27899">
        <ele>344.20001220703</ele>
        <time>2021-02-04T10:42:36.000Z</time>
      </trkpt>
      <trkpt lat="43.78355" lon="7.27899">
        <ele>344.60000610352</ele>
        <time>2021-02-04T10:42:37.000Z</time>
      </trkpt>
      <trkpt lat="43.78353" lon="7.27895">
        <ele>345.60000610352</ele>
        <time>2021-02-04T10:42:41.000Z</time>
      </trkpt>
      <trkpt lat="43.78354" lon="7.27894">
        <ele>345.79998779297</ele>
        <time>2021-02-04T10:42:42.000Z</time>
      </trkpt>
      <trkpt lat="43.78356" lon="7.27892">
        <ele>346.60000610352</ele>
        <time>2021-02-04T10:42:44.000Z</time>
      </trkpt>
      <trkpt lat="43.7836" lon="7.2789">
        <ele>347.60000610352</ele>
        <time>2021-02-04T10:42:47.000Z</time>
      </trkpt>
      <trkpt lat="43.78362" lon="7.27889">
        <ele>347.79998779297</ele>
        <time>2021-02-04T10:42:48.000Z</time>
      </trkpt>
      <trkpt lat="43.78364" lon="7.27889">
        <ele>348.20001220703</ele>
        <time>2021-02-04T10:42:49.000Z</time>
      </trkpt>
      <trkpt lat="43.78367" lon="7.27886">
        <ele>349</ele>
        <time>2021-02-04T10:42:52.000Z</time>
      </trkpt>
      <trkpt lat="43.78371" lon="7.27881">
        <ele>350.20001220703</ele>
        <time>2021-02-04T10:42:55.000Z</time>
      </trkpt>
      <trkpt lat="43.78373" lon="7.27879">
        <ele>351.60000610352</ele>
        <time>2021-02-04T10:42:57.000Z</time>
      </trkpt>
      <trkpt lat="43.78374" lon="7.27879">
        <ele>352.79998779297</ele>
        <time>2021-02-04T10:42:59.000Z</time>
      </trkpt>
      <trkpt lat="43.78374" lon="7.27878">
        <ele>353.60000610352</ele>
        <time>2021-02-04T10:43:03.000Z</time>
      </trkpt>
      <trkpt lat="43.78375" lon="7.27877">
        <ele>353.79998779297</ele>
        <time>2021-02-04T10:43:06.000Z</time>
      </trkpt>
      <trkpt lat="43.78376" lon="7.27877">
        <ele>353.79998779297</ele>
        <time>2021-02-04T10:43:11.000Z</time>
      </trkpt>
      <trkpt lat="43.78377" lon="7.27876">
        <ele>353.79998779297</ele>
        <time>2021-02-04T10:43:13.000Z</time>
      </trkpt>
      <trkpt lat="43.78377" lon="7.27876">
        <ele>354</ele>
        <time>2021-02-04T10:43:16.000Z</time>
      </trkpt>
      <trkpt lat="43.7838" lon="7.27873">
        <ele>354</ele>
        <time>2021-02-04T10:43:22.000Z</time>
      </trkpt>
      <trkpt lat="43.78381" lon="7.27871">
        <ele>354.79998779297</ele>
        <time>2021-02-04T10:43:25.000Z</time>
      </trkpt>
      <trkpt lat="43.78384" lon="7.2787">
        <ele>355.79998779297</ele>
        <time>2021-02-04T10:43:30.000Z</time>
      </trkpt>
      <trkpt lat="43.78384" lon="7.2787">
        <ele>356</ele>
        <time>2021-02-04T10:43:31.000Z</time>
      </trkpt>
      <trkpt lat="43.78385" lon="7.27869">
        <ele>356.39999389648</ele>
        <time>2021-02-04T10:43:35.000Z</time>
      </trkpt>
      <trkpt lat="43.78384" lon="7.27869">
        <ele>356.60000610352</ele>
        <time>2021-02-04T10:43:40.000Z</time>
      </trkpt>
      <trkpt lat="43.78381" lon="7.27866">
        <ele>356.79998779297</ele>
        <time>2021-02-04T10:43:49.000Z</time>
      </trkpt>
      <trkpt lat="43.7838" lon="7.27865">
        <ele>357</ele>
        <time>2021-02-04T10:43:51.000Z</time>
      </trkpt>
      <trkpt lat="43.7838" lon="7.27865">
        <ele>357.39999389648</ele>
        <time>2021-02-04T10:43:53.000Z</time>
      </trkpt>
      <trkpt lat="43.78377" lon="7.27861">
        <ele>358</ele>
        <time>2021-02-04T10:44:00.000Z</time>
      </trkpt>
      <trkpt lat="43.78377" lon="7.2786">
        <ele>358</ele>
        <time>2021-02-04T10:44:01.000Z</time>
      </trkpt>
      <trkpt lat="43.78377" lon="7.27857">
        <ele>358.79998779297</ele>
        <time>2021-02-04T10:44:05.000Z</time>
      </trkpt>
      <trkpt lat="43.78377" lon="7.27858">
        <ele>359</ele>
        <time>2021-02-04T10:44:06.000Z</time>
      </trkpt>
      <trkpt lat="43.78377" lon="7.27856">
        <ele>359.39999389648</ele>
        <time>2021-02-04T10:44:10.000Z</time>
      </trkpt>
      <trkpt lat="43.7838" lon="7.27852">
        <ele>359.79998779297</ele>
        <time>2021-02-04T10:44:17.000Z</time>
      </trkpt>
      <trkpt lat="43.78381" lon="7.27851">
        <ele>360</ele>
        <time>2021-02-04T10:44:18.000Z</time>
      </trkpt>
      <trkpt lat="43.78383" lon="7.2785">
        <ele>360.20001220703</ele>
        <time>2021-02-04T10:44:19.000Z</time>
      </trkpt>
      <trkpt lat="43.78386" lon="7.27845">
        <ele>361</ele>
        <time>2021-02-04T10:44:22.000Z</time>
      </trkpt>
      <trkpt lat="43.78387" lon="7.27842">
        <ele>361.39999389648</ele>
        <time>2021-02-04T10:44:23.000Z</time>
      </trkpt>
      <trkpt lat="43.78386" lon="7.2784">
        <ele>361.60000610352</ele>
        <time>2021-02-04T10:44:24.000Z</time>
      </trkpt>
      <trkpt lat="43.78386" lon="7.27831">
        <ele>362</ele>
        <time>2021-02-04T10:44:27.000Z</time>
      </trkpt>
      <trkpt lat="43.78387" lon="7.27828">
        <ele>362.20001220703</ele>
        <time>2021-02-04T10:44:28.000Z</time>
      </trkpt>
      <trkpt lat="43.78388" lon="7.27825">
        <ele>362.39999389648</ele>
        <time>2021-02-04T10:44:29.000Z</time>
      </trkpt>
      <trkpt lat="43.78389" lon="7.27818">
        <ele>362.60000610352</ele>
        <time>2021-02-04T10:44:31.000Z</time>
      </trkpt>
      <trkpt lat="43.78393" lon="7.278">
        <ele>363</ele>
        <time>2021-02-04T10:44:36.000Z</time>
      </trkpt>
      <trkpt lat="43.78399" lon="7.27785">
        <ele>363.60000610352</ele>
        <time>2021-02-04T10:44:40.000Z</time>
      </trkpt>
      <trkpt lat="43.78404" lon="7.2778">
        <ele>364</ele>
        <time>2021-02-04T10:44:42.000Z</time>
      </trkpt>
      <trkpt lat="43.78412" lon="7.27768">
        <ele>364</ele>
        <time>2021-02-04T10:44:46.000Z</time>
      </trkpt>
      <trkpt lat="43.78413" lon="7.27763">
        <ele>364</ele>
        <time>2021-02-04T10:44:47.000Z</time>
      </trkpt>
      <trkpt lat="43.78417" lon="7.27752">
        <ele>365</ele>
        <time>2021-02-04T10:44:50.000Z</time>
      </trkpt>
      <trkpt lat="43.78418" lon="7.2775">
        <ele>365.39999389648</ele>
        <time>2021-02-04T10:44:51.000Z</time>
      </trkpt>
      <trkpt lat="43.78419" lon="7.27747">
        <ele>366</ele>
        <time>2021-02-04T10:44:52.000Z</time>
      </trkpt>
      <trkpt lat="43.78423" lon="7.27743">
        <ele>367.39999389648</ele>
        <time>2021-02-04T10:44:54.000Z</time>
      </trkpt>
      <trkpt lat="43.78425" lon="7.27742">
        <ele>368</ele>
        <time>2021-02-04T10:44:55.000Z</time>
      </trkpt>
      <trkpt lat="43.78428" lon="7.27742">
        <ele>368.39999389648</ele>
        <time>2021-02-04T10:44:56.000Z</time>
      </trkpt>
      <trkpt lat="43.78435" lon="7.27737">
        <ele>369</ele>
        <time>2021-02-04T10:44:59.000Z</time>
      </trkpt>
      <trkpt lat="43.78436" lon="7.27733">
        <ele>369</ele>
        <time>2021-02-04T10:45:00.000Z</time>
      </trkpt>
      <trkpt lat="43.78444" lon="7.27725">
        <ele>369.79998779297</ele>
        <time>2021-02-04T10:45:03.000Z</time>
      </trkpt>
      <trkpt lat="43.7845" lon="7.27722">
        <ele>370.79998779297</ele>
        <time>2021-02-04T10:45:05.000Z</time>
      </trkpt>
      <trkpt lat="43.78455" lon="7.27718">
        <ele>372.20001220703</ele>
        <time>2021-02-04T10:45:07.000Z</time>
      </trkpt>
      <trkpt lat="43.7846" lon="7.27715">
        <ele>373.39999389648</ele>
        <time>2021-02-04T10:45:09.000Z</time>
      </trkpt>
      <trkpt lat="43.78466" lon="7.27714">
        <ele>374.60000610352</ele>
        <time>2021-02-04T10:45:11.000Z</time>
      </trkpt>
      <trkpt lat="43.78475" lon="7.27711">
        <ele>375.60000610352</ele>
        <time>2021-02-04T10:45:14.000Z</time>
      </trkpt>
      <trkpt lat="43.78488" lon="7.27708">
        <ele>376.20001220703</ele>
        <time>2021-02-04T10:45:18.000Z</time>
      </trkpt>
      <trkpt lat="43.78494" lon="7.27707">
        <ele>376.60000610352</ele>
        <time>2021-02-04T10:45:20.000Z</time>
      </trkpt>
      <trkpt lat="43.78511" lon="7.27706">
        <ele>377.60000610352</ele>
        <time>2021-02-04T10:45:25.000Z</time>
      </trkpt>
      <trkpt lat="43.78513" lon="7.27706">
        <ele>377.79998779297</ele>
        <time>2021-02-04T10:45:26.000Z</time>
      </trkpt>
      <trkpt lat="43.78529" lon="7.27705">
        <ele>378.60000610352</ele>
        <time>2021-02-04T10:45:30.000Z</time>
      </trkpt>
      <trkpt lat="43.78533" lon="7.27705">
        <ele>378.79998779297</ele>
        <time>2021-02-04T10:45:31.000Z</time>
      </trkpt>
      <trkpt lat="43.78544" lon="7.27703">
        <ele>380</ele>
        <time>2021-02-04T10:45:34.000Z</time>
      </trkpt>
      <trkpt lat="43.78546" lon="7.27702">
        <ele>380.79998779297</ele>
        <time>2021-02-04T10:45:35.000Z</time>
      </trkpt>
      <trkpt lat="43.78548" lon="7.27702">
        <ele>381.60000610352</ele>
        <time>2021-02-04T10:45:36.000Z</time>
      </trkpt>
      <trkpt lat="43.78553" lon="7.27702">
        <ele>383</ele>
        <time>2021-02-04T10:45:38.000Z</time>
      </trkpt>
      <trkpt lat="43.78559" lon="7.27701">
        <ele>384.60000610352</ele>
        <time>2021-02-04T10:45:40.000Z</time>
      </trkpt>
      <trkpt lat="43.78561" lon="7.27701">
        <ele>385</ele>
        <time>2021-02-04T10:45:41.000Z</time>
      </trkpt>
      <trkpt lat="43.78565" lon="7.27699">
        <ele>385.79998779297</ele>
        <time>2021-02-04T10:45:42.000Z</time>
      </trkpt>
      <trkpt lat="43.7857" lon="7.27697">
        <ele>387</ele>
        <time>2021-02-04T10:45:44.000Z</time>
      </trkpt>
      <trkpt lat="43.78573" lon="7.27695">
        <ele>388</ele>
        <time>2021-02-04T10:45:46.000Z</time>
      </trkpt>
      <trkpt lat="43.78575" lon="7.2769">
        <ele>389.20001220703</ele>
        <time>2021-02-04T10:45:48.000Z</time>
      </trkpt>
      <trkpt lat="43.78577" lon="7.27687">
        <ele>389.79998779297</ele>
        <time>2021-02-04T10:45:49.000Z</time>
      </trkpt>
      <trkpt lat="43.78577" lon="7.27686">
        <ele>390.39999389648</ele>
        <time>2021-02-04T10:45:50.000Z</time>
      </trkpt>
      <trkpt lat="43.78577" lon="7.27683">
        <ele>391.60000610352</ele>
        <time>2021-02-04T10:45:52.000Z</time>
      </trkpt>
      <trkpt lat="43.78576" lon="7.2768">
        <ele>392</ele>
        <time>2021-02-04T10:45:53.000Z</time>
      </trkpt>
      <trkpt lat="43.78573" lon="7.27672">
        <ele>392.60000610352</ele>
        <time>2021-02-04T10:45:55.000Z</time>
      </trkpt>
      <trkpt lat="43.78569" lon="7.27661">
        <ele>392.39999389648</ele>
        <time>2021-02-04T10:45:58.000Z</time>
      </trkpt>
      <trkpt lat="43.78561" lon="7.27642">
        <ele>392.39999389648</ele>
        <time>2021-02-04T10:46:03.000Z</time>
      </trkpt>
      <trkpt lat="43.78558" lon="7.27634">
        <ele>393</ele>
        <time>2021-02-04T10:46:07.000Z</time>
      </trkpt>
      <trkpt lat="43.78558" lon="7.27632">
        <ele>393.39999389648</ele>
        <time>2021-02-04T10:46:08.000Z</time>
      </trkpt>
      <trkpt lat="43.78558" lon="7.2763">
        <ele>393.79998779297</ele>
        <time>2021-02-04T10:46:09.000Z</time>
      </trkpt>
      <trkpt lat="43.78558" lon="7.27628">
        <ele>394.60000610352</ele>
        <time>2021-02-04T10:46:12.000Z</time>
      </trkpt>
      <trkpt lat="43.78556" lon="7.27628">
        <ele>394.60000610352</ele>
        <time>2021-02-04T10:46:20.000Z</time>
      </trkpt>
      <trkpt lat="43.78556" lon="7.27627">
        <ele>394.39999389648</ele>
        <time>2021-02-04T10:46:36.000Z</time>
      </trkpt>
      <trkpt lat="43.78556" lon="7.27626">
        <ele>394.60000610352</ele>
        <time>2021-02-04T10:46:44.000Z</time>
      </trkpt>
      <trkpt lat="43.78556" lon="7.27626">
        <ele>394.79998779297</ele>
        <time>2021-02-04T10:46:46.000Z</time>
      </trkpt>
      <trkpt lat="43.78556" lon="7.27626">
        <ele>394.60000610352</ele>
        <time>2021-02-04T10:46:53.000Z</time>
      </trkpt>
      <trkpt lat="43.78556" lon="7.27626">
        <ele>394.79998779297</ele>
        <time>2021-02-04T10:46:59.000Z</time>
      </trkpt>
      <trkpt lat="43.78558" lon="7.27626">
        <ele>394.79998779297</ele>
        <time>2021-02-04T10:47:20.000Z</time>
      </trkpt>
      <trkpt lat="43.7856" lon="7.27626">
        <ele>394.79998779297</ele>
        <time>2021-02-04T10:47:34.000Z</time>
      </trkpt>
      <trkpt lat="43.78557" lon="7.27625">
        <ele>394.79998779297</ele>
        <time>2021-02-04T10:47:44.000Z</time>
      </trkpt>
      <trkpt lat="43.78543" lon="7.27631">
        <ele>395.39999389648</ele>
        <time>2021-02-04T10:47:50.000Z</time>
      </trkpt>
      <trkpt lat="43.78539" lon="7.27631">
        <ele>396</ele>
        <time>2021-02-04T10:47:52.000Z</time>
      </trkpt>
      <trkpt lat="43.78533" lon="7.27633">
        <ele>397.20001220703</ele>
        <time>2021-02-04T10:47:55.000Z</time>
      </trkpt>
      <trkpt lat="43.78526" lon="7.27635">
        <ele>398.60000610352</ele>
        <time>2021-02-04T10:47:58.000Z</time>
      </trkpt>
      <trkpt lat="43.78523" lon="7.27637">
        <ele>399.60000610352</ele>
        <time>2021-02-04T10:48:00.000Z</time>
      </trkpt>
      <trkpt lat="43.78522" lon="7.27638">
        <ele>400</ele>
        <time>2021-02-04T10:48:01.000Z</time>
      </trkpt>
      <trkpt lat="43.78519" lon="7.27637">
        <ele>400.60000610352</ele>
        <time>2021-02-04T10:48:03.000Z</time>
      </trkpt>
      <trkpt lat="43.78519" lon="7.27635">
        <ele>400.79998779297</ele>
        <time>2021-02-04T10:48:04.000Z</time>
      </trkpt>
      <trkpt lat="43.78522" lon="7.27633">
        <ele>401.20001220703</ele>
        <time>2021-02-04T10:48:06.000Z</time>
      </trkpt>
      <trkpt lat="43.78526" lon="7.27629">
        <ele>401.79998779297</ele>
        <time>2021-02-04T10:48:08.000Z</time>
      </trkpt>
      <trkpt lat="43.78532" lon="7.27619">
        <ele>403</ele>
        <time>2021-02-04T10:48:12.000Z</time>
      </trkpt>
      <trkpt lat="43.78532" lon="7.27612">
        <ele>403.60000610352</ele>
        <time>2021-02-04T10:48:14.000Z</time>
      </trkpt>
      <trkpt lat="43.78532" lon="7.27609">
        <ele>404.20001220703</ele>
        <time>2021-02-04T10:48:15.000Z</time>
      </trkpt>
      <trkpt lat="43.78532" lon="7.27607">
        <ele>404.60000610352</ele>
        <time>2021-02-04T10:48:16.000Z</time>
      </trkpt>
      <trkpt lat="43.7853" lon="7.27605">
        <ele>405.20001220703</ele>
        <time>2021-02-04T10:48:17.000Z</time>
      </trkpt>
      <trkpt lat="43.78527" lon="7.27602">
        <ele>406.39999389648</ele>
        <time>2021-02-04T10:48:19.000Z</time>
      </trkpt>
      <trkpt lat="43.78525" lon="7.27603">
        <ele>406.79998779297</ele>
        <time>2021-02-04T10:48:20.000Z</time>
      </trkpt>
      <trkpt lat="43.78527" lon="7.2761">
        <ele>407.60000610352</ele>
        <time>2021-02-04T10:48:23.000Z</time>
      </trkpt>
      <trkpt lat="43.78522" lon="7.27623">
        <ele>408</ele>
        <time>2021-02-04T10:48:27.000Z</time>
      </trkpt>
      <trkpt lat="43.78516" lon="7.27628">
        <ele>408.79998779297</ele>
        <time>2021-02-04T10:48:30.000Z</time>
      </trkpt>
      <trkpt lat="43.78514" lon="7.27629">
        <ele>409.20001220703</ele>
        <time>2021-02-04T10:48:31.000Z</time>
      </trkpt>
      <trkpt lat="43.78511" lon="7.2763">
        <ele>409.60000610352</ele>
        <time>2021-02-04T10:48:32.000Z</time>
      </trkpt>
      <trkpt lat="43.78509" lon="7.27631">
        <ele>410.20001220703</ele>
        <time>2021-02-04T10:48:33.000Z</time>
      </trkpt>
      <trkpt lat="43.78503" lon="7.27631">
        <ele>411.60000610352</ele>
        <time>2021-02-04T10:48:36.000Z</time>
      </trkpt>
      <trkpt lat="43.78501" lon="7.2763">
        <ele>412.20001220703</ele>
        <time>2021-02-04T10:48:37.000Z</time>
      </trkpt>
      <trkpt lat="43.78501" lon="7.27628">
        <ele>412.60000610352</ele>
        <time>2021-02-04T10:48:38.000Z</time>
      </trkpt>
      <trkpt lat="43.78502" lon="7.27628">
        <ele>413</ele>
        <time>2021-02-04T10:48:39.000Z</time>
      </trkpt>
      <trkpt lat="43.785" lon="7.27628">
        <ele>413.39999389648</ele>
        <time>2021-02-04T10:48:40.000Z</time>
      </trkpt>
      <trkpt lat="43.78497" lon="7.27626">
        <ele>414.20001220703</ele>
        <time>2021-02-04T10:48:42.000Z</time>
      </trkpt>
      <trkpt lat="43.78493" lon="7.27626">
        <ele>415.20001220703</ele>
        <time>2021-02-04T10:48:45.000Z</time>
      </trkpt>
      <trkpt lat="43.78489" lon="7.27626">
        <ele>415.79998779297</ele>
        <time>2021-02-04T10:48:47.000Z</time>
      </trkpt>
      <trkpt lat="43.78487" lon="7.27627">
        <ele>416.39999389648</ele>
        <time>2021-02-04T10:48:49.000Z</time>
      </trkpt>
      <trkpt lat="43.78485" lon="7.27628">
        <ele>416.60000610352</ele>
        <time>2021-02-04T10:48:50.000Z</time>
      </trkpt>
      <trkpt lat="43.78482" lon="7.27628">
        <ele>417.39999389648</ele>
        <time>2021-02-04T10:48:53.000Z</time>
      </trkpt>
      <trkpt lat="43.7848" lon="7.27627">
        <ele>417.60000610352</ele>
        <time>2021-02-04T10:48:54.000Z</time>
      </trkpt>
      <trkpt lat="43.78478" lon="7.27626">
        <ele>418</ele>
        <time>2021-02-04T10:48:55.000Z</time>
      </trkpt>
      <trkpt lat="43.78475" lon="7.27625">
        <ele>418.79998779297</ele>
        <time>2021-02-04T10:48:57.000Z</time>
      </trkpt>
      <trkpt lat="43.78473" lon="7.27626">
        <ele>419.20001220703</ele>
        <time>2021-02-04T10:48:58.000Z</time>
      </trkpt>
      <trkpt lat="43.78472" lon="7.27625">
        <ele>419.60000610352</ele>
        <time>2021-02-04T10:48:59.000Z</time>
      </trkpt>
      <trkpt lat="43.7847" lon="7.27624">
        <ele>420.20001220703</ele>
        <time>2021-02-04T10:49:00.000Z</time>
      </trkpt>
      <trkpt lat="43.78465" lon="7.27622">
        <ele>421.20001220703</ele>
        <time>2021-02-04T10:49:03.000Z</time>
      </trkpt>
      <trkpt lat="43.78464" lon="7.27622">
        <ele>421.39999389648</ele>
        <time>2021-02-04T10:49:04.000Z</time>
      </trkpt>
      <trkpt lat="43.78461" lon="7.27623">
        <ele>421.79998779297</ele>
        <time>2021-02-04T10:49:07.000Z</time>
      </trkpt>
      <trkpt lat="43.78459" lon="7.27624">
        <ele>421.79998779297</ele>
        <time>2021-02-04T10:49:08.000Z</time>
      </trkpt>
      <trkpt lat="43.78447" lon="7.27634">
        <ele>422.39999389648</ele>
        <time>2021-02-04T10:49:14.000Z</time>
      </trkpt>
      <trkpt lat="43.78442" lon="7.27636">
        <ele>423</ele>
        <time>2021-02-04T10:49:16.000Z</time>
      </trkpt>
      <trkpt lat="43.78439" lon="7.27635">
        <ele>423.79998779297</ele>
        <time>2021-02-04T10:49:18.000Z</time>
      </trkpt>
      <trkpt lat="43.78437" lon="7.27632">
        <ele>424.60000610352</ele>
        <time>2021-02-04T10:49:20.000Z</time>
      </trkpt>
      <trkpt lat="43.78437" lon="7.27633">
        <ele>424.79998779297</ele>
        <time>2021-02-04T10:49:21.000Z</time>
      </trkpt>
      <trkpt lat="43.78435" lon="7.27634">
        <ele>425</ele>
        <time>2021-02-04T10:49:22.000Z</time>
      </trkpt>
      <trkpt lat="43.78432" lon="7.27637">
        <ele>425.60000610352</ele>
        <time>2021-02-04T10:49:24.000Z</time>
      </trkpt>
      <trkpt lat="43.7843" lon="7.27639">
        <ele>426</ele>
        <time>2021-02-04T10:49:26.000Z</time>
      </trkpt>
      <trkpt lat="43.78425" lon="7.27641">
        <ele>427</ele>
        <time>2021-02-04T10:49:28.000Z</time>
      </trkpt>
      <trkpt lat="43.7842" lon="7.27641">
        <ele>428.39999389648</ele>
        <time>2021-02-04T10:49:31.000Z</time>
      </trkpt>
      <trkpt lat="43.7842" lon="7.27642">
        <ele>428.60000610352</ele>
        <time>2021-02-04T10:49:32.000Z</time>
      </trkpt>
      <trkpt lat="43.78416" lon="7.27643">
        <ele>429.39999389648</ele>
        <time>2021-02-04T10:49:35.000Z</time>
      </trkpt>
      <trkpt lat="43.78414" lon="7.27643">
        <ele>429.79998779297</ele>
        <time>2021-02-04T10:49:37.000Z</time>
      </trkpt>
      <trkpt lat="43.78411" lon="7.27638">
        <ele>430</ele>
        <time>2021-02-04T10:49:41.000Z</time>
      </trkpt>
      <trkpt lat="43.78407" lon="7.27631">
        <ele>429.79998779297</ele>
        <time>2021-02-04T10:49:47.000Z</time>
      </trkpt>
      <trkpt lat="43.78406" lon="7.27632">
        <ele>429</ele>
        <time>2021-02-04T10:49:53.000Z</time>
      </trkpt>
      <trkpt lat="43.78406" lon="7.27633">
        <ele>429.39999389648</ele>
        <time>2021-02-04T10:49:59.000Z</time>
      </trkpt>
      <trkpt lat="43.78405" lon="7.27634">
        <ele>429.60000610352</ele>
        <time>2021-02-04T10:50:08.000Z</time>
      </trkpt>
      <trkpt lat="43.78404" lon="7.27634">
        <ele>429.60000610352</ele>
        <time>2021-02-04T10:50:21.000Z</time>
      </trkpt>
      <trkpt lat="43.78403" lon="7.27634">
        <ele>429.39999389648</ele>
        <time>2021-02-04T10:50:30.000Z</time>
      </trkpt>
      <trkpt lat="43.78403" lon="7.27634">
        <ele>429.20001220703</ele>
        <time>2021-02-04T10:50:37.000Z</time>
      </trkpt>
      <trkpt lat="43.78401" lon="7.27634">
        <ele>429.20001220703</ele>
        <time>2021-02-04T10:50:44.000Z</time>
      </trkpt>
      <trkpt lat="43.78401" lon="7.27634">
        <ele>429</ele>
        <time>2021-02-04T10:50:49.000Z</time>
      </trkpt>
      <trkpt lat="43.78401" lon="7.27634">
        <ele>428.39999389648</ele>
        <time>2021-02-04T10:50:54.000Z</time>
      </trkpt>
      <trkpt lat="43.78402" lon="7.27633">
        <ele>428.79998779297</ele>
        <time>2021-02-04T10:50:58.000Z</time>
      </trkpt>
      <trkpt lat="43.78401" lon="7.2763">
        <ele>429</ele>
        <time>2021-02-04T10:51:12.000Z</time>
      </trkpt>
      <trkpt lat="43.784" lon="7.27628">
        <ele>428.79998779297</ele>
        <time>2021-02-04T10:51:25.000Z</time>
      </trkpt>
      <trkpt lat="43.78399" lon="7.2763">
        <ele>429</ele>
        <time>2021-02-04T10:51:37.000Z</time>
      </trkpt>
      <trkpt lat="43.78399" lon="7.2763">
        <ele>428.79998779297</ele>
        <time>2021-02-04T10:51:42.000Z</time>
      </trkpt>
      <trkpt lat="43.78397" lon="7.27629">
        <ele>428.79998779297</ele>
        <time>2021-02-04T10:51:46.000Z</time>
      </trkpt>
      <trkpt lat="43.78396" lon="7.27629">
        <ele>429</ele>
        <time>2021-02-04T10:51:48.000Z</time>
      </trkpt>
      <trkpt lat="43.78395" lon="7.27628">
        <ele>429</ele>
        <time>2021-02-04T10:51:50.000Z</time>
      </trkpt>
      <trkpt lat="43.78389" lon="7.27623">
        <ele>428.60000610352</ele>
        <time>2021-02-04T10:51:53.000Z</time>
      </trkpt>
      <trkpt lat="43.78382" lon="7.27619">
        <ele>427.20001220703</ele>
        <time>2021-02-04T10:51:56.000Z</time>
      </trkpt>
      <trkpt lat="43.78382" lon="7.27618">
        <ele>426.39999389648</ele>
        <time>2021-02-04T10:51:57.000Z</time>
      </trkpt>
      <trkpt lat="43.78382" lon="7.27618">
        <ele>425.79998779297</ele>
        <time>2021-02-04T10:51:58.000Z</time>
      </trkpt>
      <trkpt lat="43.78384" lon="7.27616">
        <ele>424.79998779297</ele>
        <time>2021-02-04T10:52:00.000Z</time>
      </trkpt>
      <trkpt lat="43.78384" lon="7.27616">
        <ele>424.39999389648</ele>
        <time>2021-02-04T10:52:01.000Z</time>
      </trkpt>
      <trkpt lat="43.78386" lon="7.27616">
        <ele>424.39999389648</ele>
        <time>2021-02-04T10:52:02.000Z</time>
      </trkpt>
      <trkpt lat="43.78398" lon="7.27618">
        <ele>423.60000610352</ele>
        <time>2021-02-04T10:52:07.000Z</time>
      </trkpt>
      <trkpt lat="43.78401" lon="7.27617">
        <ele>423.20001220703</ele>
        <time>2021-02-04T10:52:08.000Z</time>
      </trkpt>
      <trkpt lat="43.78407" lon="7.27616">
        <ele>422.20001220703</ele>
        <time>2021-02-04T10:52:10.000Z</time>
      </trkpt>
      <trkpt lat="43.7841" lon="7.27613">
        <ele>420.79998779297</ele>
        <time>2021-02-04T10:52:12.000Z</time>
      </trkpt>
      <trkpt lat="43.78405" lon="7.27609">
        <ele>419.79998779297</ele>
        <time>2021-02-04T10:52:14.000Z</time>
      </trkpt>
      <trkpt lat="43.78402" lon="7.27606">
        <ele>419.20001220703</ele>
        <time>2021-02-04T10:52:15.000Z</time>
      </trkpt>
      <trkpt lat="43.78398" lon="7.27602">
        <ele>418.60000610352</ele>
        <time>2021-02-04T10:52:17.000Z</time>
      </trkpt>
      <trkpt lat="43.78394" lon="7.27601">
        <ele>417.79998779297</ele>
        <time>2021-02-04T10:52:19.000Z</time>
      </trkpt>
      <trkpt lat="43.7839" lon="7.27601">
        <ele>417.39999389648</ele>
        <time>2021-02-04T10:52:20.000Z</time>
      </trkpt>
      <trkpt lat="43.78379" lon="7.27596">
        <ele>416.20001220703</ele>
        <time>2021-02-04T10:52:23.000Z</time>
      </trkpt>
      <trkpt lat="43.78373" lon="7.27596">
        <ele>415.20001220703</ele>
        <time>2021-02-04T10:52:25.000Z</time>
      </trkpt>
      <trkpt lat="43.78372" lon="7.27594">
        <ele>414.60000610352</ele>
        <time>2021-02-04T10:52:26.000Z</time>
      </trkpt>
      <trkpt lat="43.78371" lon="7.27591">
        <ele>414.39999389648</ele>
        <time>2021-02-04T10:52:27.000Z</time>
      </trkpt>
      <trkpt lat="43.78373" lon="7.27589">
        <ele>414</ele>
        <time>2021-02-04T10:52:28.000Z</time>
      </trkpt>
      <trkpt lat="43.78378" lon="7.27586">
        <ele>413.20001220703</ele>
        <time>2021-02-04T10:52:30.000Z</time>
      </trkpt>
      <trkpt lat="43.78382" lon="7.27584">
        <ele>412.60000610352</ele>
        <time>2021-02-04T10:52:31.000Z</time>
      </trkpt>
      <trkpt lat="43.7839" lon="7.27584">
        <ele>411.20001220703</ele>
        <time>2021-02-04T10:52:33.000Z</time>
      </trkpt>
      <trkpt lat="43.78393" lon="7.27584">
        <ele>410.20001220703</ele>
        <time>2021-02-04T10:52:34.000Z</time>
      </trkpt>
      <trkpt lat="43.78397" lon="7.27587">
        <ele>408.20001220703</ele>
        <time>2021-02-04T10:52:36.000Z</time>
      </trkpt>
      <trkpt lat="43.78396" lon="7.27586">
        <ele>407</ele>
        <time>2021-02-04T10:52:37.000Z</time>
      </trkpt>
      <trkpt lat="43.78397" lon="7.27587">
        <ele>405.79998779297</ele>
        <time>2021-02-04T10:52:39.000Z</time>
      </trkpt>
      <trkpt lat="43.78397" lon="7.27587">
        <ele>405.20001220703</ele>
        <time>2021-02-04T10:52:44.000Z</time>
      </trkpt>
      <trkpt lat="43.784" lon="7.27588">
        <ele>405.39999389648</ele>
        <time>2021-02-04T10:52:52.000Z</time>
      </trkpt>
      <trkpt lat="43.78401" lon="7.27587">
        <ele>405.39999389648</ele>
        <time>2021-02-04T10:52:53.000Z</time>
      </trkpt>
      <trkpt lat="43.78405" lon="7.27578">
        <ele>404.60000610352</ele>
        <time>2021-02-04T10:52:56.000Z</time>
      </trkpt>
      <trkpt lat="43.78407" lon="7.27574">
        <ele>403.79998779297</ele>
        <time>2021-02-04T10:52:57.000Z</time>
      </trkpt>
      <trkpt lat="43.78409" lon="7.2757">
        <ele>403.60000610352</ele>
        <time>2021-02-04T10:52:58.000Z</time>
      </trkpt>
      <trkpt lat="43.78414" lon="7.2757">
        <ele>402.60000610352</ele>
        <time>2021-02-04T10:52:59.000Z</time>
      </trkpt>
      <trkpt lat="43.78416" lon="7.2757">
        <ele>401.79998779297</ele>
        <time>2021-02-04T10:53:00.000Z</time>
      </trkpt>
      <trkpt lat="43.7842" lon="7.27569">
        <ele>401</ele>
        <time>2021-02-04T10:53:01.000Z</time>
      </trkpt>
      <trkpt lat="43.78427" lon="7.27566">
        <ele>400</ele>
        <time>2021-02-04T10:53:02.000Z</time>
      </trkpt>
      <trkpt lat="43.78436" lon="7.27561">
        <ele>398.60000610352</ele>
        <time>2021-02-04T10:53:04.000Z</time>
      </trkpt>
      <trkpt lat="43.78441" lon="7.27558">
        <ele>397.79998779297</ele>
        <time>2021-02-04T10:53:05.000Z</time>
      </trkpt>
      <trkpt lat="43.78444" lon="7.27557">
        <ele>396.79998779297</ele>
        <time>2021-02-04T10:53:06.000Z</time>
      </trkpt>
      <trkpt lat="43.78449" lon="7.27553">
        <ele>395.60000610352</ele>
        <time>2021-02-04T10:53:08.000Z</time>
      </trkpt>
      <trkpt lat="43.78449" lon="7.27548">
        <ele>395</ele>
        <time>2021-02-04T10:53:09.000Z</time>
      </trkpt>
      <trkpt lat="43.78448" lon="7.27542">
        <ele>394.60000610352</ele>
        <time>2021-02-04T10:53:10.000Z</time>
      </trkpt>
      <trkpt lat="43.7845" lon="7.27525">
        <ele>393.79998779297</ele>
        <time>2021-02-04T10:53:12.000Z</time>
      </trkpt>
      <trkpt lat="43.78452" lon="7.27517">
        <ele>392.79998779297</ele>
        <time>2021-02-04T10:53:13.000Z</time>
      </trkpt>
      <trkpt lat="43.78453" lon="7.27509">
        <ele>391.60000610352</ele>
        <time>2021-02-04T10:53:14.000Z</time>
      </trkpt>
      <trkpt lat="43.78453" lon="7.27502">
        <ele>390.39999389648</ele>
        <time>2021-02-04T10:53:15.000Z</time>
      </trkpt>
      <trkpt lat="43.78452" lon="7.27494">
        <ele>389.39999389648</ele>
        <time>2021-02-04T10:53:16.000Z</time>
      </trkpt>
      <trkpt lat="43.78451" lon="7.27484">
        <ele>388.20001220703</ele>
        <time>2021-02-04T10:53:17.000Z</time>
      </trkpt>
      <trkpt lat="43.78449" lon="7.27477">
        <ele>386.79998779297</ele>
        <time>2021-02-04T10:53:18.000Z</time>
      </trkpt>
      <trkpt lat="43.78449" lon="7.27469">
        <ele>384.79998779297</ele>
        <time>2021-02-04T10:53:19.000Z</time>
      </trkpt>
      <trkpt lat="43.78447" lon="7.27462">
        <ele>383.39999389648</ele>
        <time>2021-02-04T10:53:20.000Z</time>
      </trkpt>
      <trkpt lat="43.78445" lon="7.27459">
        <ele>382</ele>
        <time>2021-02-04T10:53:21.000Z</time>
      </trkpt>
      <trkpt lat="43.78444" lon="7.27456">
        <ele>380.39999389648</ele>
        <time>2021-02-04T10:53:22.000Z</time>
      </trkpt>
      <trkpt lat="43.78444" lon="7.27448">
        <ele>378.60000610352</ele>
        <time>2021-02-04T10:53:24.000Z</time>
      </trkpt>
      <trkpt lat="43.78445" lon="7.27443">
        <ele>377.79998779297</ele>
        <time>2021-02-04T10:53:25.000Z</time>
      </trkpt>
      <trkpt lat="43.78447" lon="7.27438">
        <ele>377.20001220703</ele>
        <time>2021-02-04T10:53:26.000Z</time>
      </trkpt>
      <trkpt lat="43.78449" lon="7.27422">
        <ele>375.60000610352</ele>
        <time>2021-02-04T10:53:28.000Z</time>
      </trkpt>
      <trkpt lat="43.78449" lon="7.27416">
        <ele>374.60000610352</ele>
        <time>2021-02-04T10:53:29.000Z</time>
      </trkpt>
      <trkpt lat="43.78447" lon="7.27409">
        <ele>372.60000610352</ele>
        <time>2021-02-04T10:53:31.000Z</time>
      </trkpt>
      <trkpt lat="43.78444" lon="7.27406">
        <ele>371.60000610352</ele>
        <time>2021-02-04T10:53:32.000Z</time>
      </trkpt>
      <trkpt lat="43.78446" lon="7.27393">
        <ele>370</ele>
        <time>2021-02-04T10:53:34.000Z</time>
      </trkpt>
      <trkpt lat="43.78448" lon="7.27379">
        <ele>368.60000610352</ele>
        <time>2021-02-04T10:53:36.000Z</time>
      </trkpt>
      <trkpt lat="43.78449" lon="7.27372">
        <ele>367.39999389648</ele>
        <time>2021-02-04T10:53:37.000Z</time>
      </trkpt>
      <trkpt lat="43.78449" lon="7.27368">
        <ele>366.20001220703</ele>
        <time>2021-02-04T10:53:38.000Z</time>
      </trkpt>
      <trkpt lat="43.78449" lon="7.27364">
        <ele>364.79998779297</ele>
        <time>2021-02-04T10:53:39.000Z</time>
      </trkpt>
      <trkpt lat="43.78449" lon="7.27361">
        <ele>363.79998779297</ele>
        <time>2021-02-04T10:53:40.000Z</time>
      </trkpt>
      <trkpt lat="43.78447" lon="7.27351">
        <ele>362.20001220703</ele>
        <time>2021-02-04T10:53:42.000Z</time>
      </trkpt>
      <trkpt lat="43.78446" lon="7.27338">
        <ele>361.39999389648</ele>
        <time>2021-02-04T10:53:44.000Z</time>
      </trkpt>
      <trkpt lat="43.78445" lon="7.2733">
        <ele>360.79998779297</ele>
        <time>2021-02-04T10:53:45.000Z</time>
      </trkpt>
      <trkpt lat="43.78445" lon="7.27313">
        <ele>359.60000610352</ele>
        <time>2021-02-04T10:53:47.000Z</time>
      </trkpt>
      <trkpt lat="43.78445" lon="7.27303">
        <ele>359</ele>
        <time>2021-02-04T10:53:48.000Z</time>
      </trkpt>
      <trkpt lat="43.78447" lon="7.27291">
        <ele>358.39999389648</ele>
        <time>2021-02-04T10:53:49.000Z</time>
      </trkpt>
      <trkpt lat="43.78448" lon="7.2728">
        <ele>357.60000610352</ele>
        <time>2021-02-04T10:53:50.000Z</time>
      </trkpt>
      <trkpt lat="43.78449" lon="7.2727">
        <ele>356</ele>
        <time>2021-02-04T10:53:51.000Z</time>
      </trkpt>
      <trkpt lat="43.7845" lon="7.27261">
        <ele>354</ele>
        <time>2021-02-04T10:53:52.000Z</time>
      </trkpt>
      <trkpt lat="43.78453" lon="7.27253">
        <ele>352.79998779297</ele>
        <time>2021-02-04T10:53:53.000Z</time>
      </trkpt>
      <trkpt lat="43.78454" lon="7.27246">
        <ele>351</ele>
        <time>2021-02-04T10:53:54.000Z</time>
      </trkpt>
      <trkpt lat="43.78455" lon="7.27237">
        <ele>348.60000610352</ele>
        <time>2021-02-04T10:53:55.000Z</time>
      </trkpt>
      <trkpt lat="43.78455" lon="7.27229">
        <ele>347</ele>
        <time>2021-02-04T10:53:56.000Z</time>
      </trkpt>
      <trkpt lat="43.78455" lon="7.2722">
        <ele>345.39999389648</ele>
        <time>2021-02-04T10:53:57.000Z</time>
      </trkpt>
      <trkpt lat="43.78455" lon="7.27212">
        <ele>343.79998779297</ele>
        <time>2021-02-04T10:53:58.000Z</time>
      </trkpt>
      <trkpt lat="43.78454" lon="7.27202">
        <ele>342.60000610352</ele>
        <time>2021-02-04T10:53:59.000Z</time>
      </trkpt>
      <trkpt lat="43.78453" lon="7.27193">
        <ele>341.60000610352</ele>
        <time>2021-02-04T10:54:00.000Z</time>
      </trkpt>
      <trkpt lat="43.78452" lon="7.27187">
        <ele>340</ele>
        <time>2021-02-04T10:54:01.000Z</time>
      </trkpt>
      <trkpt lat="43.7845" lon="7.27174">
        <ele>338.20001220703</ele>
        <time>2021-02-04T10:54:03.000Z</time>
      </trkpt>
      <trkpt lat="43.78449" lon="7.27169">
        <ele>337.60000610352</ele>
        <time>2021-02-04T10:54:04.000Z</time>
      </trkpt>
      <trkpt lat="43.7845" lon="7.27165">
        <ele>336.39999389648</ele>
        <time>2021-02-04T10:54:05.000Z</time>
      </trkpt>
      <trkpt lat="43.78452" lon="7.27161">
        <ele>335.60000610352</ele>
        <time>2021-02-04T10:54:06.000Z</time>
      </trkpt>
      <trkpt lat="43.78456" lon="7.27159">
        <ele>336.20001220703</ele>
        <time>2021-02-04T10:54:07.000Z</time>
      </trkpt>
      <trkpt lat="43.78465" lon="7.27157">
        <ele>335</ele>
        <time>2021-02-04T10:54:10.000Z</time>
      </trkpt>
      <trkpt lat="43.78466" lon="7.27157">
        <ele>333.60000610352</ele>
        <time>2021-02-04T10:54:11.000Z</time>
      </trkpt>
      <trkpt lat="43.78466" lon="7.27157">
        <ele>332.20001220703</ele>
        <time>2021-02-04T10:54:13.000Z</time>
      </trkpt>
      <trkpt lat="43.78467" lon="7.27156">
        <ele>331.79998779297</ele>
        <time>2021-02-04T10:54:15.000Z</time>
      </trkpt>
      <trkpt lat="43.78467" lon="7.27155">
        <ele>333</ele>
        <time>2021-02-04T10:54:35.000Z</time>
      </trkpt>
      <trkpt lat="43.78468" lon="7.27153">
        <ele>332.79998779297</ele>
        <time>2021-02-04T10:54:40.000Z</time>
      </trkpt>
      <trkpt lat="43.78473" lon="7.27153">
        <ele>333</ele>
        <time>2021-02-04T10:54:43.000Z</time>
      </trkpt>
      <trkpt lat="43.78475" lon="7.27153">
        <ele>333</ele>
        <time>2021-02-04T10:54:44.000Z</time>
      </trkpt>
      <trkpt lat="43.78477" lon="7.27153">
        <ele>333.39999389648</ele>
        <time>2021-02-04T10:54:46.000Z</time>
      </trkpt>
      <trkpt lat="43.78479" lon="7.27153">
        <ele>333.60000610352</ele>
        <time>2021-02-04T10:54:47.000Z</time>
      </trkpt>
      <trkpt lat="43.78497" lon="7.27154">
        <ele>333.60000610352</ele>
        <time>2021-02-04T10:54:53.000Z</time>
      </trkpt>
      <trkpt lat="43.78523" lon="7.27156">
        <ele>334.20001220703</ele>
        <time>2021-02-04T10:55:01.000Z</time>
      </trkpt>
      <trkpt lat="43.78529" lon="7.27156">
        <ele>334.39999389648</ele>
        <time>2021-02-04T10:55:03.000Z</time>
      </trkpt>
      <trkpt lat="43.78544" lon="7.27154">
        <ele>334.60000610352</ele>
        <time>2021-02-04T10:55:07.000Z</time>
      </trkpt>
      <trkpt lat="43.78572" lon="7.27153">
        <ele>334.60000610352</ele>
        <time>2021-02-04T10:55:14.000Z</time>
      </trkpt>
      <trkpt lat="43.78584" lon="7.27147">
        <ele>335.39999389648</ele>
        <time>2021-02-04T10:55:19.000Z</time>
      </trkpt>
      <trkpt lat="43.7858" lon="7.27134">
        <ele>334.39999389648</ele>
        <time>2021-02-04T10:55:22.000Z</time>
      </trkpt>
      <trkpt lat="43.78577" lon="7.27121">
        <ele>332.39999389648</ele>
        <time>2021-02-04T10:55:24.000Z</time>
      </trkpt>
      <trkpt lat="43.78574" lon="7.27121">
        <ele>331.60000610352</ele>
        <time>2021-02-04T10:55:25.000Z</time>
      </trkpt>
      <trkpt lat="43.78571" lon="7.27122">
        <ele>330.39999389648</ele>
        <time>2021-02-04T10:55:26.000Z</time>
      </trkpt>
      <trkpt lat="43.78563" lon="7.27128">
        <ele>329</ele>
        <time>2021-02-04T10:55:28.000Z</time>
      </trkpt>
      <trkpt lat="43.78557" lon="7.27122">
        <ele>328</ele>
        <time>2021-02-04T10:55:30.000Z</time>
      </trkpt>
      <trkpt lat="43.78557" lon="7.27115">
        <ele>327.60000610352</ele>
        <time>2021-02-04T10:55:31.000Z</time>
      </trkpt>
      <trkpt lat="43.78555" lon="7.27107">
        <ele>327.20001220703</ele>
        <time>2021-02-04T10:55:32.000Z</time>
      </trkpt>
      <trkpt lat="43.78554" lon="7.27097">
        <ele>326.79998779297</ele>
        <time>2021-02-04T10:55:33.000Z</time>
      </trkpt>
      <trkpt lat="43.78553" lon="7.27087">
        <ele>326.20001220703</ele>
        <time>2021-02-04T10:55:34.000Z</time>
      </trkpt>
      <trkpt lat="43.78551" lon="7.2708">
        <ele>325.39999389648</ele>
        <time>2021-02-04T10:55:35.000Z</time>
      </trkpt>
      <trkpt lat="43.78546" lon="7.27075">
        <ele>323.60000610352</ele>
        <time>2021-02-04T10:55:36.000Z</time>
      </trkpt>
      <trkpt lat="43.7854" lon="7.27069">
        <ele>322.39999389648</ele>
        <time>2021-02-04T10:55:37.000Z</time>
      </trkpt>
      <trkpt lat="43.78534" lon="7.27063">
        <ele>321</ele>
        <time>2021-02-04T10:55:38.000Z</time>
      </trkpt>
      <trkpt lat="43.78529" lon="7.27057">
        <ele>319.39999389648</ele>
        <time>2021-02-04T10:55:39.000Z</time>
      </trkpt>
      <trkpt lat="43.78526" lon="7.27049">
        <ele>318.39999389648</ele>
        <time>2021-02-04T10:55:40.000Z</time>
      </trkpt>
      <trkpt lat="43.78522" lon="7.27037">
        <ele>316.79998779297</ele>
        <time>2021-02-04T10:55:42.000Z</time>
      </trkpt>
      <trkpt lat="43.78519" lon="7.27029">
        <ele>315.79998779297</ele>
        <time>2021-02-04T10:55:44.000Z</time>
      </trkpt>
      <trkpt lat="43.7852" lon="7.27024">
        <ele>315.39999389648</ele>
        <time>2021-02-04T10:55:45.000Z</time>
      </trkpt>
      <trkpt lat="43.78522" lon="7.2702">
        <ele>314.79998779297</ele>
        <time>2021-02-04T10:55:46.000Z</time>
      </trkpt>
      <trkpt lat="43.78525" lon="7.27014">
        <ele>314</ele>
        <time>2021-02-04T10:55:47.000Z</time>
      </trkpt>
      <trkpt lat="43.78532" lon="7.26996">
        <ele>312.79998779297</ele>
        <time>2021-02-04T10:55:50.000Z</time>
      </trkpt>
      <trkpt lat="43.78533" lon="7.2699">
        <ele>312.20001220703</ele>
        <time>2021-02-04T10:55:51.000Z</time>
      </trkpt>
      <trkpt lat="43.78536" lon="7.26981">
        <ele>311.60000610352</ele>
        <time>2021-02-04T10:55:52.000Z</time>
      </trkpt>
      <trkpt lat="43.7854" lon="7.26965">
        <ele>310.39999389648</ele>
        <time>2021-02-04T10:55:54.000Z</time>
      </trkpt>
      <trkpt lat="43.78543" lon="7.26957">
        <ele>310</ele>
        <time>2021-02-04T10:55:55.000Z</time>
      </trkpt>
      <trkpt lat="43.78548" lon="7.26941">
        <ele>309</ele>
        <time>2021-02-04T10:55:57.000Z</time>
      </trkpt>
      <trkpt lat="43.78554" lon="7.26927">
        <ele>308</ele>
        <time>2021-02-04T10:55:59.000Z</time>
      </trkpt>
      <trkpt lat="43.78556" lon="7.26921">
        <ele>307.39999389648</ele>
        <time>2021-02-04T10:56:00.000Z</time>
      </trkpt>
      <trkpt lat="43.78559" lon="7.26907">
        <ele>307</ele>
        <time>2021-02-04T10:56:02.000Z</time>
      </trkpt>
      <trkpt lat="43.7856" lon="7.26893">
        <ele>306.39999389648</ele>
        <time>2021-02-04T10:56:04.000Z</time>
      </trkpt>
      <trkpt lat="43.78559" lon="7.26886">
        <ele>306.20001220703</ele>
        <time>2021-02-04T10:56:05.000Z</time>
      </trkpt>
      <trkpt lat="43.78558" lon="7.2688">
        <ele>306</ele>
        <time>2021-02-04T10:56:06.000Z</time>
      </trkpt>
      <trkpt lat="43.78557" lon="7.26874">
        <ele>305.79998779297</ele>
        <time>2021-02-04T10:56:07.000Z</time>
      </trkpt>
      <trkpt lat="43.78554" lon="7.26865">
        <ele>304.79998779297</ele>
        <time>2021-02-04T10:56:09.000Z</time>
      </trkpt>
      <trkpt lat="43.78553" lon="7.2686">
        <ele>304.39999389648</ele>
        <time>2021-02-04T10:56:10.000Z</time>
      </trkpt>
      <trkpt lat="43.78552" lon="7.26852">
        <ele>303.20001220703</ele>
        <time>2021-02-04T10:56:12.000Z</time>
      </trkpt>
      <trkpt lat="43.78552" lon="7.26845">
        <ele>302.60000610352</ele>
        <time>2021-02-04T10:56:14.000Z</time>
      </trkpt>
      <trkpt lat="43.78552" lon="7.2684">
        <ele>302.20001220703</ele>
        <time>2021-02-04T10:56:16.000Z</time>
      </trkpt>
      <trkpt lat="43.7855" lon="7.26835">
        <ele>301.39999389648</ele>
        <time>2021-02-04T10:56:19.000Z</time>
      </trkpt>
      <trkpt lat="43.78549" lon="7.26836">
        <ele>301.20001220703</ele>
        <time>2021-02-04T10:56:20.000Z</time>
      </trkpt>
      <trkpt lat="43.78548" lon="7.26837">
        <ele>301.20001220703</ele>
        <time>2021-02-04T10:56:21.000Z</time>
      </trkpt>
      <trkpt lat="43.78547" lon="7.26847">
        <ele>300.79998779297</ele>
        <time>2021-02-04T10:56:25.000Z</time>
      </trkpt>
      <trkpt lat="43.78545" lon="7.26855">
        <ele>300.39999389648</ele>
        <time>2021-02-04T10:56:27.000Z</time>
      </trkpt>
      <trkpt lat="43.78544" lon="7.26858">
        <ele>299.79998779297</ele>
        <time>2021-02-04T10:56:28.000Z</time>
      </trkpt>
      <trkpt lat="43.78541" lon="7.26859">
        <ele>299</ele>
        <time>2021-02-04T10:56:29.000Z</time>
      </trkpt>
      <trkpt lat="43.78539" lon="7.26858">
        <ele>298.39999389648</ele>
        <time>2021-02-04T10:56:30.000Z</time>
      </trkpt>
      <trkpt lat="43.78529" lon="7.26854">
        <ele>297.20001220703</ele>
        <time>2021-02-04T10:56:33.000Z</time>
      </trkpt>
      <trkpt lat="43.78528" lon="7.26851">
        <ele>297</ele>
        <time>2021-02-04T10:56:35.000Z</time>
      </trkpt>
      <trkpt lat="43.78527" lon="7.2685">
        <ele>297</ele>
        <time>2021-02-04T10:56:36.000Z</time>
      </trkpt>
      <trkpt lat="43.78526" lon="7.26846">
        <ele>297.20001220703</ele>
        <time>2021-02-04T10:56:39.000Z</time>
      </trkpt>
      <trkpt lat="43.78526" lon="7.26845">
        <ele>297.39999389648</ele>
        <time>2021-02-04T10:56:40.000Z</time>
      </trkpt>
      <trkpt lat="43.78518" lon="7.26842">
        <ele>297.79998779297</ele>
        <time>2021-02-04T10:56:44.000Z</time>
      </trkpt>
      <trkpt lat="43.78515" lon="7.26839">
        <ele>298.20001220703</ele>
        <time>2021-02-04T10:56:46.000Z</time>
      </trkpt>
      <trkpt lat="43.78514" lon="7.26838">
        <ele>298.39999389648</ele>
        <time>2021-02-04T10:56:47.000Z</time>
      </trkpt>
      <trkpt lat="43.78514" lon="7.26837">
        <ele>299.60000610352</ele>
        <time>2021-02-04T10:56:49.000Z</time>
      </trkpt>
      <trkpt lat="43.78513" lon="7.26835">
        <ele>300.20001220703</ele>
        <time>2021-02-04T10:56:51.000Z</time>
      </trkpt>
      <trkpt lat="43.78512" lon="7.26829">
        <ele>300.60000610352</ele>
        <time>2021-02-04T10:56:53.000Z</time>
      </trkpt>
      <trkpt lat="43.78511" lon="7.26827">
        <ele>300.79998779297</ele>
        <time>2021-02-04T10:56:54.000Z</time>
      </trkpt>
      <trkpt lat="43.78511" lon="7.26815">
        <ele>301.60000610352</ele>
        <time>2021-02-04T10:56:58.000Z</time>
      </trkpt>
      <trkpt lat="43.78511" lon="7.26812">
        <ele>302</ele>
        <time>2021-02-04T10:56:59.000Z</time>
      </trkpt>
      <trkpt lat="43.78511" lon="7.2681">
        <ele>302.20001220703</ele>
        <time>2021-02-04T10:57:00.000Z</time>
      </trkpt>
      <trkpt lat="43.78509" lon="7.26805">
        <ele>302.79998779297</ele>
        <time>2021-02-04T10:57:02.000Z</time>
      </trkpt>
      <trkpt lat="43.78506" lon="7.26803">
        <ele>303.60000610352</ele>
        <time>2021-02-04T10:57:04.000Z</time>
      </trkpt>
      <trkpt lat="43.78505" lon="7.26802">
        <ele>304.20001220703</ele>
        <time>2021-02-04T10:57:05.000Z</time>
      </trkpt>
      <trkpt lat="43.78503" lon="7.268">
        <ele>305.39999389648</ele>
        <time>2021-02-04T10:57:08.000Z</time>
      </trkpt>
      <trkpt lat="43.78503" lon="7.268">
        <ele>305.79998779297</ele>
        <time>2021-02-04T10:57:09.000Z</time>
      </trkpt>
      <trkpt lat="43.78502" lon="7.268">
        <ele>306.60000610352</ele>
        <time>2021-02-04T10:57:11.000Z</time>
      </trkpt>
      <trkpt lat="43.785" lon="7.26798">
        <ele>307</ele>
        <time>2021-02-04T10:57:16.000Z</time>
      </trkpt>
      <trkpt lat="43.78496" lon="7.26795">
        <ele>307.79998779297</ele>
        <time>2021-02-04T10:57:21.000Z</time>
      </trkpt>
      <trkpt lat="43.78495" lon="7.26794">
        <ele>308.79998779297</ele>
        <time>2021-02-04T10:57:25.000Z</time>
      </trkpt>
      <trkpt lat="43.78492" lon="7.26792">
        <ele>310</ele>
        <time>2021-02-04T10:57:30.000Z</time>
      </trkpt>
      <trkpt lat="43.78492" lon="7.26792">
        <ele>310.20001220703</ele>
        <time>2021-02-04T10:57:31.000Z</time>
      </trkpt>
      <trkpt lat="43.78487" lon="7.26792">
        <ele>310.39999389648</ele>
        <time>2021-02-04T10:57:35.000Z</time>
      </trkpt>
      <trkpt lat="43.78485" lon="7.26792">
        <ele>310.39999389648</ele>
        <time>2021-02-04T10:57:36.000Z</time>
      </trkpt>
      <trkpt lat="43.78474" lon="7.26793">
        <ele>311.20001220703</ele>
        <time>2021-02-04T10:57:41.000Z</time>
      </trkpt>
      <trkpt lat="43.78469" lon="7.26793">
        <ele>312.39999389648</ele>
        <time>2021-02-04T10:57:44.000Z</time>
      </trkpt>
      <trkpt lat="43.78467" lon="7.26792">
        <ele>313</ele>
        <time>2021-02-04T10:57:45.000Z</time>
      </trkpt>
      <trkpt lat="43.78463" lon="7.26791">
        <ele>313.79998779297</ele>
        <time>2021-02-04T10:57:47.000Z</time>
      </trkpt>
      <trkpt lat="43.78458" lon="7.2679">
        <ele>315.20001220703</ele>
        <time>2021-02-04T10:57:50.000Z</time>
      </trkpt>
      <trkpt lat="43.78454" lon="7.26789">
        <ele>315.79998779297</ele>
        <time>2021-02-04T10:57:52.000Z</time>
      </trkpt>
      <trkpt lat="43.78451" lon="7.26789">
        <ele>316.39999389648</ele>
        <time>2021-02-04T10:57:54.000Z</time>
      </trkpt>
      <trkpt lat="43.78446" lon="7.2679">
        <ele>317.60000610352</ele>
        <time>2021-02-04T10:57:57.000Z</time>
      </trkpt>
      <trkpt lat="43.78443" lon="7.26792">
        <ele>318.79998779297</ele>
        <time>2021-02-04T10:57:59.000Z</time>
      </trkpt>
      <trkpt lat="43.78439" lon="7.26793">
        <ele>320.39999389648</ele>
        <time>2021-02-04T10:58:02.000Z</time>
      </trkpt>
      <trkpt lat="43.78437" lon="7.26793">
        <ele>321</ele>
        <time>2021-02-04T10:58:03.000Z</time>
      </trkpt>
      <trkpt lat="43.78436" lon="7.26793">
        <ele>322</ele>
        <time>2021-02-04T10:58:05.000Z</time>
      </trkpt>
      <trkpt lat="43.78435" lon="7.26793">
        <ele>322.60000610352</ele>
        <time>2021-02-04T10:58:07.000Z</time>
      </trkpt>
      <trkpt lat="43.78435" lon="7.26794">
        <ele>323</ele>
        <time>2021-02-04T10:58:10.000Z</time>
      </trkpt>
      <trkpt lat="43.78434" lon="7.26794">
        <ele>323.20001220703</ele>
        <time>2021-02-04T10:58:14.000Z</time>
      </trkpt>
      <trkpt lat="43.7843" lon="7.26797">
        <ele>323.79998779297</ele>
        <time>2021-02-04T10:58:22.000Z</time>
      </trkpt>
      <trkpt lat="43.78429" lon="7.26797">
        <ele>324.20001220703</ele>
        <time>2021-02-04T10:58:25.000Z</time>
      </trkpt>
      <trkpt lat="43.78425" lon="7.26799">
        <ele>324.79998779297</ele>
        <time>2021-02-04T10:58:30.000Z</time>
      </trkpt>
      <trkpt lat="43.78423" lon="7.268">
        <ele>325.20001220703</ele>
        <time>2021-02-04T10:58:33.000Z</time>
      </trkpt>
      <trkpt lat="43.7842" lon="7.26802">
        <ele>326.39999389648</ele>
        <time>2021-02-04T10:58:38.000Z</time>
      </trkpt>
      <trkpt lat="43.7842" lon="7.26802">
        <ele>326.60000610352</ele>
        <time>2021-02-04T10:58:39.000Z</time>
      </trkpt>
      <trkpt lat="43.78417" lon="7.26803">
        <ele>327.39999389648</ele>
        <time>2021-02-04T10:58:43.000Z</time>
      </trkpt>
      <trkpt lat="43.78412" lon="7.26804">
        <ele>328.20001220703</ele>
        <time>2021-02-04T10:58:49.000Z</time>
      </trkpt>
      <trkpt lat="43.78412" lon="7.26805">
        <ele>328.39999389648</ele>
        <time>2021-02-04T10:58:50.000Z</time>
      </trkpt>
      <trkpt lat="43.78408" lon="7.26807">
        <ele>329.60000610352</ele>
        <time>2021-02-04T10:58:55.000Z</time>
      </trkpt>
      <trkpt lat="43.78407" lon="7.26808">
        <ele>330</ele>
        <time>2021-02-04T10:58:57.000Z</time>
      </trkpt>
      <trkpt lat="43.78406" lon="7.2681">
        <ele>330.60000610352</ele>
        <time>2021-02-04T10:59:00.000Z</time>
      </trkpt>
      <trkpt lat="43.78403" lon="7.26814">
        <ele>331.39999389648</ele>
        <time>2021-02-04T10:59:05.000Z</time>
      </trkpt>
      <trkpt lat="43.78403" lon="7.26815">
        <ele>331.60000610352</ele>
        <time>2021-02-04T10:59:06.000Z</time>
      </trkpt>
      <trkpt lat="43.78401" lon="7.26819">
        <ele>332.79998779297</ele>
        <time>2021-02-04T10:59:11.000Z</time>
      </trkpt>
      <trkpt lat="43.78401" lon="7.26821">
        <ele>333.39999389648</ele>
        <time>2021-02-04T10:59:14.000Z</time>
      </trkpt>
      <trkpt lat="43.78401" lon="7.26823">
        <ele>333.79998779297</ele>
        <time>2021-02-04T10:59:17.000Z</time>
      </trkpt>
      <trkpt lat="43.78401" lon="7.26825">
        <ele>334.20001220703</ele>
        <time>2021-02-04T10:59:19.000Z</time>
      </trkpt>
      <trkpt lat="43.784" lon="7.26827">
        <ele>334.60000610352</ele>
        <time>2021-02-04T10:59:21.000Z</time>
      </trkpt>
      <trkpt lat="43.784" lon="7.26827">
        <ele>335</ele>
        <time>2021-02-04T10:59:23.000Z</time>
      </trkpt>
      <trkpt lat="43.784" lon="7.26826">
        <ele>335.39999389648</ele>
        <time>2021-02-04T10:59:27.000Z</time>
      </trkpt>
      <trkpt lat="43.784" lon="7.26825">
        <ele>335.39999389648</ele>
        <time>2021-02-04T10:59:36.000Z</time>
      </trkpt>
      <trkpt lat="43.78399" lon="7.26823">
        <ele>335.60000610352</ele>
        <time>2021-02-04T10:59:40.000Z</time>
      </trkpt>
      <trkpt lat="43.78397" lon="7.26822">
        <ele>335.60000610352</ele>
        <time>2021-02-04T10:59:41.000Z</time>
      </trkpt>
      <trkpt lat="43.78394" lon="7.2682">
        <ele>335.39999389648</ele>
        <time>2021-02-04T10:59:44.000Z</time>
      </trkpt>
      <trkpt lat="43.78394" lon="7.2682">
        <ele>335.60000610352</ele>
        <time>2021-02-04T10:59:45.000Z</time>
      </trkpt>
      <trkpt lat="43.78394" lon="7.2682">
        <ele>336.39999389648</ele>
        <time>2021-02-04T10:59:47.000Z</time>
      </trkpt>
      <trkpt lat="43.78392" lon="7.26822">
        <ele>337.39999389648</ele>
        <time>2021-02-04T10:59:52.000Z</time>
      </trkpt>
      <trkpt lat="43.78392" lon="7.26825">
        <ele>338.39999389648</ele>
        <time>2021-02-04T10:59:59.000Z</time>
      </trkpt>
      <trkpt lat="43.78392" lon="7.26827">
        <ele>338.60000610352</ele>
        <time>2021-02-04T11:00:02.000Z</time>
      </trkpt>
      <trkpt lat="43.7839" lon="7.26828">
        <ele>339.39999389648</ele>
        <time>2021-02-04T11:00:05.000Z</time>
      </trkpt>
      <trkpt lat="43.7839" lon="7.26828">
        <ele>339.60000610352</ele>
        <time>2021-02-04T11:00:06.000Z</time>
      </trkpt>
      <trkpt lat="43.78388" lon="7.26826">
        <ele>340.60000610352</ele>
        <time>2021-02-04T11:00:11.000Z</time>
      </trkpt>
      <trkpt lat="43.78388" lon="7.26826">
        <ele>340.79998779297</ele>
        <time>2021-02-04T11:00:12.000Z</time>
      </trkpt>
      <trkpt lat="43.78388" lon="7.26823">
        <ele>340.60000610352</ele>
        <time>2021-02-04T11:00:19.000Z</time>
      </trkpt>
      <trkpt lat="43.78388" lon="7.26823">
        <ele>340.60000610352</ele>
        <time>2021-02-04T11:00:20.000Z</time>
      </trkpt>
      <trkpt lat="43.78387" lon="7.26821">
        <ele>341</ele>
        <time>2021-02-04T11:00:22.000Z</time>
      </trkpt>
      <trkpt lat="43.78386" lon="7.2682">
        <ele>341.60000610352</ele>
        <time>2021-02-04T11:00:26.000Z</time>
      </trkpt>
      <trkpt lat="43.78383" lon="7.26822">
        <ele>342.20001220703</ele>
        <time>2021-02-04T11:00:32.000Z</time>
      </trkpt>
      <trkpt lat="43.78383" lon="7.26829">
        <ele>342.39999389648</ele>
        <time>2021-02-04T11:00:35.000Z</time>
      </trkpt>
      <trkpt lat="43.78383" lon="7.26831">
        <ele>342.79998779297</ele>
        <time>2021-02-04T11:00:36.000Z</time>
      </trkpt>
      <trkpt lat="43.78382" lon="7.26831">
        <ele>344.20001220703</ele>
        <time>2021-02-04T11:00:39.000Z</time>
      </trkpt>
      <trkpt lat="43.78382" lon="7.26831">
        <ele>344.79998779297</ele>
        <time>2021-02-04T11:00:40.000Z</time>
      </trkpt>
      <trkpt lat="43.78382" lon="7.26831">
        <ele>345.39999389648</ele>
        <time>2021-02-04T11:00:42.000Z</time>
      </trkpt>
      <trkpt lat="43.78381" lon="7.26834">
        <ele>345.79998779297</ele>
        <time>2021-02-04T11:00:47.000Z</time>
      </trkpt>
      <trkpt lat="43.7838" lon="7.26837">
        <ele>346.39999389648</ele>
        <time>2021-02-04T11:00:51.000Z</time>
      </trkpt>
      <trkpt lat="43.7838" lon="7.26837">
        <ele>346.79998779297</ele>
        <time>2021-02-04T11:00:53.000Z</time>
      </trkpt>
      <trkpt lat="43.7838" lon="7.26838">
        <ele>347.60000610352</ele>
        <time>2021-02-04T11:00:57.000Z</time>
      </trkpt>
      <trkpt lat="43.78379" lon="7.26844">
        <ele>348.39999389648</ele>
        <time>2021-02-04T11:01:04.000Z</time>
      </trkpt>
      <trkpt lat="43.78379" lon="7.26845">
        <ele>348.79998779297</ele>
        <time>2021-02-04T11:01:06.000Z</time>
      </trkpt>
      <trkpt lat="43.78377" lon="7.26848">
        <ele>349.39999389648</ele>
        <time>2021-02-04T11:01:11.000Z</time>
      </trkpt>
      <trkpt lat="43.78375" lon="7.26847">
        <ele>350</ele>
        <time>2021-02-04T11:01:14.000Z</time>
      </trkpt>
      <trkpt lat="43.78375" lon="7.26844">
        <ele>350.60000610352</ele>
        <time>2021-02-04T11:01:17.000Z</time>
      </trkpt>
      <trkpt lat="43.78375" lon="7.26843">
        <ele>351</ele>
        <time>2021-02-04T11:01:19.000Z</time>
      </trkpt>
      <trkpt lat="43.78373" lon="7.2684">
        <ele>352</ele>
        <time>2021-02-04T11:01:26.000Z</time>
      </trkpt>
      <trkpt lat="43.7837" lon="7.26838">
        <ele>352.79998779297</ele>
        <time>2021-02-04T11:01:32.000Z</time>
      </trkpt>
      <trkpt lat="43.7837" lon="7.26837">
        <ele>353.20001220703</ele>
        <time>2021-02-04T11:01:34.000Z</time>
      </trkpt>
      <trkpt lat="43.7837" lon="7.26834">
        <ele>354</ele>
        <time>2021-02-04T11:01:38.000Z</time>
      </trkpt>
      <trkpt lat="43.7837" lon="7.26834">
        <ele>354.20001220703</ele>
        <time>2021-02-04T11:01:39.000Z</time>
      </trkpt>
      <trkpt lat="43.78369" lon="7.26829">
        <ele>355.20001220703</ele>
        <time>2021-02-04T11:01:46.000Z</time>
      </trkpt>
      <trkpt lat="43.78369" lon="7.26829">
        <ele>355.39999389648</ele>
        <time>2021-02-04T11:01:47.000Z</time>
      </trkpt>
      <trkpt lat="43.78369" lon="7.26829">
        <ele>356</ele>
        <time>2021-02-04T11:01:53.000Z</time>
      </trkpt>
      <trkpt lat="43.78369" lon="7.26833">
        <ele>356</ele>
        <time>2021-02-04T11:02:02.000Z</time>
      </trkpt>
      <trkpt lat="43.78368" lon="7.26839">
        <ele>356.39999389648</ele>
        <time>2021-02-04T11:02:07.000Z</time>
      </trkpt>
      <trkpt lat="43.78368" lon="7.26841">
        <ele>356.60000610352</ele>
        <time>2021-02-04T11:02:08.000Z</time>
      </trkpt>
      <trkpt lat="43.78365" lon="7.26847">
        <ele>357.60000610352</ele>
        <time>2021-02-04T11:02:11.000Z</time>
      </trkpt>
      <trkpt lat="43.78363" lon="7.26851">
        <ele>358.20001220703</ele>
        <time>2021-02-04T11:02:13.000Z</time>
      </trkpt>
      <trkpt lat="43.78362" lon="7.26852">
        <ele>358.60000610352</ele>
        <time>2021-02-04T11:02:14.000Z</time>
      </trkpt>
      <trkpt lat="43.78361" lon="7.26855">
        <ele>360.20001220703</ele>
        <time>2021-02-04T11:02:18.000Z</time>
      </trkpt>
      <trkpt lat="43.78361" lon="7.26855">
        <ele>360.60000610352</ele>
        <time>2021-02-04T11:02:19.000Z</time>
      </trkpt>
      <trkpt lat="43.78361" lon="7.26856">
        <ele>361.20001220703</ele>
        <time>2021-02-04T11:02:22.000Z</time>
      </trkpt>
      <trkpt lat="43.78359" lon="7.26858">
        <ele>361.60000610352</ele>
        <time>2021-02-04T11:02:27.000Z</time>
      </trkpt>
      <trkpt lat="43.78358" lon="7.26859">
        <ele>362.39999389648</ele>
        <time>2021-02-04T11:02:31.000Z</time>
      </trkpt>
      <trkpt lat="43.78356" lon="7.26861">
        <ele>363.20001220703</ele>
        <time>2021-02-04T11:02:34.000Z</time>
      </trkpt>
      <trkpt lat="43.78356" lon="7.26861">
        <ele>363.60000610352</ele>
        <time>2021-02-04T11:02:36.000Z</time>
      </trkpt>
      <trkpt lat="43.78355" lon="7.26865">
        <ele>364.39999389648</ele>
        <time>2021-02-04T11:02:42.000Z</time>
      </trkpt>
      <trkpt lat="43.78355" lon="7.26865">
        <ele>364.60000610352</ele>
        <time>2021-02-04T11:02:43.000Z</time>
      </trkpt>
      <trkpt lat="43.78353" lon="7.26867">
        <ele>364.79998779297</ele>
        <time>2021-02-04T11:02:46.000Z</time>
      </trkpt>
      <trkpt lat="43.78351" lon="7.26868">
        <ele>364.79998779297</ele>
        <time>2021-02-04T11:02:48.000Z</time>
      </trkpt>
      <trkpt lat="43.78343" lon="7.26878">
        <ele>365.79998779297</ele>
        <time>2021-02-04T11:02:54.000Z</time>
      </trkpt>
      <trkpt lat="43.78332" lon="7.26886">
        <ele>367</ele>
        <time>2021-02-04T11:03:00.000Z</time>
      </trkpt>
      <trkpt lat="43.78328" lon="7.26888">
        <ele>368.39999389648</ele>
        <time>2021-02-04T11:03:03.000Z</time>
      </trkpt>
      <trkpt lat="43.78326" lon="7.26889">
        <ele>369</ele>
        <time>2021-02-04T11:03:04.000Z</time>
      </trkpt>
      <trkpt lat="43.78325" lon="7.2689">
        <ele>369.39999389648</ele>
        <time>2021-02-04T11:03:05.000Z</time>
      </trkpt>
      <trkpt lat="43.78319" lon="7.269">
        <ele>370.39999389648</ele>
        <time>2021-02-04T11:03:08.000Z</time>
      </trkpt>
      <trkpt lat="43.78313" lon="7.26907">
        <ele>369.79998779297</ele>
        <time>2021-02-04T11:03:11.000Z</time>
      </trkpt>
      <trkpt lat="43.78312" lon="7.26908">
        <ele>369.20001220703</ele>
        <time>2021-02-04T11:03:12.000Z</time>
      </trkpt>
      <trkpt lat="43.78311" lon="7.26909">
        <ele>368.39999389648</ele>
        <time>2021-02-04T11:03:15.000Z</time>
      </trkpt>
      <trkpt lat="43.7831" lon="7.26912">
        <ele>368.20001220703</ele>
        <time>2021-02-04T11:03:17.000Z</time>
      </trkpt>
      <trkpt lat="43.78304" lon="7.26921">
        <ele>368</ele>
        <time>2021-02-04T11:03:24.000Z</time>
      </trkpt>
      <trkpt lat="43.78294" lon="7.26928">
        <ele>367.79998779297</ele>
        <time>2021-02-04T11:03:29.000Z</time>
      </trkpt>
      <trkpt lat="43.7828" lon="7.26934">
        <ele>368.20001220703</ele>
        <time>2021-02-04T11:03:35.000Z</time>
      </trkpt>
      <trkpt lat="43.7827" lon="7.26936">
        <ele>369.79998779297</ele>
        <time>2021-02-04T11:03:39.000Z</time>
      </trkpt>
      <trkpt lat="43.78266" lon="7.26936">
        <ele>370.39999389648</ele>
        <time>2021-02-04T11:03:41.000Z</time>
      </trkpt>
      <trkpt lat="43.78262" lon="7.26937">
        <ele>370.79998779297</ele>
        <time>2021-02-04T11:03:43.000Z</time>
      </trkpt>
      <trkpt lat="43.7826" lon="7.26937">
        <ele>371.60000610352</ele>
        <time>2021-02-04T11:03:46.000Z</time>
      </trkpt>
      <trkpt lat="43.78259" lon="7.26937">
        <ele>372</ele>
        <time>2021-02-04T11:03:47.000Z</time>
      </trkpt>
      <trkpt lat="43.78259" lon="7.26938">
        <ele>373</ele>
        <time>2021-02-04T11:03:50.000Z</time>
      </trkpt>
      <trkpt lat="43.78258" lon="7.26938">
        <ele>373.20001220703</ele>
        <time>2021-02-04T11:03:53.000Z</time>
      </trkpt>
      <trkpt lat="43.78255" lon="7.26938">
        <ele>373.39999389648</ele>
        <time>2021-02-04T11:03:58.000Z</time>
      </trkpt>
      <trkpt lat="43.78253" lon="7.26939">
        <ele>374.20001220703</ele>
        <time>2021-02-04T11:04:05.000Z</time>
      </trkpt>
      <trkpt lat="43.78252" lon="7.26939">
        <ele>374.39999389648</ele>
        <time>2021-02-04T11:04:06.000Z</time>
      </trkpt>
      <trkpt lat="43.78248" lon="7.26939">
        <ele>375</ele>
        <time>2021-02-04T11:04:12.000Z</time>
      </trkpt>
      <trkpt lat="43.78247" lon="7.26939">
        <ele>375.20001220703</ele>
        <time>2021-02-04T11:04:13.000Z</time>
      </trkpt>
      <trkpt lat="43.78245" lon="7.26939">
        <ele>376.39999389648</ele>
        <time>2021-02-04T11:04:19.000Z</time>
      </trkpt>
      <trkpt lat="43.78244" lon="7.2694">
        <ele>376.60000610352</ele>
        <time>2021-02-04T11:04:20.000Z</time>
      </trkpt>
      <trkpt lat="43.78242" lon="7.26942">
        <ele>377.60000610352</ele>
        <time>2021-02-04T11:04:25.000Z</time>
      </trkpt>
      <trkpt lat="43.78241" lon="7.26943">
        <ele>378.20001220703</ele>
        <time>2021-02-04T11:04:29.000Z</time>
      </trkpt>
      <trkpt lat="43.7824" lon="7.26945">
        <ele>378.60000610352</ele>
        <time>2021-02-04T11:04:31.000Z</time>
      </trkpt>
      <trkpt lat="43.78239" lon="7.26948">
        <ele>379.79998779297</ele>
        <time>2021-02-04T11:04:36.000Z</time>
      </trkpt>
      <trkpt lat="43.78238" lon="7.26949">
        <ele>380.79998779297</ele>
        <time>2021-02-04T11:04:42.000Z</time>
      </trkpt>
      <trkpt lat="43.78237" lon="7.2695">
        <ele>381</ele>
        <time>2021-02-04T11:04:43.000Z</time>
      </trkpt>
      <trkpt lat="43.78237" lon="7.26952">
        <ele>382</ele>
        <time>2021-02-04T11:04:49.000Z</time>
      </trkpt>
      <trkpt lat="43.78237" lon="7.26953">
        <ele>382</ele>
        <time>2021-02-04T11:04:50.000Z</time>
      </trkpt>
      <trkpt lat="43.78236" lon="7.26955">
        <ele>383</ele>
        <time>2021-02-04T11:04:56.000Z</time>
      </trkpt>
      <trkpt lat="43.78236" lon="7.26955">
        <ele>383.39999389648</ele>
        <time>2021-02-04T11:04:58.000Z</time>
      </trkpt>
      <trkpt lat="43.78236" lon="7.26956">
        <ele>383.39999389648</ele>
        <time>2021-02-04T11:05:05.000Z</time>
      </trkpt>
      <trkpt lat="43.78236" lon="7.26959">
        <ele>383.39999389648</ele>
        <time>2021-02-04T11:05:09.000Z</time>
      </trkpt>
      <trkpt lat="43.78236" lon="7.26962">
        <ele>383.60000610352</ele>
        <time>2021-02-04T11:05:11.000Z</time>
      </trkpt>
      <trkpt lat="43.78236" lon="7.26962">
        <ele>384</ele>
        <time>2021-02-04T11:05:14.000Z</time>
      </trkpt>
      <trkpt lat="43.78236" lon="7.26963">
        <ele>384.20001220703</ele>
        <time>2021-02-04T11:05:15.000Z</time>
      </trkpt>
      <trkpt lat="43.78237" lon="7.26964">
        <ele>384.39999389648</ele>
        <time>2021-02-04T11:05:22.000Z</time>
      </trkpt>
      <trkpt lat="43.78238" lon="7.26965">
        <ele>384.60000610352</ele>
        <time>2021-02-04T11:05:29.000Z</time>
      </trkpt>
      <trkpt lat="43.78238" lon="7.26968">
        <ele>385</ele>
        <time>2021-02-04T11:05:35.000Z</time>
      </trkpt>
      <trkpt lat="43.78238" lon="7.26969">
        <ele>385</ele>
        <time>2021-02-04T11:05:37.000Z</time>
      </trkpt>
      <trkpt lat="43.78239" lon="7.2697">
        <ele>385.20001220703</ele>
        <time>2021-02-04T11:05:41.000Z</time>
      </trkpt>
      <trkpt lat="43.78239" lon="7.26977">
        <ele>385.39999389648</ele>
        <time>2021-02-04T11:05:44.000Z</time>
      </trkpt>
      <trkpt lat="43.78239" lon="7.26977">
        <ele>385.79998779297</ele>
        <time>2021-02-04T11:05:45.000Z</time>
      </trkpt>
      <trkpt lat="43.78239" lon="7.26977">
        <ele>386.20001220703</ele>
        <time>2021-02-04T11:05:46.000Z</time>
      </trkpt>
      <trkpt lat="43.78239" lon="7.26979">
        <ele>387.20001220703</ele>
        <time>2021-02-04T11:05:50.000Z</time>
      </trkpt>
      <trkpt lat="43.78238" lon="7.26983">
        <ele>387.20001220703</ele>
        <time>2021-02-04T11:05:54.000Z</time>
      </trkpt>
      <trkpt lat="43.78238" lon="7.26986">
        <ele>387.39999389648</ele>
        <time>2021-02-04T11:05:56.000Z</time>
      </trkpt>
      <trkpt lat="43.78236" lon="7.26989">
        <ele>387.79998779297</ele>
        <time>2021-02-04T11:05:58.000Z</time>
      </trkpt>
      <trkpt lat="43.78233" lon="7.26992">
        <ele>388.39999389648</ele>
        <time>2021-02-04T11:06:01.000Z</time>
      </trkpt>
      <trkpt lat="43.78225" lon="7.26999">
        <ele>389.39999389648</ele>
        <time>2021-02-04T11:06:06.000Z</time>
      </trkpt>
      <trkpt lat="43.78223" lon="7.27001">
        <ele>389.60000610352</ele>
        <time>2021-02-04T11:06:07.000Z</time>
      </trkpt>
      <trkpt lat="43.78212" lon="7.27006">
        <ele>390.20001220703</ele>
        <time>2021-02-04T11:06:13.000Z</time>
      </trkpt>
      <trkpt lat="43.78213" lon="7.27008">
        <ele>390.39999389648</ele>
        <time>2021-02-04T11:06:17.000Z</time>
      </trkpt>
      <trkpt lat="43.78213" lon="7.2701">
        <ele>390.39999389648</ele>
        <time>2021-02-04T11:06:24.000Z</time>
      </trkpt>
      <trkpt lat="43.78212" lon="7.27013">
        <ele>390.20001220703</ele>
        <time>2021-02-04T11:06:44.000Z</time>
      </trkpt>
      <trkpt lat="43.7821" lon="7.27012">
        <ele>390.39999389648</ele>
        <time>2021-02-04T11:06:51.000Z</time>
      </trkpt>
      <trkpt lat="43.78209" lon="7.27012">
        <ele>390.60000610352</ele>
        <time>2021-02-04T11:06:55.000Z</time>
      </trkpt>
      <trkpt lat="43.78209" lon="7.27013">
        <ele>390.60000610352</ele>
        <time>2021-02-04T11:06:58.000Z</time>
      </trkpt>
      <trkpt lat="43.78208" lon="7.27014">
        <ele>390.20001220703</ele>
        <time>2021-02-04T11:07:07.000Z</time>
      </trkpt>
      <trkpt lat="43.78207" lon="7.27014">
        <ele>390.39999389648</ele>
        <time>2021-02-04T11:07:14.000Z</time>
      </trkpt>
      <trkpt lat="43.78207" lon="7.27015">
        <ele>390.39999389648</ele>
        <time>2021-02-04T11:07:24.000Z</time>
      </trkpt>
      <trkpt lat="43.78208" lon="7.27015">
        <ele>390.60000610352</ele>
        <time>2021-02-04T11:07:39.000Z</time>
      </trkpt>
      <trkpt lat="43.78208" lon="7.27015">
        <ele>390.79998779297</ele>
        <time>2021-02-04T11:07:52.000Z</time>
      </trkpt>
      <trkpt lat="43.78207" lon="7.27015">
        <ele>390.79998779297</ele>
        <time>2021-02-04T11:08:03.000Z</time>
      </trkpt>
      <trkpt lat="43.78207" lon="7.27016">
        <ele>390.79998779297</ele>
        <time>2021-02-04T11:08:15.000Z</time>
      </trkpt>
      <trkpt lat="43.78209" lon="7.27016">
        <ele>390.79998779297</ele>
        <time>2021-02-04T11:08:23.000Z</time>
      </trkpt>
      <trkpt lat="43.7821" lon="7.27016">
        <ele>390.79998779297</ele>
        <time>2021-02-04T11:08:36.000Z</time>
      </trkpt>
      <trkpt lat="43.78211" lon="7.27016">
        <ele>390.79998779297</ele>
        <time>2021-02-04T11:08:49.000Z</time>
      </trkpt>
      <trkpt lat="43.78212" lon="7.27016">
        <ele>390.60000610352</ele>
        <time>2021-02-04T11:08:56.000Z</time>
      </trkpt>
      <trkpt lat="43.78209" lon="7.27017">
        <ele>390.79998779297</ele>
        <time>2021-02-04T11:09:06.000Z</time>
      </trkpt>
      <trkpt lat="43.78209" lon="7.27018">
        <ele>390.79998779297</ele>
        <time>2021-02-04T11:09:16.000Z</time>
      </trkpt>
      <trkpt lat="43.78208" lon="7.27018">
        <ele>391</ele>
        <time>2021-02-04T11:09:42.000Z</time>
      </trkpt>
      <trkpt lat="43.78207" lon="7.2702">
        <ele>391</ele>
        <time>2021-02-04T11:09:49.000Z</time>
      </trkpt>
      <trkpt lat="43.78205" lon="7.27023">
        <ele>391.39999389648</ele>
        <time>2021-02-04T11:09:54.000Z</time>
      </trkpt>
      <trkpt lat="43.78204" lon="7.27026">
        <ele>391.60000610352</ele>
        <time>2021-02-04T11:09:55.000Z</time>
      </trkpt>
      <trkpt lat="43.78202" lon="7.27031">
        <ele>391.79998779297</ele>
        <time>2021-02-04T11:09:58.000Z</time>
      </trkpt>
      <trkpt lat="43.78202" lon="7.27033">
        <ele>391.79998779297</ele>
        <time>2021-02-04T11:09:59.000Z</time>
      </trkpt>
      <trkpt lat="43.782" lon="7.27045">
        <ele>391.79998779297</ele>
        <time>2021-02-04T11:10:02.000Z</time>
      </trkpt>
      <trkpt lat="43.78193" lon="7.27055">
        <ele>391.60000610352</ele>
        <time>2021-02-04T11:10:06.000Z</time>
      </trkpt>
      <trkpt lat="43.78187" lon="7.27071">
        <ele>391.39999389648</ele>
        <time>2021-02-04T11:10:10.000Z</time>
      </trkpt>
      <trkpt lat="43.78184" lon="7.27075">
        <ele>391.39999389648</ele>
        <time>2021-02-04T11:10:12.000Z</time>
      </trkpt>
      <trkpt lat="43.78182" lon="7.27077">
        <ele>391.39999389648</ele>
        <time>2021-02-04T11:10:14.000Z</time>
      </trkpt>
      <trkpt lat="43.78181" lon="7.27082">
        <ele>391.60000610352</ele>
        <time>2021-02-04T11:10:16.000Z</time>
      </trkpt>
      <trkpt lat="43.7818" lon="7.27084">
        <ele>391.79998779297</ele>
        <time>2021-02-04T11:10:17.000Z</time>
      </trkpt>
      <trkpt lat="43.78178" lon="7.27085">
        <ele>392</ele>
        <time>2021-02-04T11:10:18.000Z</time>
      </trkpt>
      <trkpt lat="43.78176" lon="7.27088">
        <ele>392.79998779297</ele>
        <time>2021-02-04T11:10:22.000Z</time>
      </trkpt>
      <trkpt lat="43.78174" lon="7.27089">
        <ele>392.79998779297</ele>
        <time>2021-02-04T11:10:23.000Z</time>
      </trkpt>
      <trkpt lat="43.78173" lon="7.27094">
        <ele>393.79998779297</ele>
        <time>2021-02-04T11:10:27.000Z</time>
      </trkpt>
      <trkpt lat="43.78172" lon="7.27098">
        <ele>394</ele>
        <time>2021-02-04T11:10:34.000Z</time>
      </trkpt>
      <trkpt lat="43.7817" lon="7.27103">
        <ele>394.60000610352</ele>
        <time>2021-02-04T11:10:41.000Z</time>
      </trkpt>
      <trkpt lat="43.78169" lon="7.27112">
        <ele>394.60000610352</ele>
        <time>2021-02-04T11:10:45.000Z</time>
      </trkpt>
      <trkpt lat="43.78168" lon="7.27117">
        <ele>394.79998779297</ele>
        <time>2021-02-04T11:10:47.000Z</time>
      </trkpt>
      <trkpt lat="43.78167" lon="7.27125">
        <ele>395</ele>
        <time>2021-02-04T11:10:50.000Z</time>
      </trkpt>
      <trkpt lat="43.78167" lon="7.27128">
        <ele>394.79998779297</ele>
        <time>2021-02-04T11:10:51.000Z</time>
      </trkpt>
      <trkpt lat="43.78165" lon="7.27135">
        <ele>394.60000610352</ele>
        <time>2021-02-04T11:10:53.000Z</time>
      </trkpt>
      <trkpt lat="43.78164" lon="7.27139">
        <ele>394.39999389648</ele>
        <time>2021-02-04T11:10:54.000Z</time>
      </trkpt>
      <trkpt lat="43.78162" lon="7.27147">
        <ele>394.39999389648</ele>
        <time>2021-02-04T11:10:57.000Z</time>
      </trkpt>
      <trkpt lat="43.7816" lon="7.27151">
        <ele>394.39999389648</ele>
        <time>2021-02-04T11:10:59.000Z</time>
      </trkpt>
      <trkpt lat="43.7815" lon="7.27168">
        <ele>394.60000610352</ele>
        <time>2021-02-04T11:11:05.000Z</time>
      </trkpt>
      <trkpt lat="43.78142" lon="7.27185">
        <ele>394.60000610352</ele>
        <time>2021-02-04T11:11:11.000Z</time>
      </trkpt>
      <trkpt lat="43.78137" lon="7.27203">
        <ele>395.39999389648</ele>
        <time>2021-02-04T11:11:17.000Z</time>
      </trkpt>
      <trkpt lat="43.78135" lon="7.2721">
        <ele>395.60000610352</ele>
        <time>2021-02-04T11:11:20.000Z</time>
      </trkpt>
      <trkpt lat="43.78131" lon="7.27213">
        <ele>396</ele>
        <time>2021-02-04T11:11:22.000Z</time>
      </trkpt>
      <trkpt lat="43.78123" lon="7.27218">
        <ele>396.39999389648</ele>
        <time>2021-02-04T11:11:25.000Z</time>
      </trkpt>
      <trkpt lat="43.7812" lon="7.27218">
        <ele>396.39999389648</ele>
        <time>2021-02-04T11:11:26.000Z</time>
      </trkpt>
      <trkpt lat="43.78108" lon="7.27218">
        <ele>396.20001220703</ele>
        <time>2021-02-04T11:11:30.000Z</time>
      </trkpt>
      <trkpt lat="43.781" lon="7.27218">
        <ele>396.20001220703</ele>
        <time>2021-02-04T11:11:32.000Z</time>
      </trkpt>
      <trkpt lat="43.78092" lon="7.27219">
        <ele>396.20001220703</ele>
        <time>2021-02-04T11:11:34.000Z</time>
      </trkpt>
      <trkpt lat="43.78078" lon="7.27224">
        <ele>395.60000610352</ele>
        <time>2021-02-04T11:11:37.000Z</time>
      </trkpt>
      <trkpt lat="43.78074" lon="7.27226">
        <ele>395.39999389648</ele>
        <time>2021-02-04T11:11:38.000Z</time>
      </trkpt>
      <trkpt lat="43.78066" lon="7.27233">
        <ele>394.60000610352</ele>
        <time>2021-02-04T11:11:40.000Z</time>
      </trkpt>
      <trkpt lat="43.78063" lon="7.27237">
        <ele>394.39999389648</ele>
        <time>2021-02-04T11:11:41.000Z</time>
      </trkpt>
      <trkpt lat="43.78052" lon="7.27252">
        <ele>394.39999389648</ele>
        <time>2021-02-04T11:11:46.000Z</time>
      </trkpt>
      <trkpt lat="43.78039" lon="7.27257">
        <ele>394.79998779297</ele>
        <time>2021-02-04T11:11:51.000Z</time>
      </trkpt>
      <trkpt lat="43.78034" lon="7.2725">
        <ele>396.20001220703</ele>
        <time>2021-02-04T11:11:54.000Z</time>
      </trkpt>
      <trkpt lat="43.78033" lon="7.27248">
        <ele>397.20001220703</ele>
        <time>2021-02-04T11:11:55.000Z</time>
      </trkpt>
      <trkpt lat="43.78033" lon="7.27246">
        <ele>398</ele>
        <time>2021-02-04T11:11:56.000Z</time>
      </trkpt>
      <trkpt lat="43.78032" lon="7.27245">
        <ele>399</ele>
        <time>2021-02-04T11:11:57.000Z</time>
      </trkpt>
      <trkpt lat="43.78031" lon="7.27244">
        <ele>399.60000610352</ele>
        <time>2021-02-04T11:11:58.000Z</time>
      </trkpt>
      <trkpt lat="43.78028" lon="7.27242">
        <ele>400.20001220703</ele>
        <time>2021-02-04T11:12:00.000Z</time>
      </trkpt>
      <trkpt lat="43.78017" lon="7.27249">
        <ele>400</ele>
        <time>2021-02-04T11:12:04.000Z</time>
      </trkpt>
      <trkpt lat="43.78003" lon="7.27258">
        <ele>399.20001220703</ele>
        <time>2021-02-04T11:12:08.000Z</time>
      </trkpt>
      <trkpt lat="43.77999" lon="7.27259">
        <ele>399</ele>
        <time>2021-02-04T11:12:09.000Z</time>
      </trkpt>
      <trkpt lat="43.77994" lon="7.27259">
        <ele>398.79998779297</ele>
        <time>2021-02-04T11:12:10.000Z</time>
      </trkpt>
      <trkpt lat="43.77989" lon="7.2726">
        <ele>398</ele>
        <time>2021-02-04T11:12:11.000Z</time>
      </trkpt>
      <trkpt lat="43.77979" lon="7.27259">
        <ele>396.60000610352</ele>
        <time>2021-02-04T11:12:13.000Z</time>
      </trkpt>
      <trkpt lat="43.77975" lon="7.27259">
        <ele>395.60000610352</ele>
        <time>2021-02-04T11:12:14.000Z</time>
      </trkpt>
      <trkpt lat="43.77973" lon="7.27259">
        <ele>394.79998779297</ele>
        <time>2021-02-04T11:12:15.000Z</time>
      </trkpt>
      <trkpt lat="43.77972" lon="7.27258">
        <ele>394.20001220703</ele>
        <time>2021-02-04T11:12:16.000Z</time>
      </trkpt>
      <trkpt lat="43.77971" lon="7.27258">
        <ele>393.39999389648</ele>
        <time>2021-02-04T11:12:19.000Z</time>
      </trkpt>
      <trkpt lat="43.77971" lon="7.27258">
        <ele>393.20001220703</ele>
        <time>2021-02-04T11:12:21.000Z</time>
      </trkpt>
      <trkpt lat="43.77964" lon="7.27256">
        <ele>393</ele>
        <time>2021-02-04T11:12:27.000Z</time>
      </trkpt>
      <trkpt lat="43.7795" lon="7.27249">
        <ele>391.60000610352</ele>
        <time>2021-02-04T11:12:32.000Z</time>
      </trkpt>
      <trkpt lat="43.77939" lon="7.27241">
        <ele>390.60000610352</ele>
        <time>2021-02-04T11:12:35.000Z</time>
      </trkpt>
      <trkpt lat="43.77932" lon="7.27235">
        <ele>389.39999389648</ele>
        <time>2021-02-04T11:12:37.000Z</time>
      </trkpt>
      <trkpt lat="43.77928" lon="7.27232">
        <ele>388.60000610352</ele>
        <time>2021-02-04T11:12:38.000Z</time>
      </trkpt>
      <trkpt lat="43.77925" lon="7.27229">
        <ele>388.20001220703</ele>
        <time>2021-02-04T11:12:39.000Z</time>
      </trkpt>
      <trkpt lat="43.77917" lon="7.27222">
        <ele>387</ele>
        <time>2021-02-04T11:12:41.000Z</time>
      </trkpt>
      <trkpt lat="43.77903" lon="7.27211">
        <ele>385.79998779297</ele>
        <time>2021-02-04T11:12:44.000Z</time>
      </trkpt>
      <trkpt lat="43.77884" lon="7.27202">
        <ele>384.20001220703</ele>
        <time>2021-02-04T11:12:47.000Z</time>
      </trkpt>
      <trkpt lat="43.77877" lon="7.27201">
        <ele>383.39999389648</ele>
        <time>2021-02-04T11:12:48.000Z</time>
      </trkpt>
      <trkpt lat="43.77868" lon="7.27202">
        <ele>382.60000610352</ele>
        <time>2021-02-04T11:12:49.000Z</time>
      </trkpt>
      <trkpt lat="43.77859" lon="7.27205">
        <ele>380.60000610352</ele>
        <time>2021-02-04T11:12:50.000Z</time>
      </trkpt>
      <trkpt lat="43.77851" lon="7.27207">
        <ele>378.79998779297</ele>
        <time>2021-02-04T11:12:51.000Z</time>
      </trkpt>
      <trkpt lat="43.77841" lon="7.27209">
        <ele>377.39999389648</ele>
        <time>2021-02-04T11:12:52.000Z</time>
      </trkpt>
      <trkpt lat="43.77832" lon="7.27212">
        <ele>376</ele>
        <time>2021-02-04T11:12:53.000Z</time>
      </trkpt>
      <trkpt lat="43.77824" lon="7.27215">
        <ele>375</ele>
        <time>2021-02-04T11:12:54.000Z</time>
      </trkpt>
      <trkpt lat="43.7781" lon="7.27222">
        <ele>373.79998779297</ele>
        <time>2021-02-04T11:12:56.000Z</time>
      </trkpt>
      <trkpt lat="43.77797" lon="7.27227">
        <ele>373.39999389648</ele>
        <time>2021-02-04T11:12:58.000Z</time>
      </trkpt>
      <trkpt lat="43.77787" lon="7.27229">
        <ele>374.20001220703</ele>
        <time>2021-02-04T11:13:00.000Z</time>
      </trkpt>
      <trkpt lat="43.77777" lon="7.27232">
        <ele>375.39999389648</ele>
        <time>2021-02-04T11:13:02.000Z</time>
      </trkpt>
      <trkpt lat="43.77768" lon="7.27236">
        <ele>376.39999389648</ele>
        <time>2021-02-04T11:13:04.000Z</time>
      </trkpt>
      <trkpt lat="43.7776" lon="7.27241">
        <ele>377</ele>
        <time>2021-02-04T11:13:06.000Z</time>
      </trkpt>
      <trkpt lat="43.77756" lon="7.27243">
        <ele>377.60000610352</ele>
        <time>2021-02-04T11:13:07.000Z</time>
      </trkpt>
      <trkpt lat="43.77737" lon="7.27262">
        <ele>378.39999389648</ele>
        <time>2021-02-04T11:13:12.000Z</time>
      </trkpt>
      <trkpt lat="43.77729" lon="7.27268">
        <ele>378.20001220703</ele>
        <time>2021-02-04T11:13:14.000Z</time>
      </trkpt>
      <trkpt lat="43.77716" lon="7.27275">
        <ele>378</ele>
        <time>2021-02-04T11:13:17.000Z</time>
      </trkpt>
      <trkpt lat="43.77681" lon="7.27282">
        <ele>376.60000610352</ele>
        <time>2021-02-04T11:13:24.000Z</time>
      </trkpt>
      <trkpt lat="43.77676" lon="7.27282">
        <ele>376.39999389648</ele>
        <time>2021-02-04T11:13:25.000Z</time>
      </trkpt>
      <trkpt lat="43.77672" lon="7.27281">
        <ele>376.39999389648</ele>
        <time>2021-02-04T11:13:26.000Z</time>
      </trkpt>
      <trkpt lat="43.7766" lon="7.27278">
        <ele>377</ele>
        <time>2021-02-04T11:13:29.000Z</time>
      </trkpt>
      <trkpt lat="43.77652" lon="7.27277">
        <ele>377.79998779297</ele>
        <time>2021-02-04T11:13:31.000Z</time>
      </trkpt>
      <trkpt lat="43.77637" lon="7.27277">
        <ele>379</ele>
        <time>2021-02-04T11:13:35.000Z</time>
      </trkpt>
      <trkpt lat="43.77629" lon="7.27278">
        <ele>379.60000610352</ele>
        <time>2021-02-04T11:13:37.000Z</time>
      </trkpt>
      <trkpt lat="43.77621" lon="7.27278">
        <ele>380.20001220703</ele>
        <time>2021-02-04T11:13:39.000Z</time>
      </trkpt>
      <trkpt lat="43.77603" lon="7.27278">
        <ele>381</ele>
        <time>2021-02-04T11:13:44.000Z</time>
      </trkpt>
      <trkpt lat="43.77599" lon="7.27277">
        <ele>381.39999389648</ele>
        <time>2021-02-04T11:13:45.000Z</time>
      </trkpt>
      <trkpt lat="43.77587" lon="7.27275">
        <ele>382.39999389648</ele>
        <time>2021-02-04T11:13:49.000Z</time>
      </trkpt>
      <trkpt lat="43.77584" lon="7.27275">
        <ele>382.79998779297</ele>
        <time>2021-02-04T11:13:50.000Z</time>
      </trkpt>
      <trkpt lat="43.77573" lon="7.27273">
        <ele>383.60000610352</ele>
        <time>2021-02-04T11:13:54.000Z</time>
      </trkpt>
      <trkpt lat="43.77566" lon="7.27272">
        <ele>384.39999389648</ele>
        <time>2021-02-04T11:13:57.000Z</time>
      </trkpt>
      <trkpt lat="43.77563" lon="7.27273">
        <ele>384.60000610352</ele>
        <time>2021-02-04T11:13:58.000Z</time>
      </trkpt>
      <trkpt lat="43.77555" lon="7.27273">
        <ele>385.79998779297</ele>
        <time>2021-02-04T11:14:01.000Z</time>
      </trkpt>
      <trkpt lat="43.77548" lon="7.27273">
        <ele>386.79998779297</ele>
        <time>2021-02-04T11:14:04.000Z</time>
      </trkpt>
      <trkpt lat="43.77541" lon="7.27273">
        <ele>387.79998779297</ele>
        <time>2021-02-04T11:14:07.000Z</time>
      </trkpt>
      <trkpt lat="43.77534" lon="7.27274">
        <ele>388.79998779297</ele>
        <time>2021-02-04T11:14:10.000Z</time>
      </trkpt>
      <trkpt lat="43.7753" lon="7.27274">
        <ele>389.39999389648</ele>
        <time>2021-02-04T11:14:12.000Z</time>
      </trkpt>
      <trkpt lat="43.77526" lon="7.27275">
        <ele>390.20001220703</ele>
        <time>2021-02-04T11:14:14.000Z</time>
      </trkpt>
      <trkpt lat="43.77516" lon="7.27275">
        <ele>391.39999389648</ele>
        <time>2021-02-04T11:14:18.000Z</time>
      </trkpt>
      <trkpt lat="43.77514" lon="7.27275">
        <ele>391.60000610352</ele>
        <time>2021-02-04T11:14:19.000Z</time>
      </trkpt>
      <trkpt lat="43.77507" lon="7.27274">
        <ele>392.39999389648</ele>
        <time>2021-02-04T11:14:22.000Z</time>
      </trkpt>
      <trkpt lat="43.77495" lon="7.27271">
        <ele>393.79998779297</ele>
        <time>2021-02-04T11:14:27.000Z</time>
      </trkpt>
      <trkpt lat="43.77489" lon="7.27269">
        <ele>394.39999389648</ele>
        <time>2021-02-04T11:14:30.000Z</time>
      </trkpt>
      <trkpt lat="43.77485" lon="7.27268">
        <ele>395</ele>
        <time>2021-02-04T11:14:32.000Z</time>
      </trkpt>
      <trkpt lat="43.77476" lon="7.27266">
        <ele>396</ele>
        <time>2021-02-04T11:14:36.000Z</time>
      </trkpt>
      <trkpt lat="43.77469" lon="7.27264">
        <ele>397</ele>
        <time>2021-02-04T11:14:39.000Z</time>
      </trkpt>
      <trkpt lat="43.77467" lon="7.27263">
        <ele>397.39999389648</ele>
        <time>2021-02-04T11:14:40.000Z</time>
      </trkpt>
      <trkpt lat="43.7746" lon="7.27262">
        <ele>398.60000610352</ele>
        <time>2021-02-04T11:14:43.000Z</time>
      </trkpt>
      <trkpt lat="43.77455" lon="7.27261">
        <ele>399.79998779297</ele>
        <time>2021-02-04T11:14:46.000Z</time>
      </trkpt>
      <trkpt lat="43.77449" lon="7.27259">
        <ele>401</ele>
        <time>2021-02-04T11:14:49.000Z</time>
      </trkpt>
      <trkpt lat="43.77443" lon="7.27257">
        <ele>402</ele>
        <time>2021-02-04T11:14:52.000Z</time>
      </trkpt>
      <trkpt lat="43.77439" lon="7.27256">
        <ele>402.79998779297</ele>
        <time>2021-02-04T11:14:54.000Z</time>
      </trkpt>
      <trkpt lat="43.77437" lon="7.27255">
        <ele>403.20001220703</ele>
        <time>2021-02-04T11:14:55.000Z</time>
      </trkpt>
      <trkpt lat="43.77426" lon="7.27251">
        <ele>404.39999389648</ele>
        <time>2021-02-04T11:15:00.000Z</time>
      </trkpt>
      <trkpt lat="43.77422" lon="7.2725">
        <ele>405</ele>
        <time>2021-02-04T11:15:02.000Z</time>
      </trkpt>
      <trkpt lat="43.77418" lon="7.27249">
        <ele>405.39999389648</ele>
        <time>2021-02-04T11:15:04.000Z</time>
      </trkpt>
      <trkpt lat="43.7741" lon="7.27246">
        <ele>406.60000610352</ele>
        <time>2021-02-04T11:15:08.000Z</time>
      </trkpt>
      <trkpt lat="43.77401" lon="7.27245">
        <ele>407.60000610352</ele>
        <time>2021-02-04T11:15:12.000Z</time>
      </trkpt>
      <trkpt lat="43.77399" lon="7.27245">
        <ele>407.79998779297</ele>
        <time>2021-02-04T11:15:13.000Z</time>
      </trkpt>
      <trkpt lat="43.7739" lon="7.27239">
        <ele>408.79998779297</ele>
        <time>2021-02-04T11:15:18.000Z</time>
      </trkpt>
      <trkpt lat="43.77385" lon="7.27236">
        <ele>409</ele>
        <time>2021-02-04T11:15:20.000Z</time>
      </trkpt>
      <trkpt lat="43.77372" lon="7.27232">
        <ele>409.60000610352</ele>
        <time>2021-02-04T11:15:26.000Z</time>
      </trkpt>
      <trkpt lat="43.77365" lon="7.27233">
        <ele>409.79998779297</ele>
        <time>2021-02-04T11:15:29.000Z</time>
      </trkpt>
      <trkpt lat="43.77357" lon="7.27234">
        <ele>411</ele>
        <time>2021-02-04T11:15:33.000Z</time>
      </trkpt>
      <trkpt lat="43.77348" lon="7.27236">
        <ele>412</ele>
        <time>2021-02-04T11:15:37.000Z</time>
      </trkpt>
      <trkpt lat="43.77337" lon="7.27239">
        <ele>413.20001220703</ele>
        <time>2021-02-04T11:15:42.000Z</time>
      </trkpt>
      <trkpt lat="43.77329" lon="7.27241">
        <ele>414.20001220703</ele>
        <time>2021-02-04T11:15:46.000Z</time>
      </trkpt>
      <trkpt lat="43.77323" lon="7.27242">
        <ele>415.39999389648</ele>
        <time>2021-02-04T11:15:49.000Z</time>
      </trkpt>
      <trkpt lat="43.7732" lon="7.27243">
        <ele>415.60000610352</ele>
        <time>2021-02-04T11:15:50.000Z</time>
      </trkpt>
      <trkpt lat="43.77316" lon="7.27246">
        <ele>416.60000610352</ele>
        <time>2021-02-04T11:15:53.000Z</time>
      </trkpt>
      <trkpt lat="43.77311" lon="7.27248">
        <ele>417</ele>
        <time>2021-02-04T11:15:55.000Z</time>
      </trkpt>
      <trkpt lat="43.77304" lon="7.27251">
        <ele>417.60000610352</ele>
        <time>2021-02-04T11:15:58.000Z</time>
      </trkpt>
      <trkpt lat="43.77299" lon="7.27257">
        <ele>418.20001220703</ele>
        <time>2021-02-04T11:16:01.000Z</time>
      </trkpt>
      <trkpt lat="43.77291" lon="7.27271">
        <ele>418.79998779297</ele>
        <time>2021-02-04T11:16:06.000Z</time>
      </trkpt>
      <trkpt lat="43.77289" lon="7.27278">
        <ele>418.79998779297</ele>
        <time>2021-02-04T11:16:08.000Z</time>
      </trkpt>
      <trkpt lat="43.7728" lon="7.27308">
        <ele>419</ele>
        <time>2021-02-04T11:16:16.000Z</time>
      </trkpt>
      <trkpt lat="43.77271" lon="7.27328">
        <ele>419.39999389648</ele>
        <time>2021-02-04T11:16:22.000Z</time>
      </trkpt>
      <trkpt lat="43.77269" lon="7.27341">
        <ele>420</ele>
        <time>2021-02-04T11:16:26.000Z</time>
      </trkpt>
      <trkpt lat="43.77268" lon="7.2735">
        <ele>420.79998779297</ele>
        <time>2021-02-04T11:16:29.000Z</time>
      </trkpt>
      <trkpt lat="43.77268" lon="7.27352">
        <ele>421.20001220703</ele>
        <time>2021-02-04T11:16:30.000Z</time>
      </trkpt>
      <trkpt lat="43.77268" lon="7.27363">
        <ele>422.39999389648</ele>
        <time>2021-02-04T11:16:35.000Z</time>
      </trkpt>
      <trkpt lat="43.77264" lon="7.27373">
        <ele>423</ele>
        <time>2021-02-04T11:16:41.000Z</time>
      </trkpt>
      <trkpt lat="43.77258" lon="7.2738">
        <ele>423</ele>
        <time>2021-02-04T11:16:45.000Z</time>
      </trkpt>
      <trkpt lat="43.77246" lon="7.27386">
        <ele>422.60000610352</ele>
        <time>2021-02-04T11:16:50.000Z</time>
      </trkpt>
      <trkpt lat="43.77237" lon="7.27383">
        <ele>423.39999389648</ele>
        <time>2021-02-04T11:16:54.000Z</time>
      </trkpt>
      <trkpt lat="43.77235" lon="7.27382">
        <ele>423.60000610352</ele>
        <time>2021-02-04T11:16:55.000Z</time>
      </trkpt>
      <trkpt lat="43.77231" lon="7.27379">
        <ele>424.39999389648</ele>
        <time>2021-02-04T11:16:57.000Z</time>
      </trkpt>
      <trkpt lat="43.77223" lon="7.27375">
        <ele>425.39999389648</ele>
        <time>2021-02-04T11:17:01.000Z</time>
      </trkpt>
      <trkpt lat="43.77221" lon="7.27374">
        <ele>425.39999389648</ele>
        <time>2021-02-04T11:17:02.000Z</time>
      </trkpt>
      <trkpt lat="43.77204" lon="7.27364">
        <ele>426.39999389648</ele>
        <time>2021-02-04T11:17:10.000Z</time>
      </trkpt>
      <trkpt lat="43.77202" lon="7.27363">
        <ele>426.60000610352</ele>
        <time>2021-02-04T11:17:11.000Z</time>
      </trkpt>
      <trkpt lat="43.77191" lon="7.27361">
        <ele>427.60000610352</ele>
        <time>2021-02-04T11:17:16.000Z</time>
      </trkpt>
      <trkpt lat="43.77189" lon="7.27361">
        <ele>427.79998779297</ele>
        <time>2021-02-04T11:17:17.000Z</time>
      </trkpt>
      <trkpt lat="43.77174" lon="7.27357">
        <ele>428.79998779297</ele>
        <time>2021-02-04T11:17:23.000Z</time>
      </trkpt>
      <trkpt lat="43.77172" lon="7.27357">
        <ele>429</ele>
        <time>2021-02-04T11:17:24.000Z</time>
      </trkpt>
      <trkpt lat="43.77159" lon="7.27353">
        <ele>430</ele>
        <time>2021-02-04T11:17:30.000Z</time>
      </trkpt>
      <trkpt lat="43.77144" lon="7.27352">
        <ele>431.20001220703</ele>
        <time>2021-02-04T11:17:36.000Z</time>
      </trkpt>
      <trkpt lat="43.77139" lon="7.27352">
        <ele>431.39999389648</ele>
        <time>2021-02-04T11:17:38.000Z</time>
      </trkpt>
      <trkpt lat="43.77127" lon="7.27348">
        <ele>432.20001220703</ele>
        <time>2021-02-04T11:17:43.000Z</time>
      </trkpt>
      <trkpt lat="43.77123" lon="7.27345">
        <ele>432.39999389648</ele>
        <time>2021-02-04T11:17:45.000Z</time>
      </trkpt>
      <trkpt lat="43.77116" lon="7.2734">
        <ele>433.20001220703</ele>
        <time>2021-02-04T11:17:49.000Z</time>
      </trkpt>
      <trkpt lat="43.77107" lon="7.27335">
        <ele>434.39999389648</ele>
        <time>2021-02-04T11:17:53.000Z</time>
      </trkpt>
      <trkpt lat="43.77102" lon="7.27334">
        <ele>434.60000610352</ele>
        <time>2021-02-04T11:17:55.000Z</time>
      </trkpt>
      <trkpt lat="43.77096" lon="7.27332">
        <ele>435.39999389648</ele>
        <time>2021-02-04T11:17:58.000Z</time>
      </trkpt>
      <trkpt lat="43.77087" lon="7.27329">
        <ele>436.39999389648</ele>
        <time>2021-02-04T11:18:02.000Z</time>
      </trkpt>
      <trkpt lat="43.77085" lon="7.27328">
        <ele>436.60000610352</ele>
        <time>2021-02-04T11:18:03.000Z</time>
      </trkpt>
      <trkpt lat="43.77082" lon="7.27327">
        <ele>437.60000610352</ele>
        <time>2021-02-04T11:18:07.000Z</time>
      </trkpt>
      <trkpt lat="43.77081" lon="7.27327">
        <ele>438</ele>
        <time>2021-02-04T11:18:23.000Z</time>
      </trkpt>
      <trkpt lat="43.77081" lon="7.27328">
        <ele>437.79998779297</ele>
        <time>2021-02-04T11:18:43.000Z</time>
      </trkpt>
      <trkpt lat="43.77081" lon="7.27328">
        <ele>437.60000610352</ele>
        <time>2021-02-04T11:19:03.000Z</time>
      </trkpt>
      <trkpt lat="43.77079" lon="7.27328">
        <ele>437.60000610352</ele>
        <time>2021-02-04T11:19:25.000Z</time>
      </trkpt>
      <trkpt lat="43.77079" lon="7.27328">
        <ele>437.39999389648</ele>
        <time>2021-02-04T11:19:43.000Z</time>
      </trkpt>
      <trkpt lat="43.77079" lon="7.27328">
        <ele>437.60000610352</ele>
        <time>2021-02-04T11:19:58.000Z</time>
      </trkpt>
      <trkpt lat="43.77077" lon="7.27327">
        <ele>437.39999389648</ele>
        <time>2021-02-04T11:20:02.000Z</time>
      </trkpt>
      <trkpt lat="43.77074" lon="7.27326">
        <ele>437.39999389648</ele>
        <time>2021-02-04T11:20:04.000Z</time>
      </trkpt>
      <trkpt lat="43.77061" lon="7.27324">
        <ele>438.20001220703</ele>
        <time>2021-02-04T11:20:09.000Z</time>
      </trkpt>
      <trkpt lat="43.77054" lon="7.27316">
        <ele>438.79998779297</ele>
        <time>2021-02-04T11:20:12.000Z</time>
      </trkpt>
      <trkpt lat="43.77054" lon="7.27312">
        <ele>439</ele>
        <time>2021-02-04T11:20:13.000Z</time>
      </trkpt>
      <trkpt lat="43.77061" lon="7.27308">
        <ele>440</ele>
        <time>2021-02-04T11:20:16.000Z</time>
      </trkpt>
      <trkpt lat="43.7707" lon="7.2731">
        <ele>441</ele>
        <time>2021-02-04T11:20:19.000Z</time>
      </trkpt>
      <trkpt lat="43.77072" lon="7.27309">
        <ele>441.39999389648</ele>
        <time>2021-02-04T11:20:20.000Z</time>
      </trkpt>
      <trkpt lat="43.77075" lon="7.2731">
        <ele>441.60000610352</ele>
        <time>2021-02-04T11:20:21.000Z</time>
      </trkpt>
      <trkpt lat="43.77083" lon="7.2731">
        <ele>442.60000610352</ele>
        <time>2021-02-04T11:20:24.000Z</time>
      </trkpt>
      <trkpt lat="43.77087" lon="7.27306">
        <ele>443.20001220703</ele>
        <time>2021-02-04T11:20:26.000Z</time>
      </trkpt>
      <trkpt lat="43.77088" lon="7.27298">
        <ele>443.79998779297</ele>
        <time>2021-02-04T11:20:28.000Z</time>
      </trkpt>
      <trkpt lat="43.77086" lon="7.27291">
        <ele>444.60000610352</ele>
        <time>2021-02-04T11:20:30.000Z</time>
      </trkpt>
      <trkpt lat="43.77084" lon="7.27289">
        <ele>444.79998779297</ele>
        <time>2021-02-04T11:20:31.000Z</time>
      </trkpt>
      <trkpt lat="43.77076" lon="7.27281">
        <ele>446.20001220703</ele>
        <time>2021-02-04T11:20:34.000Z</time>
      </trkpt>
      <trkpt lat="43.77073" lon="7.27279">
        <ele>446.79998779297</ele>
        <time>2021-02-04T11:20:35.000Z</time>
      </trkpt>
      <trkpt lat="43.77068" lon="7.27275">
        <ele>447.60000610352</ele>
        <time>2021-02-04T11:20:37.000Z</time>
      </trkpt>
      <trkpt lat="43.77056" lon="7.27269">
        <ele>448.79998779297</ele>
        <time>2021-02-04T11:20:41.000Z</time>
      </trkpt>
      <trkpt lat="43.77047" lon="7.27269">
        <ele>450</ele>
        <time>2021-02-04T11:20:44.000Z</time>
      </trkpt>
      <trkpt lat="43.77045" lon="7.2727">
        <ele>450.39999389648</ele>
        <time>2021-02-04T11:20:45.000Z</time>
      </trkpt>
      <trkpt lat="43.77039" lon="7.27272">
        <ele>451</ele>
        <time>2021-02-04T11:20:47.000Z</time>
      </trkpt>
      <trkpt lat="43.7703" lon="7.27276">
        <ele>452.20001220703</ele>
        <time>2021-02-04T11:20:50.000Z</time>
      </trkpt>
      <trkpt lat="43.77022" lon="7.27279">
        <ele>453.39999389648</ele>
        <time>2021-02-04T11:20:53.000Z</time>
      </trkpt>
      <trkpt lat="43.77012" lon="7.27283">
        <ele>454.79998779297</ele>
        <time>2021-02-04T11:20:57.000Z</time>
      </trkpt>
      <trkpt lat="43.77006" lon="7.27286">
        <ele>455.60000610352</ele>
        <time>2021-02-04T11:20:59.000Z</time>
      </trkpt>
      <trkpt lat="43.77003" lon="7.27287">
        <ele>455.79998779297</ele>
        <time>2021-02-04T11:21:00.000Z</time>
      </trkpt>
      <trkpt lat="43.76991" lon="7.27291">
        <ele>457</ele>
        <time>2021-02-04T11:21:04.000Z</time>
      </trkpt>
      <trkpt lat="43.76986" lon="7.27291">
        <ele>457.79998779297</ele>
        <time>2021-02-04T11:21:06.000Z</time>
      </trkpt>
      <trkpt lat="43.76983" lon="7.27291">
        <ele>458</ele>
        <time>2021-02-04T11:21:07.000Z</time>
      </trkpt>
      <trkpt lat="43.76972" lon="7.27291">
        <ele>459.20001220703</ele>
        <time>2021-02-04T11:21:11.000Z</time>
      </trkpt>
      <trkpt lat="43.76962" lon="7.27291">
        <ele>460.20001220703</ele>
        <time>2021-02-04T11:21:14.000Z</time>
      </trkpt>
      <trkpt lat="43.7695" lon="7.27293">
        <ele>461.60000610352</ele>
        <time>2021-02-04T11:21:18.000Z</time>
      </trkpt>
      <trkpt lat="43.76942" lon="7.27295">
        <ele>462.60000610352</ele>
        <time>2021-02-04T11:21:21.000Z</time>
      </trkpt>
      <trkpt lat="43.76934" lon="7.27298">
        <ele>463.79998779297</ele>
        <time>2021-02-04T11:21:24.000Z</time>
      </trkpt>
      <trkpt lat="43.76926" lon="7.273">
        <ele>464.79998779297</ele>
        <time>2021-02-04T11:21:27.000Z</time>
      </trkpt>
      <trkpt lat="43.76918" lon="7.27303">
        <ele>465.79998779297</ele>
        <time>2021-02-04T11:21:30.000Z</time>
      </trkpt>
      <trkpt lat="43.76908" lon="7.27307">
        <ele>467.20001220703</ele>
        <time>2021-02-04T11:21:34.000Z</time>
      </trkpt>
      <trkpt lat="43.76896" lon="7.2731">
        <ele>468.20001220703</ele>
        <time>2021-02-04T11:21:38.000Z</time>
      </trkpt>
      <trkpt lat="43.76885" lon="7.27314">
        <ele>469.39999389648</ele>
        <time>2021-02-04T11:21:42.000Z</time>
      </trkpt>
      <trkpt lat="43.76877" lon="7.27317">
        <ele>470.60000610352</ele>
        <time>2021-02-04T11:21:45.000Z</time>
      </trkpt>
      <trkpt lat="43.76868" lon="7.2732">
        <ele>471.60000610352</ele>
        <time>2021-02-04T11:21:48.000Z</time>
      </trkpt>
      <trkpt lat="43.76863" lon="7.27321">
        <ele>472.20001220703</ele>
        <time>2021-02-04T11:21:50.000Z</time>
      </trkpt>
      <trkpt lat="43.76854" lon="7.27323">
        <ele>472.79998779297</ele>
        <time>2021-02-04T11:21:53.000Z</time>
      </trkpt>
      <trkpt lat="43.76846" lon="7.27326">
        <ele>473.79998779297</ele>
        <time>2021-02-04T11:21:56.000Z</time>
      </trkpt>
      <trkpt lat="43.7684" lon="7.27327">
        <ele>474.60000610352</ele>
        <time>2021-02-04T11:21:58.000Z</time>
      </trkpt>
      <trkpt lat="43.76837" lon="7.27327">
        <ele>475</ele>
        <time>2021-02-04T11:21:59.000Z</time>
      </trkpt>
      <trkpt lat="43.76829" lon="7.27327">
        <ele>476</ele>
        <time>2021-02-04T11:22:02.000Z</time>
      </trkpt>
      <trkpt lat="43.76817" lon="7.27328">
        <ele>477.20001220703</ele>
        <time>2021-02-04T11:22:06.000Z</time>
      </trkpt>
      <trkpt lat="43.76814" lon="7.27328">
        <ele>477.39999389648</ele>
        <time>2021-02-04T11:22:07.000Z</time>
      </trkpt>
      <trkpt lat="43.76806" lon="7.27328">
        <ele>478.39999389648</ele>
        <time>2021-02-04T11:22:10.000Z</time>
      </trkpt>
      <trkpt lat="43.76794" lon="7.27327">
        <ele>479.39999389648</ele>
        <time>2021-02-04T11:22:14.000Z</time>
      </trkpt>
      <trkpt lat="43.76791" lon="7.27327">
        <ele>479.60000610352</ele>
        <time>2021-02-04T11:22:15.000Z</time>
      </trkpt>
      <trkpt lat="43.76781" lon="7.27326">
        <ele>480.60000610352</ele>
        <time>2021-02-04T11:22:18.000Z</time>
      </trkpt>
      <trkpt lat="43.76773" lon="7.27326">
        <ele>482</ele>
        <time>2021-02-04T11:22:21.000Z</time>
      </trkpt>
      <trkpt lat="43.76765" lon="7.27325">
        <ele>483.20001220703</ele>
        <time>2021-02-04T11:22:24.000Z</time>
      </trkpt>
      <trkpt lat="43.76765" lon="7.27325">
        <ele>484.39999389648</ele>
        <time>2021-02-04T11:22:28.000Z</time>
      </trkpt>
      <trkpt lat="43.76756" lon="7.27324">
        <ele>484.60000610352</ele>
        <time>2021-02-04T11:22:32.000Z</time>
      </trkpt>
      <trkpt lat="43.76741" lon="7.27322">
        <ele>485.39999389648</ele>
        <time>2021-02-04T11:22:38.000Z</time>
      </trkpt>
      <trkpt lat="43.76734" lon="7.27321">
        <ele>486.60000610352</ele>
        <time>2021-02-04T11:22:41.000Z</time>
      </trkpt>
      <trkpt lat="43.76723" lon="7.27318">
        <ele>487.60000610352</ele>
        <time>2021-02-04T11:22:45.000Z</time>
      </trkpt>
      <trkpt lat="43.76712" lon="7.27316">
        <ele>488.39999389648</ele>
        <time>2021-02-04T11:22:49.000Z</time>
      </trkpt>
      <trkpt lat="43.76709" lon="7.27315">
        <ele>488.60000610352</ele>
        <time>2021-02-04T11:22:50.000Z</time>
      </trkpt>
      <trkpt lat="43.76701" lon="7.27312">
        <ele>489.79998779297</ele>
        <time>2021-02-04T11:22:53.000Z</time>
      </trkpt>
      <trkpt lat="43.76696" lon="7.27308">
        <ele>491</ele>
        <time>2021-02-04T11:22:55.000Z</time>
      </trkpt>
      <trkpt lat="43.76694" lon="7.27306">
        <ele>491.60000610352</ele>
        <time>2021-02-04T11:22:56.000Z</time>
      </trkpt>
      <trkpt lat="43.76692" lon="7.27304">
        <ele>492.20001220703</ele>
        <time>2021-02-04T11:22:57.000Z</time>
      </trkpt>
      <trkpt lat="43.76688" lon="7.27295">
        <ele>493.60000610352</ele>
        <time>2021-02-04T11:23:00.000Z</time>
      </trkpt>
      <trkpt lat="43.76686" lon="7.27289">
        <ele>494.20001220703</ele>
        <time>2021-02-04T11:23:02.000Z</time>
      </trkpt>
      <trkpt lat="43.76683" lon="7.27282">
        <ele>494.79998779297</ele>
        <time>2021-02-04T11:23:04.000Z</time>
      </trkpt>
      <trkpt lat="43.76675" lon="7.27275">
        <ele>495.39999389648</ele>
        <time>2021-02-04T11:23:07.000Z</time>
      </trkpt>
      <trkpt lat="43.76657" lon="7.27272">
        <ele>495.79998779297</ele>
        <time>2021-02-04T11:23:12.000Z</time>
      </trkpt>
      <trkpt lat="43.76654" lon="7.27271">
        <ele>496</ele>
        <time>2021-02-04T11:23:13.000Z</time>
      </trkpt>
      <trkpt lat="43.76634" lon="7.27266">
        <ele>496.20001220703</ele>
        <time>2021-02-04T11:23:18.000Z</time>
      </trkpt>
      <trkpt lat="43.76622" lon="7.27262">
        <ele>496.60000610352</ele>
        <time>2021-02-04T11:23:21.000Z</time>
      </trkpt>
      <trkpt lat="43.76614" lon="7.27261">
        <ele>496.79998779297</ele>
        <time>2021-02-04T11:23:23.000Z</time>
      </trkpt>
      <trkpt lat="43.76604" lon="7.27262">
        <ele>497.79998779297</ele>
        <time>2021-02-04T11:23:26.000Z</time>
      </trkpt>
      <trkpt lat="43.766" lon="7.27263">
        <ele>498.20001220703</ele>
        <time>2021-02-04T11:23:27.000Z</time>
      </trkpt>
      <trkpt lat="43.76595" lon="7.2727">
        <ele>499.39999389648</ele>
        <time>2021-02-04T11:23:29.000Z</time>
      </trkpt>
      <trkpt lat="43.76592" lon="7.27273">
        <ele>500</ele>
        <time>2021-02-04T11:23:30.000Z</time>
      </trkpt>
      <trkpt lat="43.76589" lon="7.27275">
        <ele>501</ele>
        <time>2021-02-04T11:23:31.000Z</time>
      </trkpt>
      <trkpt lat="43.76582" lon="7.27277">
        <ele>502</ele>
        <time>2021-02-04T11:23:33.000Z</time>
      </trkpt>
      <trkpt lat="43.76578" lon="7.27277">
        <ele>502.39999389648</ele>
        <time>2021-02-04T11:23:34.000Z</time>
      </trkpt>
      <trkpt lat="43.76572" lon="7.27273">
        <ele>503.20001220703</ele>
        <time>2021-02-04T11:23:36.000Z</time>
      </trkpt>
      <trkpt lat="43.76568" lon="7.27266">
        <ele>503.60000610352</ele>
        <time>2021-02-04T11:23:38.000Z</time>
      </trkpt>
      <trkpt lat="43.76564" lon="7.27263">
        <ele>504.39999389648</ele>
        <time>2021-02-04T11:23:42.000Z</time>
      </trkpt>
      <trkpt lat="43.76564" lon="7.27264">
        <ele>505.39999389648</ele>
        <time>2021-02-04T11:23:47.000Z</time>
      </trkpt>
      <trkpt lat="43.76564" lon="7.27264">
        <ele>505.20001220703</ele>
        <time>2021-02-04T11:23:49.000Z</time>
      </trkpt>
      <trkpt lat="43.76563" lon="7.27265">
        <ele>504.79998779297</ele>
        <time>2021-02-04T11:24:00.000Z</time>
      </trkpt>
      <trkpt lat="43.76562" lon="7.27266">
        <ele>504.39999389648</ele>
        <time>2021-02-04T11:24:06.000Z</time>
      </trkpt>
      <trkpt lat="43.76562" lon="7.27267">
        <ele>504.60000610352</ele>
        <time>2021-02-04T11:24:11.000Z</time>
      </trkpt>
      <trkpt lat="43.7656" lon="7.27277">
        <ele>504.39999389648</ele>
        <time>2021-02-04T11:24:15.000Z</time>
      </trkpt>
      <trkpt lat="43.76558" lon="7.27284">
        <ele>504.20001220703</ele>
        <time>2021-02-04T11:24:18.000Z</time>
      </trkpt>
      <trkpt lat="43.76556" lon="7.27285">
        <ele>504</ele>
        <time>2021-02-04T11:24:19.000Z</time>
      </trkpt>
      <trkpt lat="43.7655" lon="7.27288">
        <ele>503.20001220703</ele>
        <time>2021-02-04T11:24:22.000Z</time>
      </trkpt>
      <trkpt lat="43.76548" lon="7.27289">
        <ele>503</ele>
        <time>2021-02-04T11:24:23.000Z</time>
      </trkpt>
      <trkpt lat="43.76542" lon="7.27297">
        <ele>503.79998779297</ele>
        <time>2021-02-04T11:24:27.000Z</time>
      </trkpt>
      <trkpt lat="43.76538" lon="7.27299">
        <ele>504.39999389648</ele>
        <time>2021-02-04T11:24:29.000Z</time>
      </trkpt>
      <trkpt lat="43.76536" lon="7.27301">
        <ele>505</ele>
        <time>2021-02-04T11:24:31.000Z</time>
      </trkpt>
      <trkpt lat="43.76536" lon="7.27304">
        <ele>505</ele>
        <time>2021-02-04T11:24:32.000Z</time>
      </trkpt>
      <trkpt lat="43.76535" lon="7.27306">
        <ele>505.60000610352</ele>
        <time>2021-02-04T11:24:33.000Z</time>
      </trkpt>
      <trkpt lat="43.76534" lon="7.27309">
        <ele>505.79998779297</ele>
        <time>2021-02-04T11:24:35.000Z</time>
      </trkpt>
      <trkpt lat="43.76535" lon="7.27322">
        <ele>506.39999389648</ele>
        <time>2021-02-04T11:24:39.000Z</time>
      </trkpt>
      <trkpt lat="43.76531" lon="7.27328">
        <ele>506.60000610352</ele>
        <time>2021-02-04T11:24:42.000Z</time>
      </trkpt>
      <trkpt lat="43.76529" lon="7.27327">
        <ele>506.79998779297</ele>
        <time>2021-02-04T11:24:43.000Z</time>
      </trkpt>
      <trkpt lat="43.76524" lon="7.27324">
        <ele>507.39999389648</ele>
        <time>2021-02-04T11:24:47.000Z</time>
      </trkpt>
      <trkpt lat="43.76522" lon="7.27324">
        <ele>507.60000610352</ele>
        <time>2021-02-04T11:24:48.000Z</time>
      </trkpt>
      <trkpt lat="43.7652" lon="7.27325">
        <ele>507.79998779297</ele>
        <time>2021-02-04T11:24:49.000Z</time>
      </trkpt>
      <trkpt lat="43.76518" lon="7.27327">
        <ele>508</ele>
        <time>2021-02-04T11:24:51.000Z</time>
      </trkpt>
      <trkpt lat="43.76518" lon="7.27328">
        <ele>508</ele>
        <time>2021-02-04T11:24:52.000Z</time>
      </trkpt>
      <trkpt lat="43.76518" lon="7.27329">
        <ele>508.60000610352</ele>
        <time>2021-02-04T11:24:57.000Z</time>
      </trkpt>
      <trkpt lat="43.76517" lon="7.27332">
        <ele>508.79998779297</ele>
        <time>2021-02-04T11:24:58.000Z</time>
      </trkpt>
      <trkpt lat="43.76517" lon="7.27339">
        <ele>509.39999389648</ele>
        <time>2021-02-04T11:25:01.000Z</time>
      </trkpt>
      <trkpt lat="43.76515" lon="7.27342">
        <ele>509.39999389648</ele>
        <time>2021-02-04T11:25:02.000Z</time>
      </trkpt>
      <trkpt lat="43.7651" lon="7.27342">
        <ele>509</ele>
        <time>2021-02-04T11:25:04.000Z</time>
      </trkpt>
      <trkpt lat="43.76504" lon="7.27347">
        <ele>508.60000610352</ele>
        <time>2021-02-04T11:25:06.000Z</time>
      </trkpt>
      <trkpt lat="43.76497" lon="7.27353">
        <ele>508.20001220703</ele>
        <time>2021-02-04T11:25:08.000Z</time>
      </trkpt>
      <trkpt lat="43.76491" lon="7.27359">
        <ele>507.60000610352</ele>
        <time>2021-02-04T11:25:10.000Z</time>
      </trkpt>
      <trkpt lat="43.76477" lon="7.27366">
        <ele>506.60000610352</ele>
        <time>2021-02-04T11:25:14.000Z</time>
      </trkpt>
      <trkpt lat="43.76473" lon="7.27369">
        <ele>506.39999389648</ele>
        <time>2021-02-04T11:25:17.000Z</time>
      </trkpt>
      <trkpt lat="43.76471" lon="7.27373">
        <ele>506.39999389648</ele>
        <time>2021-02-04T11:25:19.000Z</time>
      </trkpt>
      <trkpt lat="43.7647" lon="7.27375">
        <ele>506.79998779297</ele>
        <time>2021-02-04T11:25:21.000Z</time>
      </trkpt>
      <trkpt lat="43.76466" lon="7.27385">
        <ele>506.79998779297</ele>
        <time>2021-02-04T11:25:25.000Z</time>
      </trkpt>
      <trkpt lat="43.76465" lon="7.27389">
        <ele>506.20001220703</ele>
        <time>2021-02-04T11:25:27.000Z</time>
      </trkpt>
      <trkpt lat="43.76463" lon="7.27391">
        <ele>506</ele>
        <time>2021-02-04T11:25:29.000Z</time>
      </trkpt>
      <trkpt lat="43.76455" lon="7.27398">
        <ele>505.79998779297</ele>
        <time>2021-02-04T11:25:33.000Z</time>
      </trkpt>
      <trkpt lat="43.76448" lon="7.27401">
        <ele>505.20001220703</ele>
        <time>2021-02-04T11:25:36.000Z</time>
      </trkpt>
      <trkpt lat="43.76445" lon="7.27401">
        <ele>504.79998779297</ele>
        <time>2021-02-04T11:25:38.000Z</time>
      </trkpt>
      <trkpt lat="43.76444" lon="7.27402">
        <ele>504.39999389648</ele>
        <time>2021-02-04T11:25:44.000Z</time>
      </trkpt>
      <trkpt lat="43.76434" lon="7.274">
        <ele>504.39999389648</ele>
        <time>2021-02-04T11:25:48.000Z</time>
      </trkpt>
      <trkpt lat="43.76427" lon="7.27404">
        <ele>504</ele>
        <time>2021-02-04T11:25:50.000Z</time>
      </trkpt>
      <trkpt lat="43.76423" lon="7.27407">
        <ele>503.60000610352</ele>
        <time>2021-02-04T11:25:51.000Z</time>
      </trkpt>
      <trkpt lat="43.76414" lon="7.27411">
        <ele>502.39999389648</ele>
        <time>2021-02-04T11:25:53.000Z</time>
      </trkpt>
      <trkpt lat="43.76408" lon="7.27412">
        <ele>501.20001220703</ele>
        <time>2021-02-04T11:25:55.000Z</time>
      </trkpt>
      <trkpt lat="43.76404" lon="7.27416">
        <ele>500.79998779297</ele>
        <time>2021-02-04T11:25:57.000Z</time>
      </trkpt>
      <trkpt lat="43.76404" lon="7.27421">
        <ele>500.39999389648</ele>
        <time>2021-02-04T11:25:58.000Z</time>
      </trkpt>
      <trkpt lat="43.76401" lon="7.27425">
        <ele>500</ele>
        <time>2021-02-04T11:25:59.000Z</time>
      </trkpt>
      <trkpt lat="43.76389" lon="7.2744">
        <ele>498.79998779297</ele>
        <time>2021-02-04T11:26:03.000Z</time>
      </trkpt>
      <trkpt lat="43.76383" lon="7.27435">
        <ele>498</ele>
        <time>2021-02-04T11:26:06.000Z</time>
      </trkpt>
      <trkpt lat="43.76382" lon="7.27431">
        <ele>497.39999389648</ele>
        <time>2021-02-04T11:26:08.000Z</time>
      </trkpt>
      <trkpt lat="43.7638" lon="7.2743">
        <ele>497.20001220703</ele>
        <time>2021-02-04T11:26:09.000Z</time>
      </trkpt>
      <trkpt lat="43.76373" lon="7.27426">
        <ele>496.20001220703</ele>
        <time>2021-02-04T11:26:12.000Z</time>
      </trkpt>
      <trkpt lat="43.7637" lon="7.27425">
        <ele>496.20001220703</ele>
        <time>2021-02-04T11:26:13.000Z</time>
      </trkpt>
      <trkpt lat="43.76369" lon="7.27419">
        <ele>495.60000610352</ele>
        <time>2021-02-04T11:26:15.000Z</time>
      </trkpt>
      <trkpt lat="43.76365" lon="7.27417">
        <ele>495.20001220703</ele>
        <time>2021-02-04T11:26:17.000Z</time>
      </trkpt>
      <trkpt lat="43.76362" lon="7.27418">
        <ele>495</ele>
        <time>2021-02-04T11:26:18.000Z</time>
      </trkpt>
      <trkpt lat="43.76356" lon="7.27408">
        <ele>493.79998779297</ele>
        <time>2021-02-04T11:26:21.000Z</time>
      </trkpt>
      <trkpt lat="43.76352" lon="7.27405">
        <ele>492.79998779297</ele>
        <time>2021-02-04T11:26:24.000Z</time>
      </trkpt>
      <trkpt lat="43.76347" lon="7.27407">
        <ele>491.20001220703</ele>
        <time>2021-02-04T11:26:26.000Z</time>
      </trkpt>
      <trkpt lat="43.76345" lon="7.27405">
        <ele>490.79998779297</ele>
        <time>2021-02-04T11:26:27.000Z</time>
      </trkpt>
      <trkpt lat="43.76342" lon="7.27399">
        <ele>490.39999389648</ele>
        <time>2021-02-04T11:26:28.000Z</time>
      </trkpt>
      <trkpt lat="43.7634" lon="7.27396">
        <ele>489.60000610352</ele>
        <time>2021-02-04T11:26:29.000Z</time>
      </trkpt>
      <trkpt lat="43.76336" lon="7.27396">
        <ele>489.20001220703</ele>
        <time>2021-02-04T11:26:30.000Z</time>
      </trkpt>
      <trkpt lat="43.76333" lon="7.27395">
        <ele>488.79998779297</ele>
        <time>2021-02-04T11:26:31.000Z</time>
      </trkpt>
      <trkpt lat="43.76329" lon="7.27394">
        <ele>488.39999389648</ele>
        <time>2021-02-04T11:26:32.000Z</time>
      </trkpt>
      <trkpt lat="43.76324" lon="7.27397">
        <ele>487.60000610352</ele>
        <time>2021-02-04T11:26:34.000Z</time>
      </trkpt>
      <trkpt lat="43.7632" lon="7.27398">
        <ele>487.20001220703</ele>
        <time>2021-02-04T11:26:35.000Z</time>
      </trkpt>
      <trkpt lat="43.76318" lon="7.2739">
        <ele>486.60000610352</ele>
        <time>2021-02-04T11:26:37.000Z</time>
      </trkpt>
      <trkpt lat="43.76318" lon="7.27387">
        <ele>485.79998779297</ele>
        <time>2021-02-04T11:26:38.000Z</time>
      </trkpt>
      <trkpt lat="43.76317" lon="7.27382">
        <ele>485.39999389648</ele>
        <time>2021-02-04T11:26:39.000Z</time>
      </trkpt>
      <trkpt lat="43.76316" lon="7.27377">
        <ele>484.79998779297</ele>
        <time>2021-02-04T11:26:40.000Z</time>
      </trkpt>
      <trkpt lat="43.76314" lon="7.27375">
        <ele>484.39999389648</ele>
        <time>2021-02-04T11:26:41.000Z</time>
      </trkpt>
      <trkpt lat="43.76311" lon="7.27371">
        <ele>483.79998779297</ele>
        <time>2021-02-04T11:26:42.000Z</time>
      </trkpt>
      <trkpt lat="43.76307" lon="7.27362">
        <ele>481.79998779297</ele>
        <time>2021-02-04T11:26:44.000Z</time>
      </trkpt>
      <trkpt lat="43.76306" lon="7.27358">
        <ele>480.39999389648</ele>
        <time>2021-02-04T11:26:45.000Z</time>
      </trkpt>
      <trkpt lat="43.76304" lon="7.27353">
        <ele>479.60000610352</ele>
        <time>2021-02-04T11:26:46.000Z</time>
      </trkpt>
      <trkpt lat="43.76302" lon="7.27348">
        <ele>478</ele>
        <time>2021-02-04T11:26:47.000Z</time>
      </trkpt>
      <trkpt lat="43.763" lon="7.2734">
        <ele>477.20001220703</ele>
        <time>2021-02-04T11:26:49.000Z</time>
      </trkpt>
      <trkpt lat="43.76296" lon="7.27339">
        <ele>476.39999389648</ele>
        <time>2021-02-04T11:26:50.000Z</time>
      </trkpt>
      <trkpt lat="43.7629" lon="7.27343">
        <ele>475.20001220703</ele>
        <time>2021-02-04T11:26:52.000Z</time>
      </trkpt>
      <trkpt lat="43.76283" lon="7.27354">
        <ele>473.79998779297</ele>
        <time>2021-02-04T11:26:55.000Z</time>
      </trkpt>
      <trkpt lat="43.76279" lon="7.27354">
        <ele>473</ele>
        <time>2021-02-04T11:26:57.000Z</time>
      </trkpt>
      <trkpt lat="43.76278" lon="7.27351">
        <ele>472.60000610352</ele>
        <time>2021-02-04T11:26:58.000Z</time>
      </trkpt>
      <trkpt lat="43.76273" lon="7.27344">
        <ele>471</ele>
        <time>2021-02-04T11:27:01.000Z</time>
      </trkpt>
      <trkpt lat="43.76267" lon="7.2735">
        <ele>469.60000610352</ele>
        <time>2021-02-04T11:27:03.000Z</time>
      </trkpt>
      <trkpt lat="43.76264" lon="7.27351">
        <ele>469</ele>
        <time>2021-02-04T11:27:04.000Z</time>
      </trkpt>
      <trkpt lat="43.76263" lon="7.27348">
        <ele>468</ele>
        <time>2021-02-04T11:27:05.000Z</time>
      </trkpt>
      <trkpt lat="43.76262" lon="7.27344">
        <ele>467.39999389648</ele>
        <time>2021-02-04T11:27:06.000Z</time>
      </trkpt>
      <trkpt lat="43.7626" lon="7.27338">
        <ele>466.60000610352</ele>
        <time>2021-02-04T11:27:07.000Z</time>
      </trkpt>
      <trkpt lat="43.76261" lon="7.27334">
        <ele>465.79998779297</ele>
        <time>2021-02-04T11:27:08.000Z</time>
      </trkpt>
      <trkpt lat="43.76262" lon="7.27331">
        <ele>465.20001220703</ele>
        <time>2021-02-04T11:27:09.000Z</time>
      </trkpt>
      <trkpt lat="43.76257" lon="7.27329">
        <ele>464.39999389648</ele>
        <time>2021-02-04T11:27:11.000Z</time>
      </trkpt>
      <trkpt lat="43.76253" lon="7.27331">
        <ele>464</ele>
        <time>2021-02-04T11:27:12.000Z</time>
      </trkpt>
      <trkpt lat="43.76243" lon="7.27337">
        <ele>463.20001220703</ele>
        <time>2021-02-04T11:27:14.000Z</time>
      </trkpt>
      <trkpt lat="43.76239" lon="7.27337">
        <ele>463</ele>
        <time>2021-02-04T11:27:15.000Z</time>
      </trkpt>
      <trkpt lat="43.76236" lon="7.27335">
        <ele>462.39999389648</ele>
        <time>2021-02-04T11:27:16.000Z</time>
      </trkpt>
      <trkpt lat="43.76235" lon="7.2733">
        <ele>461.60000610352</ele>
        <time>2021-02-04T11:27:17.000Z</time>
      </trkpt>
      <trkpt lat="43.76234" lon="7.27327">
        <ele>460.39999389648</ele>
        <time>2021-02-04T11:27:18.000Z</time>
      </trkpt>
      <trkpt lat="43.76232" lon="7.27326">
        <ele>458.79998779297</ele>
        <time>2021-02-04T11:27:19.000Z</time>
      </trkpt>
      <trkpt lat="43.76231" lon="7.27327">
        <ele>457.79998779297</ele>
        <time>2021-02-04T11:27:20.000Z</time>
      </trkpt>
      <trkpt lat="43.76228" lon="7.27331">
        <ele>456</ele>
        <time>2021-02-04T11:27:22.000Z</time>
      </trkpt>
      <trkpt lat="43.76227" lon="7.27332">
        <ele>454.79998779297</ele>
        <time>2021-02-04T11:27:25.000Z</time>
      </trkpt>
      <trkpt lat="43.76227" lon="7.27332">
        <ele>454.79998779297</ele>
        <time>2021-02-04T11:27:26.000Z</time>
      </trkpt>
      <trkpt lat="43.76226" lon="7.27332">
        <ele>455</ele>
        <time>2021-02-04T11:27:30.000Z</time>
      </trkpt>
      <trkpt lat="43.76223" lon="7.27329">
        <ele>455</ele>
        <time>2021-02-04T11:27:32.000Z</time>
      </trkpt>
      <trkpt lat="43.76221" lon="7.27325">
        <ele>454.79998779297</ele>
        <time>2021-02-04T11:27:35.000Z</time>
      </trkpt>
      <trkpt lat="43.76214" lon="7.27324">
        <ele>453.79998779297</ele>
        <time>2021-02-04T11:27:38.000Z</time>
      </trkpt>
      <trkpt lat="43.76213" lon="7.27325">
        <ele>453.20001220703</ele>
        <time>2021-02-04T11:27:39.000Z</time>
      </trkpt>
      <trkpt lat="43.76211" lon="7.27327">
        <ele>452.20001220703</ele>
        <time>2021-02-04T11:27:40.000Z</time>
      </trkpt>
      <trkpt lat="43.76208" lon="7.27329">
        <ele>451.60000610352</ele>
        <time>2021-02-04T11:27:41.000Z</time>
      </trkpt>
      <trkpt lat="43.76205" lon="7.27331">
        <ele>451.20001220703</ele>
        <time>2021-02-04T11:27:42.000Z</time>
      </trkpt>
      <trkpt lat="43.76201" lon="7.27328">
        <ele>450.60000610352</ele>
        <time>2021-02-04T11:27:44.000Z</time>
      </trkpt>
      <trkpt lat="43.76199" lon="7.27321">
        <ele>450</ele>
        <time>2021-02-04T11:27:47.000Z</time>
      </trkpt>
      <trkpt lat="43.76191" lon="7.27325">
        <ele>449</ele>
        <time>2021-02-04T11:27:50.000Z</time>
      </trkpt>
      <trkpt lat="43.7619" lon="7.27322">
        <ele>448.39999389648</ele>
        <time>2021-02-04T11:27:51.000Z</time>
      </trkpt>
      <trkpt lat="43.76191" lon="7.27318">
        <ele>448</ele>
        <time>2021-02-04T11:27:52.000Z</time>
      </trkpt>
      <trkpt lat="43.76194" lon="7.27314">
        <ele>447</ele>
        <time>2021-02-04T11:27:54.000Z</time>
      </trkpt>
      <trkpt lat="43.76192" lon="7.27312">
        <ele>446.39999389648</ele>
        <time>2021-02-04T11:27:55.000Z</time>
      </trkpt>
      <trkpt lat="43.76184" lon="7.2731">
        <ele>445.39999389648</ele>
        <time>2021-02-04T11:27:58.000Z</time>
      </trkpt>
      <trkpt lat="43.76181" lon="7.27304">
        <ele>444.79998779297</ele>
        <time>2021-02-04T11:28:00.000Z</time>
      </trkpt>
      <trkpt lat="43.76179" lon="7.27303">
        <ele>444</ele>
        <time>2021-02-04T11:28:01.000Z</time>
      </trkpt>
      <trkpt lat="43.76172" lon="7.27301">
        <ele>442.60000610352</ele>
        <time>2021-02-04T11:28:04.000Z</time>
      </trkpt>
      <trkpt lat="43.76169" lon="7.273">
        <ele>442.20001220703</ele>
        <time>2021-02-04T11:28:05.000Z</time>
      </trkpt>
      <trkpt lat="43.76168" lon="7.27297">
        <ele>441.39999389648</ele>
        <time>2021-02-04T11:28:06.000Z</time>
      </trkpt>
      <trkpt lat="43.76168" lon="7.27294">
        <ele>441.20001220703</ele>
        <time>2021-02-04T11:28:07.000Z</time>
      </trkpt>
      <trkpt lat="43.7617" lon="7.27288">
        <ele>440</ele>
        <time>2021-02-04T11:28:09.000Z</time>
      </trkpt>
      <trkpt lat="43.76169" lon="7.27286">
        <ele>439.79998779297</ele>
        <time>2021-02-04T11:28:10.000Z</time>
      </trkpt>
      <trkpt lat="43.76165" lon="7.27287">
        <ele>438.39999389648</ele>
        <time>2021-02-04T11:28:12.000Z</time>
      </trkpt>
      <trkpt lat="43.76163" lon="7.27286">
        <ele>437.79998779297</ele>
        <time>2021-02-04T11:28:13.000Z</time>
      </trkpt>
      <trkpt lat="43.76163" lon="7.27283">
        <ele>437.20001220703</ele>
        <time>2021-02-04T11:28:14.000Z</time>
      </trkpt>
      <trkpt lat="43.76165" lon="7.27279">
        <ele>436</ele>
        <time>2021-02-04T11:28:16.000Z</time>
      </trkpt>
      <trkpt lat="43.7616" lon="7.27277">
        <ele>435.20001220703</ele>
        <time>2021-02-04T11:28:19.000Z</time>
      </trkpt>
      <trkpt lat="43.76159" lon="7.27279">
        <ele>434.79998779297</ele>
        <time>2021-02-04T11:28:20.000Z</time>
      </trkpt>
      <trkpt lat="43.76154" lon="7.2728">
        <ele>434</ele>
        <time>2021-02-04T11:28:22.000Z</time>
      </trkpt>
      <trkpt lat="43.76154" lon="7.27273">
        <ele>433.60000610352</ele>
        <time>2021-02-04T11:28:24.000Z</time>
      </trkpt>
      <trkpt lat="43.76149" lon="7.27272">
        <ele>433</ele>
        <time>2021-02-04T11:28:27.000Z</time>
      </trkpt>
      <trkpt lat="43.76146" lon="7.27274">
        <ele>432.79998779297</ele>
        <time>2021-02-04T11:28:28.000Z</time>
      </trkpt>
      <trkpt lat="43.76142" lon="7.27275">
        <ele>432.39999389648</ele>
        <time>2021-02-04T11:28:29.000Z</time>
      </trkpt>
      <trkpt lat="43.76136" lon="7.27276">
        <ele>431</ele>
        <time>2021-02-04T11:28:31.000Z</time>
      </trkpt>
      <trkpt lat="43.76129" lon="7.27278">
        <ele>430</ele>
        <time>2021-02-04T11:28:33.000Z</time>
      </trkpt>
      <trkpt lat="43.76121" lon="7.27282">
        <ele>428.79998779297</ele>
        <time>2021-02-04T11:28:35.000Z</time>
      </trkpt>
      <trkpt lat="43.76112" lon="7.27288">
        <ele>427.60000610352</ele>
        <time>2021-02-04T11:28:37.000Z</time>
      </trkpt>
      <trkpt lat="43.76106" lon="7.27286">
        <ele>426.39999389648</ele>
        <time>2021-02-04T11:28:39.000Z</time>
      </trkpt>
      <trkpt lat="43.76109" lon="7.27278">
        <ele>425.79998779297</ele>
        <time>2021-02-04T11:28:41.000Z</time>
      </trkpt>
      <trkpt lat="43.7611" lon="7.27267">
        <ele>425.20001220703</ele>
        <time>2021-02-04T11:28:43.000Z</time>
      </trkpt>
      <trkpt lat="43.76109" lon="7.2726">
        <ele>425</ele>
        <time>2021-02-04T11:28:45.000Z</time>
      </trkpt>
      <trkpt lat="43.76109" lon="7.27255">
        <ele>424.60000610352</ele>
        <time>2021-02-04T11:28:46.000Z</time>
      </trkpt>
      <trkpt lat="43.76109" lon="7.27247">
        <ele>423.60000610352</ele>
        <time>2021-02-04T11:28:48.000Z</time>
      </trkpt>
      <trkpt lat="43.7611" lon="7.2724">
        <ele>422</ele>
        <time>2021-02-04T11:28:50.000Z</time>
      </trkpt>
      <trkpt lat="43.7611" lon="7.27239">
        <ele>421.20001220703</ele>
        <time>2021-02-04T11:28:51.000Z</time>
      </trkpt>
      <trkpt lat="43.7611" lon="7.27239">
        <ele>420.60000610352</ele>
        <time>2021-02-04T11:28:52.000Z</time>
      </trkpt>
      <trkpt lat="43.76109" lon="7.27238">
        <ele>419.60000610352</ele>
        <time>2021-02-04T11:28:56.000Z</time>
      </trkpt>
      <trkpt lat="43.76109" lon="7.27238">
        <ele>419.60000610352</ele>
        <time>2021-02-04T11:28:57.000Z</time>
      </trkpt>
      <trkpt lat="43.76108" lon="7.27236">
        <ele>419.60000610352</ele>
        <time>2021-02-04T11:29:04.000Z</time>
      </trkpt>
      <trkpt lat="43.76108" lon="7.27231">
        <ele>419.60000610352</ele>
        <time>2021-02-04T11:29:06.000Z</time>
      </trkpt>
      <trkpt lat="43.76111" lon="7.27214">
        <ele>418.39999389648</ele>
        <time>2021-02-04T11:29:10.000Z</time>
      </trkpt>
      <trkpt lat="43.7611" lon="7.27201">
        <ele>417.39999389648</ele>
        <time>2021-02-04T11:29:13.000Z</time>
      </trkpt>
      <trkpt lat="43.7611" lon="7.27196">
        <ele>417.20001220703</ele>
        <time>2021-02-04T11:29:14.000Z</time>
      </trkpt>
      <trkpt lat="43.76113" lon="7.27184">
        <ele>416.39999389648</ele>
        <time>2021-02-04T11:29:17.000Z</time>
      </trkpt>
      <trkpt lat="43.76111" lon="7.27183">
        <ele>416</ele>
        <time>2021-02-04T11:29:18.000Z</time>
      </trkpt>
      <trkpt lat="43.76108" lon="7.27183">
        <ele>415.39999389648</ele>
        <time>2021-02-04T11:29:20.000Z</time>
      </trkpt>
      <trkpt lat="43.76109" lon="7.27176">
        <ele>414.79998779297</ele>
        <time>2021-02-04T11:29:23.000Z</time>
      </trkpt>
      <trkpt lat="43.76111" lon="7.27172">
        <ele>414.20001220703</ele>
        <time>2021-02-04T11:29:24.000Z</time>
      </trkpt>
      <trkpt lat="43.76116" lon="7.27165">
        <ele>413.20001220703</ele>
        <time>2021-02-04T11:29:26.000Z</time>
      </trkpt>
      <trkpt lat="43.76119" lon="7.27161">
        <ele>412.60000610352</ele>
        <time>2021-02-04T11:29:27.000Z</time>
      </trkpt>
      <trkpt lat="43.76123" lon="7.27153">
        <ele>412</ele>
        <time>2021-02-04T11:29:29.000Z</time>
      </trkpt>
      <trkpt lat="43.76124" lon="7.27149">
        <ele>412</ele>
        <time>2021-02-04T11:29:30.000Z</time>
      </trkpt>
      <trkpt lat="43.76128" lon="7.27138">
        <ele>411</ele>
        <time>2021-02-04T11:29:33.000Z</time>
      </trkpt>
      <trkpt lat="43.7613" lon="7.27137">
        <ele>410.79998779297</ele>
        <time>2021-02-04T11:29:34.000Z</time>
      </trkpt>
      <trkpt lat="43.76136" lon="7.27133">
        <ele>409.60000610352</ele>
        <time>2021-02-04T11:29:37.000Z</time>
      </trkpt>
      <trkpt lat="43.7614" lon="7.27126">
        <ele>409.39999389648</ele>
        <time>2021-02-04T11:29:39.000Z</time>
      </trkpt>
      <trkpt lat="43.76154" lon="7.27115">
        <ele>408.39999389648</ele>
        <time>2021-02-04T11:29:43.000Z</time>
      </trkpt>
      <trkpt lat="43.7616" lon="7.27109">
        <ele>407.20001220703</ele>
        <time>2021-02-04T11:29:45.000Z</time>
      </trkpt>
      <trkpt lat="43.76164" lon="7.27107">
        <ele>406.79998779297</ele>
        <time>2021-02-04T11:29:46.000Z</time>
      </trkpt>
      <trkpt lat="43.76173" lon="7.27103">
        <ele>406</ele>
        <time>2021-02-04T11:29:48.000Z</time>
      </trkpt>
      <trkpt lat="43.7618" lon="7.27096">
        <ele>405.39999389648</ele>
        <time>2021-02-04T11:29:50.000Z</time>
      </trkpt>
      <trkpt lat="43.76193" lon="7.27084">
        <ele>405</ele>
        <time>2021-02-04T11:29:54.000Z</time>
      </trkpt>
      <trkpt lat="43.76203" lon="7.27081">
        <ele>404.60000610352</ele>
        <time>2021-02-04T11:29:57.000Z</time>
      </trkpt>
      <trkpt lat="43.76207" lon="7.27078">
        <ele>404.60000610352</ele>
        <time>2021-02-04T11:29:58.000Z</time>
      </trkpt>
      <trkpt lat="43.76216" lon="7.27074">
        <ele>404.60000610352</ele>
        <time>2021-02-04T11:30:01.000Z</time>
      </trkpt>
      <trkpt lat="43.76226" lon="7.27066">
        <ele>405.79998779297</ele>
        <time>2021-02-04T11:30:05.000Z</time>
      </trkpt>
      <trkpt lat="43.76228" lon="7.27062">
        <ele>406</ele>
        <time>2021-02-04T11:30:06.000Z</time>
      </trkpt>
      <trkpt lat="43.76237" lon="7.27052">
        <ele>406.79998779297</ele>
        <time>2021-02-04T11:30:10.000Z</time>
      </trkpt>
      <trkpt lat="43.76243" lon="7.27044">
        <ele>407</ele>
        <time>2021-02-04T11:30:13.000Z</time>
      </trkpt>
      <trkpt lat="43.76246" lon="7.27038">
        <ele>407.60000610352</ele>
        <time>2021-02-04T11:30:15.000Z</time>
      </trkpt>
      <trkpt lat="43.76252" lon="7.27029">
        <ele>408.20001220703</ele>
        <time>2021-02-04T11:30:18.000Z</time>
      </trkpt>
      <trkpt lat="43.76253" lon="7.27029">
        <ele>408.39999389648</ele>
        <time>2021-02-04T11:30:19.000Z</time>
      </trkpt>
      <trkpt lat="43.76253" lon="7.27029">
        <ele>409</ele>
        <time>2021-02-04T11:30:26.000Z</time>
      </trkpt>
      <trkpt lat="43.76254" lon="7.27023">
        <ele>408.60000610352</ele>
        <time>2021-02-04T11:30:38.000Z</time>
      </trkpt>
      <trkpt lat="43.76253" lon="7.2702">
        <ele>408.60000610352</ele>
        <time>2021-02-04T11:30:39.000Z</time>
      </trkpt>
      <trkpt lat="43.76256" lon="7.27004">
        <ele>407</ele>
        <time>2021-02-04T11:30:43.000Z</time>
      </trkpt>
      <trkpt lat="43.76258" lon="7.27">
        <ele>406.20001220703</ele>
        <time>2021-02-04T11:30:44.000Z</time>
      </trkpt>
      <trkpt lat="43.76261" lon="7.26994">
        <ele>405.79998779297</ele>
        <time>2021-02-04T11:30:45.000Z</time>
      </trkpt>
      <trkpt lat="43.76269" lon="7.26983">
        <ele>404.39999389648</ele>
        <time>2021-02-04T11:30:47.000Z</time>
      </trkpt>
      <trkpt lat="43.76273" lon="7.26979">
        <ele>404</ele>
        <time>2021-02-04T11:30:48.000Z</time>
      </trkpt>
      <trkpt lat="43.76279" lon="7.26976">
        <ele>403</ele>
        <time>2021-02-04T11:30:49.000Z</time>
      </trkpt>
      <trkpt lat="43.76288" lon="7.26974">
        <ele>401.39999389648</ele>
        <time>2021-02-04T11:30:51.000Z</time>
      </trkpt>
      <trkpt lat="43.76291" lon="7.26972">
        <ele>400.39999389648</ele>
        <time>2021-02-04T11:30:52.000Z</time>
      </trkpt>
      <trkpt lat="43.76293" lon="7.2697">
        <ele>400</ele>
        <time>2021-02-04T11:30:53.000Z</time>
      </trkpt>
      <trkpt lat="43.76291" lon="7.26969">
        <ele>399.20001220703</ele>
        <time>2021-02-04T11:30:55.000Z</time>
      </trkpt>
      <trkpt lat="43.76289" lon="7.26969">
        <ele>398.60000610352</ele>
        <time>2021-02-04T11:30:56.000Z</time>
      </trkpt>
      <trkpt lat="43.76286" lon="7.26968">
        <ele>398.60000610352</ele>
        <time>2021-02-04T11:30:57.000Z</time>
      </trkpt>
      <trkpt lat="43.76283" lon="7.26966">
        <ele>398.39999389648</ele>
        <time>2021-02-04T11:30:58.000Z</time>
      </trkpt>
      <trkpt lat="43.76279" lon="7.26966">
        <ele>398.20001220703</ele>
        <time>2021-02-04T11:30:59.000Z</time>
      </trkpt>
      <trkpt lat="43.76275" lon="7.26966">
        <ele>397.60000610352</ele>
        <time>2021-02-04T11:31:00.000Z</time>
      </trkpt>
      <trkpt lat="43.76273" lon="7.26965">
        <ele>397.20001220703</ele>
        <time>2021-02-04T11:31:01.000Z</time>
      </trkpt>
      <trkpt lat="43.7627" lon="7.26963">
        <ele>396.39999389648</ele>
        <time>2021-02-04T11:31:02.000Z</time>
      </trkpt>
      <trkpt lat="43.76269" lon="7.26956">
        <ele>395</ele>
        <time>2021-02-04T11:31:04.000Z</time>
      </trkpt>
      <trkpt lat="43.76271" lon="7.26948">
        <ele>393.79998779297</ele>
        <time>2021-02-04T11:31:06.000Z</time>
      </trkpt>
      <trkpt lat="43.76271" lon="7.26944">
        <ele>392.39999389648</ele>
        <time>2021-02-04T11:31:08.000Z</time>
      </trkpt>
      <trkpt lat="43.76271" lon="7.26944">
        <ele>391.79998779297</ele>
        <time>2021-02-04T11:31:18.000Z</time>
      </trkpt>
      <trkpt lat="43.76271" lon="7.26937">
        <ele>391.60000610352</ele>
        <time>2021-02-04T11:31:32.000Z</time>
      </trkpt>
      <trkpt lat="43.76268" lon="7.26924">
        <ele>391.20001220703</ele>
        <time>2021-02-04T11:31:35.000Z</time>
      </trkpt>
      <trkpt lat="43.76266" lon="7.26919">
        <ele>391.20001220703</ele>
        <time>2021-02-04T11:31:36.000Z</time>
      </trkpt>
      <trkpt lat="43.76257" lon="7.269">
        <ele>390.20001220703</ele>
        <time>2021-02-04T11:31:41.000Z</time>
      </trkpt>
      <trkpt lat="43.76244" lon="7.26881">
        <ele>389.60000610352</ele>
        <time>2021-02-04T11:31:46.000Z</time>
      </trkpt>
      <trkpt lat="43.76231" lon="7.26871">
        <ele>389.79998779297</ele>
        <time>2021-02-04T11:31:50.000Z</time>
      </trkpt>
      <trkpt lat="43.76219" lon="7.26864">
        <ele>389.79998779297</ele>
        <time>2021-02-04T11:31:53.000Z</time>
      </trkpt>
      <trkpt lat="43.76211" lon="7.26867">
        <ele>389</ele>
        <time>2021-02-04T11:31:55.000Z</time>
      </trkpt>
      <trkpt lat="43.76205" lon="7.26869">
        <ele>388.20001220703</ele>
        <time>2021-02-04T11:31:57.000Z</time>
      </trkpt>
      <trkpt lat="43.76201" lon="7.26866">
        <ele>387.39999389648</ele>
        <time>2021-02-04T11:31:58.000Z</time>
      </trkpt>
      <trkpt lat="43.76196" lon="7.26858">
        <ele>386.20001220703</ele>
        <time>2021-02-04T11:32:00.000Z</time>
      </trkpt>
      <trkpt lat="43.76192" lon="7.26854">
        <ele>385.39999389648</ele>
        <time>2021-02-04T11:32:02.000Z</time>
      </trkpt>
      <trkpt lat="43.76191" lon="7.26852">
        <ele>384.60000610352</ele>
        <time>2021-02-04T11:32:03.000Z</time>
      </trkpt>
      <trkpt lat="43.76189" lon="7.26852">
        <ele>384.20001220703</ele>
        <time>2021-02-04T11:32:04.000Z</time>
      </trkpt>
      <trkpt lat="43.76186" lon="7.26852">
        <ele>383.39999389648</ele>
        <time>2021-02-04T11:32:05.000Z</time>
      </trkpt>
      <trkpt lat="43.76184" lon="7.26854">
        <ele>382.60000610352</ele>
        <time>2021-02-04T11:32:06.000Z</time>
      </trkpt>
      <trkpt lat="43.76182" lon="7.26857">
        <ele>381.79998779297</ele>
        <time>2021-02-04T11:32:07.000Z</time>
      </trkpt>
      <trkpt lat="43.76179" lon="7.26863">
        <ele>380.20001220703</ele>
        <time>2021-02-04T11:32:09.000Z</time>
      </trkpt>
      <trkpt lat="43.76178" lon="7.2687">
        <ele>379</ele>
        <time>2021-02-04T11:32:11.000Z</time>
      </trkpt>
      <trkpt lat="43.76177" lon="7.2688">
        <ele>377.79998779297</ele>
        <time>2021-02-04T11:32:13.000Z</time>
      </trkpt>
      <trkpt lat="43.76173" lon="7.26888">
        <ele>376.79998779297</ele>
        <time>2021-02-04T11:32:15.000Z</time>
      </trkpt>
      <trkpt lat="43.76168" lon="7.2689">
        <ele>376.79998779297</ele>
        <time>2021-02-04T11:32:16.000Z</time>
      </trkpt>
      <trkpt lat="43.76162" lon="7.26893">
        <ele>375.79998779297</ele>
        <time>2021-02-04T11:32:18.000Z</time>
      </trkpt>
      <trkpt lat="43.76159" lon="7.26895">
        <ele>374.60000610352</ele>
        <time>2021-02-04T11:32:20.000Z</time>
      </trkpt>
      <trkpt lat="43.76156" lon="7.26898">
        <ele>373</ele>
        <time>2021-02-04T11:32:22.000Z</time>
      </trkpt>
      <trkpt lat="43.76151" lon="7.26898">
        <ele>371.60000610352</ele>
        <time>2021-02-04T11:32:24.000Z</time>
      </trkpt>
      <trkpt lat="43.76145" lon="7.269">
        <ele>370.60000610352</ele>
        <time>2021-02-04T11:32:26.000Z</time>
      </trkpt>
      <trkpt lat="43.76141" lon="7.26903">
        <ele>370</ele>
        <time>2021-02-04T11:32:27.000Z</time>
      </trkpt>
      <trkpt lat="43.76134" lon="7.26906">
        <ele>368.60000610352</ele>
        <time>2021-02-04T11:32:29.000Z</time>
      </trkpt>
      <trkpt lat="43.76125" lon="7.26908">
        <ele>367.60000610352</ele>
        <time>2021-02-04T11:32:31.000Z</time>
      </trkpt>
      <trkpt lat="43.76116" lon="7.26912">
        <ele>366.60000610352</ele>
        <time>2021-02-04T11:32:33.000Z</time>
      </trkpt>
      <trkpt lat="43.76112" lon="7.26914">
        <ele>366</ele>
        <time>2021-02-04T11:32:34.000Z</time>
      </trkpt>
      <trkpt lat="43.76105" lon="7.26916">
        <ele>365</ele>
        <time>2021-02-04T11:32:36.000Z</time>
      </trkpt>
      <trkpt lat="43.76101" lon="7.26918">
        <ele>363.79998779297</ele>
        <time>2021-02-04T11:32:38.000Z</time>
      </trkpt>
      <trkpt lat="43.76101" lon="7.26918">
        <ele>362.20001220703</ele>
        <time>2021-02-04T11:32:40.000Z</time>
      </trkpt>
      <trkpt lat="43.761" lon="7.26919">
        <ele>361.79998779297</ele>
        <time>2021-02-04T11:32:41.000Z</time>
      </trkpt>
      <trkpt lat="43.76099" lon="7.2692">
        <ele>361</ele>
        <time>2021-02-04T11:32:43.000Z</time>
      </trkpt>
      <trkpt lat="43.76098" lon="7.2692">
        <ele>360.79998779297</ele>
        <time>2021-02-04T11:32:45.000Z</time>
      </trkpt>
      <trkpt lat="43.76096" lon="7.26918">
        <ele>360.20001220703</ele>
        <time>2021-02-04T11:32:51.000Z</time>
      </trkpt>
      <trkpt lat="43.76096" lon="7.26918">
        <ele>360</ele>
        <time>2021-02-04T11:32:52.000Z</time>
      </trkpt>
      <trkpt lat="43.76095" lon="7.26919">
        <ele>359.60000610352</ele>
        <time>2021-02-04T11:33:06.000Z</time>
      </trkpt>
      <trkpt lat="43.76087" lon="7.26921">
        <ele>359.60000610352</ele>
        <time>2021-02-04T11:33:09.000Z</time>
      </trkpt>
      <trkpt lat="43.76069" lon="7.26929">
        <ele>358.79998779297</ele>
        <time>2021-02-04T11:33:12.000Z</time>
      </trkpt>
      <trkpt lat="43.76054" lon="7.26936">
        <ele>357.60000610352</ele>
        <time>2021-02-04T11:33:14.000Z</time>
      </trkpt>
      <trkpt lat="43.76048" lon="7.2694">
        <ele>356.39999389648</ele>
        <time>2021-02-04T11:33:15.000Z</time>
      </trkpt>
      <trkpt lat="43.7604" lon="7.26943">
        <ele>354.79998779297</ele>
        <time>2021-02-04T11:33:16.000Z</time>
      </trkpt>
      <trkpt lat="43.76032" lon="7.26948">
        <ele>353</ele>
        <time>2021-02-04T11:33:17.000Z</time>
      </trkpt>
      <trkpt lat="43.76024" lon="7.26952">
        <ele>351.20001220703</ele>
        <time>2021-02-04T11:33:18.000Z</time>
      </trkpt>
      <trkpt lat="43.76015" lon="7.26955">
        <ele>349.20001220703</ele>
        <time>2021-02-04T11:33:19.000Z</time>
      </trkpt>
      <trkpt lat="43.76006" lon="7.26956">
        <ele>347.60000610352</ele>
        <time>2021-02-04T11:33:20.000Z</time>
      </trkpt>
      <trkpt lat="43.75998" lon="7.26957">
        <ele>346.20001220703</ele>
        <time>2021-02-04T11:33:21.000Z</time>
      </trkpt>
      <trkpt lat="43.75989" lon="7.26957">
        <ele>344.79998779297</ele>
        <time>2021-02-04T11:33:22.000Z</time>
      </trkpt>
      <trkpt lat="43.75981" lon="7.26955">
        <ele>343.60000610352</ele>
        <time>2021-02-04T11:33:23.000Z</time>
      </trkpt>
      <trkpt lat="43.75966" lon="7.2695">
        <ele>342</ele>
        <time>2021-02-04T11:33:25.000Z</time>
      </trkpt>
      <trkpt lat="43.75959" lon="7.26951">
        <ele>341.60000610352</ele>
        <time>2021-02-04T11:33:26.000Z</time>
      </trkpt>
      <trkpt lat="43.7595" lon="7.26951">
        <ele>341</ele>
        <time>2021-02-04T11:33:27.000Z</time>
      </trkpt>
      <trkpt lat="43.75933" lon="7.26949">
        <ele>339.39999389648</ele>
        <time>2021-02-04T11:33:29.000Z</time>
      </trkpt>
      <trkpt lat="43.75926" lon="7.26946">
        <ele>338.79998779297</ele>
        <time>2021-02-04T11:33:30.000Z</time>
      </trkpt>
      <trkpt lat="43.75919" lon="7.26942">
        <ele>338.20001220703</ele>
        <time>2021-02-04T11:33:31.000Z</time>
      </trkpt>
      <trkpt lat="43.75906" lon="7.26931">
        <ele>336.79998779297</ele>
        <time>2021-02-04T11:33:33.000Z</time>
      </trkpt>
      <trkpt lat="43.759" lon="7.26925">
        <ele>336.20001220703</ele>
        <time>2021-02-04T11:33:34.000Z</time>
      </trkpt>
      <trkpt lat="43.75894" lon="7.26919">
        <ele>335.79998779297</ele>
        <time>2021-02-04T11:33:35.000Z</time>
      </trkpt>
      <trkpt lat="43.75883" lon="7.2691">
        <ele>334.39999389648</ele>
        <time>2021-02-04T11:33:37.000Z</time>
      </trkpt>
      <trkpt lat="43.75879" lon="7.26907">
        <ele>334</ele>
        <time>2021-02-04T11:33:38.000Z</time>
      </trkpt>
      <trkpt lat="43.75874" lon="7.26904">
        <ele>333.60000610352</ele>
        <time>2021-02-04T11:33:39.000Z</time>
      </trkpt>
      <trkpt lat="43.7587" lon="7.26901">
        <ele>333.39999389648</ele>
        <time>2021-02-04T11:33:40.000Z</time>
      </trkpt>
      <trkpt lat="43.75859" lon="7.26895">
        <ele>333</ele>
        <time>2021-02-04T11:33:43.000Z</time>
      </trkpt>
      <trkpt lat="43.75853" lon="7.26891">
        <ele>332.39999389648</ele>
        <time>2021-02-04T11:33:45.000Z</time>
      </trkpt>
      <trkpt lat="43.75842" lon="7.26883">
        <ele>331.39999389648</ele>
        <time>2021-02-04T11:33:48.000Z</time>
      </trkpt>
      <trkpt lat="43.75839" lon="7.26879">
        <ele>331</ele>
        <time>2021-02-04T11:33:49.000Z</time>
      </trkpt>
      <trkpt lat="43.75836" lon="7.26874">
        <ele>330.60000610352</ele>
        <time>2021-02-04T11:33:50.000Z</time>
      </trkpt>
      <trkpt lat="43.75831" lon="7.26863">
        <ele>329.39999389648</ele>
        <time>2021-02-04T11:33:52.000Z</time>
      </trkpt>
      <trkpt lat="43.7583" lon="7.26853">
        <ele>328</ele>
        <time>2021-02-04T11:33:54.000Z</time>
      </trkpt>
      <trkpt lat="43.75827" lon="7.26851">
        <ele>327.20001220703</ele>
        <time>2021-02-04T11:33:55.000Z</time>
      </trkpt>
      <trkpt lat="43.75824" lon="7.26853">
        <ele>326.60000610352</ele>
        <time>2021-02-04T11:33:56.000Z</time>
      </trkpt>
      <trkpt lat="43.75823" lon="7.26865">
        <ele>325.39999389648</ele>
        <time>2021-02-04T11:33:58.000Z</time>
      </trkpt>
      <trkpt lat="43.75826" lon="7.26878">
        <ele>324</ele>
        <time>2021-02-04T11:34:00.000Z</time>
      </trkpt>
      <trkpt lat="43.75825" lon="7.26881">
        <ele>323</ele>
        <time>2021-02-04T11:34:02.000Z</time>
      </trkpt>
      <trkpt lat="43.75818" lon="7.26881">
        <ele>322.39999389648</ele>
        <time>2021-02-04T11:34:07.000Z</time>
      </trkpt>
      <trkpt lat="43.75815" lon="7.26883">
        <ele>321.60000610352</ele>
        <time>2021-02-04T11:34:09.000Z</time>
      </trkpt>
      <trkpt lat="43.75813" lon="7.26883">
        <ele>321</ele>
        <time>2021-02-04T11:34:10.000Z</time>
      </trkpt>
      <trkpt lat="43.75812" lon="7.26881">
        <ele>320.20001220703</ele>
        <time>2021-02-04T11:34:11.000Z</time>
      </trkpt>
      <trkpt lat="43.75811" lon="7.26877">
        <ele>319.39999389648</ele>
        <time>2021-02-04T11:34:12.000Z</time>
      </trkpt>
      <trkpt lat="43.7581" lon="7.26871">
        <ele>319</ele>
        <time>2021-02-04T11:34:13.000Z</time>
      </trkpt>
      <trkpt lat="43.7581" lon="7.26866">
        <ele>319</ele>
        <time>2021-02-04T11:34:14.000Z</time>
      </trkpt>
      <trkpt lat="43.75809" lon="7.26854">
        <ele>318.60000610352</ele>
        <time>2021-02-04T11:34:16.000Z</time>
      </trkpt>
      <trkpt lat="43.75809" lon="7.26846">
        <ele>318.39999389648</ele>
        <time>2021-02-04T11:34:17.000Z</time>
      </trkpt>
      <trkpt lat="43.7581" lon="7.26839">
        <ele>318</ele>
        <time>2021-02-04T11:34:18.000Z</time>
      </trkpt>
      <trkpt lat="43.75811" lon="7.26822">
        <ele>317.20001220703</ele>
        <time>2021-02-04T11:34:20.000Z</time>
      </trkpt>
      <trkpt lat="43.75811" lon="7.26814">
        <ele>316.79998779297</ele>
        <time>2021-02-04T11:34:21.000Z</time>
      </trkpt>
      <trkpt lat="43.75814" lon="7.26783">
        <ele>315.79998779297</ele>
        <time>2021-02-04T11:34:24.000Z</time>
      </trkpt>
      <trkpt lat="43.75815" lon="7.26774">
        <ele>315</ele>
        <time>2021-02-04T11:34:25.000Z</time>
      </trkpt>
      <trkpt lat="43.75816" lon="7.26767">
        <ele>314</ele>
        <time>2021-02-04T11:34:26.000Z</time>
      </trkpt>
      <trkpt lat="43.75818" lon="7.26746">
        <ele>312</ele>
        <time>2021-02-04T11:34:28.000Z</time>
      </trkpt>
      <trkpt lat="43.75819" lon="7.26737">
        <ele>310.79998779297</ele>
        <time>2021-02-04T11:34:29.000Z</time>
      </trkpt>
      <trkpt lat="43.75819" lon="7.26728">
        <ele>310</ele>
        <time>2021-02-04T11:34:30.000Z</time>
      </trkpt>
      <trkpt lat="43.7582" lon="7.2672">
        <ele>309.20001220703</ele>
        <time>2021-02-04T11:34:31.000Z</time>
      </trkpt>
      <trkpt lat="43.75827" lon="7.26689">
        <ele>307.79998779297</ele>
        <time>2021-02-04T11:34:34.000Z</time>
      </trkpt>
      <trkpt lat="43.75833" lon="7.26669">
        <ele>306.60000610352</ele>
        <time>2021-02-04T11:34:36.000Z</time>
      </trkpt>
      <trkpt lat="43.75841" lon="7.26648">
        <ele>305</ele>
        <time>2021-02-04T11:34:38.000Z</time>
      </trkpt>
      <trkpt lat="43.75843" lon="7.26641">
        <ele>304.39999389648</ele>
        <time>2021-02-04T11:34:39.000Z</time>
      </trkpt>
      <trkpt lat="43.75845" lon="7.26635">
        <ele>303.60000610352</ele>
        <time>2021-02-04T11:34:40.000Z</time>
      </trkpt>
      <trkpt lat="43.75845" lon="7.26631">
        <ele>303</ele>
        <time>2021-02-04T11:34:41.000Z</time>
      </trkpt>
      <trkpt lat="43.75842" lon="7.26628">
        <ele>302.39999389648</ele>
        <time>2021-02-04T11:34:42.000Z</time>
      </trkpt>
      <trkpt lat="43.75834" lon="7.26632">
        <ele>301.79998779297</ele>
        <time>2021-02-04T11:34:44.000Z</time>
      </trkpt>
      <trkpt lat="43.75833" lon="7.26638">
        <ele>301.39999389648</ele>
        <time>2021-02-04T11:34:45.000Z</time>
      </trkpt>
      <trkpt lat="43.7583" lon="7.26652">
        <ele>301.20001220703</ele>
        <time>2021-02-04T11:34:47.000Z</time>
      </trkpt>
      <trkpt lat="43.75822" lon="7.26671">
        <ele>300.39999389648</ele>
        <time>2021-02-04T11:34:50.000Z</time>
      </trkpt>
      <trkpt lat="43.7582" lon="7.26673">
        <ele>300.20001220703</ele>
        <time>2021-02-04T11:34:51.000Z</time>
      </trkpt>
      <trkpt lat="43.75815" lon="7.26673">
        <ele>299.79998779297</ele>
        <time>2021-02-04T11:34:52.000Z</time>
      </trkpt>
      <trkpt lat="43.75814" lon="7.2666">
        <ele>299</ele>
        <time>2021-02-04T11:34:54.000Z</time>
      </trkpt>
      <trkpt lat="43.7582" lon="7.26648">
        <ele>298.20001220703</ele>
        <time>2021-02-04T11:34:56.000Z</time>
      </trkpt>
      <trkpt lat="43.75822" lon="7.26643">
        <ele>298</ele>
        <time>2021-02-04T11:34:57.000Z</time>
      </trkpt>
      <trkpt lat="43.75826" lon="7.26622">
        <ele>297.39999389648</ele>
        <time>2021-02-04T11:34:59.000Z</time>
      </trkpt>
      <trkpt lat="43.75827" lon="7.26612">
        <ele>297</ele>
        <time>2021-02-04T11:35:00.000Z</time>
      </trkpt>
      <trkpt lat="43.75828" lon="7.26602">
        <ele>296.20001220703</ele>
        <time>2021-02-04T11:35:01.000Z</time>
      </trkpt>
      <trkpt lat="43.75829" lon="7.26591">
        <ele>295.60000610352</ele>
        <time>2021-02-04T11:35:02.000Z</time>
      </trkpt>
      <trkpt lat="43.7583" lon="7.26568">
        <ele>293.39999389648</ele>
        <time>2021-02-04T11:35:04.000Z</time>
      </trkpt>
      <trkpt lat="43.75831" lon="7.26556">
        <ele>292.20001220703</ele>
        <time>2021-02-04T11:35:05.000Z</time>
      </trkpt>
      <trkpt lat="43.75832" lon="7.26545">
        <ele>291.20001220703</ele>
        <time>2021-02-04T11:35:06.000Z</time>
      </trkpt>
      <trkpt lat="43.75837" lon="7.26521">
        <ele>289.39999389648</ele>
        <time>2021-02-04T11:35:08.000Z</time>
      </trkpt>
      <trkpt lat="43.75841" lon="7.26511">
        <ele>289</ele>
        <time>2021-02-04T11:35:09.000Z</time>
      </trkpt>
      <trkpt lat="43.75852" lon="7.26491">
        <ele>288.20001220703</ele>
        <time>2021-02-04T11:35:11.000Z</time>
      </trkpt>
      <trkpt lat="43.75868" lon="7.26461">
        <ele>287.20001220703</ele>
        <time>2021-02-04T11:35:14.000Z</time>
      </trkpt>
      <trkpt lat="43.75885" lon="7.26433">
        <ele>286</ele>
        <time>2021-02-04T11:35:17.000Z</time>
      </trkpt>
      <trkpt lat="43.75885" lon="7.2642">
        <ele>285.79998779297</ele>
        <time>2021-02-04T11:35:18.000Z</time>
      </trkpt>
      <trkpt lat="43.75885" lon="7.26395">
        <ele>284.39999389648</ele>
        <time>2021-02-04T11:35:20.000Z</time>
      </trkpt>
      <trkpt lat="43.75884" lon="7.26385">
        <ele>283.60000610352</ele>
        <time>2021-02-04T11:35:21.000Z</time>
      </trkpt>
      <trkpt lat="43.7588" lon="7.26377">
        <ele>282.60000610352</ele>
        <time>2021-02-04T11:35:22.000Z</time>
      </trkpt>
      <trkpt lat="43.75876" lon="7.26373">
        <ele>281.79998779297</ele>
        <time>2021-02-04T11:35:23.000Z</time>
      </trkpt>
      <trkpt lat="43.75868" lon="7.26372">
        <ele>281</ele>
        <time>2021-02-04T11:35:24.000Z</time>
      </trkpt>
      <trkpt lat="43.75863" lon="7.26375">
        <ele>280.60000610352</ele>
        <time>2021-02-04T11:35:25.000Z</time>
      </trkpt>
      <trkpt lat="43.75852" lon="7.26381">
        <ele>280.20001220703</ele>
        <time>2021-02-04T11:35:27.000Z</time>
      </trkpt>
      <trkpt lat="43.75845" lon="7.26384">
        <ele>279.79998779297</ele>
        <time>2021-02-04T11:35:28.000Z</time>
      </trkpt>
      <trkpt lat="43.75832" lon="7.26387">
        <ele>279.39999389648</ele>
        <time>2021-02-04T11:35:30.000Z</time>
      </trkpt>
      <trkpt lat="43.75819" lon="7.26388">
        <ele>278.79998779297</ele>
        <time>2021-02-04T11:35:32.000Z</time>
      </trkpt>
      <trkpt lat="43.758" lon="7.26382">
        <ele>278.20001220703</ele>
        <time>2021-02-04T11:35:35.000Z</time>
      </trkpt>
      <trkpt lat="43.75773" lon="7.26375">
        <ele>278.39999389648</ele>
        <time>2021-02-04T11:35:39.000Z</time>
      </trkpt>
      <trkpt lat="43.7576" lon="7.26376">
        <ele>278.20001220703</ele>
        <time>2021-02-04T11:35:41.000Z</time>
      </trkpt>
      <trkpt lat="43.75753" lon="7.26377">
        <ele>278</ele>
        <time>2021-02-04T11:35:42.000Z</time>
      </trkpt>
      <trkpt lat="43.75747" lon="7.26379">
        <ele>277.60000610352</ele>
        <time>2021-02-04T11:35:43.000Z</time>
      </trkpt>
      <trkpt lat="43.75741" lon="7.26381">
        <ele>277.39999389648</ele>
        <time>2021-02-04T11:35:44.000Z</time>
      </trkpt>
      <trkpt lat="43.757" lon="7.26392">
        <ele>277.60000610352</ele>
        <time>2021-02-04T11:35:51.000Z</time>
      </trkpt>
      <trkpt lat="43.75682" lon="7.26399">
        <ele>277.20001220703</ele>
        <time>2021-02-04T11:35:54.000Z</time>
      </trkpt>
      <trkpt lat="43.75666" lon="7.26408">
        <ele>277.20001220703</ele>
        <time>2021-02-04T11:35:57.000Z</time>
      </trkpt>
      <trkpt lat="43.75628" lon="7.26422">
        <ele>277.79998779297</ele>
        <time>2021-02-04T11:36:04.000Z</time>
      </trkpt>
      <trkpt lat="43.7561" lon="7.26421">
        <ele>277.79998779297</ele>
        <time>2021-02-04T11:36:07.000Z</time>
      </trkpt>
      <trkpt lat="43.75599" lon="7.26423">
        <ele>278</ele>
        <time>2021-02-04T11:36:09.000Z</time>
      </trkpt>
      <trkpt lat="43.75593" lon="7.26426">
        <ele>278</ele>
        <time>2021-02-04T11:36:10.000Z</time>
      </trkpt>
      <trkpt lat="43.75585" lon="7.26435">
        <ele>278</ele>
        <time>2021-02-04T11:36:12.000Z</time>
      </trkpt>
      <trkpt lat="43.75577" lon="7.26447">
        <ele>278.20001220703</ele>
        <time>2021-02-04T11:36:14.000Z</time>
      </trkpt>
      <trkpt lat="43.75565" lon="7.26463">
        <ele>278.79998779297</ele>
        <time>2021-02-04T11:36:17.000Z</time>
      </trkpt>
      <trkpt lat="43.75543" lon="7.26487">
        <ele>279.79998779297</ele>
        <time>2021-02-04T11:36:22.000Z</time>
      </trkpt>
      <trkpt lat="43.75533" lon="7.26496">
        <ele>280</ele>
        <time>2021-02-04T11:36:24.000Z</time>
      </trkpt>
      <trkpt lat="43.75513" lon="7.26504">
        <ele>280.20001220703</ele>
        <time>2021-02-04T11:36:28.000Z</time>
      </trkpt>
      <trkpt lat="43.75504" lon="7.26507">
        <ele>280.79998779297</ele>
        <time>2021-02-04T11:36:30.000Z</time>
      </trkpt>
      <trkpt lat="43.75492" lon="7.26512">
        <ele>282</ele>
        <time>2021-02-04T11:36:33.000Z</time>
      </trkpt>
      <trkpt lat="43.75487" lon="7.26512">
        <ele>282.20001220703</ele>
        <time>2021-02-04T11:36:34.000Z</time>
      </trkpt>
      <trkpt lat="43.75474" lon="7.26512">
        <ele>283</ele>
        <time>2021-02-04T11:36:37.000Z</time>
      </trkpt>
      <trkpt lat="43.75459" lon="7.26511">
        <ele>284</ele>
        <time>2021-02-04T11:36:40.000Z</time>
      </trkpt>
      <trkpt lat="43.75436" lon="7.26508">
        <ele>284.39999389648</ele>
        <time>2021-02-04T11:36:45.000Z</time>
      </trkpt>
      <trkpt lat="43.75432" lon="7.26509">
        <ele>284.60000610352</ele>
        <time>2021-02-04T11:36:46.000Z</time>
      </trkpt>
      <trkpt lat="43.75417" lon="7.26511">
        <ele>285</ele>
        <time>2021-02-04T11:36:49.000Z</time>
      </trkpt>
      <trkpt lat="43.75412" lon="7.26511">
        <ele>285</ele>
        <time>2021-02-04T11:36:50.000Z</time>
      </trkpt>
      <trkpt lat="43.75392" lon="7.26513">
        <ele>284.39999389648</ele>
        <time>2021-02-04T11:36:54.000Z</time>
      </trkpt>
      <trkpt lat="43.75377" lon="7.26527">
        <ele>284.20001220703</ele>
        <time>2021-02-04T11:36:57.000Z</time>
      </trkpt>
      <trkpt lat="43.75372" lon="7.26531">
        <ele>284.20001220703</ele>
        <time>2021-02-04T11:36:58.000Z</time>
      </trkpt>
      <trkpt lat="43.75363" lon="7.2654">
        <ele>284.20001220703</ele>
        <time>2021-02-04T11:37:00.000Z</time>
      </trkpt>
      <trkpt lat="43.75353" lon="7.2656">
        <ele>284.60000610352</ele>
        <time>2021-02-04T11:37:03.000Z</time>
      </trkpt>
      <trkpt lat="43.75348" lon="7.26575">
        <ele>284.39999389648</ele>
        <time>2021-02-04T11:37:05.000Z</time>
      </trkpt>
      <trkpt lat="43.7534" lon="7.26595">
        <ele>284.60000610352</ele>
        <time>2021-02-04T11:37:08.000Z</time>
      </trkpt>
      <trkpt lat="43.75337" lon="7.266">
        <ele>284.79998779297</ele>
        <time>2021-02-04T11:37:09.000Z</time>
      </trkpt>
      <trkpt lat="43.75321" lon="7.26622">
        <ele>285.79998779297</ele>
        <time>2021-02-04T11:37:13.000Z</time>
      </trkpt>
      <trkpt lat="43.75317" lon="7.26627">
        <ele>286</ele>
        <time>2021-02-04T11:37:14.000Z</time>
      </trkpt>
      <trkpt lat="43.75313" lon="7.2663">
        <ele>286.39999389648</ele>
        <time>2021-02-04T11:37:15.000Z</time>
      </trkpt>
      <trkpt lat="43.753" lon="7.26639">
        <ele>287.20001220703</ele>
        <time>2021-02-04T11:37:18.000Z</time>
      </trkpt>
      <trkpt lat="43.75289" lon="7.26646">
        <ele>288.39999389648</ele>
        <time>2021-02-04T11:37:21.000Z</time>
      </trkpt>
      <trkpt lat="43.75276" lon="7.26657">
        <ele>289.60000610352</ele>
        <time>2021-02-04T11:37:25.000Z</time>
      </trkpt>
      <trkpt lat="43.75271" lon="7.26663">
        <ele>290</ele>
        <time>2021-02-04T11:37:27.000Z</time>
      </trkpt>
      <trkpt lat="43.75266" lon="7.26669">
        <ele>290.79998779297</ele>
        <time>2021-02-04T11:37:29.000Z</time>
      </trkpt>
      <trkpt lat="43.75259" lon="7.26679">
        <ele>292</ele>
        <time>2021-02-04T11:37:32.000Z</time>
      </trkpt>
      <trkpt lat="43.75257" lon="7.26682">
        <ele>292.39999389648</ele>
        <time>2021-02-04T11:37:33.000Z</time>
      </trkpt>
      <trkpt lat="43.75255" lon="7.26686">
        <ele>293</ele>
        <time>2021-02-04T11:37:34.000Z</time>
      </trkpt>
      <trkpt lat="43.7525" lon="7.26694">
        <ele>294</ele>
        <time>2021-02-04T11:37:36.000Z</time>
      </trkpt>
      <trkpt lat="43.75243" lon="7.26703">
        <ele>294.79998779297</ele>
        <time>2021-02-04T11:37:38.000Z</time>
      </trkpt>
      <trkpt lat="43.7524" lon="7.26706">
        <ele>295</ele>
        <time>2021-02-04T11:37:39.000Z</time>
      </trkpt>
      <trkpt lat="43.75229" lon="7.26723">
        <ele>295.20001220703</ele>
        <time>2021-02-04T11:37:43.000Z</time>
      </trkpt>
      <trkpt lat="43.75227" lon="7.26728">
        <ele>295</ele>
        <time>2021-02-04T11:37:44.000Z</time>
      </trkpt>
      <trkpt lat="43.7522" lon="7.26759">
        <ele>294.60000610352</ele>
        <time>2021-02-04T11:37:48.000Z</time>
      </trkpt>
      <trkpt lat="43.75214" lon="7.26785">
        <ele>293.79998779297</ele>
        <time>2021-02-04T11:37:51.000Z</time>
      </trkpt>
      <trkpt lat="43.75209" lon="7.26806">
        <ele>292.79998779297</ele>
        <time>2021-02-04T11:37:53.000Z</time>
      </trkpt>
      <trkpt lat="43.75208" lon="7.26816">
        <ele>292.20001220703</ele>
        <time>2021-02-04T11:37:54.000Z</time>
      </trkpt>
      <trkpt lat="43.75206" lon="7.26826">
        <ele>291.60000610352</ele>
        <time>2021-02-04T11:37:55.000Z</time>
      </trkpt>
      <trkpt lat="43.752" lon="7.26855">
        <ele>290.39999389648</ele>
        <time>2021-02-04T11:37:58.000Z</time>
      </trkpt>
      <trkpt lat="43.752" lon="7.26864">
        <ele>290</ele>
        <time>2021-02-04T11:37:59.000Z</time>
      </trkpt>
      <trkpt lat="43.75202" lon="7.26887">
        <ele>289.79998779297</ele>
        <time>2021-02-04T11:38:02.000Z</time>
      </trkpt>
      <trkpt lat="43.75204" lon="7.26902">
        <ele>290.39999389648</ele>
        <time>2021-02-04T11:38:04.000Z</time>
      </trkpt>
      <trkpt lat="43.75204" lon="7.26924">
        <ele>291.60000610352</ele>
        <time>2021-02-04T11:38:07.000Z</time>
      </trkpt>
      <trkpt lat="43.75202" lon="7.26944">
        <ele>292.39999389648</ele>
        <time>2021-02-04T11:38:10.000Z</time>
      </trkpt>
      <trkpt lat="43.75199" lon="7.26958">
        <ele>292.60000610352</ele>
        <time>2021-02-04T11:38:12.000Z</time>
      </trkpt>
      <trkpt lat="43.75195" lon="7.26985">
        <ele>293.79998779297</ele>
        <time>2021-02-04T11:38:16.000Z</time>
      </trkpt>
      <trkpt lat="43.75194" lon="7.26992">
        <ele>294.20001220703</ele>
        <time>2021-02-04T11:38:17.000Z</time>
      </trkpt>
      <trkpt lat="43.75192" lon="7.27012">
        <ele>295</ele>
        <time>2021-02-04T11:38:20.000Z</time>
      </trkpt>
      <trkpt lat="43.75189" lon="7.2705">
        <ele>295.79998779297</ele>
        <time>2021-02-04T11:38:25.000Z</time>
      </trkpt>
      <trkpt lat="43.75189" lon="7.27058">
        <ele>296</ele>
        <time>2021-02-04T11:38:26.000Z</time>
      </trkpt>
      <trkpt lat="43.75184" lon="7.27095">
        <ele>296.20001220703</ele>
        <time>2021-02-04T11:38:31.000Z</time>
      </trkpt>
      <trkpt lat="43.75176" lon="7.27122">
        <ele>297</ele>
        <time>2021-02-04T11:38:35.000Z</time>
      </trkpt>
      <trkpt lat="43.7517" lon="7.27141">
        <ele>298</ele>
        <time>2021-02-04T11:38:38.000Z</time>
      </trkpt>
      <trkpt lat="43.75167" lon="7.27148">
        <ele>298.20001220703</ele>
        <time>2021-02-04T11:38:39.000Z</time>
      </trkpt>
      <trkpt lat="43.7515" lon="7.27186">
        <ele>298.60000610352</ele>
        <time>2021-02-04T11:38:45.000Z</time>
      </trkpt>
      <trkpt lat="43.75147" lon="7.27191">
        <ele>298.39999389648</ele>
        <time>2021-02-04T11:38:46.000Z</time>
      </trkpt>
      <trkpt lat="43.75138" lon="7.27209">
        <ele>297.79998779297</ele>
        <time>2021-02-04T11:38:49.000Z</time>
      </trkpt>
      <trkpt lat="43.75133" lon="7.27225">
        <ele>297.20001220703</ele>
        <time>2021-02-04T11:38:51.000Z</time>
      </trkpt>
      <trkpt lat="43.75131" lon="7.27236">
        <ele>296.20001220703</ele>
        <time>2021-02-04T11:38:52.000Z</time>
      </trkpt>
      <trkpt lat="43.75129" lon="7.27245">
        <ele>295.20001220703</ele>
        <time>2021-02-04T11:38:53.000Z</time>
      </trkpt>
      <trkpt lat="43.75127" lon="7.27253">
        <ele>294.20001220703</ele>
        <time>2021-02-04T11:38:54.000Z</time>
      </trkpt>
      <trkpt lat="43.75123" lon="7.27269">
        <ele>292.39999389648</ele>
        <time>2021-02-04T11:38:56.000Z</time>
      </trkpt>
      <trkpt lat="43.7512" lon="7.27277">
        <ele>292.20001220703</ele>
        <time>2021-02-04T11:38:57.000Z</time>
      </trkpt>
      <trkpt lat="43.75103" lon="7.27302">
        <ele>291.39999389648</ele>
        <time>2021-02-04T11:39:01.000Z</time>
      </trkpt>
      <trkpt lat="43.751" lon="7.27306">
        <ele>291</ele>
        <time>2021-02-04T11:39:02.000Z</time>
      </trkpt>
      <trkpt lat="43.75087" lon="7.27323">
        <ele>290.60000610352</ele>
        <time>2021-02-04T11:39:05.000Z</time>
      </trkpt>
      <trkpt lat="43.7508" lon="7.27336">
        <ele>289.79998779297</ele>
        <time>2021-02-04T11:39:07.000Z</time>
      </trkpt>
      <trkpt lat="43.75074" lon="7.27351">
        <ele>288.60000610352</ele>
        <time>2021-02-04T11:39:09.000Z</time>
      </trkpt>
      <trkpt lat="43.75072" lon="7.2736">
        <ele>287.60000610352</ele>
        <time>2021-02-04T11:39:10.000Z</time>
      </trkpt>
      <trkpt lat="43.75069" lon="7.27368">
        <ele>286.39999389648</ele>
        <time>2021-02-04T11:39:11.000Z</time>
      </trkpt>
      <trkpt lat="43.75063" lon="7.27386">
        <ele>286</ele>
        <time>2021-02-04T11:39:13.000Z</time>
      </trkpt>
      <trkpt lat="43.75061" lon="7.27396">
        <ele>285</ele>
        <time>2021-02-04T11:39:14.000Z</time>
      </trkpt>
      <trkpt lat="43.75055" lon="7.27424">
        <ele>283.20001220703</ele>
        <time>2021-02-04T11:39:17.000Z</time>
      </trkpt>
      <trkpt lat="43.75054" lon="7.27432">
        <ele>282</ele>
        <time>2021-02-04T11:39:18.000Z</time>
      </trkpt>
      <trkpt lat="43.75053" lon="7.27442">
        <ele>281.79998779297</ele>
        <time>2021-02-04T11:39:19.000Z</time>
      </trkpt>
      <trkpt lat="43.75054" lon="7.2746">
        <ele>281</ele>
        <time>2021-02-04T11:39:21.000Z</time>
      </trkpt>
      <trkpt lat="43.75054" lon="7.2747">
        <ele>280.79998779297</ele>
        <time>2021-02-04T11:39:22.000Z</time>
      </trkpt>
      <trkpt lat="43.75052" lon="7.2749">
        <ele>280.60000610352</ele>
        <time>2021-02-04T11:39:24.000Z</time>
      </trkpt>
      <trkpt lat="43.75051" lon="7.27507">
        <ele>279.60000610352</ele>
        <time>2021-02-04T11:39:26.000Z</time>
      </trkpt>
      <trkpt lat="43.75048" lon="7.27516">
        <ele>279.60000610352</ele>
        <time>2021-02-04T11:39:27.000Z</time>
      </trkpt>
      <trkpt lat="43.75035" lon="7.27547">
        <ele>278</ele>
        <time>2021-02-04T11:39:30.000Z</time>
      </trkpt>
      <trkpt lat="43.75031" lon="7.27558">
        <ele>277</ele>
        <time>2021-02-04T11:39:31.000Z</time>
      </trkpt>
      <trkpt lat="43.75027" lon="7.27571">
        <ele>275.60000610352</ele>
        <time>2021-02-04T11:39:32.000Z</time>
      </trkpt>
      <trkpt lat="43.75025" lon="7.27582">
        <ele>274</ele>
        <time>2021-02-04T11:39:33.000Z</time>
      </trkpt>
      <trkpt lat="43.75023" lon="7.27595">
        <ele>272</ele>
        <time>2021-02-04T11:39:34.000Z</time>
      </trkpt>
      <trkpt lat="43.75021" lon="7.27605">
        <ele>270</ele>
        <time>2021-02-04T11:39:35.000Z</time>
      </trkpt>
      <trkpt lat="43.75019" lon="7.27613">
        <ele>268.60000610352</ele>
        <time>2021-02-04T11:39:36.000Z</time>
      </trkpt>
      <trkpt lat="43.75016" lon="7.2762">
        <ele>267.79998779297</ele>
        <time>2021-02-04T11:39:37.000Z</time>
      </trkpt>
      <trkpt lat="43.75014" lon="7.27627">
        <ele>267</ele>
        <time>2021-02-04T11:39:38.000Z</time>
      </trkpt>
      <trkpt lat="43.75" lon="7.27666">
        <ele>266.39999389648</ele>
        <time>2021-02-04T11:39:44.000Z</time>
      </trkpt>
      <trkpt lat="43.74998" lon="7.27671">
        <ele>266.60000610352</ele>
        <time>2021-02-04T11:39:45.000Z</time>
      </trkpt>
      <trkpt lat="43.74995" lon="7.27676">
        <ele>266.60000610352</ele>
        <time>2021-02-04T11:39:46.000Z</time>
      </trkpt>
      <trkpt lat="43.74987" lon="7.27684">
        <ele>267.20001220703</ele>
        <time>2021-02-04T11:39:49.000Z</time>
      </trkpt>
      <trkpt lat="43.74982" lon="7.27685">
        <ele>267.60000610352</ele>
        <time>2021-02-04T11:39:51.000Z</time>
      </trkpt>
      <trkpt lat="43.74982" lon="7.27678">
        <ele>268</ele>
        <time>2021-02-04T11:39:53.000Z</time>
      </trkpt>
      <trkpt lat="43.74984" lon="7.27675">
        <ele>268.20001220703</ele>
        <time>2021-02-04T11:39:54.000Z</time>
      </trkpt>
      <trkpt lat="43.7499" lon="7.27669">
        <ele>268</ele>
        <time>2021-02-04T11:39:56.000Z</time>
      </trkpt>
      <trkpt lat="43.74989" lon="7.27654">
        <ele>266.60000610352</ele>
        <time>2021-02-04T11:39:59.000Z</time>
      </trkpt>
      <trkpt lat="43.74985" lon="7.27643">
        <ele>264.39999389648</ele>
        <time>2021-02-04T11:40:01.000Z</time>
      </trkpt>
      <trkpt lat="43.74981" lon="7.27636">
        <ele>263.20001220703</ele>
        <time>2021-02-04T11:40:02.000Z</time>
      </trkpt>
      <trkpt lat="43.74976" lon="7.27629">
        <ele>262.20001220703</ele>
        <time>2021-02-04T11:40:03.000Z</time>
      </trkpt>
      <trkpt lat="43.74971" lon="7.27622">
        <ele>260.79998779297</ele>
        <time>2021-02-04T11:40:04.000Z</time>
      </trkpt>
      <trkpt lat="43.74966" lon="7.27614">
        <ele>258.79998779297</ele>
        <time>2021-02-04T11:40:05.000Z</time>
      </trkpt>
      <trkpt lat="43.74962" lon="7.27607">
        <ele>257.79998779297</ele>
        <time>2021-02-04T11:40:06.000Z</time>
      </trkpt>
      <trkpt lat="43.74957" lon="7.27601">
        <ele>258.60000610352</ele>
        <time>2021-02-04T11:40:07.000Z</time>
      </trkpt>
      <trkpt lat="43.74953" lon="7.27593">
        <ele>258.60000610352</ele>
        <time>2021-02-04T11:40:08.000Z</time>
      </trkpt>
      <trkpt lat="43.74949" lon="7.27586">
        <ele>256.79998779297</ele>
        <time>2021-02-04T11:40:09.000Z</time>
      </trkpt>
      <trkpt lat="43.74944" lon="7.27578">
        <ele>254</ele>
        <time>2021-02-04T11:40:10.000Z</time>
      </trkpt>
      <trkpt lat="43.7494" lon="7.27572">
        <ele>252.60000610352</ele>
        <time>2021-02-04T11:40:11.000Z</time>
      </trkpt>
      <trkpt lat="43.74937" lon="7.27565">
        <ele>251.19999694824</ele>
        <time>2021-02-04T11:40:12.000Z</time>
      </trkpt>
      <trkpt lat="43.74939" lon="7.27552">
        <ele>250.19999694824</ele>
        <time>2021-02-04T11:40:14.000Z</time>
      </trkpt>
      <trkpt lat="43.7494" lon="7.27543">
        <ele>249.80000305176</ele>
        <time>2021-02-04T11:40:15.000Z</time>
      </trkpt>
      <trkpt lat="43.74941" lon="7.2753">
        <ele>248.80000305176</ele>
        <time>2021-02-04T11:40:17.000Z</time>
      </trkpt>
      <trkpt lat="43.7494" lon="7.27528">
        <ele>248.19999694824</ele>
        <time>2021-02-04T11:40:18.000Z</time>
      </trkpt>
      <trkpt lat="43.74936" lon="7.27524">
        <ele>247.39999389648</ele>
        <time>2021-02-04T11:40:19.000Z</time>
      </trkpt>
      <trkpt lat="43.74928" lon="7.2752">
        <ele>246.60000610352</ele>
        <time>2021-02-04T11:40:21.000Z</time>
      </trkpt>
      <trkpt lat="43.74924" lon="7.27519">
        <ele>246</ele>
        <time>2021-02-04T11:40:22.000Z</time>
      </trkpt>
      <trkpt lat="43.74921" lon="7.27518">
        <ele>245.19999694824</ele>
        <time>2021-02-04T11:40:23.000Z</time>
      </trkpt>
      <trkpt lat="43.74918" lon="7.27518">
        <ele>244.19999694824</ele>
        <time>2021-02-04T11:40:24.000Z</time>
      </trkpt>
      <trkpt lat="43.74915" lon="7.27516">
        <ele>243.39999389648</ele>
        <time>2021-02-04T11:40:25.000Z</time>
      </trkpt>
      <trkpt lat="43.74911" lon="7.27512">
        <ele>242.80000305176</ele>
        <time>2021-02-04T11:40:26.000Z</time>
      </trkpt>
      <trkpt lat="43.74904" lon="7.27503">
        <ele>240.19999694824</ele>
        <time>2021-02-04T11:40:28.000Z</time>
      </trkpt>
      <trkpt lat="43.749" lon="7.27502">
        <ele>238.80000305176</ele>
        <time>2021-02-04T11:40:29.000Z</time>
      </trkpt>
      <trkpt lat="43.74896" lon="7.27503">
        <ele>237.60000610352</ele>
        <time>2021-02-04T11:40:30.000Z</time>
      </trkpt>
      <trkpt lat="43.74892" lon="7.27502">
        <ele>236.19999694824</ele>
        <time>2021-02-04T11:40:31.000Z</time>
      </trkpt>
      <trkpt lat="43.74889" lon="7.27499">
        <ele>234.80000305176</ele>
        <time>2021-02-04T11:40:32.000Z</time>
      </trkpt>
      <trkpt lat="43.74889" lon="7.27497">
        <ele>233.60000610352</ele>
        <time>2021-02-04T11:40:33.000Z</time>
      </trkpt>
      <trkpt lat="43.74889" lon="7.27495">
        <ele>232.39999389648</ele>
        <time>2021-02-04T11:40:34.000Z</time>
      </trkpt>
      <trkpt lat="43.74889" lon="7.27495">
        <ele>230.80000305176</ele>
        <time>2021-02-04T11:40:36.000Z</time>
      </trkpt>
      <trkpt lat="43.74889" lon="7.27494">
        <ele>230.39999389648</ele>
        <time>2021-02-04T11:40:39.000Z</time>
      </trkpt>
      <trkpt lat="43.74889" lon="7.27494">
        <ele>229.60000610352</ele>
        <time>2021-02-04T11:40:53.000Z</time>
      </trkpt>
      <trkpt lat="43.74889" lon="7.27492">
        <ele>229</ele>
        <time>2021-02-04T11:41:09.000Z</time>
      </trkpt>
      <trkpt lat="43.74888" lon="7.27492">
        <ele>228.60000610352</ele>
        <time>2021-02-04T11:41:12.000Z</time>
      </trkpt>
      <trkpt lat="43.74888" lon="7.27492">
        <ele>228.19999694824</ele>
        <time>2021-02-04T11:41:15.000Z</time>
      </trkpt>
      <trkpt lat="43.74887" lon="7.2749">
        <ele>228.19999694824</ele>
        <time>2021-02-04T11:41:16.000Z</time>
      </trkpt>
      <trkpt lat="43.74886" lon="7.27483">
        <ele>227.80000305176</ele>
        <time>2021-02-04T11:41:19.000Z</time>
      </trkpt>
      <trkpt lat="43.74886" lon="7.27478">
        <ele>227.39999389648</ele>
        <time>2021-02-04T11:41:21.000Z</time>
      </trkpt>
      <trkpt lat="43.74881" lon="7.27465">
        <ele>227.19999694824</ele>
        <time>2021-02-04T11:41:25.000Z</time>
      </trkpt>
      <trkpt lat="43.74876" lon="7.27446">
        <ele>227</ele>
        <time>2021-02-04T11:41:29.000Z</time>
      </trkpt>
      <trkpt lat="43.74878" lon="7.27431">
        <ele>226.80000305176</ele>
        <time>2021-02-04T11:41:33.000Z</time>
      </trkpt>
      <trkpt lat="43.74885" lon="7.27405">
        <ele>228.19999694824</ele>
        <time>2021-02-04T11:41:39.000Z</time>
      </trkpt>
      <trkpt lat="43.74887" lon="7.27395">
        <ele>228.60000610352</ele>
        <time>2021-02-04T11:41:41.000Z</time>
      </trkpt>
      <trkpt lat="43.74892" lon="7.27372">
        <ele>229.39999389648</ele>
        <time>2021-02-04T11:41:45.000Z</time>
      </trkpt>
      <trkpt lat="43.74901" lon="7.27344">
        <ele>229.39999389648</ele>
        <time>2021-02-04T11:41:50.000Z</time>
      </trkpt>
      <trkpt lat="43.7491" lon="7.27317">
        <ele>228.60000610352</ele>
        <time>2021-02-04T11:41:55.000Z</time>
      </trkpt>
      <trkpt lat="43.74926" lon="7.27295">
        <ele>228.39999389648</ele>
        <time>2021-02-04T11:42:01.000Z</time>
      </trkpt>
      <trkpt lat="43.74935" lon="7.27286">
        <ele>228.60000610352</ele>
        <time>2021-02-04T11:42:04.000Z</time>
      </trkpt>
      <trkpt lat="43.74938" lon="7.2728">
        <ele>228.39999389648</ele>
        <time>2021-02-04T11:42:05.000Z</time>
      </trkpt>
      <trkpt lat="43.74947" lon="7.27264">
        <ele>227</ele>
        <time>2021-02-04T11:42:08.000Z</time>
      </trkpt>
      <trkpt lat="43.74952" lon="7.27256">
        <ele>226.60000610352</ele>
        <time>2021-02-04T11:42:10.000Z</time>
      </trkpt>
      <trkpt lat="43.74956" lon="7.27248">
        <ele>226</ele>
        <time>2021-02-04T11:42:14.000Z</time>
      </trkpt>
      <trkpt lat="43.74956" lon="7.27247">
        <ele>225.19999694824</ele>
        <time>2021-02-04T11:42:19.000Z</time>
      </trkpt>
      <trkpt lat="43.74957" lon="7.27243">
        <ele>225</ele>
        <time>2021-02-04T11:42:23.000Z</time>
      </trkpt>
      <trkpt lat="43.74958" lon="7.27242">
        <ele>225</ele>
        <time>2021-02-04T11:42:24.000Z</time>
      </trkpt>
      <trkpt lat="43.74958" lon="7.2724">
        <ele>225.80000305176</ele>
        <time>2021-02-04T11:42:30.000Z</time>
      </trkpt>
      <trkpt lat="43.74959" lon="7.27235">
        <ele>226</ele>
        <time>2021-02-04T11:42:32.000Z</time>
      </trkpt>
      <trkpt lat="43.74957" lon="7.27229">
        <ele>226</ele>
        <time>2021-02-04T11:42:34.000Z</time>
      </trkpt>
      <trkpt lat="43.74954" lon="7.27227">
        <ele>226</ele>
        <time>2021-02-04T11:42:36.000Z</time>
      </trkpt>
      <trkpt lat="43.7495" lon="7.27225">
        <ele>226</ele>
        <time>2021-02-04T11:42:37.000Z</time>
      </trkpt>
      <trkpt lat="43.74946" lon="7.27223">
        <ele>226</ele>
        <time>2021-02-04T11:42:38.000Z</time>
      </trkpt>
      <trkpt lat="43.74934" lon="7.27203">
        <ele>225</ele>
        <time>2021-02-04T11:42:43.000Z</time>
      </trkpt>
      <trkpt lat="43.74932" lon="7.27199">
        <ele>224.80000305176</ele>
        <time>2021-02-04T11:42:44.000Z</time>
      </trkpt>
      <trkpt lat="43.74924" lon="7.27181">
        <ele>224</ele>
        <time>2021-02-04T11:42:48.000Z</time>
      </trkpt>
      <trkpt lat="43.74923" lon="7.27175">
        <ele>223.80000305176</ele>
        <time>2021-02-04T11:42:49.000Z</time>
      </trkpt>
      <trkpt lat="43.74922" lon="7.27171">
        <ele>223.39999389648</ele>
        <time>2021-02-04T11:42:50.000Z</time>
      </trkpt>
      <trkpt lat="43.74918" lon="7.27165">
        <ele>222.80000305176</ele>
        <time>2021-02-04T11:42:52.000Z</time>
      </trkpt>
      <trkpt lat="43.74919" lon="7.27159">
        <ele>222.60000610352</ele>
        <time>2021-02-04T11:42:54.000Z</time>
      </trkpt>
      <trkpt lat="43.7492" lon="7.27156">
        <ele>222.60000610352</ele>
        <time>2021-02-04T11:42:55.000Z</time>
      </trkpt>
      <trkpt lat="43.74922" lon="7.27139">
        <ele>222.60000610352</ele>
        <time>2021-02-04T11:42:59.000Z</time>
      </trkpt>
      <trkpt lat="43.74923" lon="7.27135">
        <ele>222.39999389648</ele>
        <time>2021-02-04T11:43:00.000Z</time>
      </trkpt>
      <trkpt lat="43.74925" lon="7.27132">
        <ele>222.19999694824</ele>
        <time>2021-02-04T11:43:01.000Z</time>
      </trkpt>
      <trkpt lat="43.74928" lon="7.27126">
        <ele>221.60000610352</ele>
        <time>2021-02-04T11:43:03.000Z</time>
      </trkpt>
      <trkpt lat="43.74932" lon="7.27121">
        <ele>221.19999694824</ele>
        <time>2021-02-04T11:43:04.000Z</time>
      </trkpt>
      <trkpt lat="43.74933" lon="7.27115">
        <ele>221</ele>
        <time>2021-02-04T11:43:05.000Z</time>
      </trkpt>
      <trkpt lat="43.74934" lon="7.2711">
        <ele>220.80000305176</ele>
        <time>2021-02-04T11:43:06.000Z</time>
      </trkpt>
      <trkpt lat="43.74934" lon="7.27101">
        <ele>220</ele>
        <time>2021-02-04T11:43:09.000Z</time>
      </trkpt>
      <trkpt lat="43.74935" lon="7.27088">
        <ele>219.80000305176</ele>
        <time>2021-02-04T11:43:13.000Z</time>
      </trkpt>
      <trkpt lat="43.74933" lon="7.27076">
        <ele>218.39999389648</ele>
        <time>2021-02-04T11:43:15.000Z</time>
      </trkpt>
      <trkpt lat="43.74931" lon="7.27072">
        <ele>217.80000305176</ele>
        <time>2021-02-04T11:43:16.000Z</time>
      </trkpt>
      <trkpt lat="43.74928" lon="7.27069">
        <ele>216.60000610352</ele>
        <time>2021-02-04T11:43:17.000Z</time>
      </trkpt>
      <trkpt lat="43.74924" lon="7.27065">
        <ele>215.19999694824</ele>
        <time>2021-02-04T11:43:19.000Z</time>
      </trkpt>
      <trkpt lat="43.74924" lon="7.27063">
        <ele>214.80000305176</ele>
        <time>2021-02-04T11:43:20.000Z</time>
      </trkpt>
      <trkpt lat="43.74919" lon="7.27048">
        <ele>214.19999694824</ele>
        <time>2021-02-04T11:43:23.000Z</time>
      </trkpt>
      <trkpt lat="43.74916" lon="7.27044">
        <ele>213.60000610352</ele>
        <time>2021-02-04T11:43:24.000Z</time>
      </trkpt>
      <trkpt lat="43.74911" lon="7.27039">
        <ele>211.60000610352</ele>
        <time>2021-02-04T11:43:26.000Z</time>
      </trkpt>
      <trkpt lat="43.7491" lon="7.27036">
        <ele>210.39999389648</ele>
        <time>2021-02-04T11:43:27.000Z</time>
      </trkpt>
      <trkpt lat="43.74909" lon="7.27028">
        <ele>208.60000610352</ele>
        <time>2021-02-04T11:43:29.000Z</time>
      </trkpt>
      <trkpt lat="43.74906" lon="7.27017">
        <ele>207.80000305176</ele>
        <time>2021-02-04T11:43:31.000Z</time>
      </trkpt>
      <trkpt lat="43.74905" lon="7.27012">
        <ele>207.60000610352</ele>
        <time>2021-02-04T11:43:32.000Z</time>
      </trkpt>
      <trkpt lat="43.74907" lon="7.27006">
        <ele>206.60000610352</ele>
        <time>2021-02-04T11:43:34.000Z</time>
      </trkpt>
      <trkpt lat="43.74909" lon="7.27002">
        <ele>206.19999694824</ele>
        <time>2021-02-04T11:43:35.000Z</time>
      </trkpt>
      <trkpt lat="43.74911" lon="7.26997">
        <ele>206</ele>
        <time>2021-02-04T11:43:36.000Z</time>
      </trkpt>
      <trkpt lat="43.74911" lon="7.26987">
        <ele>205.39999389648</ele>
        <time>2021-02-04T11:43:38.000Z</time>
      </trkpt>
      <trkpt lat="43.74908" lon="7.26981">
        <ele>205.19999694824</ele>
        <time>2021-02-04T11:43:40.000Z</time>
      </trkpt>
      <trkpt lat="43.74905" lon="7.26979">
        <ele>205</ele>
        <time>2021-02-04T11:43:41.000Z</time>
      </trkpt>
      <trkpt lat="43.74902" lon="7.26976">
        <ele>204.19999694824</ele>
        <time>2021-02-04T11:43:43.000Z</time>
      </trkpt>
      <trkpt lat="43.749" lon="7.26974">
        <ele>203.80000305176</ele>
        <time>2021-02-04T11:43:44.000Z</time>
      </trkpt>
      <trkpt lat="43.74897" lon="7.26971">
        <ele>203.19999694824</ele>
        <time>2021-02-04T11:43:45.000Z</time>
      </trkpt>
      <trkpt lat="43.74891" lon="7.26963">
        <ele>202</ele>
        <time>2021-02-04T11:43:47.000Z</time>
      </trkpt>
      <trkpt lat="43.7489" lon="7.26954">
        <ele>200.60000610352</ele>
        <time>2021-02-04T11:43:49.000Z</time>
      </trkpt>
      <trkpt lat="43.7489" lon="7.26945">
        <ele>199</ele>
        <time>2021-02-04T11:43:51.000Z</time>
      </trkpt>
      <trkpt lat="43.74891" lon="7.26932">
        <ele>198</ele>
        <time>2021-02-04T11:43:53.000Z</time>
      </trkpt>
      <trkpt lat="43.74889" lon="7.2692">
        <ele>196.39999389648</ele>
        <time>2021-02-04T11:43:55.000Z</time>
      </trkpt>
      <trkpt lat="43.74886" lon="7.26911">
        <ele>195</ele>
        <time>2021-02-04T11:43:57.000Z</time>
      </trkpt>
      <trkpt lat="43.74883" lon="7.26911">
        <ele>193.39999389648</ele>
        <time>2021-02-04T11:43:59.000Z</time>
      </trkpt>
      <trkpt lat="43.7488" lon="7.2691">
        <ele>192.60000610352</ele>
        <time>2021-02-04T11:44:00.000Z</time>
      </trkpt>
      <trkpt lat="43.74876" lon="7.26909">
        <ele>191.39999389648</ele>
        <time>2021-02-04T11:44:01.000Z</time>
      </trkpt>
      <trkpt lat="43.74871" lon="7.2691">
        <ele>190.39999389648</ele>
        <time>2021-02-04T11:44:02.000Z</time>
      </trkpt>
      <trkpt lat="43.74867" lon="7.2691">
        <ele>189.19999694824</ele>
        <time>2021-02-04T11:44:03.000Z</time>
      </trkpt>
      <trkpt lat="43.74864" lon="7.2691">
        <ele>188.19999694824</ele>
        <time>2021-02-04T11:44:04.000Z</time>
      </trkpt>
      <trkpt lat="43.74862" lon="7.26912">
        <ele>187.39999389648</ele>
        <time>2021-02-04T11:44:05.000Z</time>
      </trkpt>
      <trkpt lat="43.74861" lon="7.26916">
        <ele>186.60000610352</ele>
        <time>2021-02-04T11:44:06.000Z</time>
      </trkpt>
      <trkpt lat="43.7486" lon="7.26921">
        <ele>186</ele>
        <time>2021-02-04T11:44:07.000Z</time>
      </trkpt>
      <trkpt lat="43.74859" lon="7.26932">
        <ele>185.19999694824</ele>
        <time>2021-02-04T11:44:09.000Z</time>
      </trkpt>
      <trkpt lat="43.74859" lon="7.26938">
        <ele>184.60000610352</ele>
        <time>2021-02-04T11:44:10.000Z</time>
      </trkpt>
      <trkpt lat="43.74859" lon="7.26941">
        <ele>183.80000305176</ele>
        <time>2021-02-04T11:44:11.000Z</time>
      </trkpt>
      <trkpt lat="43.74859" lon="7.26945">
        <ele>182.80000305176</ele>
        <time>2021-02-04T11:44:12.000Z</time>
      </trkpt>
      <trkpt lat="43.74858" lon="7.26961">
        <ele>181.60000610352</ele>
        <time>2021-02-04T11:44:15.000Z</time>
      </trkpt>
      <trkpt lat="43.74857" lon="7.26966">
        <ele>181.60000610352</ele>
        <time>2021-02-04T11:44:16.000Z</time>
      </trkpt>
      <trkpt lat="43.74854" lon="7.26989">
        <ele>180.80000305176</ele>
        <time>2021-02-04T11:44:20.000Z</time>
      </trkpt>
      <trkpt lat="43.74853" lon="7.26994">
        <ele>180</ele>
        <time>2021-02-04T11:44:21.000Z</time>
      </trkpt>
      <trkpt lat="43.74852" lon="7.27006">
        <ele>178.60000610352</ele>
        <time>2021-02-04T11:44:23.000Z</time>
      </trkpt>
      <trkpt lat="43.74851" lon="7.27012">
        <ele>178</ele>
        <time>2021-02-04T11:44:25.000Z</time>
      </trkpt>
      <trkpt lat="43.74851" lon="7.27014">
        <ele>177.60000610352</ele>
        <time>2021-02-04T11:44:26.000Z</time>
      </trkpt>
      <trkpt lat="43.74851" lon="7.27029">
        <ele>177.39999389648</ele>
        <time>2021-02-04T11:44:29.000Z</time>
      </trkpt>
      <trkpt lat="43.74849" lon="7.27035">
        <ele>177.19999694824</ele>
        <time>2021-02-04T11:44:30.000Z</time>
      </trkpt>
      <trkpt lat="43.74847" lon="7.27047">
        <ele>176.80000305176</ele>
        <time>2021-02-04T11:44:32.000Z</time>
      </trkpt>
      <trkpt lat="43.74848" lon="7.27054">
        <ele>176.39999389648</ele>
        <time>2021-02-04T11:44:33.000Z</time>
      </trkpt>
      <trkpt lat="43.74846" lon="7.27069">
        <ele>175.39999389648</ele>
        <time>2021-02-04T11:44:35.000Z</time>
      </trkpt>
      <trkpt lat="43.74845" lon="7.27085">
        <ele>174.19999694824</ele>
        <time>2021-02-04T11:44:37.000Z</time>
      </trkpt>
      <trkpt lat="43.74845" lon="7.27091">
        <ele>173.39999389648</ele>
        <time>2021-02-04T11:44:38.000Z</time>
      </trkpt>
      <trkpt lat="43.74843" lon="7.27095">
        <ele>173</ele>
        <time>2021-02-04T11:44:39.000Z</time>
      </trkpt>
      <trkpt lat="43.74841" lon="7.27097">
        <ele>172.19999694824</ele>
        <time>2021-02-04T11:44:40.000Z</time>
      </trkpt>
      <trkpt lat="43.7484" lon="7.27099">
        <ele>171.80000305176</ele>
        <time>2021-02-04T11:44:41.000Z</time>
      </trkpt>
      <trkpt lat="43.74836" lon="7.27111">
        <ele>171.80000305176</ele>
        <time>2021-02-04T11:44:45.000Z</time>
      </trkpt>
      <trkpt lat="43.74835" lon="7.27128">
        <ele>171.19999694824</ele>
        <time>2021-02-04T11:44:50.000Z</time>
      </trkpt>
      <trkpt lat="43.74834" lon="7.27134">
        <ele>171.19999694824</ele>
        <time>2021-02-04T11:44:52.000Z</time>
      </trkpt>
      <trkpt lat="43.74831" lon="7.27145">
        <ele>170.80000305176</ele>
        <time>2021-02-04T11:44:55.000Z</time>
      </trkpt>
      <trkpt lat="43.74829" lon="7.27147">
        <ele>170.39999389648</ele>
        <time>2021-02-04T11:44:57.000Z</time>
      </trkpt>
      <trkpt lat="43.74827" lon="7.2715">
        <ele>170</ele>
        <time>2021-02-04T11:44:59.000Z</time>
      </trkpt>
      <trkpt lat="43.74825" lon="7.27157">
        <ele>170</ele>
        <time>2021-02-04T11:45:01.000Z</time>
      </trkpt>
      <trkpt lat="43.74822" lon="7.27165">
        <ele>170.39999389648</ele>
        <time>2021-02-04T11:45:03.000Z</time>
      </trkpt>
      <trkpt lat="43.74817" lon="7.2718">
        <ele>169.60000610352</ele>
        <time>2021-02-04T11:45:06.000Z</time>
      </trkpt>
      <trkpt lat="43.74813" lon="7.27192">
        <ele>169.19999694824</ele>
        <time>2021-02-04T11:45:08.000Z</time>
      </trkpt>
      <trkpt lat="43.74811" lon="7.27196">
        <ele>169.19999694824</ele>
        <time>2021-02-04T11:45:09.000Z</time>
      </trkpt>
      <trkpt lat="43.74803" lon="7.27209">
        <ele>168.19999694824</ele>
        <time>2021-02-04T11:45:12.000Z</time>
      </trkpt>
      <trkpt lat="43.74802" lon="7.27211">
        <ele>167.80000305176</ele>
        <time>2021-02-04T11:45:13.000Z</time>
      </trkpt>
      <trkpt lat="43.74799" lon="7.27211">
        <ele>167.39999389648</ele>
        <time>2021-02-04T11:45:14.000Z</time>
      </trkpt>
      <trkpt lat="43.74796" lon="7.2721">
        <ele>167</ele>
        <time>2021-02-04T11:45:15.000Z</time>
      </trkpt>
      <trkpt lat="43.74794" lon="7.2721">
        <ele>166.80000305176</ele>
        <time>2021-02-04T11:45:16.000Z</time>
      </trkpt>
      <trkpt lat="43.74783" lon="7.27214">
        <ele>167.39999389648</ele>
        <time>2021-02-04T11:45:21.000Z</time>
      </trkpt>
      <trkpt lat="43.74779" lon="7.27216">
        <ele>168.60000610352</ele>
        <time>2021-02-04T11:45:23.000Z</time>
      </trkpt>
      <trkpt lat="43.74775" lon="7.27219">
        <ele>169.80000305176</ele>
        <time>2021-02-04T11:45:25.000Z</time>
      </trkpt>
      <trkpt lat="43.74773" lon="7.27222">
        <ele>171.19999694824</ele>
        <time>2021-02-04T11:45:27.000Z</time>
      </trkpt>
      <trkpt lat="43.74771" lon="7.27226">
        <ele>172.60000610352</ele>
        <time>2021-02-04T11:45:29.000Z</time>
      </trkpt>
      <trkpt lat="43.7477" lon="7.27232">
        <ele>173.60000610352</ele>
        <time>2021-02-04T11:45:31.000Z</time>
      </trkpt>
      <trkpt lat="43.74769" lon="7.27235">
        <ele>174.19999694824</ele>
        <time>2021-02-04T11:45:32.000Z</time>
      </trkpt>
      <trkpt lat="43.74766" lon="7.27241">
        <ele>175</ele>
        <time>2021-02-04T11:45:34.000Z</time>
      </trkpt>
      <trkpt lat="43.7476" lon="7.27246">
        <ele>176</ele>
        <time>2021-02-04T11:45:37.000Z</time>
      </trkpt>
      <trkpt lat="43.74754" lon="7.27254">
        <ele>177.19999694824</ele>
        <time>2021-02-04T11:45:41.000Z</time>
      </trkpt>
      <trkpt lat="43.7475" lon="7.27261">
        <ele>177.60000610352</ele>
        <time>2021-02-04T11:45:43.000Z</time>
      </trkpt>
      <trkpt lat="43.74745" lon="7.27268">
        <ele>178.39999389648</ele>
        <time>2021-02-04T11:45:46.000Z</time>
      </trkpt>
      <trkpt lat="43.7474" lon="7.27277">
        <ele>179.80000305176</ele>
        <time>2021-02-04T11:45:49.000Z</time>
      </trkpt>
      <trkpt lat="43.74739" lon="7.2728">
        <ele>180.19999694824</ele>
        <time>2021-02-04T11:45:50.000Z</time>
      </trkpt>
      <trkpt lat="43.74736" lon="7.27286">
        <ele>180.80000305176</ele>
        <time>2021-02-04T11:45:52.000Z</time>
      </trkpt>
      <trkpt lat="43.74728" lon="7.27289">
        <ele>181.19999694824</ele>
        <time>2021-02-04T11:45:55.000Z</time>
      </trkpt>
      <trkpt lat="43.74717" lon="7.27288">
        <ele>181.60000610352</ele>
        <time>2021-02-04T11:45:59.000Z</time>
      </trkpt>
      <trkpt lat="43.74715" lon="7.27289">
        <ele>182.19999694824</ele>
        <time>2021-02-04T11:46:00.000Z</time>
      </trkpt>
      <trkpt lat="43.74712" lon="7.2729">
        <ele>183.19999694824</ele>
        <time>2021-02-04T11:46:02.000Z</time>
      </trkpt>
      <trkpt lat="43.74709" lon="7.27294">
        <ele>184</ele>
        <time>2021-02-04T11:46:04.000Z</time>
      </trkpt>
      <trkpt lat="43.74706" lon="7.27302">
        <ele>184.19999694824</ele>
        <time>2021-02-04T11:46:06.000Z</time>
      </trkpt>
      <trkpt lat="43.74704" lon="7.27309">
        <ele>184</ele>
        <time>2021-02-04T11:46:08.000Z</time>
      </trkpt>
      <trkpt lat="43.74703" lon="7.27313">
        <ele>183</ele>
        <time>2021-02-04T11:46:10.000Z</time>
      </trkpt>
      <trkpt lat="43.74704" lon="7.27316">
        <ele>182.39999389648</ele>
        <time>2021-02-04T11:46:12.000Z</time>
      </trkpt>
      <trkpt lat="43.74704" lon="7.27317">
        <ele>182</ele>
        <time>2021-02-04T11:46:14.000Z</time>
      </trkpt>
      <trkpt lat="43.74704" lon="7.27318">
        <ele>182</ele>
        <time>2021-02-04T11:46:19.000Z</time>
      </trkpt>
      <trkpt lat="43.74706" lon="7.27331">
        <ele>182</ele>
        <time>2021-02-04T11:46:32.000Z</time>
      </trkpt>
      <trkpt lat="43.74706" lon="7.27335">
        <ele>182</ele>
        <time>2021-02-04T11:46:33.000Z</time>
      </trkpt>
      <trkpt lat="43.74711" lon="7.27345">
        <ele>181.60000610352</ele>
        <time>2021-02-04T11:46:36.000Z</time>
      </trkpt>
      <trkpt lat="43.74712" lon="7.27364">
        <ele>181.19999694824</ele>
        <time>2021-02-04T11:46:41.000Z</time>
      </trkpt>
      <trkpt lat="43.74705" lon="7.27376">
        <ele>181.19999694824</ele>
        <time>2021-02-04T11:46:45.000Z</time>
      </trkpt>
      <trkpt lat="43.74705" lon="7.27376">
        <ele>180.80000305176</ele>
        <time>2021-02-04T11:46:47.000Z</time>
      </trkpt>
      <trkpt lat="43.74705" lon="7.27377">
        <ele>180.80000305176</ele>
        <time>2021-02-04T11:46:48.000Z</time>
      </trkpt>
      <trkpt lat="43.74705" lon="7.27377">
        <ele>181.80000305176</ele>
        <time>2021-02-04T11:46:52.000Z</time>
      </trkpt>
      <trkpt lat="43.74706" lon="7.27378">
        <ele>181.80000305176</ele>
        <time>2021-02-04T11:46:58.000Z</time>
      </trkpt>
      <trkpt lat="43.74706" lon="7.27379">
        <ele>181.80000305176</ele>
        <time>2021-02-04T11:47:20.000Z</time>
      </trkpt>
      <trkpt lat="43.74707" lon="7.2738">
        <ele>181.80000305176</ele>
        <time>2021-02-04T11:47:39.000Z</time>
      </trkpt>
      <trkpt lat="43.74705" lon="7.27381">
        <ele>182</ele>
        <time>2021-02-04T11:47:46.000Z</time>
      </trkpt>
      <trkpt lat="43.74704" lon="7.27381">
        <ele>182.39999389648</ele>
        <time>2021-02-04T11:47:52.000Z</time>
      </trkpt>
      <trkpt lat="43.74703" lon="7.27382">
        <ele>182.80000305176</ele>
        <time>2021-02-04T11:47:57.000Z</time>
      </trkpt>
      <trkpt lat="43.74703" lon="7.27382">
        <ele>183.39999389648</ele>
        <time>2021-02-04T11:47:59.000Z</time>
      </trkpt>
      <trkpt lat="43.74702" lon="7.27383">
        <ele>183.80000305176</ele>
        <time>2021-02-04T11:48:06.000Z</time>
      </trkpt>
      <trkpt lat="43.74701" lon="7.27384">
        <ele>183.80000305176</ele>
        <time>2021-02-04T11:48:14.000Z</time>
      </trkpt>
      <trkpt lat="43.74701" lon="7.27385">
        <ele>183.80000305176</ele>
        <time>2021-02-04T11:48:26.000Z</time>
      </trkpt>
      <trkpt lat="43.74702" lon="7.27386">
        <ele>183.80000305176</ele>
        <time>2021-02-04T11:48:44.000Z</time>
      </trkpt>
      <trkpt lat="43.74701" lon="7.27389">
        <ele>183.80000305176</ele>
        <time>2021-02-04T11:48:55.000Z</time>
      </trkpt>
      <trkpt lat="43.74699" lon="7.27392">
        <ele>183.80000305176</ele>
        <time>2021-02-04T11:48:57.000Z</time>
      </trkpt>
      <trkpt lat="43.74694" lon="7.27399">
        <ele>184.19999694824</ele>
        <time>2021-02-04T11:49:01.000Z</time>
      </trkpt>
      <trkpt lat="43.74693" lon="7.27402">
        <ele>184.39999389648</ele>
        <time>2021-02-04T11:49:02.000Z</time>
      </trkpt>
      <trkpt lat="43.74692" lon="7.27407">
        <ele>184.80000305176</ele>
        <time>2021-02-04T11:49:04.000Z</time>
      </trkpt>
      <trkpt lat="43.74691" lon="7.2741">
        <ele>185</ele>
        <time>2021-02-04T11:49:05.000Z</time>
      </trkpt>
      <trkpt lat="43.74688" lon="7.27419">
        <ele>186.19999694824</ele>
        <time>2021-02-04T11:49:08.000Z</time>
      </trkpt>
      <trkpt lat="43.74687" lon="7.27422">
        <ele>186.39999389648</ele>
        <time>2021-02-04T11:49:09.000Z</time>
      </trkpt>
      <trkpt lat="43.74681" lon="7.2743">
        <ele>187.39999389648</ele>
        <time>2021-02-04T11:49:12.000Z</time>
      </trkpt>
      <trkpt lat="43.74679" lon="7.27433">
        <ele>187.80000305176</ele>
        <time>2021-02-04T11:49:13.000Z</time>
      </trkpt>
      <trkpt lat="43.74676" lon="7.27437">
        <ele>188.39999389648</ele>
        <time>2021-02-04T11:49:15.000Z</time>
      </trkpt>
      <trkpt lat="43.74672" lon="7.27446">
        <ele>188.80000305176</ele>
        <time>2021-02-04T11:49:17.000Z</time>
      </trkpt>
      <trkpt lat="43.74668" lon="7.27466">
        <ele>188</ele>
        <time>2021-02-04T11:49:21.000Z</time>
      </trkpt>
      <trkpt lat="43.74663" lon="7.27485">
        <ele>187.39999389648</ele>
        <time>2021-02-04T11:49:24.000Z</time>
      </trkpt>
      <trkpt lat="43.74661" lon="7.27492">
        <ele>187.19999694824</ele>
        <time>2021-02-04T11:49:25.000Z</time>
      </trkpt>
      <trkpt lat="43.74658" lon="7.27497">
        <ele>187.19999694824</ele>
        <time>2021-02-04T11:49:26.000Z</time>
      </trkpt>
      <trkpt lat="43.74649" lon="7.27511">
        <ele>187</ele>
        <time>2021-02-04T11:49:29.000Z</time>
      </trkpt>
      <trkpt lat="43.7463" lon="7.27536">
        <ele>188.39999389648</ele>
        <time>2021-02-04T11:49:35.000Z</time>
      </trkpt>
      <trkpt lat="43.74613" lon="7.27558">
        <ele>189.19999694824</ele>
        <time>2021-02-04T11:49:40.000Z</time>
      </trkpt>
      <trkpt lat="43.7461" lon="7.27563">
        <ele>189.39999389648</ele>
        <time>2021-02-04T11:49:41.000Z</time>
      </trkpt>
      <trkpt lat="43.74607" lon="7.2757">
        <ele>189.39999389648</ele>
        <time>2021-02-04T11:49:42.000Z</time>
      </trkpt>
      <trkpt lat="43.74606" lon="7.27577">
        <ele>189.80000305176</ele>
        <time>2021-02-04T11:49:43.000Z</time>
      </trkpt>
      <trkpt lat="43.74605" lon="7.27584">
        <ele>189.80000305176</ele>
        <time>2021-02-04T11:49:44.000Z</time>
      </trkpt>
      <trkpt lat="43.74598" lon="7.27601">
        <ele>189.60000610352</ele>
        <time>2021-02-04T11:49:47.000Z</time>
      </trkpt>
      <trkpt lat="43.74595" lon="7.27606">
        <ele>189.39999389648</ele>
        <time>2021-02-04T11:49:48.000Z</time>
      </trkpt>
      <trkpt lat="43.74591" lon="7.27612">
        <ele>189.19999694824</ele>
        <time>2021-02-04T11:49:49.000Z</time>
      </trkpt>
      <trkpt lat="43.74584" lon="7.27619">
        <ele>189.19999694824</ele>
        <time>2021-02-04T11:49:51.000Z</time>
      </trkpt>
      <trkpt lat="43.74576" lon="7.27627">
        <ele>189.39999389648</ele>
        <time>2021-02-04T11:49:53.000Z</time>
      </trkpt>
      <trkpt lat="43.74568" lon="7.27635">
        <ele>189.80000305176</ele>
        <time>2021-02-04T11:49:55.000Z</time>
      </trkpt>
      <trkpt lat="43.7456" lon="7.27641">
        <ele>190.60000610352</ele>
        <time>2021-02-04T11:49:57.000Z</time>
      </trkpt>
      <trkpt lat="43.74555" lon="7.27644">
        <ele>190.80000305176</ele>
        <time>2021-02-04T11:49:58.000Z</time>
      </trkpt>
      <trkpt lat="43.74547" lon="7.27641">
        <ele>191.60000610352</ele>
        <time>2021-02-04T11:50:00.000Z</time>
      </trkpt>
      <trkpt lat="43.74538" lon="7.2763">
        <ele>192.60000610352</ele>
        <time>2021-02-04T11:50:03.000Z</time>
      </trkpt>
      <trkpt lat="43.74531" lon="7.27623">
        <ele>193.19999694824</ele>
        <time>2021-02-04T11:50:05.000Z</time>
      </trkpt>
      <trkpt lat="43.74519" lon="7.27623">
        <ele>193.80000305176</ele>
        <time>2021-02-04T11:50:08.000Z</time>
      </trkpt>
      <trkpt lat="43.74511" lon="7.27629">
        <ele>194</ele>
        <time>2021-02-04T11:50:10.000Z</time>
      </trkpt>
      <trkpt lat="43.745" lon="7.27637">
        <ele>194.39999389648</ele>
        <time>2021-02-04T11:50:13.000Z</time>
      </trkpt>
      <trkpt lat="43.74492" lon="7.27639">
        <ele>194.80000305176</ele>
        <time>2021-02-04T11:50:15.000Z</time>
      </trkpt>
      <trkpt lat="43.74488" lon="7.27641">
        <ele>194.80000305176</ele>
        <time>2021-02-04T11:50:16.000Z</time>
      </trkpt>
      <trkpt lat="43.74483" lon="7.27647">
        <ele>195.39999389648</ele>
        <time>2021-02-04T11:50:18.000Z</time>
      </trkpt>
      <trkpt lat="43.74482" lon="7.27651">
        <ele>195.80000305176</ele>
        <time>2021-02-04T11:50:19.000Z</time>
      </trkpt>
      <trkpt lat="43.74481" lon="7.2766">
        <ele>197.19999694824</ele>
        <time>2021-02-04T11:50:21.000Z</time>
      </trkpt>
      <trkpt lat="43.7448" lon="7.27665">
        <ele>197.80000305176</ele>
        <time>2021-02-04T11:50:22.000Z</time>
      </trkpt>
      <trkpt lat="43.7448" lon="7.27669">
        <ele>198.60000610352</ele>
        <time>2021-02-04T11:50:23.000Z</time>
      </trkpt>
      <trkpt lat="43.74481" lon="7.27677">
        <ele>199.60000610352</ele>
        <time>2021-02-04T11:50:25.000Z</time>
      </trkpt>
      <trkpt lat="43.74481" lon="7.27682">
        <ele>199.80000305176</ele>
        <time>2021-02-04T11:50:26.000Z</time>
      </trkpt>
      <trkpt lat="43.74478" lon="7.27697">
        <ele>200.60000610352</ele>
        <time>2021-02-04T11:50:29.000Z</time>
      </trkpt>
      <trkpt lat="43.74477" lon="7.27702">
        <ele>201</ele>
        <time>2021-02-04T11:50:30.000Z</time>
      </trkpt>
      <trkpt lat="43.74472" lon="7.27711">
        <ele>201.39999389648</ele>
        <time>2021-02-04T11:50:32.000Z</time>
      </trkpt>
      <trkpt lat="43.7447" lon="7.27713">
        <ele>201.80000305176</ele>
        <time>2021-02-04T11:50:33.000Z</time>
      </trkpt>
      <trkpt lat="43.74467" lon="7.27717">
        <ele>202</ele>
        <time>2021-02-04T11:50:34.000Z</time>
      </trkpt>
      <trkpt lat="43.74464" lon="7.27721">
        <ele>202.80000305176</ele>
        <time>2021-02-04T11:50:35.000Z</time>
      </trkpt>
      <trkpt lat="43.74457" lon="7.27726">
        <ele>204</ele>
        <time>2021-02-04T11:50:37.000Z</time>
      </trkpt>
      <trkpt lat="43.74451" lon="7.27728">
        <ele>205</ele>
        <time>2021-02-04T11:50:39.000Z</time>
      </trkpt>
      <trkpt lat="43.74448" lon="7.27727">
        <ele>205.60000610352</ele>
        <time>2021-02-04T11:50:40.000Z</time>
      </trkpt>
      <trkpt lat="43.74446" lon="7.2772">
        <ele>206.60000610352</ele>
        <time>2021-02-04T11:50:42.000Z</time>
      </trkpt>
      <trkpt lat="43.74445" lon="7.27714">
        <ele>207.60000610352</ele>
        <time>2021-02-04T11:50:44.000Z</time>
      </trkpt>
      <trkpt lat="43.74448" lon="7.27707">
        <ele>208.80000305176</ele>
        <time>2021-02-04T11:50:47.000Z</time>
      </trkpt>
      <trkpt lat="43.74449" lon="7.27702">
        <ele>209.60000610352</ele>
        <time>2021-02-04T11:50:49.000Z</time>
      </trkpt>
      <trkpt lat="43.74448" lon="7.277">
        <ele>210</ele>
        <time>2021-02-04T11:50:50.000Z</time>
      </trkpt>
      <trkpt lat="43.74446" lon="7.27697">
        <ele>211.19999694824</ele>
        <time>2021-02-04T11:50:52.000Z</time>
      </trkpt>
      <trkpt lat="43.74444" lon="7.27696">
        <ele>212</ele>
        <time>2021-02-04T11:50:53.000Z</time>
      </trkpt>
      <trkpt lat="43.74443" lon="7.27695">
        <ele>212.60000610352</ele>
        <time>2021-02-04T11:50:54.000Z</time>
      </trkpt>
      <trkpt lat="43.74439" lon="7.27692">
        <ele>214</ele>
        <time>2021-02-04T11:50:56.000Z</time>
      </trkpt>
      <trkpt lat="43.74435" lon="7.27689">
        <ele>215</ele>
        <time>2021-02-04T11:50:58.000Z</time>
      </trkpt>
      <trkpt lat="43.74433" lon="7.27685">
        <ele>216.39999389648</ele>
        <time>2021-02-04T11:51:00.000Z</time>
      </trkpt>
      <trkpt lat="43.7443" lon="7.27682">
        <ele>217.39999389648</ele>
        <time>2021-02-04T11:51:02.000Z</time>
      </trkpt>
      <trkpt lat="43.74426" lon="7.27678">
        <ele>218.39999389648</ele>
        <time>2021-02-04T11:51:04.000Z</time>
      </trkpt>
      <trkpt lat="43.74424" lon="7.27676">
        <ele>219</ele>
        <time>2021-02-04T11:51:05.000Z</time>
      </trkpt>
      <trkpt lat="43.74418" lon="7.27675">
        <ele>220</ele>
        <time>2021-02-04T11:51:08.000Z</time>
      </trkpt>
      <trkpt lat="43.74415" lon="7.27674">
        <ele>220.60000610352</ele>
        <time>2021-02-04T11:51:09.000Z</time>
      </trkpt>
      <trkpt lat="43.74412" lon="7.27673">
        <ele>221.19999694824</ele>
        <time>2021-02-04T11:51:10.000Z</time>
      </trkpt>
      <trkpt lat="43.74407" lon="7.27671">
        <ele>222.19999694824</ele>
        <time>2021-02-04T11:51:12.000Z</time>
      </trkpt>
      <trkpt lat="43.74398" lon="7.27668">
        <ele>223.39999389648</ele>
        <time>2021-02-04T11:51:15.000Z</time>
      </trkpt>
      <trkpt lat="43.74395" lon="7.27668">
        <ele>223.60000610352</ele>
        <time>2021-02-04T11:51:16.000Z</time>
      </trkpt>
      <trkpt lat="43.74378" lon="7.27665">
        <ele>224.39999389648</ele>
        <time>2021-02-04T11:51:21.000Z</time>
      </trkpt>
      <trkpt lat="43.7437" lon="7.27664">
        <ele>224.60000610352</ele>
        <time>2021-02-04T11:51:23.000Z</time>
      </trkpt>
      <trkpt lat="43.74353" lon="7.27664">
        <ele>225.39999389648</ele>
        <time>2021-02-04T11:51:28.000Z</time>
      </trkpt>
      <trkpt lat="43.74349" lon="7.27664">
        <ele>225.60000610352</ele>
        <time>2021-02-04T11:51:29.000Z</time>
      </trkpt>
      <trkpt lat="43.74336" lon="7.27665">
        <ele>226.60000610352</ele>
        <time>2021-02-04T11:51:33.000Z</time>
      </trkpt>
      <trkpt lat="43.7433" lon="7.27665">
        <ele>227.19999694824</ele>
        <time>2021-02-04T11:51:35.000Z</time>
      </trkpt>
      <trkpt lat="43.74327" lon="7.27665">
        <ele>227.60000610352</ele>
        <time>2021-02-04T11:51:36.000Z</time>
      </trkpt>
      <trkpt lat="43.74313" lon="7.27667">
        <ele>228.80000305176</ele>
        <time>2021-02-04T11:51:40.000Z</time>
      </trkpt>
      <trkpt lat="43.74298" lon="7.27671">
        <ele>230.19999694824</ele>
        <time>2021-02-04T11:51:45.000Z</time>
      </trkpt>
      <trkpt lat="43.74295" lon="7.27672">
        <ele>230.80000305176</ele>
        <time>2021-02-04T11:51:46.000Z</time>
      </trkpt>
      <trkpt lat="43.74293" lon="7.27673">
        <ele>231.60000610352</ele>
        <time>2021-02-04T11:51:47.000Z</time>
      </trkpt>
      <trkpt lat="43.74288" lon="7.27677">
        <ele>232.80000305176</ele>
        <time>2021-02-04T11:51:49.000Z</time>
      </trkpt>
      <trkpt lat="43.74283" lon="7.27681">
        <ele>233.39999389648</ele>
        <time>2021-02-04T11:51:51.000Z</time>
      </trkpt>
      <trkpt lat="43.74268" lon="7.27689">
        <ele>233.39999389648</ele>
        <time>2021-02-04T11:51:56.000Z</time>
      </trkpt>
      <trkpt lat="43.74256" lon="7.27685">
        <ele>232.60000610352</ele>
        <time>2021-02-04T11:52:01.000Z</time>
      </trkpt>
      <trkpt lat="43.74254" lon="7.27681">
        <ele>231.39999389648</ele>
        <time>2021-02-04T11:52:03.000Z</time>
      </trkpt>
      <trkpt lat="43.74255" lon="7.27677">
        <ele>230.19999694824</ele>
        <time>2021-02-04T11:52:05.000Z</time>
      </trkpt>
      <trkpt lat="43.74257" lon="7.27664">
        <ele>229.60000610352</ele>
        <time>2021-02-04T11:52:10.000Z</time>
      </trkpt>
      <trkpt lat="43.74259" lon="7.27658">
        <ele>229.60000610352</ele>
        <time>2021-02-04T11:52:12.000Z</time>
      </trkpt>
      <trkpt lat="43.74259" lon="7.27653">
        <ele>229.60000610352</ele>
        <time>2021-02-04T11:52:13.000Z</time>
      </trkpt>
      <trkpt lat="43.74259" lon="7.2765">
        <ele>229.80000305176</ele>
        <time>2021-02-04T11:52:14.000Z</time>
      </trkpt>
      <trkpt lat="43.74253" lon="7.27639">
        <ele>229.80000305176</ele>
        <time>2021-02-04T11:52:17.000Z</time>
      </trkpt>
      <trkpt lat="43.74242" lon="7.27638">
        <ele>229.60000610352</ele>
        <time>2021-02-04T11:52:20.000Z</time>
      </trkpt>
      <trkpt lat="43.7423" lon="7.27644">
        <ele>229.60000610352</ele>
        <time>2021-02-04T11:52:24.000Z</time>
      </trkpt>
      <trkpt lat="43.74214" lon="7.27645">
        <ele>229.80000305176</ele>
        <time>2021-02-04T11:52:28.000Z</time>
      </trkpt>
      <trkpt lat="43.74206" lon="7.2764">
        <ele>229.80000305176</ele>
        <time>2021-02-04T11:52:30.000Z</time>
      </trkpt>
      <trkpt lat="43.74198" lon="7.2764">
        <ele>230</ele>
        <time>2021-02-04T11:52:32.000Z</time>
      </trkpt>
      <trkpt lat="43.7419" lon="7.27651">
        <ele>230</ele>
        <time>2021-02-04T11:52:35.000Z</time>
      </trkpt>
      <trkpt lat="43.74192" lon="7.27664">
        <ele>229.19999694824</ele>
        <time>2021-02-04T11:52:38.000Z</time>
      </trkpt>
      <trkpt lat="43.74195" lon="7.27669">
        <ele>228.60000610352</ele>
        <time>2021-02-04T11:52:39.000Z</time>
      </trkpt>
      <trkpt lat="43.74203" lon="7.27672">
        <ele>226.19999694824</ele>
        <time>2021-02-04T11:52:41.000Z</time>
      </trkpt>
      <trkpt lat="43.74207" lon="7.27672">
        <ele>225</ele>
        <time>2021-02-04T11:52:42.000Z</time>
      </trkpt>
      <trkpt lat="43.74211" lon="7.2767">
        <ele>224</ele>
        <time>2021-02-04T11:52:43.000Z</time>
      </trkpt>
      <trkpt lat="43.74215" lon="7.27669">
        <ele>222.80000305176</ele>
        <time>2021-02-04T11:52:44.000Z</time>
      </trkpt>
      <trkpt lat="43.74223" lon="7.27667">
        <ele>222.19999694824</ele>
        <time>2021-02-04T11:52:46.000Z</time>
      </trkpt>
      <trkpt lat="43.74237" lon="7.27668">
        <ele>222.39999389648</ele>
        <time>2021-02-04T11:52:50.000Z</time>
      </trkpt>
      <trkpt lat="43.74238" lon="7.27668">
        <ele>222.39999389648</ele>
        <time>2021-02-04T11:52:51.000Z</time>
      </trkpt>
      <trkpt lat="43.74239" lon="7.27667">
        <ele>222.80000305176</ele>
        <time>2021-02-04T11:52:55.000Z</time>
      </trkpt>
      <trkpt lat="43.7424" lon="7.27668">
        <ele>223.19999694824</ele>
        <time>2021-02-04T11:53:07.000Z</time>
      </trkpt>
      <trkpt lat="43.74241" lon="7.27669">
        <ele>223</ele>
        <time>2021-02-04T11:53:19.000Z</time>
      </trkpt>
      <trkpt lat="43.74241" lon="7.2767">
        <ele>223</ele>
        <time>2021-02-04T11:53:26.000Z</time>
      </trkpt>
    </trkseg>
  </trk>
</gpx>